<?xml version="1.0" encoding="UTF-8"?>
<gpx creator="Garmin Connect" version="1.1"
  xsi:schemaLocation="http://www.topografix.com/GPX/1/1 http://www.topografix.com/GPX/11.xsd"
  xmlns:ns3="http://www.garmin.com/xmlschemas/TrackPointExtension/v1"
  xmlns="http://www.topografix.com/GPX/1/1"
  xmlns:xsi="http://www.w3.org/2001/XMLSchema-instance" xmlns:ns2="http://www.garmin.com/xmlschemas/GpxExtensions/v3">
  <metadata>
    <name>Arden Challenge EREZEE MASTERS</name>
    <link href="connect.garmin.com">
      <text>Garmin Connect</text>
    </link>
    <time>2021-07-27T13:05:45.000Z</time>
  </metadata>
  <trk>
    <name>Arden Challenge EREZEE MASTERS</name>
    <trkseg>
      <trkpt lat="50.29201623983681" lon="5.558630581945181">
        <ele>330.48</ele>
        <time>2021-07-27T13:05:45.000Z</time>
      </trkpt>
      <trkpt lat="50.29188045300543" lon="5.5587278958410025">
        <ele>329.89</ele>
        <time>2021-07-27T13:05:45.002Z</time>
      </trkpt>
      <trkpt lat="50.290454691275954" lon="5.558931659907103">
        <ele>328.91</ele>
        <time>2021-07-27T13:05:45.027Z</time>
      </trkpt>
      <trkpt lat="50.290454691275954" lon="5.558931743726134">
        <ele>328.03</ele>
        <time>2021-07-27T13:05:45.052Z</time>
      </trkpt>
      <trkpt lat="50.29045485891402" lon="5.558931743726134">
        <ele>327.13</ele>
        <time>2021-07-27T13:05:45.077Z</time>
      </trkpt>
      <trkpt lat="50.29045502655208" lon="5.558931743726134">
        <ele>326.24</ele>
        <time>2021-07-27T13:05:45.102Z</time>
      </trkpt>
      <trkpt lat="50.29045335017145" lon="5.558931827545166">
        <ele>325.37</ele>
        <time>2021-07-27T13:05:45.127Z</time>
      </trkpt>
      <trkpt lat="50.29020667076111" lon="5.559017574414611">
        <ele>324.4</ele>
        <time>2021-07-27T13:05:45.156Z</time>
      </trkpt>
      <trkpt lat="50.29000282287598" lon="5.559285879135132">
        <ele>323.37</ele>
        <time>2021-07-27T13:05:45.190Z</time>
      </trkpt>
      <trkpt lat="50.28985253535211" lon="5.559629201889038">
        <ele>322.41</ele>
        <time>2021-07-27T13:05:45.228Z</time>
      </trkpt>
      <trkpt lat="50.28978816233575" lon="5.559918796643615">
        <ele>321.39</ele>
        <time>2021-07-27T13:05:45.269Z</time>
      </trkpt>
      <trkpt lat="50.28958439826965" lon="5.56233286857605">
        <ele>319.8</ele>
        <time>2021-07-27T13:05:45.335Z</time>
      </trkpt>
      <trkpt lat="50.289584482088685" lon="5.56233286857605">
        <ele>318.56</ele>
        <time>2021-07-27T13:05:45.401Z</time>
      </trkpt>
      <trkpt lat="50.289530754089355" lon="5.562901496887207">
        <ele>317.44</ele>
        <time>2021-07-27T13:05:45.473Z</time>
      </trkpt>
      <trkpt lat="50.28953083790839" lon="5.563126718625426">
        <ele>316.35</ele>
        <time>2021-07-27T13:05:45.547Z</time>
      </trkpt>
      <trkpt lat="50.289520025253296" lon="5.563352024182677">
        <ele>315.32</ele>
        <time>2021-07-27T13:05:45.624Z</time>
      </trkpt>
      <trkpt lat="50.289541482925415" lon="5.563867008313537">
        <ele>314.39</ele>
        <time>2021-07-27T13:05:45.706Z</time>
      </trkpt>
      <trkpt lat="50.28967936523259" lon="5.5647228844463825">
        <ele>313.46</ele>
        <time>2021-07-27T13:05:45.797Z</time>
      </trkpt>
      <trkpt lat="50.28967944905162" lon="5.564723219722509">
        <ele>312.56</ele>
        <time>2021-07-27T13:05:45.888Z</time>
      </trkpt>
      <trkpt lat="50.28967919759452" lon="5.56472129188478">
        <ele>311.69</ele>
        <time>2021-07-27T13:05:45.979Z</time>
      </trkpt>
      <trkpt lat="50.289679281413555" lon="5.564721375703812">
        <ele>310.84</ele>
        <time>2021-07-27T13:05:46.070Z</time>
      </trkpt>
      <trkpt lat="50.28991707600653" lon="5.566195249557495">
        <ele>309.8</ele>
        <time>2021-07-27T13:05:46.177Z</time>
      </trkpt>
      <trkpt lat="50.28993844985962" lon="5.566377555951476">
        <ele>308.94</ele>
        <time>2021-07-27T13:05:46.285Z</time>
      </trkpt>
      <trkpt lat="50.28993853367865" lon="5.566377555951476">
        <ele>308.07</ele>
        <time>2021-07-27T13:05:46.393Z</time>
      </trkpt>
      <trkpt lat="50.29019594192505" lon="5.567901050671935">
        <ele>307.13</ele>
        <time>2021-07-27T13:05:46.518Z</time>
      </trkpt>
      <trkpt lat="50.29041051864624" lon="5.5693387147039175">
        <ele>305.92</ele>
        <time>2021-07-27T13:05:46.658Z</time>
      </trkpt>
      <trkpt lat="50.29043197631836" lon="5.56977859698236">
        <ele>304.85</ele>
        <time>2021-07-27T13:05:46.802Z</time>
      </trkpt>
      <trkpt lat="50.29041051864624" lon="5.570079004392028">
        <ele>303.85</ele>
        <time>2021-07-27T13:05:46.949Z</time>
      </trkpt>
      <trkpt lat="50.290367603302" lon="5.570315038785338">
        <ele>302.9</ele>
        <time>2021-07-27T13:05:47.099Z</time>
      </trkpt>
      <trkpt lat="50.290281688794494" lon="5.570615446195006">
        <ele>302.0</ele>
        <time>2021-07-27T13:05:47.252Z</time>
      </trkpt>
      <trkpt lat="50.29014221392572" lon="5.570948040112853">
        <ele>301.06</ele>
        <time>2021-07-27T13:05:47.409Z</time>
      </trkpt>
      <trkpt lat="50.289369905367494" lon="5.572417890653014">
        <ele>300.02</ele>
        <time>2021-07-27T13:05:47.586Z</time>
      </trkpt>
      <trkpt lat="50.28917670249939" lon="5.57277194224298">
        <ele>299.22</ele>
        <time>2021-07-27T13:05:47.768Z</time>
      </trkpt>
      <trkpt lat="50.289004957303405" lon="5.573136806488037">
        <ele>298.45</ele>
        <time>2021-07-27T13:05:47.954Z</time>
      </trkpt>
      <trkpt lat="50.2889084815979" lon="5.573469400405884">
        <ele>297.85</ele>
        <time>2021-07-27T13:05:48.144Z</time>
      </trkpt>
      <trkpt lat="50.2888548374176" lon="5.573737621307373">
        <ele>297.38</ele>
        <time>2021-07-27T13:05:48.337Z</time>
      </trkpt>
      <trkpt lat="50.288801193237305" lon="5.574520826339722">
        <ele>296.97</ele>
        <time>2021-07-27T13:05:48.538Z</time>
      </trkpt>
      <trkpt lat="50.28881183825433" lon="5.575346946716309">
        <ele>296.81</ele>
        <time>2021-07-27T13:05:48.748Z</time>
      </trkpt>
      <trkpt lat="50.28888702392578" lon="5.577610647305846">
        <ele>297.29</ele>
        <time>2021-07-27T13:05:48.981Z</time>
      </trkpt>
      <trkpt lat="50.28889758512378" lon="5.579190384596586">
        <ele>297.73</ele>
        <time>2021-07-27T13:05:49.230Z</time>
      </trkpt>
      <trkpt lat="50.28889766894281" lon="5.579194910824299">
        <ele>298.13</ele>
        <time>2021-07-27T13:05:49.479Z</time>
      </trkpt>
      <trkpt lat="50.28889766894281" lon="5.5791908875107765">
        <ele>298.61</ele>
        <time>2021-07-27T13:05:49.728Z</time>
      </trkpt>
      <trkpt lat="50.28889766894281" lon="5.5791867803782225">
        <ele>299.18</ele>
        <time>2021-07-27T13:05:49.977Z</time>
      </trkpt>
      <trkpt lat="50.28889766894281" lon="5.579186948016286">
        <ele>299.83</ele>
        <time>2021-07-27T13:05:50.226Z</time>
      </trkpt>
      <trkpt lat="50.2889084815979" lon="5.580786466598511">
        <ele>300.72</ele>
        <time>2021-07-27T13:05:50.492Z</time>
      </trkpt>
      <trkpt lat="50.28892985545099" lon="5.581151163205504">
        <ele>301.62</ele>
        <time>2021-07-27T13:05:50.761Z</time>
      </trkpt>
      <trkpt lat="50.288983499631286" lon="5.581601858139038">
        <ele>302.55</ele>
        <time>2021-07-27T13:05:51.035Z</time>
      </trkpt>
      <trkpt lat="50.28909078799188" lon="5.5820417404174805">
        <ele>303.52</ele>
        <time>2021-07-27T13:05:51.314Z</time>
      </trkpt>
      <trkpt lat="50.28972387313843" lon="5.583865642547607">
        <ele>304.45</ele>
        <time>2021-07-27T13:05:51.614Z</time>
      </trkpt>
      <trkpt lat="50.28972395695746" lon="5.583865642547607">
        <ele>305.54</ele>
        <time>2021-07-27T13:05:51.914Z</time>
      </trkpt>
      <trkpt lat="50.29161214828491" lon="5.589272892102599">
        <ele>306.44</ele>
        <time>2021-07-27T13:05:52.277Z</time>
      </trkpt>
      <trkpt lat="50.29164433479309" lon="5.589369535446167">
        <ele>307.6</ele>
        <time>2021-07-27T13:05:52.641Z</time>
      </trkpt>
      <trkpt lat="50.2918267250061" lon="5.589873706921935">
        <ele>308.81</ele>
        <time>2021-07-27T13:05:53.011Z</time>
      </trkpt>
      <trkpt lat="50.29221296310425" lon="5.590957319363952">
        <ele>310.41</ele>
        <time>2021-07-27T13:05:53.394Z</time>
      </trkpt>
      <trkpt lat="50.29265276156366" lon="5.592212593182921">
        <ele>312.1</ele>
        <time>2021-07-27T13:05:53.792Z</time>
      </trkpt>
      <trkpt lat="50.29272794723511" lon="5.592416524887085">
        <ele>313.8</ele>
        <time>2021-07-27T13:05:54.192Z</time>
      </trkpt>
      <trkpt lat="50.293049896135926" lon="5.593349849805236">
        <ele>315.59</ele>
        <time>2021-07-27T13:05:54.603Z</time>
      </trkpt>
      <trkpt lat="50.2930926438421" lon="5.593478679656982">
        <ele>317.46</ele>
        <time>2021-07-27T13:05:55.016Z</time>
      </trkpt>
      <trkpt lat="50.29339305125177" lon="5.594304716214538">
        <ele>319.48</ele>
        <time>2021-07-27T13:05:55.438Z</time>
      </trkpt>
      <trkpt lat="50.29406896792352" lon="5.59623590670526">
        <ele>321.9</ele>
        <time>2021-07-27T13:05:55.883Z</time>
      </trkpt>
      <trkpt lat="50.29445520602167" lon="5.597319602966309">
        <ele>324.5</ele>
        <time>2021-07-27T13:05:56.341Z</time>
      </trkpt>
      <trkpt lat="50.294476663693786" lon="5.597405349835753">
        <ele>326.94</ele>
        <time>2021-07-27T13:05:56.800Z</time>
      </trkpt>
      <trkpt lat="50.294863069429994" lon="5.598531877622008">
        <ele>330.17</ele>
        <time>2021-07-27T13:05:57.272Z</time>
      </trkpt>
      <trkpt lat="50.29487379826605" lon="5.598574876785278">
        <ele>332.84</ele>
        <time>2021-07-27T13:05:57.744Z</time>
      </trkpt>
      <trkpt lat="50.29494881629944" lon="5.598971843719482">
        <ele>335.68</ele>
        <time>2021-07-27T13:05:58.220Z</time>
      </trkpt>
      <trkpt lat="50.295023834332824" lon="5.5995190143585205">
        <ele>338.37</ele>
        <time>2021-07-27T13:05:58.702Z</time>
      </trkpt>
      <trkpt lat="50.295056188479066" lon="5.6000017281621695">
        <ele>341.03</ele>
        <time>2021-07-27T13:05:59.189Z</time>
      </trkpt>
      <trkpt lat="50.295066833496094" lon="5.600849390029907">
        <ele>343.87</ele>
        <time>2021-07-27T13:05:59.685Z</time>
      </trkpt>
      <trkpt lat="50.295023918151855" lon="5.601396560668945">
        <ele>346.63</ele>
        <time>2021-07-27T13:06:00.186Z</time>
      </trkpt>
      <trkpt lat="50.29491654597223" lon="5.602426445111632">
        <ele>349.59</ele>
        <time>2021-07-27T13:06:00.698Z</time>
      </trkpt>
      <trkpt lat="50.29489517211914" lon="5.60328483581543">
        <ele>352.48</ele>
        <time>2021-07-27T13:06:01.219Z</time>
      </trkpt>
      <trkpt lat="50.2949059009552" lon="5.60448638163507">
        <ele>355.27</ele>
        <time>2021-07-27T13:06:01.752Z</time>
      </trkpt>
      <trkpt lat="50.295023834332824" lon="5.605205213651061">
        <ele>358.1</ele>
        <time>2021-07-27T13:06:02.293Z</time>
      </trkpt>
      <trkpt lat="50.295257521793246" lon="5.605833604931831">
        <ele>360.98</ele>
        <time>2021-07-27T13:06:02.841Z</time>
      </trkpt>
      <trkpt lat="50.2952616289258" lon="5.605844501405954">
        <ele>363.63</ele>
        <time>2021-07-27T13:06:03.390Z</time>
      </trkpt>
      <trkpt lat="50.29526120983064" lon="5.60584332793951">
        <ele>366.23</ele>
        <time>2021-07-27T13:06:03.939Z</time>
      </trkpt>
      <trkpt lat="50.295260874554515" lon="5.60584232211113">
        <ele>368.78</ele>
        <time>2021-07-27T13:06:04.488Z</time>
      </trkpt>
      <trkpt lat="50.29526095837355" lon="5.605842489749193">
        <ele>371.3</ele>
        <time>2021-07-27T13:06:05.037Z</time>
      </trkpt>
      <trkpt lat="50.29553881846368" lon="5.606589233502746">
        <ele>374.18</ele>
        <time>2021-07-27T13:06:05.594Z</time>
      </trkpt>
      <trkpt lat="50.29590368270874" lon="5.607458269223571">
        <ele>376.95</ele>
        <time>2021-07-27T13:06:06.162Z</time>
      </trkpt>
      <trkpt lat="50.29610744677484" lon="5.608069896697998">
        <ele>379.77</ele>
        <time>2021-07-27T13:06:06.737Z</time>
      </trkpt>
      <trkpt lat="50.29612898826599" lon="5.608649253845215">
        <ele>382.31</ele>
        <time>2021-07-27T13:06:07.318Z</time>
      </trkpt>
      <trkpt lat="50.296214735135436" lon="5.6094324588775635">
        <ele>384.88</ele>
        <time>2021-07-27T13:06:07.907Z</time>
      </trkpt>
      <trkpt lat="50.29621481895447" lon="5.6094324588775635">
        <ele>387.36</ele>
        <time>2021-07-27T13:06:08.496Z</time>
      </trkpt>
      <trkpt lat="50.29624700546265" lon="5.609550392255187">
        <ele>389.85</ele>
        <time>2021-07-27T13:06:09.087Z</time>
      </trkpt>
      <trkpt lat="50.29645085334778" lon="5.6103551387786865">
        <ele>392.36</ele>
        <time>2021-07-27T13:06:09.686Z</time>
      </trkpt>
      <trkpt lat="50.296772718429565" lon="5.611374294385314">
        <ele>395.04</ele>
        <time>2021-07-27T13:06:10.297Z</time>
      </trkpt>
      <trkpt lat="50.297019481658936" lon="5.612243413925171">
        <ele>397.55</ele>
        <time>2021-07-27T13:06:10.918Z</time>
      </trkpt>
      <trkpt lat="50.297051668167114" lon="5.612940788269043">
        <ele>400.1</ele>
        <time>2021-07-27T13:06:11.546Z</time>
      </trkpt>
      <trkpt lat="50.297051668167114" lon="5.613681077957153">
        <ele>402.62</ele>
        <time>2021-07-27T13:06:12.182Z</time>
      </trkpt>
      <trkpt lat="50.2973735332489" lon="5.615483522415161">
        <ele>405.41</ele>
        <time>2021-07-27T13:06:12.837Z</time>
      </trkpt>
      <trkpt lat="50.2976309414953" lon="5.616491949185729">
        <ele>408.04</ele>
        <time>2021-07-27T13:06:13.503Z</time>
      </trkpt>
      <trkpt lat="50.29788851737976" lon="5.618423223495483">
        <ele>411.23</ele>
        <time>2021-07-27T13:06:14.189Z</time>
      </trkpt>
      <trkpt lat="50.29787770472467" lon="5.618777275085449">
        <ele>413.71</ele>
        <time>2021-07-27T13:06:14.879Z</time>
      </trkpt>
      <trkpt lat="50.297770416364074" lon="5.61901330947876">
        <ele>416.04</ele>
        <time>2021-07-27T13:06:15.572Z</time>
      </trkpt>
      <trkpt lat="50.297770500183105" lon="5.61901330947876">
        <ele>418.48</ele>
        <time>2021-07-27T13:06:16.265Z</time>
      </trkpt>
      <trkpt lat="50.29739490710199" lon="5.619882345199585">
        <ele>420.78</ele>
        <time>2021-07-27T13:06:16.969Z</time>
      </trkpt>
      <trkpt lat="50.29727688990533" lon="5.620279228314757">
        <ele>423.3</ele>
        <time>2021-07-27T13:06:17.677Z</time>
      </trkpt>
      <trkpt lat="50.29720178805292" lon="5.620976686477661">
        <ele>426.0</ele>
        <time>2021-07-27T13:06:18.392Z</time>
      </trkpt>
      <trkpt lat="50.29721260070801" lon="5.6214486714452505">
        <ele>428.56</ele>
        <time>2021-07-27T13:06:19.112Z</time>
      </trkpt>
      <trkpt lat="50.29713749885559" lon="5.621695434674621">
        <ele>431.0</ele>
        <time>2021-07-27T13:06:19.835Z</time>
      </trkpt>
      <trkpt lat="50.297051668167114" lon="5.621856367215514">
        <ele>433.43</ele>
        <time>2021-07-27T13:06:20.560Z</time>
      </trkpt>
      <trkpt lat="50.296525871381164" lon="5.622446537017822">
        <ele>435.89</ele>
        <time>2021-07-27T13:06:21.295Z</time>
      </trkpt>
      <trkpt lat="50.296010971069336" lon="5.622982895001769">
        <ele>438.32</ele>
        <time>2021-07-27T13:06:22.040Z</time>
      </trkpt>
      <trkpt lat="50.29585003852844" lon="5.623369216918945">
        <ele>440.74</ele>
        <time>2021-07-27T13:06:22.790Z</time>
      </trkpt>
      <trkpt lat="50.295796394348145" lon="5.623530149459839">
        <ele>443.05</ele>
        <time>2021-07-27T13:06:23.542Z</time>
      </trkpt>
      <trkpt lat="50.29568910598755" lon="5.623970031738281">
        <ele>445.4</ele>
        <time>2021-07-27T13:06:24.299Z</time>
      </trkpt>
      <trkpt lat="50.29561400413513" lon="5.624731779098511">
        <ele>447.91</ele>
        <time>2021-07-27T13:06:25.064Z</time>
      </trkpt>
      <trkpt lat="50.29569975100458" lon="5.625547170639038">
        <ele>450.4</ele>
        <time>2021-07-27T13:06:25.837Z</time>
      </trkpt>
      <trkpt lat="50.29569983482361" lon="5.626201629638672">
        <ele>452.64</ele>
        <time>2021-07-27T13:06:26.617Z</time>
      </trkpt>
      <trkpt lat="50.295731937512755" lon="5.626780986785889">
        <ele>454.75</ele>
        <time>2021-07-27T13:06:27.403Z</time>
      </trkpt>
      <trkpt lat="50.295774936676025" lon="5.627081394195557">
        <ele>456.85</ele>
        <time>2021-07-27T13:06:28.192Z</time>
      </trkpt>
      <trkpt lat="50.296021699905396" lon="5.628272294998169">
        <ele>459.29</ele>
        <time>2021-07-27T13:06:28.994Z</time>
      </trkpt>
      <trkpt lat="50.29648303985596" lon="5.629345094785094">
        <ele>461.82</ele>
        <time>2021-07-27T13:06:29.809Z</time>
      </trkpt>
      <trkpt lat="50.296708261594176" lon="5.629860078915954">
        <ele>464.05</ele>
        <time>2021-07-27T13:06:30.631Z</time>
      </trkpt>
      <trkpt lat="50.296740448102355" lon="5.630053197965026">
        <ele>465.99</ele>
        <time>2021-07-27T13:06:31.455Z</time>
      </trkpt>
      <trkpt lat="50.296751260757446" lon="5.630332147702575">
        <ele>467.8</ele>
        <time>2021-07-27T13:06:32.281Z</time>
      </trkpt>
      <trkpt lat="50.29672980308533" lon="5.630611181259155">
        <ele>469.51</ele>
        <time>2021-07-27T13:06:33.110Z</time>
      </trkpt>
      <trkpt lat="50.29667615890503" lon="5.630772029981017">
        <ele>471.08</ele>
        <time>2021-07-27T13:06:33.941Z</time>
      </trkpt>
      <trkpt lat="50.29660097323358" lon="5.6310296058654785">
        <ele>472.5</ele>
        <time>2021-07-27T13:06:34.775Z</time>
      </trkpt>
      <trkpt lat="50.29640785418451" lon="5.631544589996338">
        <ele>473.87</ele>
        <time>2021-07-27T13:06:35.615Z</time>
      </trkpt>
      <trkpt lat="50.29627910815179" lon="5.632048761472106">
        <ele>475.15</ele>
        <time>2021-07-27T13:06:36.461Z</time>
      </trkpt>
      <trkpt lat="50.296225463971496" lon="5.632370626553893">
        <ele>476.35</ele>
        <time>2021-07-27T13:06:37.310Z</time>
      </trkpt>
      <trkpt lat="50.29620409011841" lon="5.632724678143859">
        <ele>477.45</ele>
        <time>2021-07-27T13:06:38.163Z</time>
      </trkpt>
      <trkpt lat="50.2961718197912" lon="5.633346950635314">
        <ele>478.38</ele>
        <time>2021-07-27T13:06:39.022Z</time>
      </trkpt>
      <trkpt lat="50.29610744677484" lon="5.633668899536133">
        <ele>479.26</ele>
        <time>2021-07-27T13:06:39.885Z</time>
      </trkpt>
      <trkpt lat="50.29593586921692" lon="5.634183883666992">
        <ele>480.09</ele>
        <time>2021-07-27T13:06:40.754Z</time>
      </trkpt>
      <trkpt lat="50.29588222503662" lon="5.634548580273986">
        <ele>480.8</ele>
        <time>2021-07-27T13:06:41.627Z</time>
      </trkpt>
      <trkpt lat="50.29587141238153" lon="5.6349562760442495">
        <ele>481.34</ele>
        <time>2021-07-27T13:06:42.504Z</time>
      </trkpt>
      <trkpt lat="50.29594651423395" lon="5.635535633191466">
        <ele>481.77</ele>
        <time>2021-07-27T13:06:43.387Z</time>
      </trkpt>
      <trkpt lat="50.29603234492242" lon="5.635996973142028">
        <ele>482.33</ele>
        <time>2021-07-27T13:06:44.275Z</time>
      </trkpt>
      <trkpt lat="50.296257734298706" lon="5.63695183955133">
        <ele>483.17</ele>
        <time>2021-07-27T13:06:45.173Z</time>
      </trkpt>
      <trkpt lat="50.29630056582391" lon="5.637166416272521">
        <ele>483.61</ele>
        <time>2021-07-27T13:06:46.073Z</time>
      </trkpt>
      <trkpt lat="50.29639720916748" lon="5.6383466720581055">
        <ele>484.11</ele>
        <time>2021-07-27T13:06:46.986Z</time>
      </trkpt>
      <trkpt lat="50.29645085334778" lon="5.638775741681457">
        <ele>484.42</ele>
        <time>2021-07-27T13:06:47.903Z</time>
      </trkpt>
      <trkpt lat="50.29657951556146" lon="5.639387369155884">
        <ele>484.65</ele>
        <time>2021-07-27T13:06:48.827Z</time>
      </trkpt>
      <trkpt lat="50.29669761657715" lon="5.639805709943175">
        <ele>484.81</ele>
        <time>2021-07-27T13:06:49.755Z</time>
      </trkpt>
      <trkpt lat="50.297008669003844" lon="5.640481626614928">
        <ele>484.67</ele>
        <time>2021-07-27T13:06:50.692Z</time>
      </trkpt>
      <trkpt lat="50.29714814387262" lon="5.640749931335449">
        <ele>484.59</ele>
        <time>2021-07-27T13:06:51.633Z</time>
      </trkpt>
      <trkpt lat="50.297566736117005" lon="5.641329204663634">
        <ele>484.54</ele>
        <time>2021-07-27T13:06:52.582Z</time>
      </trkpt>
      <trkpt lat="50.29783487319946" lon="5.641661798581481">
        <ele>484.51</ele>
        <time>2021-07-27T13:06:53.537Z</time>
      </trkpt>
      <trkpt lat="50.29793134890497" lon="5.6418657302856445">
        <ele>484.45</ele>
        <time>2021-07-27T13:06:54.495Z</time>
      </trkpt>
      <trkpt lat="50.297984993085265" lon="5.642015850171447">
        <ele>484.36</ele>
        <time>2021-07-27T13:06:55.454Z</time>
      </trkpt>
      <trkpt lat="50.298027992248535" lon="5.6422412395477295">
        <ele>484.26</ele>
        <time>2021-07-27T13:06:56.416Z</time>
      </trkpt>
      <trkpt lat="50.29807082377374" lon="5.642766868695617">
        <ele>484.12</ele>
        <time>2021-07-27T13:06:57.383Z</time>
      </trkpt>
      <trkpt lat="50.29808163642883" lon="5.643024360761046">
        <ele>483.97</ele>
        <time>2021-07-27T13:06:58.353Z</time>
      </trkpt>
      <trkpt lat="50.29803863726556" lon="5.643711090087891">
        <ele>483.83</ele>
        <time>2021-07-27T13:06:59.330Z</time>
      </trkpt>
      <trkpt lat="50.29797434806824" lon="5.644129430875182">
        <ele>483.52</ele>
        <time>2021-07-27T13:07:00.311Z</time>
      </trkpt>
      <trkpt lat="50.29788851737976" lon="5.6444942113012075">
        <ele>483.22</ele>
        <time>2021-07-27T13:07:01.296Z</time>
      </trkpt>
      <trkpt lat="50.297791957855225" lon="5.644805431365967">
        <ele>482.97</ele>
        <time>2021-07-27T13:07:02.285Z</time>
      </trkpt>
      <trkpt lat="50.29770612716675" lon="5.645030653104186">
        <ele>482.62</ele>
        <time>2021-07-27T13:07:03.277Z</time>
      </trkpt>
      <trkpt lat="50.297545194625854" lon="5.645298874005675">
        <ele>482.29</ele>
        <time>2021-07-27T13:07:04.272Z</time>
      </trkpt>
      <trkpt lat="50.29743790626526" lon="5.645416891202331">
        <ele>481.89</ele>
        <time>2021-07-27T13:07:05.269Z</time>
      </trkpt>
      <trkpt lat="50.29723414219916" lon="5.645567178726196">
        <ele>481.45</ele>
        <time>2021-07-27T13:07:06.270Z</time>
      </trkpt>
      <trkpt lat="50.29682636260986" lon="5.645867586135864">
        <ele>481.14</ele>
        <time>2021-07-27T13:07:07.278Z</time>
      </trkpt>
      <trkpt lat="50.29660097323358" lon="5.6461358070373535">
        <ele>480.74</ele>
        <time>2021-07-27T13:07:08.291Z</time>
      </trkpt>
      <trkpt lat="50.29634356498718" lon="5.646479045972228">
        <ele>480.25</ele>
        <time>2021-07-27T13:07:09.309Z</time>
      </trkpt>
      <trkpt lat="50.29617198742926" lon="5.6467366218566895">
        <ele>479.54</ele>
        <time>2021-07-27T13:07:10.331Z</time>
      </trkpt>
      <trkpt lat="50.296043241396546" lon="5.646961843594909">
        <ele>478.73</ele>
        <time>2021-07-27T13:07:11.356Z</time>
      </trkpt>
      <trkpt lat="50.295753395184875" lon="5.647476827725768">
        <ele>477.76</ele>
        <time>2021-07-27T13:07:12.388Z</time>
      </trkpt>
      <trkpt lat="50.29534569941461" lon="5.6480348110198975">
        <ele>476.59</ele>
        <time>2021-07-27T13:07:13.429Z</time>
      </trkpt>
      <trkpt lat="50.29493800364435" lon="5.648410236462951">
        <ele>475.42</ele>
        <time>2021-07-27T13:07:14.477Z</time>
      </trkpt>
      <trkpt lat="50.29446409083903" lon="5.648715505376458">
        <ele>474.17</ele>
        <time>2021-07-27T13:07:15.534Z</time>
      </trkpt>
      <trkpt lat="50.294455122202635" lon="5.648721372708678">
        <ele>472.96</ele>
        <time>2021-07-27T13:07:16.591Z</time>
      </trkpt>
      <trkpt lat="50.29445520602167" lon="5.648721372708678">
        <ele>471.68</ele>
        <time>2021-07-27T13:07:17.648Z</time>
      </trkpt>
      <trkpt lat="50.29445520602167" lon="5.64872145652771">
        <ele>470.33</ele>
        <time>2021-07-27T13:07:18.705Z</time>
      </trkpt>
      <trkpt lat="50.29445537365973" lon="5.64872145652771">
        <ele>468.91</ele>
        <time>2021-07-27T13:07:19.762Z</time>
      </trkpt>
      <trkpt lat="50.29445520602167" lon="5.64872145652771">
        <ele>470.33</ele>
        <time>2021-07-27T13:07:20.819Z</time>
      </trkpt>
      <trkpt lat="50.29445537365973" lon="5.64872145652771">
        <ele>468.91</ele>
        <time>2021-07-27T13:07:21.876Z</time>
      </trkpt>
      <trkpt lat="50.294026136398315" lon="5.649054050445557">
        <ele>464.03</ele>
        <time>2021-07-27T13:07:22.940Z</time>
      </trkpt>
      <trkpt lat="50.293264389038086" lon="5.649858629330993">
        <ele>462.12</ele>
        <time>2021-07-27T13:07:24.019Z</time>
      </trkpt>
      <trkpt lat="50.29266365803778" lon="5.650716936215758">
        <ele>460.15</ele>
        <time>2021-07-27T13:07:25.111Z</time>
      </trkpt>
      <trkpt lat="50.29259911738336" lon="5.650824308395386">
        <ele>458.41</ele>
        <time>2021-07-27T13:07:26.205Z</time>
      </trkpt>
      <trkpt lat="50.29259920120239" lon="5.650824308395386">
        <ele>456.65</ele>
        <time>2021-07-27T13:07:27.299Z</time>
      </trkpt>
      <trkpt lat="50.29238454066217" lon="5.651156818494201">
        <ele>454.9</ele>
        <time>2021-07-27T13:07:28.398Z</time>
      </trkpt>
      <trkpt lat="50.2918267250061" lon="5.65220832824707">
        <ele>452.84</ele>
        <time>2021-07-27T13:07:29.511Z</time>
      </trkpt>
      <trkpt lat="50.29156914912164" lon="5.6527769565582275">
        <ele>450.98</ele>
        <time>2021-07-27T13:07:30.631Z</time>
      </trkpt>
      <trkpt lat="50.29135465621948" lon="5.653313314542174">
        <ele>449.09</ele>
        <time>2021-07-27T13:07:31.757Z</time>
      </trkpt>
      <trkpt lat="50.29117226600647" lon="5.653903400525451">
        <ele>447.28</ele>
        <time>2021-07-27T13:07:32.890Z</time>
      </trkpt>
      <trkpt lat="50.291011333465576" lon="5.65447211265564">
        <ele>445.5</ele>
        <time>2021-07-27T13:07:34.029Z</time>
      </trkpt>
      <trkpt lat="50.2908718585968" lon="5.655072843655944">
        <ele>443.82</ele>
        <time>2021-07-27T13:07:35.175Z</time>
      </trkpt>
      <trkpt lat="50.290775215253234" lon="5.655587911605835">
        <ele>442.13</ele>
        <time>2021-07-27T13:07:36.326Z</time>
      </trkpt>
      <trkpt lat="50.290775299072266" lon="5.655587911605835">
        <ele>440.5</ele>
        <time>2021-07-27T13:07:37.477Z</time>
      </trkpt>
      <trkpt lat="50.290764570236206" lon="5.655663013458252">
        <ele>438.9</ele>
        <time>2021-07-27T13:07:38.629Z</time>
      </trkpt>
      <trkpt lat="50.29076465405524" lon="5.655663013458252">
        <ele>437.37</ele>
        <time>2021-07-27T13:07:39.781Z</time>
      </trkpt>
      <trkpt lat="50.290528452023864" lon="5.657089864835143">
        <ele>435.73</ele>
        <time>2021-07-27T13:07:40.948Z</time>
      </trkpt>
      <trkpt lat="50.290528535842896" lon="5.657089864835143">
        <ele>434.32</ele>
        <time>2021-07-27T13:07:42.115Z</time>
      </trkpt>
      <trkpt lat="50.290474807843566" lon="5.65770149230957">
        <ele>432.98</ele>
        <time>2021-07-27T13:07:43.289Z</time>
      </trkpt>
      <trkpt lat="50.29045351780951" lon="5.658205663785338">
        <ele>431.75</ele>
        <time>2021-07-27T13:07:44.468Z</time>
      </trkpt>
      <trkpt lat="50.29045335017145" lon="5.658870851621032">
        <ele>430.48</ele>
        <time>2021-07-27T13:07:45.654Z</time>
      </trkpt>
      <trkpt lat="50.29049634933472" lon="5.659536123275757">
        <ele>429.2</ele>
        <time>2021-07-27T13:07:46.847Z</time>
      </trkpt>
      <trkpt lat="50.290506994351745" lon="5.65965405665338">
        <ele>428.14</ele>
        <time>2021-07-27T13:07:48.041Z</time>
      </trkpt>
      <trkpt lat="50.29045335017145" lon="5.6596755143254995">
        <ele>427.21</ele>
        <time>2021-07-27T13:07:49.236Z</time>
      </trkpt>
      <trkpt lat="50.29042116366327" lon="5.659750699996948">
        <ele>426.36</ele>
        <time>2021-07-27T13:07:50.432Z</time>
      </trkpt>
      <trkpt lat="50.29043197631836" lon="5.659847175702453">
        <ele>425.59</ele>
        <time>2021-07-27T13:07:51.629Z</time>
      </trkpt>
      <trkpt lat="50.29046424664557" lon="5.659911632537842">
        <ele>424.93</ele>
        <time>2021-07-27T13:07:52.826Z</time>
      </trkpt>
      <trkpt lat="50.29046416282654" lon="5.659911632537842">
        <ele>424.4</ele>
        <time>2021-07-27T13:07:54.023Z</time>
      </trkpt>
      <trkpt lat="50.290539264678955" lon="5.65992227755487">
        <ele>423.97</ele>
        <time>2021-07-27T13:07:55.222Z</time>
      </trkpt>
      <trkpt lat="50.29058209620416" lon="5.660254871472716">
        <ele>423.61</ele>
        <time>2021-07-27T13:07:56.424Z</time>
      </trkpt>
      <trkpt lat="50.29058218002319" lon="5.660254871472716">
        <ele>423.44</ele>
        <time>2021-07-27T13:07:57.626Z</time>
      </trkpt>
      <trkpt lat="50.2910756226629" lon="5.664567947387695">
        <ele>422.9</ele>
        <time>2021-07-27T13:07:58.873Z</time>
      </trkpt>
      <trkpt lat="50.29119380749762" lon="5.665533458814025">
        <ele>423.0</ele>
        <time>2021-07-27T13:08:00.130Z</time>
      </trkpt>
      <trkpt lat="50.29124736785889" lon="5.666026985272765">
        <ele>423.25</ele>
        <time>2021-07-27T13:08:01.392Z</time>
      </trkpt>
      <trkpt lat="50.29155632480979" lon="5.668686646968126">
        <ele>423.78</ele>
        <time>2021-07-27T13:08:02.682Z</time>
      </trkpt>
      <trkpt lat="50.29155816882849" lon="5.6687019020318985">
        <ele>424.3</ele>
        <time>2021-07-27T13:08:03.972Z</time>
      </trkpt>
      <trkpt lat="50.2915574144572" lon="5.668694861233234">
        <ele>424.96</ele>
        <time>2021-07-27T13:08:05.262Z</time>
      </trkpt>
      <trkpt lat="50.29155674390495" lon="5.668688826262951">
        <ele>425.77</ele>
        <time>2021-07-27T13:08:06.552Z</time>
      </trkpt>
      <trkpt lat="50.29155674390495" lon="5.668688910081983">
        <ele>426.71</ele>
        <time>2021-07-27T13:08:07.842Z</time>
      </trkpt>
      <trkpt lat="50.29197701252997" lon="5.6723034381866455">
        <ele>428.15</ele>
        <time>2021-07-27T13:08:09.170Z</time>
      </trkpt>
      <trkpt lat="50.29218077659607" lon="5.674073696136475">
        <ele>429.71</ele>
        <time>2021-07-27T13:08:10.517Z</time>
      </trkpt>
      <trkpt lat="50.29232016764581" lon="5.675243139266968">
        <ele>431.09</ele>
        <time>2021-07-27T13:08:11.876Z</time>
      </trkpt>
      <trkpt lat="50.29238454066217" lon="5.675522005185485">
        <ele>432.53</ele>
        <time>2021-07-27T13:08:13.238Z</time>
      </trkpt>
      <trkpt lat="50.29223442077637" lon="5.6756508350372314">
        <ele>434.1</ele>
        <time>2021-07-27T13:08:14.603Z</time>
      </trkpt>
      <trkpt lat="50.29066792689264" lon="5.677024042233825">
        <ele>435.89</ele>
        <time>2021-07-27T13:08:15.996Z</time>
      </trkpt>
      <trkpt lat="50.29066801071167" lon="5.677024042233825">
        <ele>437.67</ele>
        <time>2021-07-27T13:08:17.389Z</time>
      </trkpt>
      <trkpt lat="50.28952941298485" lon="5.678023919463158">
        <ele>439.69</ele>
        <time>2021-07-27T13:08:18.803Z</time>
      </trkpt>
      <trkpt lat="50.28951281681657" lon="5.678038587793708">
        <ele>441.66</ele>
        <time>2021-07-27T13:08:20.218Z</time>
      </trkpt>
      <trkpt lat="50.289513571187854" lon="5.678038001060486">
        <ele>443.7</ele>
        <time>2021-07-27T13:08:21.633Z</time>
      </trkpt>
      <trkpt lat="50.28951373882592" lon="5.678037917241454">
        <ele>445.82</ele>
        <time>2021-07-27T13:08:23.048Z</time>
      </trkpt>
      <trkpt lat="50.289513571187854" lon="5.6780380848795176">
        <ele>448.02</ele>
        <time>2021-07-27T13:08:24.463Z</time>
      </trkpt>
      <trkpt lat="50.28943419456482" lon="5.678107654675841">
        <ele>450.31</ele>
        <time>2021-07-27T13:08:25.879Z</time>
      </trkpt>
      <trkpt lat="50.28850086964667" lon="5.678933775052428">
        <ele>452.67</ele>
        <time>2021-07-27T13:08:27.312Z</time>
      </trkpt>
      <trkpt lat="50.28847932815552" lon="5.678955232724547">
        <ele>455.06</ele>
        <time>2021-07-27T13:08:28.746Z</time>
      </trkpt>
      <trkpt lat="50.28640866279602" lon="5.680779134854674">
        <ele>458.33</ele>
        <time>2021-07-27T13:08:30.218Z</time>
      </trkpt>
      <trkpt lat="50.286258375272155" lon="5.680940067395568">
        <ele>460.85</ele>
        <time>2021-07-27T13:08:31.693Z</time>
      </trkpt>
      <trkpt lat="50.28609744273126" lon="5.6811439990997314">
        <ele>463.37</ele>
        <time>2021-07-27T13:08:33.171Z</time>
      </trkpt>
      <trkpt lat="50.28596878051758" lon="5.681358492001891">
        <ele>465.86</ele>
        <time>2021-07-27T13:08:34.652Z</time>
      </trkpt>
      <trkpt lat="50.28596886433661" lon="5.681358492001891">
        <ele>468.35</ele>
        <time>2021-07-27T13:08:36.133Z</time>
      </trkpt>
      <trkpt lat="50.285829305648804" lon="5.68166971206665">
        <ele>470.86</ele>
        <time>2021-07-27T13:08:37.618Z</time>
      </trkpt>
      <trkpt lat="50.28572201728821" lon="5.68193793296814">
        <ele>473.36</ele>
        <time>2021-07-27T13:08:39.106Z</time>
      </trkpt>
      <trkpt lat="50.28564691543579" lon="5.6822168827056885">
        <ele>475.93</ele>
        <time>2021-07-27T13:08:40.597Z</time>
      </trkpt>
      <trkpt lat="50.28557172976434" lon="5.68263522349298">
        <ele>478.54</ele>
        <time>2021-07-27T13:08:42.093Z</time>
      </trkpt>
      <trkpt lat="50.285539627075195" lon="5.683010732755065">
        <ele>481.09</ele>
        <time>2021-07-27T13:08:43.593Z</time>
      </trkpt>
      <trkpt lat="50.285539627075195" lon="5.683407783508301">
        <ele>483.55</ele>
        <time>2021-07-27T13:08:45.097Z</time>
      </trkpt>
      <trkpt lat="50.285582542419434" lon="5.68393349647522">
        <ele>485.93</ele>
        <time>2021-07-27T13:08:46.606Z</time>
      </trkpt>
      <trkpt lat="50.286076068878174" lon="5.689608966931701">
        <ele>489.39</ele>
        <time>2021-07-27T13:08:48.174Z</time>
      </trkpt>
      <trkpt lat="50.286108339205384" lon="5.690392171964049">
        <ele>491.63</ele>
        <time>2021-07-27T13:08:49.750Z</time>
      </trkpt>
      <trkpt lat="50.28610825538635" lon="5.690767765045166">
        <ele>493.82</ele>
        <time>2021-07-27T13:08:51.330Z</time>
      </trkpt>
      <trkpt lat="50.286076068878174" lon="5.691218376159668">
        <ele>495.99</ele>
        <time>2021-07-27T13:08:52.914Z</time>
      </trkpt>
      <trkpt lat="50.285775661468506" lon="5.694243907928467">
        <ele>498.37</ele>
        <time>2021-07-27T13:08:54.530Z</time>
      </trkpt>
      <trkpt lat="50.285732662305236" lon="5.694587146863341">
        <ele>500.45</ele>
        <time>2021-07-27T13:08:56.149Z</time>
      </trkpt>
      <trkpt lat="50.28566837310791" lon="5.694887554273009">
        <ele>502.39</ele>
        <time>2021-07-27T13:08:57.772Z</time>
      </trkpt>
      <trkpt lat="50.28560391627252" lon="5.695145130157471">
        <ele>504.28</ele>
        <time>2021-07-27T13:08:59.397Z</time>
      </trkpt>
      <trkpt lat="50.28550744056702" lon="5.695391893386841">
        <ele>506.09</ele>
        <time>2021-07-27T13:09:01.025Z</time>
      </trkpt>
      <trkpt lat="50.285292863845825" lon="5.695810234174132">
        <ele>508.0</ele>
        <time>2021-07-27T13:09:02.659Z</time>
      </trkpt>
      <trkpt lat="50.285035287961364" lon="5.696121454238892">
        <ele>509.8</ele>
        <time>2021-07-27T13:09:04.298Z</time>
      </trkpt>
      <trkpt lat="50.28491727076471" lon="5.696239471435547">
        <ele>511.44</ele>
        <time>2021-07-27T13:09:05.939Z</time>
      </trkpt>
      <trkpt lat="50.284756338223815" lon="5.696335947141051">
        <ele>513.02</ele>
        <time>2021-07-27T13:09:07.583Z</time>
      </trkpt>
      <trkpt lat="50.28456321917474" lon="5.69642186164856">
        <ele>514.54</ele>
        <time>2021-07-27T13:09:09.230Z</time>
      </trkpt>
      <trkpt lat="50.284273540601134" lon="5.696475505828857">
        <ele>516.0</ele>
        <time>2021-07-27T13:09:10.882Z</time>
      </trkpt>
      <trkpt lat="50.2842737082392" lon="5.696475505828857">
        <ele>517.61</ele>
        <time>2021-07-27T13:09:12.534Z</time>
      </trkpt>
      <trkpt lat="50.28390876017511" lon="5.696411048993468">
        <ele>519.18</ele>
        <time>2021-07-27T13:09:14.192Z</time>
      </trkpt>
      <trkpt lat="50.28373718261719" lon="5.696346759796143">
        <ele>520.87</ele>
        <time>2021-07-27T13:09:15.853Z</time>
      </trkpt>
      <trkpt lat="50.27996063232422" lon="5.694758892059326">
        <ele>522.94</ele>
        <time>2021-07-27T13:09:17.576Z</time>
      </trkpt>
      <trkpt lat="50.27987480163574" lon="5.694715976715088">
        <ele>524.8</ele>
        <time>2021-07-27T13:09:19.301Z</time>
      </trkpt>
      <trkpt lat="50.27986407279968" lon="5.694715976715088">
        <ele>526.73</ele>
        <time>2021-07-27T13:09:21.026Z</time>
      </trkpt>
      <trkpt lat="50.27490743435919" lon="5.692613124847412">
        <ele>528.74</ele>
        <time>2021-07-27T13:09:22.833Z</time>
      </trkpt>
      <trkpt lat="50.27446738444269" lon="5.6924842949956656">
        <ele>530.85</ele>
        <time>2021-07-27T13:09:24.647Z</time>
      </trkpt>
      <trkpt lat="50.27422062121332" lon="5.692441379651427">
        <ele>533.15</ele>
        <time>2021-07-27T13:09:26.465Z</time>
      </trkpt>
      <trkpt lat="50.27374863624573" lon="5.692409193143249">
        <ele>535.68</ele>
        <time>2021-07-27T13:09:28.291Z</time>
      </trkpt>
      <trkpt lat="50.273265754804015" lon="5.692473649978638">
        <ele>538.19</ele>
        <time>2021-07-27T13:09:30.125Z</time>
      </trkpt>
      <trkpt lat="50.26969313621521" lon="5.69336405955255">
        <ele>540.98</ele>
        <time>2021-07-27T13:09:32.017Z</time>
      </trkpt>
      <trkpt lat="50.26922115124762" lon="5.693546449765563">
        <ele>543.91</ele>
        <time>2021-07-27T13:09:33.917Z</time>
      </trkpt>
      <trkpt lat="50.26887766085565" lon="5.693771755322814">
        <ele>546.99</ele>
        <time>2021-07-27T13:09:35.822Z</time>
      </trkpt>
      <trkpt lat="50.26849150657654" lon="5.694136619567871">
        <ele>550.28</ele>
        <time>2021-07-27T13:09:37.735Z</time>
      </trkpt>
      <trkpt lat="50.268309032544494" lon="5.694361925125122">
        <ele>553.82</ele>
        <time>2021-07-27T13:09:39.651Z</time>
      </trkpt>
      <trkpt lat="50.268309116363525" lon="5.694361925125122">
        <ele>557.35</ele>
        <time>2021-07-27T13:09:41.567Z</time>
      </trkpt>
      <trkpt lat="50.26803016662598" lon="5.694780265912414">
        <ele>561.26</ele>
        <time>2021-07-27T13:09:43.490Z</time>
      </trkpt>
      <trkpt lat="50.2678906917572" lon="5.695048486813903">
        <ele>565.16</ele>
        <time>2021-07-27T13:09:45.416Z</time>
      </trkpt>
      <trkpt lat="50.26677489280701" lon="5.697430372238159">
        <ele>569.72</ele>
        <time>2021-07-27T13:09:47.372Z</time>
      </trkpt>
      <trkpt lat="50.266345739364624" lon="5.698353052139282">
        <ele>573.88</ele>
        <time>2021-07-27T13:09:49.340Z</time>
      </trkpt>
      <trkpt lat="50.26367425918579" lon="5.704039251431823">
        <ele>578.92</ele>
        <time>2021-07-27T13:09:51.381Z</time>
      </trkpt>
      <trkpt lat="50.26224732398987" lon="5.707064867019653">
        <ele>584.18</ele>
        <time>2021-07-27T13:09:53.460Z</time>
      </trkpt>
      <trkpt lat="50.262043392285705" lon="5.707526123151183">
        <ele>588.35</ele>
        <time>2021-07-27T13:09:55.545Z</time>
      </trkpt>
      <trkpt lat="50.26100277900696" lon="5.710283517837524">
        <ele>592.24</ele>
        <time>2021-07-27T13:09:57.663Z</time>
      </trkpt>
      <trkpt lat="50.26100286282599" lon="5.710283517837524">
        <ele>596.22</ele>
        <time>2021-07-27T13:09:59.781Z</time>
      </trkpt>
      <trkpt lat="50.25894275866449" lon="5.715776598080993">
        <ele>600.44</ele>
        <time>2021-07-27T13:10:01.964Z</time>
      </trkpt>
      <trkpt lat="50.25894284248352" lon="5.715776598080993">
        <ele>604.27</ele>
        <time>2021-07-27T13:10:04.147Z</time>
      </trkpt>
      <trkpt lat="50.25822401046753" lon="5.717675602063537">
        <ele>608.22</ele>
        <time>2021-07-27T13:10:06.353Z</time>
      </trkpt>
      <trkpt lat="50.25822409428656" lon="5.717675602063537">
        <ele>611.82</ele>
        <time>2021-07-27T13:10:08.559Z</time>
      </trkpt>
      <trkpt lat="50.25821319781244" lon="5.717718601226807">
        <ele>615.29</ele>
        <time>2021-07-27T13:10:10.765Z</time>
      </trkpt>
      <trkpt lat="50.25821328163147" lon="5.717718601226807">
        <ele>618.6</ele>
        <time>2021-07-27T13:10:12.971Z</time>
      </trkpt>
      <trkpt lat="50.25767683982849" lon="5.719166910275817">
        <ele>621.82</ele>
        <time>2021-07-27T13:10:15.194Z</time>
      </trkpt>
      <trkpt lat="50.25718331336975" lon="5.720679759979248">
        <ele>625.0</ele>
        <time>2021-07-27T13:10:17.435Z</time>
      </trkpt>
      <trkpt lat="50.25695792399347" lon="5.721452236175537">
        <ele>628.02</ele>
        <time>2021-07-27T13:10:19.685Z</time>
      </trkpt>
      <trkpt lat="50.256324922665954" lon="5.723801767453551">
        <ele>630.84</ele>
        <time>2021-07-27T13:10:21.961Z</time>
      </trkpt>
      <trkpt lat="50.256035244092345" lon="5.724735260009766">
        <ele>633.33</ele>
        <time>2021-07-27T13:10:24.247Z</time>
      </trkpt>
      <trkpt lat="50.25603532791138" lon="5.724735260009766">
        <ele>635.59</ele>
        <time>2021-07-27T13:10:26.533Z</time>
      </trkpt>
      <trkpt lat="50.25565981864929" lon="5.725872432813048">
        <ele>637.88</ele>
        <time>2021-07-27T13:10:28.833Z</time>
      </trkpt>
      <trkpt lat="50.25525212287903" lon="5.7269667740911245">
        <ele>639.93</ele>
        <time>2021-07-27T13:10:31.146Z</time>
      </trkpt>
      <trkpt lat="50.25525220669806" lon="5.7269667740911245">
        <ele>641.61</ele>
        <time>2021-07-27T13:10:33.459Z</time>
      </trkpt>
      <trkpt lat="50.25489807128906" lon="5.727857267484069">
        <ele>643.06</ele>
        <time>2021-07-27T13:10:35.782Z</time>
      </trkpt>
      <trkpt lat="50.254318630322814" lon="5.729176998138428">
        <ele>644.46</ele>
        <time>2021-07-27T13:10:38.122Z</time>
      </trkpt>
      <trkpt lat="50.25394320487976" lon="5.729981577023864">
        <ele>645.58</ele>
        <time>2021-07-27T13:10:40.472Z</time>
      </trkpt>
      <trkpt lat="50.25340676307678" lon="5.731043731793761">
        <ele>646.59</ele>
        <time>2021-07-27T13:10:42.836Z</time>
      </trkpt>
      <trkpt lat="50.253074169158936" lon="5.731666004285216">
        <ele>647.49</ele>
        <time>2021-07-27T13:10:45.208Z</time>
      </trkpt>
      <trkpt lat="50.25307425297797" lon="5.731666004285216">
        <ele>648.07</ele>
        <time>2021-07-27T13:10:47.580Z</time>
      </trkpt>
      <trkpt lat="50.25284877978265" lon="5.73208442889154">
        <ele>648.53</ele>
        <time>2021-07-27T13:10:49.958Z</time>
      </trkpt>
      <trkpt lat="50.252612913027406" lon="5.7325029373168945">
        <ele>648.85</ele>
        <time>2021-07-27T13:10:52.341Z</time>
      </trkpt>
      <trkpt lat="50.25255926884711" lon="5.732599413022399">
        <ele>648.98</ele>
        <time>2021-07-27T13:10:54.726Z</time>
      </trkpt>
      <trkpt lat="50.25027402676642" lon="5.736386692151427">
        <ele>648.63</ele>
        <time>2021-07-27T13:10:57.164Z</time>
      </trkpt>
      <trkpt lat="50.25014519691467" lon="5.736590623855591">
        <ele>648.48</ele>
        <time>2021-07-27T13:10:59.605Z</time>
      </trkpt>
      <trkpt lat="50.249641025438905" lon="5.737427473068237">
        <ele>648.18</ele>
        <time>2021-07-27T13:11:02.058Z</time>
      </trkpt>
      <trkpt lat="50.24958738125861" lon="5.737523948773742">
        <ele>647.9</ele>
        <time>2021-07-27T13:11:04.512Z</time>
      </trkpt>
      <trkpt lat="50.249522840604186" lon="5.737631237134337">
        <ele>647.54</ele>
        <time>2021-07-27T13:11:06.968Z</time>
      </trkpt>
      <trkpt lat="50.24941555224359" lon="5.737717067822814">
        <ele>647.14</ele>
        <time>2021-07-27T13:11:09.426Z</time>
      </trkpt>
      <trkpt lat="50.249329721555114" lon="5.737738525494933">
        <ele>646.71</ele>
        <time>2021-07-27T13:11:11.885Z</time>
      </trkpt>
      <trkpt lat="50.249372720718384" lon="5.73786735534668">
        <ele>646.23</ele>
        <time>2021-07-27T13:11:14.346Z</time>
      </trkpt>
      <trkpt lat="50.24936190806329" lon="5.737953186035156">
        <ele>645.73</ele>
        <time>2021-07-27T13:11:16.807Z</time>
      </trkpt>
      <trkpt lat="50.249276077374816" lon="5.73810338973999">
        <ele>645.22</ele>
        <time>2021-07-27T13:11:19.271Z</time>
      </trkpt>
      <trkpt lat="50.24921178817749" lon="5.73831788264215">
        <ele>644.71</ele>
        <time>2021-07-27T13:11:21.737Z</time>
      </trkpt>
      <trkpt lat="50.24919033050537" lon="5.738414525985718">
        <ele>644.23</ele>
        <time>2021-07-27T13:11:24.204Z</time>
      </trkpt>
      <trkpt lat="50.24924397468567" lon="5.738435983657837">
        <ele>643.79</ele>
        <time>2021-07-27T13:11:26.672Z</time>
      </trkpt>
      <trkpt lat="50.24923433549702" lon="5.738517791032791">
        <ele>643.38</ele>
        <time>2021-07-27T13:11:29.141Z</time>
      </trkpt>
      <trkpt lat="50.249230647459626" lon="5.738549726083875">
        <ele>643.02</ele>
        <time>2021-07-27T13:11:31.610Z</time>
      </trkpt>
      <trkpt lat="50.249230647459626" lon="5.738550312817097">
        <ele>642.71</ele>
        <time>2021-07-27T13:11:34.079Z</time>
      </trkpt>
      <trkpt lat="50.24923047982156" lon="5.738552240654826">
        <ele>642.45</ele>
        <time>2021-07-27T13:11:36.548Z</time>
      </trkpt>
      <trkpt lat="50.24923047982156" lon="5.738552073016763">
        <ele>642.25</ele>
        <time>2021-07-27T13:11:39.017Z</time>
      </trkpt>
      <trkpt lat="50.24924397468567" lon="5.738435983657837">
        <ele>643.79</ele>
        <time>2021-07-27T13:11:41.487Z</time>
      </trkpt>
      <trkpt lat="50.24919033050537" lon="5.738414525985718">
        <ele>644.23</ele>
        <time>2021-07-27T13:11:43.958Z</time>
      </trkpt>
      <trkpt lat="50.24921178817749" lon="5.73831788264215">
        <ele>644.71</ele>
        <time>2021-07-27T13:11:46.430Z</time>
      </trkpt>
      <trkpt lat="50.249276077374816" lon="5.73810338973999">
        <ele>645.22</ele>
        <time>2021-07-27T13:11:48.905Z</time>
      </trkpt>
      <trkpt lat="50.24936190806329" lon="5.737953186035156">
        <ele>645.73</ele>
        <time>2021-07-27T13:11:51.382Z</time>
      </trkpt>
      <trkpt lat="50.249372804537416" lon="5.73786735534668">
        <ele>642.46</ele>
        <time>2021-07-27T13:11:53.860Z</time>
      </trkpt>
      <trkpt lat="50.249329721555114" lon="5.737738525494933">
        <ele>646.71</ele>
        <time>2021-07-27T13:11:56.339Z</time>
      </trkpt>
      <trkpt lat="50.2492546197027" lon="5.737706422805786">
        <ele>642.98</ele>
        <time>2021-07-27T13:11:58.819Z</time>
      </trkpt>
      <trkpt lat="50.24921178817749" lon="5.73755613528192">
        <ele>643.31</ele>
        <time>2021-07-27T13:12:01.301Z</time>
      </trkpt>
      <trkpt lat="50.24920105934143" lon="5.737406015396118">
        <ele>643.7</ele>
        <time>2021-07-27T13:12:03.785Z</time>
      </trkpt>
      <trkpt lat="50.24920105934143" lon="5.737191354855895">
        <ele>644.11</ele>
        <time>2021-07-27T13:12:06.271Z</time>
      </trkpt>
      <trkpt lat="50.24920105934143" lon="5.7363975048065186">
        <ele>644.6</ele>
        <time>2021-07-27T13:12:08.765Z</time>
      </trkpt>
      <trkpt lat="50.2491473313421" lon="5.735496282577515">
        <ele>645.25</ele>
        <time>2021-07-27T13:12:11.268Z</time>
      </trkpt>
      <trkpt lat="50.249082958325744" lon="5.734766721725464">
        <ele>645.86</ele>
        <time>2021-07-27T13:12:13.779Z</time>
      </trkpt>
      <trkpt lat="50.24894365109503" lon="5.733779668807983">
        <ele>646.39</ele>
        <time>2021-07-27T13:12:16.300Z</time>
      </trkpt>
      <trkpt lat="50.248857820406556" lon="5.733307516202331">
        <ele>646.82</ele>
        <time>2021-07-27T13:12:18.826Z</time>
      </trkpt>
      <trkpt lat="50.24877190589905" lon="5.73285698890686">
        <ele>647.24</ele>
        <time>2021-07-27T13:12:21.357Z</time>
      </trkpt>
      <trkpt lat="50.24864315986633" lon="5.732331275939941">
        <ele>647.63</ele>
        <time>2021-07-27T13:12:23.894Z</time>
      </trkpt>
      <trkpt lat="50.24853587150574" lon="5.731966411694884">
        <ele>648.0</ele>
        <time>2021-07-27T13:12:26.435Z</time>
      </trkpt>
      <trkpt lat="50.248364293947816" lon="5.731397783383727">
        <ele>648.28</ele>
        <time>2021-07-27T13:12:28.982Z</time>
      </trkpt>
      <trkpt lat="50.248267566785216" lon="5.73106518946588">
        <ele>648.59</ele>
        <time>2021-07-27T13:12:31.533Z</time>
      </trkpt>
      <trkpt lat="50.24819254875183" lon="5.730850612744689">
        <ele>648.89</ele>
        <time>2021-07-27T13:12:34.087Z</time>
      </trkpt>
      <trkpt lat="50.248052990064025" lon="5.730453729629517">
        <ele>649.11</ele>
        <time>2021-07-27T13:12:36.645Z</time>
      </trkpt>
      <trkpt lat="50.24787059985101" lon="5.730003118515015">
        <ele>649.25</ele>
        <time>2021-07-27T13:12:39.209Z</time>
      </trkpt>
      <trkpt lat="50.24752744473517" lon="5.729252016171813">
        <ele>649.3</ele>
        <time>2021-07-27T13:12:41.782Z</time>
      </trkpt>
      <trkpt lat="50.24734488688409" lon="5.728887235745788">
        <ele>649.28</ele>
        <time>2021-07-27T13:12:44.360Z</time>
      </trkpt>
      <trkpt lat="50.247173393145204" lon="5.7286083698272705">
        <ele>649.26</ele>
        <time>2021-07-27T13:12:46.942Z</time>
      </trkpt>
      <trkpt lat="50.24701237678528" lon="5.728340148925781">
        <ele>649.23</ele>
        <time>2021-07-27T13:12:49.528Z</time>
      </trkpt>
      <trkpt lat="50.24694800376892" lon="5.728275775909424">
        <ele>649.08</ele>
        <time>2021-07-27T13:12:52.115Z</time>
      </trkpt>
      <trkpt lat="50.246379375457764" lon="5.727331638336182">
        <ele>648.84</ele>
        <time>2021-07-27T13:12:54.715Z</time>
      </trkpt>
      <trkpt lat="50.246379459276795" lon="5.727331638336182">
        <ele>648.51</ele>
        <time>2021-07-27T13:12:57.315Z</time>
      </trkpt>
      <trkpt lat="50.243782913312316" lon="5.723050832748413">
        <ele>647.68</ele>
        <time>2021-07-27T13:12:59.976Z</time>
      </trkpt>
      <trkpt lat="50.24378299713135" lon="5.723050832748413">
        <ele>647.18</ele>
        <time>2021-07-27T13:13:02.637Z</time>
      </trkpt>
      <trkpt lat="50.240628803148866" lon="5.717815076932311">
        <ele>646.29</ele>
        <time>2021-07-27T13:13:05.372Z</time>
      </trkpt>
      <trkpt lat="50.23548340424895" lon="5.709329657256603">
        <ele>646.22</ele>
        <time>2021-07-27T13:13:08.227Z</time>
      </trkpt>
      <trkpt lat="50.23546915501356" lon="5.709306104108691">
        <ele>645.47</ele>
        <time>2021-07-27T13:13:11.082Z</time>
      </trkpt>
      <trkpt lat="50.23547644726932" lon="5.7093180902302265">
        <ele>644.62</ele>
        <time>2021-07-27T13:13:13.937Z</time>
      </trkpt>
      <trkpt lat="50.235483068972826" lon="5.7093289867043495">
        <ele>643.68</ele>
        <time>2021-07-27T13:13:16.792Z</time>
      </trkpt>
      <trkpt lat="50.23548290133476" lon="5.709328902885318">
        <ele>642.64</ele>
        <time>2021-07-27T13:13:19.647Z</time>
      </trkpt>
      <trkpt lat="50.234084045514464" lon="5.707021951675415">
        <ele>641.21</ele>
        <time>2021-07-27T13:13:22.535Z</time>
      </trkpt>
      <trkpt lat="50.2336763497442" lon="5.70634595118463">
        <ele>640.06</ele>
        <time>2021-07-27T13:13:25.432Z</time>
      </trkpt>
      <trkpt lat="50.232131564989686" lon="5.703835487365723">
        <ele>638.43</ele>
        <time>2021-07-27T13:13:28.365Z</time>
      </trkpt>
      <trkpt lat="50.23205646313727" lon="5.703728199005127">
        <ele>637.02</ele>
        <time>2021-07-27T13:13:31.300Z</time>
      </trkpt>
      <trkpt lat="50.23112288676202" lon="5.702161705121398">
        <ele>635.46</ele>
        <time>2021-07-27T13:13:34.257Z</time>
      </trkpt>
      <trkpt lat="50.231122970581055" lon="5.702161705121398">
        <ele>633.91</ele>
        <time>2021-07-27T13:13:37.214Z</time>
      </trkpt>
      <trkpt lat="50.227131843566895" lon="5.69562784396112">
        <ele>632.01</ele>
        <time>2021-07-27T13:13:40.263Z</time>
      </trkpt>
      <trkpt lat="50.226895809173584" lon="5.695155775174499">
        <ele>630.18</ele>
        <time>2021-07-27T13:13:43.319Z</time>
      </trkpt>
      <trkpt lat="50.22671333514154" lon="5.694683790206909">
        <ele>628.4</ele>
        <time>2021-07-27T13:13:46.380Z</time>
      </trkpt>
      <trkpt lat="50.22665969096124" lon="5.694469213485718">
        <ele>626.58</ele>
        <time>2021-07-27T13:13:49.444Z</time>
      </trkpt>
      <trkpt lat="50.22655257023871" lon="5.693986332044005">
        <ele>624.74</ele>
        <time>2021-07-27T13:13:52.513Z</time>
      </trkpt>
      <trkpt lat="50.22650957107544" lon="5.693685924634337">
        <ele>622.8</ele>
        <time>2021-07-27T13:13:55.585Z</time>
      </trkpt>
      <trkpt lat="50.22643438540399" lon="5.69287053309381">
        <ele>620.76</ele>
        <time>2021-07-27T13:13:58.666Z</time>
      </trkpt>
      <trkpt lat="50.2262734528631" lon="5.6905638333410025">
        <ele>618.45</ele>
        <time>2021-07-27T13:14:01.770Z</time>
      </trkpt>
      <trkpt lat="50.22627353668213" lon="5.6905638333410025">
        <ele>616.33</ele>
        <time>2021-07-27T13:14:04.874Z</time>
      </trkpt>
      <trkpt lat="50.22572636604309" lon="5.683053731918335">
        <ele>613.88</ele>
        <time>2021-07-27T13:14:08.056Z</time>
      </trkpt>
      <trkpt lat="50.2255654335022" lon="5.6809507962316275">
        <ele>611.63</ele>
        <time>2021-07-27T13:14:11.260Z</time>
      </trkpt>
      <trkpt lat="50.225543892011046" lon="5.680553913116455">
        <ele>609.36</ele>
        <time>2021-07-27T13:14:14.468Z</time>
      </trkpt>
      <trkpt lat="50.22520065307617" lon="5.675800954923034">
        <ele>606.62</ele>
        <time>2021-07-27T13:14:17.725Z</time>
      </trkpt>
      <trkpt lat="50.225147008895874" lon="5.675296783447266">
        <ele>604.28</ele>
        <time>2021-07-27T13:14:20.987Z</time>
      </trkpt>
      <trkpt lat="50.225071823224425" lon="5.674835443496704">
        <ele>601.99</ele>
        <time>2021-07-27T13:14:24.254Z</time>
      </trkpt>
      <trkpt lat="50.22487870417535" lon="5.674073696136475">
        <ele>599.79</ele>
        <time>2021-07-27T13:14:27.530Z</time>
      </trkpt>
      <trkpt lat="50.22468566894531" lon="5.673547983169556">
        <ele>597.58</ele>
        <time>2021-07-27T13:14:30.812Z</time>
      </trkpt>
      <trkpt lat="50.22454619407654" lon="5.673247575759888">
        <ele>595.29</ele>
        <time>2021-07-27T13:14:34.098Z</time>
      </trkpt>
      <trkpt lat="50.22427151910961" lon="5.672705015167594">
        <ele>592.94</ele>
        <time>2021-07-27T13:14:37.391Z</time>
      </trkpt>
      <trkpt lat="50.22424545139074" lon="5.672653550282121">
        <ele>590.71</ele>
        <time>2021-07-27T13:14:40.684Z</time>
      </trkpt>
      <trkpt lat="50.22424519993365" lon="5.672652963548899">
        <ele>588.5</ele>
        <time>2021-07-27T13:14:43.977Z</time>
      </trkpt>
      <trkpt lat="50.22424419410527" lon="5.6726509518921375">
        <ele>586.31</ele>
        <time>2021-07-27T13:14:47.270Z</time>
      </trkpt>
      <trkpt lat="50.224244110286236" lon="5.672650700435042">
        <ele>584.15</ele>
        <time>2021-07-27T13:14:50.563Z</time>
      </trkpt>
      <trkpt lat="50.221027135849" lon="5.666295206174254">
        <ele>581.46</ele>
        <time>2021-07-27T13:14:53.940Z</time>
      </trkpt>
      <trkpt lat="50.22102721966803" lon="5.666295206174254">
        <ele>579.36</ele>
        <time>2021-07-27T13:14:57.317Z</time>
      </trkpt>
      <trkpt lat="50.22003999911249" lon="5.664342558011413">
        <ele>577.21</ele>
        <time>2021-07-27T13:15:00.719Z</time>
      </trkpt>
      <trkpt lat="50.22004008293152" lon="5.664342558011413">
        <ele>575.2</ele>
        <time>2021-07-27T13:15:04.121Z</time>
      </trkpt>
      <trkpt lat="50.218355571851134" lon="5.661016618832946">
        <ele>572.95</ele>
        <time>2021-07-27T13:15:07.567Z</time>
      </trkpt>
      <trkpt lat="50.2183557394892" lon="5.661016618832946">
        <ele>571.04</ele>
        <time>2021-07-27T13:15:11.013Z</time>
      </trkpt>
      <trkpt lat="50.21718621253967" lon="5.658688545227051">
        <ele>569.4</ele>
        <time>2021-07-27T13:15:14.489Z</time>
      </trkpt>
      <trkpt lat="50.21696082316339" lon="5.6581950187683105">
        <ele>567.6</ele>
        <time>2021-07-27T13:15:17.971Z</time>
      </trkpt>
      <trkpt lat="50.21672487258911" lon="5.657540559768677">
        <ele>565.87</ele>
        <time>2021-07-27T13:15:21.461Z</time>
      </trkpt>
      <trkpt lat="50.21593085490167" lon="5.6543004512786865">
        <ele>563.74</ele>
        <time>2021-07-27T13:15:24.987Z</time>
      </trkpt>
      <trkpt lat="50.21558769978583" lon="5.652862787246704">
        <ele>561.78</ele>
        <time>2021-07-27T13:15:28.528Z</time>
      </trkpt>
      <trkpt lat="50.21384954452515" lon="5.645599281415343">
        <ele>560.0</ele>
        <time>2021-07-27T13:15:32.149Z</time>
      </trkpt>
      <trkpt lat="50.21383889950812" lon="5.645545637235045">
        <ele>558.6</ele>
        <time>2021-07-27T13:15:35.771Z</time>
      </trkpt>
      <trkpt lat="50.21333456039429" lon="5.6434213276952505">
        <ele>557.21</ele>
        <time>2021-07-27T13:15:39.416Z</time>
      </trkpt>
      <trkpt lat="50.212690914049745" lon="5.640749931335449">
        <ele>555.78</ele>
        <time>2021-07-27T13:15:43.090Z</time>
      </trkpt>
      <trkpt lat="50.21175742149353" lon="5.636887466534972">
        <ele>554.61</ele>
        <time>2021-07-27T13:15:46.807Z</time>
      </trkpt>
      <trkpt lat="50.21133899688721" lon="5.635127937421203">
        <ele>553.74</ele>
        <time>2021-07-27T13:15:50.543Z</time>
      </trkpt>
      <trkpt lat="50.21117806434631" lon="5.6344091054052114">
        <ele>552.77</ele>
        <time>2021-07-27T13:15:54.287Z</time>
      </trkpt>
      <trkpt lat="50.211392641067505" lon="5.634280359372497">
        <ele>551.89</ele>
        <time>2021-07-27T13:15:58.035Z</time>
      </trkpt>
      <trkpt lat="50.21154276095331" lon="5.634226715192199">
        <ele>551.12</ele>
        <time>2021-07-27T13:16:01.785Z</time>
      </trkpt>
      <trkpt lat="50.211843168362975" lon="5.634312629699707">
        <ele>550.41</ele>
        <time>2021-07-27T13:16:05.540Z</time>
      </trkpt>
      <trkpt lat="50.2127658482641" lon="5.634634410962462">
        <ele>549.85</ele>
        <time>2021-07-27T13:16:09.310Z</time>
      </trkpt>
      <trkpt lat="50.21300196647644" lon="5.634634410962462">
        <ele>549.27</ele>
        <time>2021-07-27T13:16:13.084Z</time>
      </trkpt>
      <trkpt lat="50.21332383155823" lon="5.634548580273986">
        <ele>548.69</ele>
        <time>2021-07-27T13:16:16.863Z</time>
      </trkpt>
      <trkpt lat="50.213613426312804" lon="5.634366190060973">
        <ele>548.18</ele>
        <time>2021-07-27T13:16:20.647Z</time>
      </trkpt>
      <trkpt lat="50.21726123057306" lon="5.631018877029419">
        <ele>547.39</ele>
        <time>2021-07-27T13:16:24.499Z</time>
      </trkpt>
      <trkpt lat="50.21781921386719" lon="5.6302571296691895">
        <ele>547.13</ele>
        <time>2021-07-27T13:16:28.363Z</time>
      </trkpt>
      <trkpt lat="50.21822690963745" lon="5.629784977063537">
        <ele>546.69</ele>
        <time>2021-07-27T13:16:32.235Z</time>
      </trkpt>
      <trkpt lat="50.21875253878534" lon="5.629355823621154">
        <ele>546.26</ele>
        <time>2021-07-27T13:16:36.116Z</time>
      </trkpt>
      <trkpt lat="50.21923542022705" lon="5.629012584686279">
        <ele>545.9</ele>
        <time>2021-07-27T13:16:40.006Z</time>
      </trkpt>
      <trkpt lat="50.21978267468512" lon="5.628143548965454">
        <ele>545.4</ele>
        <time>2021-07-27T13:16:43.908Z</time>
      </trkpt>
      <trkpt lat="50.21978259086609" lon="5.628143548965454">
        <ele>544.89</ele>
        <time>2021-07-27T13:16:47.810Z</time>
      </trkpt>
      <trkpt lat="50.219846963882446" lon="5.628036176785827">
        <ele>544.36</ele>
        <time>2021-07-27T13:16:51.714Z</time>
      </trkpt>
      <trkpt lat="50.22044777870178" lon="5.627081394195557">
        <ele>543.74</ele>
        <time>2021-07-27T13:16:55.632Z</time>
      </trkpt>
      <trkpt lat="50.2211772557348" lon="5.625922596082091">
        <ele>543.15</ele>
        <time>2021-07-27T13:16:59.566Z</time>
      </trkpt>
      <trkpt lat="50.22147766314447" lon="5.625321781262755">
        <ele>542.4</ele>
        <time>2021-07-27T13:17:03.508Z</time>
      </trkpt>
      <trkpt lat="50.221606492996216" lon="5.624935543164611">
        <ele>541.58</ele>
        <time>2021-07-27T13:17:07.455Z</time>
      </trkpt>
      <trkpt lat="50.221842527389526" lon="5.624409914016724">
        <ele>540.57</ele>
        <time>2021-07-27T13:17:11.408Z</time>
      </trkpt>
      <trkpt lat="50.22228240966797" lon="5.623841285705566">
        <ele>539.74</ele>
        <time>2021-07-27T13:17:15.370Z</time>
      </trkpt>
      <trkpt lat="50.22270075045526" lon="5.623476505279541">
        <ele>538.44</ele>
        <time>2021-07-27T13:17:19.340Z</time>
      </trkpt>
      <trkpt lat="50.22279747761786" lon="5.623412048444152">
        <ele>537.2</ele>
        <time>2021-07-27T13:17:23.312Z</time>
      </trkpt>
      <trkpt lat="50.22279739379883" lon="5.623412048444152">
        <ele>536.0</ele>
        <time>2021-07-27T13:17:27.284Z</time>
      </trkpt>
      <trkpt lat="50.22299059666693" lon="5.623304760083556">
        <ele>534.59</ele>
        <time>2021-07-27T13:17:31.259Z</time>
      </trkpt>
      <trkpt lat="50.223151445388794" lon="5.623208284378052">
        <ele>533.26</ele>
        <time>2021-07-27T13:17:35.237Z</time>
      </trkpt>
      <trkpt lat="50.22347322665155" lon="5.623122453689575">
        <ele>531.76</ele>
        <time>2021-07-27T13:17:39.220Z</time>
      </trkpt>
      <trkpt lat="50.22379509173334" lon="5.623143827542663">
        <ele>530.06</ele>
        <time>2021-07-27T13:17:43.208Z</time>
      </trkpt>
      <trkpt lat="50.224181497469544" lon="5.623251115903258">
        <ele>528.42</ele>
        <time>2021-07-27T13:17:47.203Z</time>
      </trkpt>
      <trkpt lat="50.2245569229126" lon="5.623229658231139">
        <ele>526.8</ele>
        <time>2021-07-27T13:17:51.204Z</time>
      </trkpt>
      <trkpt lat="50.224556839093566" lon="5.623229658231139">
        <ele>525.08</ele>
        <time>2021-07-27T13:17:55.205Z</time>
      </trkpt>
      <trkpt lat="50.2249538898468" lon="5.623100996017456">
        <ele>523.27</ele>
        <time>2021-07-27T13:17:59.212Z</time>
      </trkpt>
      <trkpt lat="50.2252649422735" lon="5.623079538345337">
        <ele>521.35</ele>
        <time>2021-07-27T13:18:03.224Z</time>
      </trkpt>
      <trkpt lat="50.22559770382941" lon="5.623186826705933">
        <ele>519.29</ele>
        <time>2021-07-27T13:18:07.241Z</time>
      </trkpt>
      <trkpt lat="50.226327097043395" lon="5.623530149459839">
        <ele>517.05</ele>
        <time>2021-07-27T13:18:11.271Z</time>
      </trkpt>
      <trkpt lat="50.22679924964905" lon="5.623905574902892">
        <ele>514.97</ele>
        <time>2021-07-27T13:18:15.309Z</time>
      </trkpt>
      <trkpt lat="50.227153301239014" lon="5.624066507443786">
        <ele>512.99</ele>
        <time>2021-07-27T13:18:19.353Z</time>
      </trkpt>
      <trkpt lat="50.22765755653381" lon="5.6241201516240835">
        <ele>511.0</ele>
        <time>2021-07-27T13:18:23.405Z</time>
      </trkpt>
      <trkpt lat="50.2279794216156" lon="5.624152338132262">
        <ele>508.96</ele>
        <time>2021-07-27T13:18:27.462Z</time>
      </trkpt>
      <trkpt lat="50.2290415763855" lon="5.624302625656128">
        <ele>506.75</ele>
        <time>2021-07-27T13:18:31.536Z</time>
      </trkpt>
      <trkpt lat="50.229899967089295" lon="5.62445274554193">
        <ele>504.9</ele>
        <time>2021-07-27T13:18:35.624Z</time>
      </trkpt>
      <trkpt lat="50.2302538510412" lon="5.624517202377319">
        <ele>503.14</ele>
        <time>2021-07-27T13:18:39.718Z</time>
      </trkpt>
      <trkpt lat="50.231852447614074" lon="5.624871253967285">
        <ele>501.22</ele>
        <time>2021-07-27T13:18:43.838Z</time>
      </trkpt>
      <trkpt lat="50.23193827830255" lon="5.6248390674591064">
        <ele>499.56</ele>
        <time>2021-07-27T13:18:47.959Z</time>
      </trkpt>
      <trkpt lat="50.23219585418701" lon="5.624592304229736">
        <ele>497.97</ele>
        <time>2021-07-27T13:18:52.085Z</time>
      </trkpt>
      <trkpt lat="50.2324640750885" lon="5.624313270673156">
        <ele>496.41</ele>
        <time>2021-07-27T13:18:56.216Z</time>
      </trkpt>
      <trkpt lat="50.23253926075995" lon="5.624184608459473">
        <ele>494.92</ele>
        <time>2021-07-27T13:19:00.349Z</time>
      </trkpt>
      <trkpt lat="50.2326141949743" lon="5.62395921908319">
        <ele>493.45</ele>
        <time>2021-07-27T13:19:04.485Z</time>
      </trkpt>
      <trkpt lat="50.232646465301514" lon="5.623744642361999">
        <ele>492.05</ele>
        <time>2021-07-27T13:19:08.623Z</time>
      </trkpt>
      <trkpt lat="50.23294678889215" lon="5.622510826215148">
        <ele>490.72</ele>
        <time>2021-07-27T13:19:12.774Z</time>
      </trkpt>
      <trkpt lat="50.23300043307245" lon="5.622360706329346">
        <ele>489.45</ele>
        <time>2021-07-27T13:19:16.927Z</time>
      </trkpt>
      <trkpt lat="50.23306488990784" lon="5.622242605313659">
        <ele>488.23</ele>
        <time>2021-07-27T13:19:21.082Z</time>
      </trkpt>
      <trkpt lat="50.233343839645386" lon="5.621931552886963">
        <ele>487.08</ele>
        <time>2021-07-27T13:19:25.242Z</time>
      </trkpt>
      <trkpt lat="50.233536874875426" lon="5.621802723035216">
        <ele>485.9</ele>
        <time>2021-07-27T13:19:29.406Z</time>
      </trkpt>
      <trkpt lat="50.23369789123535" lon="5.621781265363097">
        <ele>484.7</ele>
        <time>2021-07-27T13:19:33.572Z</time>
      </trkpt>
      <trkpt lat="50.23404129780829" lon="5.621856367215514">
        <ele>483.49</ele>
        <time>2021-07-27T13:19:37.744Z</time>
      </trkpt>
      <trkpt lat="50.23444899357855" lon="5.6219743844121695">
        <ele>482.27</ele>
        <time>2021-07-27T13:19:41.922Z</time>
      </trkpt>
      <trkpt lat="50.23452401161194" lon="5.622028028592467">
        <ele>481.04</ele>
        <time>2021-07-27T13:19:46.102Z</time>
      </trkpt>
      <trkpt lat="50.23480296134949" lon="5.622156774625182">
        <ele>479.67</ele>
        <time>2021-07-27T13:19:50.286Z</time>
      </trkpt>
      <trkpt lat="50.23501762188971" lon="5.622124671936035">
        <ele>478.37</ele>
        <time>2021-07-27T13:19:54.474Z</time>
      </trkpt>
      <trkpt lat="50.23547879420221" lon="5.6219743844121695">
        <ele>477.18</ele>
        <time>2021-07-27T13:19:58.669Z</time>
      </trkpt>
      <trkpt lat="50.235875844955444" lon="5.621770620346069">
        <ele>475.79</ele>
        <time>2021-07-27T13:20:02.871Z</time>
      </trkpt>
      <trkpt lat="50.23619779385626" lon="5.621470212936401">
        <ele>474.36</ele>
        <time>2021-07-27T13:20:07.079Z</time>
      </trkpt>
      <trkpt lat="50.2365517616272" lon="5.621126806363463">
        <ele>472.96</ele>
        <time>2021-07-27T13:20:11.294Z</time>
      </trkpt>
      <trkpt lat="50.23686281405389" lon="5.6207191105932">
        <ele>471.57</ele>
        <time>2021-07-27T13:20:15.515Z</time>
      </trkpt>
      <trkpt lat="50.23746362887323" lon="5.620054006576538">
        <ele>469.74</ele>
        <time>2021-07-27T13:20:19.748Z</time>
      </trkpt>
      <trkpt lat="50.238107442855835" lon="5.619034683331847">
        <ele>468.13</ele>
        <time>2021-07-27T13:20:23.996Z</time>
      </trkpt>
      <trkpt lat="50.23811808787286" lon="5.6190024968236685">
        <ele>466.54</ele>
        <time>2021-07-27T13:20:28.244Z</time>
      </trkpt>
      <trkpt lat="50.238118171691895" lon="5.6190024968236685">
        <ele>464.87</ele>
        <time>2021-07-27T13:20:32.492Z</time>
      </trkpt>
      <trkpt lat="50.2385687828064" lon="5.618283748626709">
        <ele>463.21</ele>
        <time>2021-07-27T13:20:36.751Z</time>
      </trkpt>
      <trkpt lat="50.23895493708551" lon="5.617607748135924">
        <ele>461.4</ele>
        <time>2021-07-27T13:20:41.019Z</time>
      </trkpt>
      <trkpt lat="50.23912659846246" lon="5.6171785946935415">
        <ele>459.57</ele>
        <time>2021-07-27T13:20:45.292Z</time>
      </trkpt>
      <trkpt lat="50.23950210772455" lon="5.616116439923644">
        <ele>457.3</ele>
        <time>2021-07-27T13:20:49.577Z</time>
      </trkpt>
      <trkpt lat="50.2396737691015" lon="5.615783846005797">
        <ele>455.18</ele>
        <time>2021-07-27T13:20:53.867Z</time>
      </trkpt>
      <trkpt lat="50.24014592170715" lon="5.615022098645568">
        <ele>453.06</ele>
        <time>2021-07-27T13:20:58.168Z</time>
      </trkpt>
      <trkpt lat="50.24066090583801" lon="5.614099418744445">
        <ele>450.61</ele>
        <time>2021-07-27T13:21:02.481Z</time>
      </trkpt>
      <trkpt lat="50.240789568051696" lon="5.613809823989868">
        <ele>448.37</ele>
        <time>2021-07-27T13:21:06.798Z</time>
      </trkpt>
      <trkpt lat="50.24091831408441" lon="5.613359212875366">
        <ele>446.09</ele>
        <time>2021-07-27T13:21:11.120Z</time>
      </trkpt>
      <trkpt lat="50.241057788953185" lon="5.612769043073058">
        <ele>443.88</ele>
        <time>2021-07-27T13:21:15.448Z</time>
      </trkpt>
      <trkpt lat="50.241347551345825" lon="5.610827207565308">
        <ele>441.55</ele>
        <time>2021-07-27T13:21:19.797Z</time>
      </trkpt>
      <trkpt lat="50.24168006144464" lon="5.60850977897644">
        <ele>438.58</ele>
        <time>2021-07-27T13:21:24.170Z</time>
      </trkpt>
      <trkpt lat="50.24170160293579" lon="5.608059084042907">
        <ele>436.25</ele>
        <time>2021-07-27T13:21:28.548Z</time>
      </trkpt>
      <trkpt lat="50.24168006144464" lon="5.6074904557317495">
        <ele>433.97</ele>
        <time>2021-07-27T13:21:32.932Z</time>
      </trkpt>
      <trkpt lat="50.241583585739136" lon="5.606996929273009">
        <ele>431.65</ele>
        <time>2021-07-27T13:21:37.321Z</time>
      </trkpt>
      <trkpt lat="50.24149783886969" lon="5.6066858768463135">
        <ele>429.37</ele>
        <time>2021-07-27T13:21:41.714Z</time>
      </trkpt>
      <trkpt lat="50.24135819636285" lon="5.606374656781554">
        <ele>427.13</ele>
        <time>2021-07-27T13:21:46.111Z</time>
      </trkpt>
      <trkpt lat="50.24116507731378" lon="5.6060850620269775">
        <ele>425.0</ele>
        <time>2021-07-27T13:21:50.512Z</time>
      </trkpt>
      <trkpt lat="50.24099349975586" lon="5.605838298797607">
        <ele>422.78</ele>
        <time>2021-07-27T13:21:54.917Z</time>
      </trkpt>
      <trkpt lat="50.23993134498596" lon="5.604711687192321">
        <ele>420.41</ele>
        <time>2021-07-27T13:21:59.342Z</time>
      </trkpt>
      <trkpt lat="50.239877700805664" lon="5.6045615673065186">
        <ele>418.29</ele>
        <time>2021-07-27T13:22:03.769Z</time>
      </trkpt>
      <trkpt lat="50.23985615931451" lon="5.604411279782653">
        <ele>416.18</ele>
        <time>2021-07-27T13:22:08.197Z</time>
      </trkpt>
      <trkpt lat="50.239866971969604" lon="5.604346990585327">
        <ele>414.08</ele>
        <time>2021-07-27T13:22:12.626Z</time>
      </trkpt>
      <trkpt lat="50.23990980349481" lon="5.604218160733581">
        <ele>412.02</ele>
        <time>2021-07-27T13:22:17.057Z</time>
      </trkpt>
      <trkpt lat="50.23996353149414" lon="5.604175329208374">
        <ele>409.92</ele>
        <time>2021-07-27T13:22:21.489Z</time>
      </trkpt>
      <trkpt lat="50.24000644683838" lon="5.604143058881164">
        <ele>407.82</ele>
        <time>2021-07-27T13:22:25.921Z</time>
      </trkpt>
      <trkpt lat="50.240081464871764" lon="5.604143058881164">
        <ele>405.69</ele>
        <time>2021-07-27T13:22:30.355Z</time>
      </trkpt>
      <trkpt lat="50.24095050059259" lon="5.604422092437744">
        <ele>403.34</ele>
        <time>2021-07-27T13:22:34.803Z</time>
      </trkpt>
      <trkpt lat="50.24227023124695" lon="5.605140840634704">
        <ele>400.89</ele>
        <time>2021-07-27T13:22:39.273Z</time>
      </trkpt>
      <trkpt lat="50.24250618182123" lon="5.605248128995299">
        <ele>398.75</ele>
        <time>2021-07-27T13:22:43.747Z</time>
      </trkpt>
      <trkpt lat="50.24295687675476" lon="5.605398416519165">
        <ele>396.45</ele>
        <time>2021-07-27T13:22:48.228Z</time>
      </trkpt>
      <trkpt lat="50.24337521754205" lon="5.6054948922246695">
        <ele>394.01</ele>
        <time>2021-07-27T13:22:52.716Z</time>
      </trkpt>
      <trkpt lat="50.24393320083618" lon="5.605655824765563">
        <ele>391.76</ele>
        <time>2021-07-27T13:22:57.213Z</time>
      </trkpt>
      <trkpt lat="50.24414777755737" lon="5.605688011273742">
        <ele>389.68</ele>
        <time>2021-07-27T13:23:01.714Z</time>
      </trkpt>
      <trkpt lat="50.24438372813165" lon="5.605612909421325">
        <ele>387.6</ele>
        <time>2021-07-27T13:23:06.219Z</time>
      </trkpt>
      <trkpt lat="50.24451247416437" lon="5.6055378913879395">
        <ele>385.51</ele>
        <time>2021-07-27T13:23:10.726Z</time>
      </trkpt>
      <trkpt lat="50.24463049136102" lon="5.605409145355225">
        <ele>383.47</ele>
        <time>2021-07-27T13:23:15.235Z</time>
      </trkpt>
      <trkpt lat="50.24475923739374" lon="5.6052374839782715">
        <ele>381.46</ele>
        <time>2021-07-27T13:23:19.747Z</time>
      </trkpt>
      <trkpt lat="50.244877338409424" lon="5.604990720748901">
        <ele>379.49</ele>
        <time>2021-07-27T13:23:24.262Z</time>
      </trkpt>
      <trkpt lat="50.245563983917236" lon="5.603199005126953">
        <ele>377.4</ele>
        <time>2021-07-27T13:23:28.798Z</time>
      </trkpt>
      <trkpt lat="50.24577856063843" lon="5.602716123685241">
        <ele>375.54</ele>
        <time>2021-07-27T13:23:33.341Z</time>
      </trkpt>
      <trkpt lat="50.24599313735962" lon="5.602297782897949">
        <ele>373.67</ele>
        <time>2021-07-27T13:23:37.889Z</time>
      </trkpt>
      <trkpt lat="50.24734488688409" lon="5.6005488988012075">
        <ele>371.46</ele>
        <time>2021-07-27T13:23:42.465Z</time>
      </trkpt>
      <trkpt lat="50.247581005096436" lon="5.600312948226929">
        <ele>369.66</ele>
        <time>2021-07-27T13:23:47.046Z</time>
      </trkpt>
      <trkpt lat="50.24796715937555" lon="5.6000017281621695">
        <ele>367.84</ele>
        <time>2021-07-27T13:23:51.634Z</time>
      </trkpt>
      <trkpt lat="50.24796724319458" lon="5.6000017281621695">
        <ele>366.15</ele>
        <time>2021-07-27T13:23:56.222Z</time>
      </trkpt>
      <trkpt lat="50.24811183102429" lon="5.599866108968854">
        <ele>364.52</ele>
        <time>2021-07-27T13:24:00.812Z</time>
      </trkpt>
      <trkpt lat="50.24814787320793" lon="5.599832497537136">
        <ele>362.9</ele>
        <time>2021-07-27T13:24:05.403Z</time>
      </trkpt>
      <trkpt lat="50.2481491304934" lon="5.599831407889724">
        <ele>361.33</ele>
        <time>2021-07-27T13:24:09.994Z</time>
      </trkpt>
      <trkpt lat="50.24815156124532" lon="5.599829228594899">
        <ele>359.81</ele>
        <time>2021-07-27T13:24:14.585Z</time>
      </trkpt>
      <trkpt lat="50.248151645064354" lon="5.599829228594899">
        <ele>358.32</ele>
        <time>2021-07-27T13:24:19.176Z</time>
      </trkpt>
      <trkpt lat="50.24846068583429" lon="5.599540388211608">
        <ele>356.79</ele>
        <time>2021-07-27T13:24:23.773Z</time>
      </trkpt>
      <trkpt lat="50.2488899230957" lon="5.599207794293761">
        <ele>355.2</ele>
        <time>2021-07-27T13:24:28.378Z</time>
      </trkpt>
      <trkpt lat="50.2500057220459" lon="5.598016893491149">
        <ele>353.71</ele>
        <time>2021-07-27T13:24:33.004Z</time>
      </trkpt>
      <trkpt lat="50.25176525115967" lon="5.596815263852477">
        <ele>352.07</ele>
        <time>2021-07-27T13:24:37.661Z</time>
      </trkpt>
      <trkpt lat="50.2519154548645" lon="5.5967724323272705">
        <ele>350.78</ele>
        <time>2021-07-27T13:24:42.320Z</time>
      </trkpt>
      <trkpt lat="50.252355337142944" lon="5.5964720249176025">
        <ele>349.49</ele>
        <time>2021-07-27T13:24:46.987Z</time>
      </trkpt>
      <trkpt lat="50.25246254168451" lon="5.596407568082213">
        <ele>348.29</ele>
        <time>2021-07-27T13:24:51.656Z</time>
      </trkpt>
      <trkpt lat="50.25290242396295" lon="5.596214449033141">
        <ele>347.24</ele>
        <time>2021-07-27T13:24:56.332Z</time>
      </trkpt>
      <trkpt lat="50.25361052714288" lon="5.595967685803771">
        <ele>346.23</ele>
        <time>2021-07-27T13:25:01.020Z</time>
      </trkpt>
      <trkpt lat="50.25388956069946" lon="5.5959248542785645">
        <ele>345.03</ele>
        <time>2021-07-27T13:25:05.712Z</time>
      </trkpt>
      <trkpt lat="50.2546404954046" lon="5.595978498458862">
        <ele>343.98</ele>
        <time>2021-07-27T13:25:10.416Z</time>
      </trkpt>
      <trkpt lat="50.25543451309204" lon="5.59598914347589">
        <ele>342.63</ele>
        <time>2021-07-27T13:25:15.133Z</time>
      </trkpt>
      <trkpt lat="50.256110429763794" lon="5.59599987231195">
        <ele>341.59</ele>
        <time>2021-07-27T13:25:19.861Z</time>
      </trkpt>
      <trkpt lat="50.256282007321715" lon="5.595914041623473">
        <ele>340.8</ele>
        <time>2021-07-27T13:25:24.592Z</time>
      </trkpt>
      <trkpt lat="50.25646439753473" lon="5.595742464065552">
        <ele>340.1</ele>
        <time>2021-07-27T13:25:29.326Z</time>
      </trkpt>
      <trkpt lat="50.25658241473138" lon="5.595538532361388">
        <ele>339.45</ele>
        <time>2021-07-27T13:25:34.063Z</time>
      </trkpt>
      <trkpt lat="50.25666832923889" lon="5.595302581787109">
        <ele>338.82</ele>
        <time>2021-07-27T13:25:38.803Z</time>
      </trkpt>
      <trkpt lat="50.25670051574707" lon="5.59499136172235">
        <ele>338.22</ele>
        <time>2021-07-27T13:25:43.546Z</time>
      </trkpt>
      <trkpt lat="50.25672197341919" lon="5.594122326001525">
        <ele>337.74</ele>
        <time>2021-07-27T13:25:48.298Z</time>
      </trkpt>
      <trkpt lat="50.25663605891168" lon="5.59199801646173">
        <ele>336.97</ele>
        <time>2021-07-27T13:25:53.072Z</time>
      </trkpt>
      <trkpt lat="50.2566575165838" lon="5.59175125323236">
        <ele>336.39</ele>
        <time>2021-07-27T13:25:57.848Z</time>
      </trkpt>
      <trkpt lat="50.2567111607641" lon="5.59154748916626">
        <ele>335.87</ele>
        <time>2021-07-27T13:26:02.627Z</time>
      </trkpt>
      <trkpt lat="50.25671124458313" lon="5.59154748916626">
        <ele>335.31</ele>
        <time>2021-07-27T13:26:07.406Z</time>
      </trkpt>
      <trkpt lat="50.25674334727228" lon="5.591450845822692">
        <ele>334.76</ele>
        <time>2021-07-27T13:26:12.186Z</time>
      </trkpt>
      <trkpt lat="50.25716185569763" lon="5.590667724609375">
        <ele>334.17</ele>
        <time>2021-07-27T13:26:16.976Z</time>
      </trkpt>
      <trkpt lat="50.25723687373102" lon="5.590485334396362">
        <ele>333.57</ele>
        <time>2021-07-27T13:26:21.768Z</time>
      </trkpt>
      <trkpt lat="50.25733343325555" lon="5.590238571166992">
        <ele>332.95</ele>
        <time>2021-07-27T13:26:26.563Z</time>
      </trkpt>
      <trkpt lat="50.25749444961548" lon="5.589573299512267">
        <ele>332.24</ele>
        <time>2021-07-27T13:26:31.366Z</time>
      </trkpt>
      <trkpt lat="50.25788060389459" lon="5.587266683578491">
        <ele>331.33</ele>
        <time>2021-07-27T13:26:36.193Z</time>
      </trkpt>
      <trkpt lat="50.258063077926636" lon="5.585614442825317">
        <ele>330.69</ele>
        <time>2021-07-27T13:26:41.037Z</time>
      </trkpt>
      <trkpt lat="50.25814890861511" lon="5.585120916366577">
        <ele>330.08</ele>
        <time>2021-07-27T13:26:45.887Z</time>
      </trkpt>
      <trkpt lat="50.2584171295166" lon="5.584047948941588">
        <ele>329.3</ele>
        <time>2021-07-27T13:26:50.749Z</time>
      </trkpt>
      <trkpt lat="50.25903940200806" lon="5.58179497718811">
        <ele>328.95</ele>
        <time>2021-07-27T13:26:55.636Z</time>
      </trkpt>
      <trkpt lat="50.25918952189386" lon="5.581419467926025">
        <ele>328.25</ele>
        <time>2021-07-27T13:27:00.527Z</time>
      </trkpt>
      <trkpt lat="50.259318351745605" lon="5.581151163205504">
        <ele>327.5</ele>
        <time>2021-07-27T13:27:05.422Z</time>
      </trkpt>
      <trkpt lat="50.259565031155944" lon="5.580722009763122">
        <ele>326.62</ele>
        <time>2021-07-27T13:27:10.323Z</time>
      </trkpt>
      <trkpt lat="50.26050925254822" lon="5.579284345731139">
        <ele>325.33</ele>
        <time>2021-07-27T13:27:15.245Z</time>
      </trkpt>
      <trkpt lat="50.26068091392517" lon="5.5789517518132925">
        <ele>324.36</ele>
        <time>2021-07-27T13:27:20.171Z</time>
      </trkpt>
      <trkpt lat="50.26088467799127" lon="5.578415393829346">
        <ele>323.32</ele>
        <time>2021-07-27T13:27:25.104Z</time>
      </trkpt>
      <trkpt lat="50.26097059249878" lon="5.578243648633361">
        <ele>322.34</ele>
        <time>2021-07-27T13:27:30.039Z</time>
      </trkpt>
      <trkpt lat="50.261045610532165" lon="5.578125715255737">
        <ele>321.37</ele>
        <time>2021-07-27T13:27:34.975Z</time>
      </trkpt>
      <trkpt lat="50.26118516921997" lon="5.577986240386963">
        <ele>320.41</ele>
        <time>2021-07-27T13:27:39.914Z</time>
      </trkpt>
      <trkpt lat="50.261281644925475" lon="5.577911054715514">
        <ele>319.45</ele>
        <time>2021-07-27T13:27:44.855Z</time>
      </trkpt>
      <trkpt lat="50.26167869567871" lon="5.5777286645025015">
        <ele>318.45</ele>
        <time>2021-07-27T13:27:49.803Z</time>
      </trkpt>
      <trkpt lat="50.261775171384215" lon="5.577632188796997">
        <ele>317.41</ele>
        <time>2021-07-27T13:27:54.752Z</time>
      </trkpt>
      <trkpt lat="50.26186100207269" lon="5.5775033589452505">
        <ele>316.36</ele>
        <time>2021-07-27T13:27:59.703Z</time>
      </trkpt>
      <trkpt lat="50.26225805282593" lon="5.576559221372008">
        <ele>315.46</ele>
        <time>2021-07-27T13:28:04.666Z</time>
      </trkpt>
      <trkpt lat="50.26248327456415" lon="5.575990676879883">
        <ele>314.41</ele>
        <time>2021-07-27T13:28:09.636Z</time>
      </trkpt>
      <trkpt lat="50.263277208432555" lon="5.572900688275695">
        <ele>313.16</ele>
        <time>2021-07-27T13:28:14.640Z</time>
      </trkpt>
      <trkpt lat="50.26395320892334" lon="5.570175647735596">
        <ele>311.8</ele>
        <time>2021-07-27T13:28:19.674Z</time>
      </trkpt>
      <trkpt lat="50.264060497283936" lon="5.569767951965332">
        <ele>310.73</ele>
        <time>2021-07-27T13:28:24.712Z</time>
      </trkpt>
      <trkpt lat="50.26433936320245" lon="5.568662798032165">
        <ele>309.58</ele>
        <time>2021-07-27T13:28:29.763Z</time>
      </trkpt>
      <trkpt lat="50.26443600654602" lon="5.568362390622497">
        <ele>308.49</ele>
        <time>2021-07-27T13:28:34.817Z</time>
      </trkpt>
      <trkpt lat="50.264543294906616" lon="5.568083440884948">
        <ele>307.4</ele>
        <time>2021-07-27T13:28:39.874Z</time>
      </trkpt>
      <trkpt lat="50.26477932929993" lon="5.567622100934386">
        <ele>306.29</ele>
        <time>2021-07-27T13:28:44.937Z</time>
      </trkpt>
      <trkpt lat="50.265015279874206" lon="5.56726804934442">
        <ele>305.25</ele>
        <time>2021-07-27T13:28:50.006Z</time>
      </trkpt>
      <trkpt lat="50.26527285575867" lon="5.566849708557129">
        <ele>304.17</ele>
        <time>2021-07-27T13:28:55.081Z</time>
      </trkpt>
      <trkpt lat="50.26538014411926" lon="5.566559946164489">
        <ele>303.18</ele>
        <time>2021-07-27T13:29:00.159Z</time>
      </trkpt>
      <trkpt lat="50.26543378829956" lon="5.566377555951476">
        <ele>302.31</ele>
        <time>2021-07-27T13:29:05.239Z</time>
      </trkpt>
      <trkpt lat="50.26545524597168" lon="5.566238081082702">
        <ele>301.5</ele>
        <time>2021-07-27T13:29:10.321Z</time>
      </trkpt>
      <trkpt lat="50.26571273803711" lon="5.564993619918823">
        <ele>300.58</ele>
        <time>2021-07-27T13:29:15.416Z</time>
      </trkpt>
      <trkpt lat="50.26571282185614" lon="5.564993619918823">
        <ele>299.88</ele>
        <time>2021-07-27T13:29:20.511Z</time>
      </trkpt>
      <trkpt lat="50.265873670578" lon="5.564188873395324">
        <ele>299.14</ele>
        <time>2021-07-27T13:29:25.615Z</time>
      </trkpt>
      <trkpt lat="50.26590585708618" lon="5.563952839002013">
        <ele>298.56</ele>
        <time>2021-07-27T13:29:30.721Z</time>
      </trkpt>
      <trkpt lat="50.266088247299194" lon="5.561925172805786">
        <ele>298.16</ele>
        <time>2021-07-27T13:29:35.848Z</time>
      </trkpt>
      <trkpt lat="50.26614189147949" lon="5.561753511428833">
        <ele>297.68</ele>
        <time>2021-07-27T13:29:40.977Z</time>
      </trkpt>
      <trkpt lat="50.26623845100403" lon="5.561635410413146">
        <ele>297.23</ele>
        <time>2021-07-27T13:29:46.108Z</time>
      </trkpt>
      <trkpt lat="50.266581773757935" lon="5.561560392379761">
        <ele>296.81</ele>
        <time>2021-07-27T13:29:51.245Z</time>
      </trkpt>
      <trkpt lat="50.26666760444641" lon="5.561538934707642">
        <ele>296.5</ele>
        <time>2021-07-27T13:29:56.383Z</time>
      </trkpt>
      <trkpt lat="50.26673189364374" lon="5.561495935544372">
        <ele>296.24</ele>
        <time>2021-07-27T13:30:01.522Z</time>
      </trkpt>
      <trkpt lat="50.266828536987305" lon="5.561356460675597">
        <ele>296.03</ele>
        <time>2021-07-27T13:30:06.663Z</time>
      </trkpt>
      <trkpt lat="50.26694647036493" lon="5.561099052429199">
        <ele>295.87</ele>
        <time>2021-07-27T13:30:11.808Z</time>
      </trkpt>
      <trkpt lat="50.26713967323303" lon="5.560412323102355">
        <ele>295.77</ele>
        <time>2021-07-27T13:30:16.960Z</time>
      </trkpt>
      <trkpt lat="50.267300521954894" lon="5.559886610135436">
        <ele>295.72</ele>
        <time>2021-07-27T13:30:22.118Z</time>
      </trkpt>
      <trkpt lat="50.267375791445374" lon="5.559736490249634">
        <ele>295.65</ele>
        <time>2021-07-27T13:30:27.278Z</time>
      </trkpt>
      <trkpt lat="50.26774048805237" lon="5.55904976092279">
        <ele>295.65</ele>
        <time>2021-07-27T13:30:32.447Z</time>
      </trkpt>
      <trkpt lat="50.26777275837958" lon="5.558985471725464">
        <ele>295.62</ele>
        <time>2021-07-27T13:30:37.617Z</time>
      </trkpt>
      <trkpt lat="50.26791214942932" lon="5.558738708496094">
        <ele>295.7</ele>
        <time>2021-07-27T13:30:42.791Z</time>
      </trkpt>
      <trkpt lat="50.26811591349542" lon="5.558395301923156">
        <ele>295.73</ele>
        <time>2021-07-27T13:30:47.969Z</time>
      </trkpt>
      <trkpt lat="50.26842704974115" lon="5.557976961135864">
        <ele>295.62</ele>
        <time>2021-07-27T13:30:53.154Z</time>
      </trkpt>
      <trkpt lat="50.26842721737921" lon="5.557976961135864">
        <ele>295.55</ele>
        <time>2021-07-27T13:30:58.339Z</time>
      </trkpt>
      <trkpt lat="50.26864162646234" lon="5.557676553726196">
        <ele>295.45</ele>
        <time>2021-07-27T13:31:03.529Z</time>
      </trkpt>
      <trkpt lat="50.268995678052306" lon="5.5570971965789795">
        <ele>295.2</ele>
        <time>2021-07-27T13:31:08.727Z</time>
      </trkpt>
      <trkpt lat="50.269242441281676" lon="5.556464111432433">
        <ele>295.12</ele>
        <time>2021-07-27T13:31:13.932Z</time>
      </trkpt>
      <trkpt lat="50.26934972964227" lon="5.55630317889154">
        <ele>294.9</ele>
        <time>2021-07-27T13:31:19.140Z</time>
      </trkpt>
      <trkpt lat="50.26958576403558" lon="5.555959939956665">
        <ele>294.65</ele>
        <time>2021-07-27T13:31:24.353Z</time>
      </trkpt>
      <trkpt lat="50.270036458969116" lon="5.555219650268555">
        <ele>294.43</ele>
        <time>2021-07-27T13:31:29.576Z</time>
      </trkpt>
      <trkpt lat="50.27012228965759" lon="5.555101549252868">
        <ele>294.18</ele>
        <time>2021-07-27T13:31:34.801Z</time>
      </trkpt>
      <trkpt lat="50.27048707008362" lon="5.5547261238098145">
        <ele>293.97</ele>
        <time>2021-07-27T13:31:40.033Z</time>
      </trkpt>
      <trkpt lat="50.27118444442749" lon="5.553771173581481">
        <ele>293.62</ele>
        <time>2021-07-27T13:31:45.280Z</time>
      </trkpt>
      <trkpt lat="50.27184954844415" lon="5.5528271198272705">
        <ele>292.86</ele>
        <time>2021-07-27T13:31:50.542Z</time>
      </trkpt>
      <trkpt lat="50.27224659919739" lon="5.552076017484069">
        <ele>292.38</ele>
        <time>2021-07-27T13:31:55.814Z</time>
      </trkpt>
      <trkpt lat="50.27243971824646" lon="5.5516040325164795">
        <ele>291.8</ele>
        <time>2021-07-27T13:32:01.091Z</time>
      </trkpt>
      <trkpt lat="50.27274012565613" lon="5.551239168271422">
        <ele>291.05</ele>
        <time>2021-07-27T13:32:06.374Z</time>
      </trkpt>
      <trkpt lat="50.27274020947516" lon="5.551239168271422">
        <ele>290.45</ele>
        <time>2021-07-27T13:32:11.657Z</time>
      </trkpt>
      <trkpt lat="50.272836768999696" lon="5.551131963729858">
        <ele>289.79</ele>
        <time>2021-07-27T13:32:16.942Z</time>
      </trkpt>
      <trkpt lat="50.27395240031183" lon="5.549822961911559">
        <ele>289.21</ele>
        <time>2021-07-27T13:32:22.250Z</time>
      </trkpt>
      <trkpt lat="50.274585485458374" lon="5.549157774075866">
        <ele>288.55</ele>
        <time>2021-07-27T13:32:27.570Z</time>
      </trkpt>
      <trkpt lat="50.27492872439325" lon="5.548728620633483">
        <ele>287.81</ele>
        <time>2021-07-27T13:32:32.897Z</time>
      </trkpt>
      <trkpt lat="50.27561536990106" lon="5.548063516616821">
        <ele>286.96</ele>
        <time>2021-07-27T13:32:38.237Z</time>
      </trkpt>
      <trkpt lat="50.27645221911371" lon="5.547194480895996">
        <ele>286.13</ele>
        <time>2021-07-27T13:32:43.593Z</time>
      </trkpt>
      <trkpt lat="50.2767204400152" lon="5.54704419337213">
        <ele>285.35</ele>
        <time>2021-07-27T13:32:48.954Z</time>
      </trkpt>
      <trkpt lat="50.27683845721185" lon="5.547012006863952">
        <ele>284.49</ele>
        <time>2021-07-27T13:32:54.316Z</time>
      </trkpt>
      <trkpt lat="50.276838624849916" lon="5.547012006863952">
        <ele>283.66</ele>
        <time>2021-07-27T13:32:59.678Z</time>
      </trkpt>
      <trkpt lat="50.27705303393304" lon="5.546947717666626">
        <ele>282.84</ele>
        <time>2021-07-27T13:33:05.044Z</time>
      </trkpt>
      <trkpt lat="50.27791142463684" lon="5.5465614795684814">
        <ele>281.9</ele>
        <time>2021-07-27T13:33:10.424Z</time>
      </trkpt>
      <trkpt lat="50.278297578915954" lon="5.546432733535767">
        <ele>280.94</ele>
        <time>2021-07-27T13:33:15.811Z</time>
      </trkpt>
      <trkpt lat="50.27893058024347" lon="5.546411192044616">
        <ele>279.89</ele>
        <time>2021-07-27T13:33:21.208Z</time>
      </trkpt>
      <trkpt lat="50.27935973368585" lon="5.546475565060973">
        <ele>279.04</ele>
        <time>2021-07-27T13:33:26.612Z</time>
      </trkpt>
      <trkpt lat="50.27959585189819" lon="5.546411192044616">
        <ele>278.22</ele>
        <time>2021-07-27T13:33:32.019Z</time>
      </trkpt>
      <trkpt lat="50.27990698814392" lon="5.546271717175841">
        <ele>277.46</ele>
        <time>2021-07-27T13:33:37.432Z</time>
      </trkpt>
      <trkpt lat="50.281119430437684" lon="5.545724630355835">
        <ele>277.0</ele>
        <time>2021-07-27T13:33:42.865Z</time>
      </trkpt>
      <trkpt lat="50.28122663497925" lon="5.5456602573394775">
        <ele>276.25</ele>
        <time>2021-07-27T13:33:48.300Z</time>
      </trkpt>
      <trkpt lat="50.281269466504455" lon="5.5456602573394775">
        <ele>275.52</ele>
        <time>2021-07-27T13:33:53.735Z</time>
      </trkpt>
      <trkpt lat="50.28137675486505" lon="5.545692443847656">
        <ele>274.79</ele>
        <time>2021-07-27T13:33:59.172Z</time>
      </trkpt>
      <trkpt lat="50.28167716227472" lon="5.5458855628967285">
        <ele>273.99</ele>
        <time>2021-07-27T13:34:04.614Z</time>
      </trkpt>
      <trkpt lat="50.28220287524164" lon="5.546025037765503">
        <ele>273.19</ele>
        <time>2021-07-27T13:34:10.065Z</time>
      </trkpt>
      <trkpt lat="50.28259984217584" lon="5.546046495437622">
        <ele>272.54</ele>
        <time>2021-07-27T13:34:15.522Z</time>
      </trkpt>
      <trkpt lat="50.28375864028931" lon="5.546046495437622">
        <ele>272.04</ele>
        <time>2021-07-27T13:34:20.998Z</time>
      </trkpt>
      <trkpt lat="50.285046100616455" lon="5.546067953109741">
        <ele>272.16</ele>
        <time>2021-07-27T13:34:26.494Z</time>
      </trkpt>
      <trkpt lat="50.28595796786249" lon="5.546540021896362">
        <ele>271.96</ele>
        <time>2021-07-27T13:34:32.006Z</time>
      </trkpt>
      <trkpt lat="50.28637647628784" lon="5.546647310256958">
        <ele>271.75</ele>
        <time>2021-07-27T13:34:37.525Z</time>
      </trkpt>
      <trkpt lat="50.288769006729126" lon="5.5471837520599365">
        <ele>270.6</ele>
        <time>2021-07-27T13:34:43.082Z</time>
      </trkpt>
      <trkpt lat="50.28886548243463" lon="5.547269582748413">
        <ele>270.37</ele>
        <time>2021-07-27T13:34:48.641Z</time>
      </trkpt>
      <trkpt lat="50.28896220959723" lon="5.547376871109009">
        <ele>270.22</ele>
        <time>2021-07-27T13:34:54.202Z</time>
      </trkpt>
      <trkpt lat="50.288972770795226" lon="5.547451889142394">
        <ele>270.2</ele>
        <time>2021-07-27T13:34:59.764Z</time>
      </trkpt>
      <trkpt lat="50.289015769958496" lon="5.547537803649902">
        <ele>270.26</ele>
        <time>2021-07-27T13:35:05.327Z</time>
      </trkpt>
      <trkpt lat="50.289047956466675" lon="5.547698652371764">
        <ele>270.42</ele>
        <time>2021-07-27T13:35:10.892Z</time>
      </trkpt>
      <trkpt lat="50.289047956466675" lon="5.547977685928345">
        <ele>270.71</ele>
        <time>2021-07-27T13:35:16.460Z</time>
      </trkpt>
      <trkpt lat="50.28900504112244" lon="5.548202991485596">
        <ele>271.15</ele>
        <time>2021-07-27T13:35:22.030Z</time>
      </trkpt>
      <trkpt lat="50.28895131312311" lon="5.548492670059204">
        <ele>271.72</ele>
        <time>2021-07-27T13:35:27.603Z</time>
      </trkpt>
      <trkpt lat="50.28884402476251" lon="5.549082672223449">
        <ele>272.4</ele>
        <time>2021-07-27T13:35:33.182Z</time>
      </trkpt>
      <trkpt lat="50.288769006729126" lon="5.549576198682189">
        <ele>273.27</ele>
        <time>2021-07-27T13:35:38.767Z</time>
      </trkpt>
      <trkpt lat="50.288801277056336" lon="5.549844419583678">
        <ele>274.25</ele>
        <time>2021-07-27T13:35:44.354Z</time>
      </trkpt>
      <trkpt lat="50.28889766894281" lon="5.5501126404851675">
        <ele>275.37</ele>
        <time>2021-07-27T13:35:49.944Z</time>
      </trkpt>
      <trkpt lat="50.289026414975524" lon="5.550252115353942">
        <ele>276.51</ele>
        <time>2021-07-27T13:35:55.537Z</time>
      </trkpt>
      <trkpt lat="50.28971306048334" lon="5.550445234403014">
        <ele>277.78</ele>
        <time>2021-07-27T13:36:01.141Z</time>
      </trkpt>
      <trkpt lat="50.29046416282654" lon="5.550820743665099">
        <ele>279.12</ele>
        <time>2021-07-27T13:36:06.758Z</time>
      </trkpt>
      <trkpt lat="50.290753757581115" lon="5.550906574353576">
        <ele>280.43</ele>
        <time>2021-07-27T13:36:12.380Z</time>
      </trkpt>
      <trkpt lat="50.29124736785889" lon="5.550949573516846">
        <ele>281.98</ele>
        <time>2021-07-27T13:36:18.009Z</time>
      </trkpt>
      <trkpt lat="50.291461860761046" lon="5.550992405042052">
        <ele>283.35</ele>
        <time>2021-07-27T13:36:23.642Z</time>
      </trkpt>
      <trkpt lat="50.29165506362915" lon="5.551099693402648">
        <ele>284.7</ele>
        <time>2021-07-27T13:36:29.278Z</time>
      </trkpt>
      <trkpt lat="50.29180518351495" lon="5.5513787269592285">
        <ele>286.12</ele>
        <time>2021-07-27T13:36:34.918Z</time>
      </trkpt>
      <trkpt lat="50.29190182685852" lon="5.551668321713805">
        <ele>287.58</ele>
        <time>2021-07-27T13:36:40.561Z</time>
      </trkpt>
      <trkpt lat="50.29192320071161" lon="5.551968729123473">
        <ele>289.03</ele>
        <time>2021-07-27T13:36:46.207Z</time>
      </trkpt>
      <trkpt lat="50.29190534725785" lon="5.552124297246337">
        <ele>290.54</ele>
        <time>2021-07-27T13:36:51.855Z</time>
      </trkpt>
      <trkpt lat="50.29189797118306" lon="5.5521889217197895">
        <ele>292.05</ele>
        <time>2021-07-27T13:36:57.504Z</time>
      </trkpt>
      <trkpt lat="50.291897803545" lon="5.5521906819194555">
        <ele>293.55</ele>
        <time>2021-07-27T13:37:03.153Z</time>
      </trkpt>
      <trkpt lat="50.29189738444984" lon="5.552194872871041">
        <ele>295.07</ele>
        <time>2021-07-27T13:37:08.802Z</time>
      </trkpt>
      <trkpt lat="50.29189738444984" lon="5.552195208147168">
        <ele>296.6</ele>
        <time>2021-07-27T13:37:14.451Z</time>
      </trkpt>
      <trkpt lat="50.29183737002313" lon="5.552719831466675">
        <ele>298.23</ele>
        <time>2021-07-27T13:37:20.105Z</time>
      </trkpt>
      <trkpt lat="50.291805267333984" lon="5.552912950515747">
        <ele>299.81</ele>
        <time>2021-07-27T13:37:25.761Z</time>
      </trkpt>
      <trkpt lat="50.29167643748224" lon="5.553846275433898">
        <ele>301.51</ele>
        <time>2021-07-27T13:37:31.427Z</time>
      </trkpt>
      <trkpt lat="50.29165506362915" lon="5.554114496335387">
        <ele>303.08</ele>
        <time>2021-07-27T13:37:37.096Z</time>
      </trkpt>
      <trkpt lat="50.29168725013733" lon="5.554511547088623">
        <ele>304.66</ele>
        <time>2021-07-27T13:37:42.769Z</time>
      </trkpt>
      <trkpt lat="50.29181591235101" lon="5.554919242858887">
        <ele>306.25</ele>
        <time>2021-07-27T13:37:48.447Z</time>
      </trkpt>
      <trkpt lat="50.2919340133667" lon="5.555112361907959">
        <ele>307.84</ele>
        <time>2021-07-27T13:37:54.127Z</time>
      </trkpt>
      <trkpt lat="50.29209494590759" lon="5.55528393946588">
        <ele>309.41</ele>
        <time>2021-07-27T13:37:59.810Z</time>
      </trkpt>
      <trkpt lat="50.29229870997369" lon="5.555423414334655">
        <ele>310.94</ele>
        <time>2021-07-27T13:38:05.497Z</time>
      </trkpt>
      <trkpt lat="50.292298793792725" lon="5.555423414334655">
        <ele>312.42</ele>
        <time>2021-07-27T13:38:11.184Z</time>
      </trkpt>
      <trkpt lat="50.29283070936799" lon="5.55580772459507">
        <ele>314.01</ele>
        <time>2021-07-27T13:38:16.880Z</time>
      </trkpt>
      <trkpt lat="50.29286884702742" lon="5.555835301056504">
        <ele>315.47</ele>
        <time>2021-07-27T13:38:22.577Z</time>
      </trkpt>
      <trkpt lat="50.29286993667483" lon="5.55583605542779">
        <ele>316.89</ele>
        <time>2021-07-27T13:38:28.274Z</time>
      </trkpt>
      <trkpt lat="50.29287261888385" lon="5.555837983265519">
        <ele>318.29</ele>
        <time>2021-07-27T13:38:33.971Z</time>
      </trkpt>
      <trkpt lat="50.29287270270288" lon="5.555837983265519">
        <ele>319.66</ele>
        <time>2021-07-27T13:38:39.668Z</time>
      </trkpt>
      <trkpt lat="50.29345750808716" lon="5.556260347366333">
        <ele>321.22</ele>
        <time>2021-07-27T13:38:45.375Z</time>
      </trkpt>
      <trkpt lat="50.293768560513854" lon="5.556550025939941">
        <ele>322.6</ele>
        <time>2021-07-27T13:38:51.088Z</time>
      </trkpt>
      <trkpt lat="50.29409042559564" lon="5.556893264874816">
        <ele>324.04</ele>
        <time>2021-07-27T13:38:56.808Z</time>
      </trkpt>
      <trkpt lat="50.29409050941467" lon="5.556893264874816">
        <ele>325.25</ele>
        <time>2021-07-27T13:39:02.528Z</time>
      </trkpt>
      <trkpt lat="50.29412269592285" lon="5.556936264038086">
        <ele>326.43</ele>
        <time>2021-07-27T13:39:08.248Z</time>
      </trkpt>
      <trkpt lat="50.29439083300531" lon="5.5572795029729605">
        <ele>327.61</ele>
        <time>2021-07-27T13:39:13.974Z</time>
      </trkpt>
      <trkpt lat="50.29448747634888" lon="5.557483434677124">
        <ele>328.72</ele>
        <time>2021-07-27T13:39:19.702Z</time>
      </trkpt>
      <trkpt lat="50.294508850201964" lon="5.557558536529541">
        <ele>329.73</ele>
        <time>2021-07-27T13:39:25.431Z</time>
      </trkpt>
      <trkpt lat="50.294508850201964" lon="5.557708656415343">
        <ele>330.69</ele>
        <time>2021-07-27T13:39:31.162Z</time>
      </trkpt>
      <trkpt lat="50.294476663693786" lon="5.557848131284118">
        <ele>331.6</ele>
        <time>2021-07-27T13:39:36.894Z</time>
      </trkpt>
      <trkpt lat="50.29441237449646" lon="5.557976961135864">
        <ele>332.45</ele>
        <time>2021-07-27T13:39:42.628Z</time>
      </trkpt>
      <trkpt lat="50.29433718882501" lon="5.558062708005309">
        <ele>333.22</ele>
        <time>2021-07-27T13:39:48.363Z</time>
      </trkpt>
      <trkpt lat="50.29411196708679" lon="5.558116352185607">
        <ele>333.89</ele>
        <time>2021-07-27T13:39:54.102Z</time>
      </trkpt>
      <trkpt lat="50.29332867823541" lon="5.558052062988281">
        <ele>334.67</ele>
        <time>2021-07-27T13:39:59.854Z</time>
      </trkpt>
      <trkpt lat="50.29332876205444" lon="5.558052062988281">
        <ele>335.18</ele>
        <time>2021-07-27T13:40:05.606Z</time>
      </trkpt>
      <trkpt lat="50.29296465218067" lon="5.558022391051054">
        <ele>335.62</ele>
        <time>2021-07-27T13:40:11.363Z</time>
      </trkpt>
      <trkpt lat="50.29293171130121" lon="5.558019792661071">
        <ele>335.97</ele>
        <time>2021-07-27T13:40:17.121Z</time>
      </trkpt>
      <trkpt lat="50.292922742664814" lon="5.558020630851388">
        <ele>336.24</ele>
        <time>2021-07-27T13:40:22.879Z</time>
      </trkpt>
      <trkpt lat="50.29292115010321" lon="5.558020798489451">
        <ele>336.42</ele>
        <time>2021-07-27T13:40:28.637Z</time>
      </trkpt>
      <trkpt lat="50.29291779734194" lon="5.55802121758461">
        <ele>336.53</ele>
        <time>2021-07-27T13:40:34.395Z</time>
      </trkpt>
      <trkpt lat="50.29291771352291" lon="5.55802121758461">
        <ele>336.56</ele>
        <time>2021-07-27T13:40:40.153Z</time>
      </trkpt>
      <trkpt lat="50.29270640574396" lon="5.55804125033319">
        <ele>336.51</ele>
        <time>2021-07-27T13:40:45.915Z</time>
      </trkpt>
      <trkpt lat="50.29247045516968" lon="5.558180725201964">
        <ele>336.38</ele>
        <time>2021-07-27T13:40:51.681Z</time>
      </trkpt>
      <trkpt lat="50.29229460284114" lon="5.55835640989244">
        <ele>336.13</ele>
        <time>2021-07-27T13:40:57.450Z</time>
      </trkpt>
      <trkpt lat="50.292259231209755" lon="5.558391781523824">
        <ele>335.85</ele>
        <time>2021-07-27T13:41:03.220Z</time>
      </trkpt>
      <trkpt lat="50.29225805774331" lon="5.5583930388092995">
        <ele>335.53</ele>
        <time>2021-07-27T13:41:08.990Z</time>
      </trkpt>
      <trkpt lat="50.29202998615801" lon="5.558599987998605">
        <ele>335.09</ele>
        <time>2021-07-27T13:41:14.764Z</time>
      </trkpt>
      <trkpt lat="50.2919099573046" lon="5.558669976890087">
        <ele>334.62</ele>
        <time>2021-07-27T13:41:20.540Z</time>
      </trkpt>
      <trkpt lat="50.291819935664535" lon="5.558709958568215">
        <ele>334.1</ele>
        <time>2021-07-27T13:41:26.317Z</time>
      </trkpt>
      <trkpt lat="50.29161994345486" lon="5.558749940246344">
        <ele>333.53</ele>
        <time>2021-07-27T13:41:32.098Z</time>
      </trkpt>
      <trkpt lat="50.291306963190436" lon="5.558799728751183">
        <ele>332.89</ele>
        <time>2021-07-27T13:41:37.884Z</time>
      </trkpt>
      <trkpt lat="50.29099389910698" lon="5.55884943343699">
        <ele>332.19</ele>
        <time>2021-07-27T13:41:43.675Z</time>
      </trkpt>
      <trkpt lat="50.29068083502352" lon="5.558899138122797">
        <ele>331.47</ele>
        <time>2021-07-27T13:41:49.471Z</time>
      </trkpt>
      <trkpt lat="50.290549993515015" lon="5.558919925242662">
        <ele>330.72</ele>
        <time>2021-07-27T13:41:55.269Z</time>
      </trkpt>
      <trkpt lat="50.29024044983089" lon="5.559008354321122">
        <ele>329.9</ele>
        <time>2021-07-27T13:42:01.072Z</time>
      </trkpt>
      <trkpt lat="50.29019996523857" lon="5.559019921347499">
        <ele>329.11</ele>
        <time>2021-07-27T13:42:06.876Z</time>
      </trkpt>
      <trkpt lat="50.2899999730289" lon="5.559259979054332">
        <ele>328.26</ele>
        <time>2021-07-27T13:42:12.684Z</time>
      </trkpt>
      <trkpt lat="50.28989997692406" lon="5.559519985690713">
        <ele>327.41</ele>
        <time>2021-07-27T13:42:18.495Z</time>
      </trkpt>
      <trkpt lat="50.289819929748774" lon="5.559799941256642">
        <ele>326.56</ele>
        <time>2021-07-27T13:42:24.309Z</time>
      </trkpt>
      <trkpt lat="50.2897599991411" lon="5.560279972851276">
        <ele>325.64</ele>
        <time>2021-07-27T13:42:30.128Z</time>
      </trkpt>
      <trkpt lat="50.289719849824905" lon="5.5607670452445745">
        <ele>324.76</ele>
        <time>2021-07-27T13:42:35.952Z</time>
      </trkpt>
      <trkpt lat="50.289679700508714" lon="5.561254201456904">
        <ele>323.83</ele>
        <time>2021-07-27T13:42:41.781Z</time>
      </trkpt>
      <trkpt lat="50.289639635011554" lon="5.561741357669234">
        <ele>322.83</ele>
        <time>2021-07-27T13:42:47.615Z</time>
      </trkpt>
      <trkpt lat="50.2896199375391" lon="5.561979990452528">
        <ele>321.87</ele>
        <time>2021-07-27T13:42:53.452Z</time>
      </trkpt>
      <trkpt lat="50.289580542594194" lon="5.56246723048389">
        <ele>320.98</ele>
        <time>2021-07-27T13:42:59.294Z</time>
      </trkpt>
      <trkpt lat="50.28954123146832" lon="5.562954470515251">
        <ele>320.13</ele>
        <time>2021-07-27T13:43:05.141Z</time>
      </trkpt>
      <trkpt lat="50.289539974182844" lon="5.5629699770361185">
        <ele>319.25</ele>
        <time>2021-07-27T13:43:10.988Z</time>
      </trkpt>
      <trkpt lat="50.28952999971807" lon="5.56335998699069">
        <ele>318.38</ele>
        <time>2021-07-27T13:43:16.839Z</time>
      </trkpt>
      <trkpt lat="50.28954994864762" lon="5.5638099275529385">
        <ele>317.54</ele>
        <time>2021-07-27T13:43:22.694Z</time>
      </trkpt>
      <trkpt lat="50.28958993032575" lon="5.564149981364608">
        <ele>316.66</ele>
        <time>2021-07-27T13:43:28.553Z</time>
      </trkpt>
      <trkpt lat="50.289665535092354" lon="5.564626744017005">
        <ele>315.84</ele>
        <time>2021-07-27T13:43:34.417Z</time>
      </trkpt>
      <trkpt lat="50.28974113985896" lon="5.565103506669402">
        <ele>314.95</ele>
        <time>2021-07-27T13:43:40.286Z</time>
      </trkpt>
      <trkpt lat="50.28981666080654" lon="5.565580185502768">
        <ele>314.03</ele>
        <time>2021-07-27T13:43:46.160Z</time>
      </trkpt>
      <trkpt lat="50.289892265573144" lon="5.566056948155165">
        <ele>313.22</ele>
        <time>2021-07-27T13:43:52.039Z</time>
      </trkpt>
      <trkpt lat="50.28996787033975" lon="5.566533710807562">
        <ele>312.47</ele>
        <time>2021-07-27T13:43:57.923Z</time>
      </trkpt>
      <trkpt lat="50.29004347510636" lon="5.567010473459959">
        <ele>311.67</ele>
        <time>2021-07-27T13:44:03.812Z</time>
      </trkpt>
      <trkpt lat="50.29010994359851" lon="5.567429987713695">
        <ele>310.87</ele>
        <time>2021-07-27T13:44:09.706Z</time>
      </trkpt>
      <trkpt lat="50.29018362052739" lon="5.5679074209183455">
        <ele>310.06</ele>
        <time>2021-07-27T13:44:15.605Z</time>
      </trkpt>
      <trkpt lat="50.290257297456264" lon="5.568384937942028">
        <ele>309.27</ele>
        <time>2021-07-27T13:44:21.509Z</time>
      </trkpt>
      <trkpt lat="50.29033097438514" lon="5.568862371146679">
        <ele>308.49</ele>
        <time>2021-07-27T13:44:27.418Z</time>
      </trkpt>
      <trkpt lat="50.290359975770116" lon="5.569049958139658">
        <ele>307.75</ele>
        <time>2021-07-27T13:44:33.329Z</time>
      </trkpt>
      <trkpt lat="50.29040993191302" lon="5.569409960880876">
        <ele>306.99</ele>
        <time>2021-07-27T13:44:39.244Z</time>
      </trkpt>
      <trkpt lat="50.29040993191302" lon="5.569879934191704">
        <ele>306.28</ele>
        <time>2021-07-27T13:44:45.163Z</time>
      </trkpt>
      <trkpt lat="50.290349666029215" lon="5.570361977443099">
        <ele>305.6</ele>
        <time>2021-07-27T13:44:51.087Z</time>
      </trkpt>
      <trkpt lat="50.290339943021536" lon="5.570439929142594">
        <ele>305.0</ele>
        <time>2021-07-27T13:44:57.012Z</time>
      </trkpt>
      <trkpt lat="50.29031999409199" lon="5.5705199763178825">
        <ele>304.45</ele>
        <time>2021-07-27T13:45:02.938Z</time>
      </trkpt>
      <trkpt lat="50.29028998687863" lon="5.570629946887493">
        <ele>303.94</ele>
        <time>2021-07-27T13:45:08.865Z</time>
      </trkpt>
      <trkpt lat="50.29017993248999" lon="5.570849971845746">
        <ele>303.41</ele>
        <time>2021-07-27T13:45:14.795Z</time>
      </trkpt>
      <trkpt lat="50.29002998024225" lon="5.571139985695481">
        <ele>302.94</ele>
        <time>2021-07-27T13:45:20.729Z</time>
      </trkpt>
      <trkpt lat="50.2899999730289" lon="5.571209974586964">
        <ele>302.56</ele>
        <time>2021-07-27T13:45:26.664Z</time>
      </trkpt>
      <trkpt lat="50.28979838825762" lon="5.571587076410651">
        <ele>302.16</ele>
        <time>2021-07-27T13:45:32.604Z</time>
      </trkpt>
      <trkpt lat="50.28959680348635" lon="5.571964178234339">
        <ele>301.83</ele>
        <time>2021-07-27T13:45:38.549Z</time>
      </trkpt>
      <trkpt lat="50.28939521871507" lon="5.572341363877058">
        <ele>301.66</ele>
        <time>2021-07-27T13:45:44.499Z</time>
      </trkpt>
      <trkpt lat="50.28919371776283" lon="5.572718465700746">
        <ele>301.48</ele>
        <time>2021-07-27T13:45:50.454Z</time>
      </trkpt>
      <trkpt lat="50.289069917052984" lon="5.5729499738663435">
        <ele>301.32</ele>
        <time>2021-07-27T13:45:56.412Z</time>
      </trkpt>
      <trkpt lat="50.28892993927002" lon="5.573349958285689">
        <ele>301.21</ele>
        <time>2021-07-27T13:46:02.375Z</time>
      </trkpt>
      <trkpt lat="50.28884997591376" lon="5.573699986562133">
        <ele>301.21</ele>
        <time>2021-07-27T13:46:08.342Z</time>
      </trkpt>
      <trkpt lat="50.288789961487055" lon="5.574119919911027">
        <ele>301.26</ele>
        <time>2021-07-27T13:46:14.313Z</time>
      </trkpt>
      <trkpt lat="50.28879448771477" lon="5.574611015617847">
        <ele>301.32</ele>
        <time>2021-07-27T13:46:20.289Z</time>
      </trkpt>
      <trkpt lat="50.28879901394248" lon="5.575102111324668">
        <ele>301.48</ele>
        <time>2021-07-27T13:46:26.270Z</time>
      </trkpt>
      <trkpt lat="50.28879993595183" lon="5.57519992813468">
        <ele>301.71</ele>
        <time>2021-07-27T13:46:32.252Z</time>
      </trkpt>
      <trkpt lat="50.28881317935884" lon="5.575690604746342">
        <ele>302.02</ele>
        <time>2021-07-27T13:46:38.239Z</time>
      </trkpt>
      <trkpt lat="50.28881996870041" lon="5.575939966365695">
        <ele>302.36</ele>
        <time>2021-07-27T13:46:44.229Z</time>
      </trkpt>
      <trkpt lat="50.28883111663163" lon="5.57643081061542">
        <ele>302.88</ele>
        <time>2021-07-27T13:46:50.224Z</time>
      </trkpt>
      <trkpt lat="50.28883991762996" lon="5.576819982379675">
        <ele>303.27</ele>
        <time>2021-07-27T13:46:56.223Z</time>
      </trkpt>
      <trkpt lat="50.28884578496218" lon="5.577310994267464">
        <ele>303.57</ele>
        <time>2021-07-27T13:47:02.227Z</time>
      </trkpt>
      <trkpt lat="50.288851568475366" lon="5.5778020061552525">
        <ele>303.93</ele>
        <time>2021-07-27T13:47:08.236Z</time>
      </trkpt>
      <trkpt lat="50.288857435807586" lon="5.578293101862073">
        <ele>304.36</ele>
        <time>2021-07-27T13:47:14.250Z</time>
      </trkpt>
      <trkpt lat="50.288863219320774" lon="5.578784113749862">
        <ele>304.76</ele>
        <time>2021-07-27T13:47:20.269Z</time>
      </trkpt>
      <trkpt lat="50.288869086652994" lon="5.5792751256376505">
        <ele>305.17</ele>
        <time>2021-07-27T13:47:26.293Z</time>
      </trkpt>
      <trkpt lat="50.28886992484331" lon="5.579349976032972">
        <ele>305.51</ele>
        <time>2021-07-27T13:47:32.318Z</time>
      </trkpt>
      <trkpt lat="50.288885766640306" lon="5.579840485006571">
        <ele>305.84</ele>
        <time>2021-07-27T13:47:38.348Z</time>
      </trkpt>
      <trkpt lat="50.288899932056665" lon="5.580279948189855">
        <ele>306.18</ele>
        <time>2021-07-27T13:47:44.382Z</time>
      </trkpt>
      <trkpt lat="50.28890999034047" lon="5.580759979784489">
        <ele>306.54</ele>
        <time>2021-07-27T13:47:50.421Z</time>
      </trkpt>
      <trkpt lat="50.28894360177219" lon="5.581248225644231">
        <ele>306.84</ele>
        <time>2021-07-27T13:47:56.465Z</time>
      </trkpt>
      <trkpt lat="50.2889499720186" lon="5.5813399236649275">
        <ele>307.05</ele>
        <time>2021-07-27T13:48:02.510Z</time>
      </trkpt>
      <trkpt lat="50.2889999281615" lon="5.5816099885851145">
        <ele>307.23</ele>
        <time>2021-07-27T13:48:08.558Z</time>
      </trkpt>
      <trkpt lat="50.289121298119426" lon="5.582063114270568">
        <ele>307.37</ele>
        <time>2021-07-27T13:48:14.611Z</time>
      </trkpt>
      <trkpt lat="50.28914996422827" lon="5.582169983536005">
        <ele>307.49</ele>
        <time>2021-07-27T13:48:20.665Z</time>
      </trkpt>
      <trkpt lat="50.28929891064763" lon="5.582602573558688">
        <ele>307.57</ele>
        <time>2021-07-27T13:48:26.724Z</time>
      </trkpt>
      <trkpt lat="50.28944794088602" lon="5.583035163581371">
        <ele>307.52</ele>
        <time>2021-07-27T13:48:32.788Z</time>
      </trkpt>
      <trkpt lat="50.28959688730538" lon="5.5834677536040545">
        <ele>307.48</ele>
        <time>2021-07-27T13:48:38.857Z</time>
      </trkpt>
      <trkpt lat="50.28974591754377" lon="5.583900343626738">
        <ele>307.48</ele>
        <time>2021-07-27T13:48:44.931Z</time>
      </trkpt>
      <trkpt lat="50.28989486396313" lon="5.584332933649421">
        <ele>307.41</ele>
        <time>2021-07-27T13:48:51.010Z</time>
      </trkpt>
      <trkpt lat="50.28997994028032" lon="5.584579948335886">
        <ele>307.36</ele>
        <time>2021-07-27T13:48:57.092Z</time>
      </trkpt>
      <trkpt lat="50.29012997634709" lon="5.585011700168252">
        <ele>307.35</ele>
        <time>2021-07-27T13:49:03.179Z</time>
      </trkpt>
      <trkpt lat="50.29028001241386" lon="5.585443368181586">
        <ele>307.2</ele>
        <time>2021-07-27T13:49:09.271Z</time>
      </trkpt>
      <trkpt lat="50.29043004848063" lon="5.585875120013952">
        <ele>306.99</ele>
        <time>2021-07-27T13:49:15.368Z</time>
      </trkpt>
      <trkpt lat="50.2905800845474" lon="5.5863067880272865">
        <ele>306.84</ele>
        <time>2021-07-27T13:49:21.471Z</time>
      </trkpt>
      <trkpt lat="50.29073012061417" lon="5.5867385398596525">
        <ele>306.73</ele>
        <time>2021-07-27T13:49:27.579Z</time>
      </trkpt>
      <trkpt lat="50.29088015668094" lon="5.587170207872987">
        <ele>306.6</ele>
        <time>2021-07-27T13:49:33.692Z</time>
      </trkpt>
      <trkpt lat="50.29103019274771" lon="5.587601875886321">
        <ele>306.48</ele>
        <time>2021-07-27T13:49:39.810Z</time>
      </trkpt>
      <trkpt lat="50.29103999957442" lon="5.587629955261946">
        <ele>306.38</ele>
        <time>2021-07-27T13:49:45.928Z</time>
      </trkpt>
      <trkpt lat="50.29119313694537" lon="5.588058941066265">
        <ele>306.28</ele>
        <time>2021-07-27T13:49:52.051Z</time>
      </trkpt>
      <trkpt lat="50.29134635813534" lon="5.5884879268705845">
        <ele>306.23</ele>
        <time>2021-07-27T13:49:58.179Z</time>
      </trkpt>
      <trkpt lat="50.291389944031835" lon="5.588609967380762">
        <ele>306.19</ele>
        <time>2021-07-27T13:50:04.308Z</time>
      </trkpt>
      <trkpt lat="50.29154215939343" lon="5.589039791375399">
        <ele>306.16</ele>
        <time>2021-07-27T13:50:10.443Z</time>
      </trkpt>
      <trkpt lat="50.29169445857406" lon="5.589469615370035">
        <ele>306.21</ele>
        <time>2021-07-27T13:50:16.583Z</time>
      </trkpt>
      <trkpt lat="50.29184667393565" lon="5.589899523183703">
        <ele>306.31</ele>
        <time>2021-07-27T13:50:22.728Z</time>
      </trkpt>
      <trkpt lat="50.29199888929725" lon="5.59032934717834">
        <ele>306.56</ele>
        <time>2021-07-27T13:50:28.878Z</time>
      </trkpt>
      <trkpt lat="50.29215110465884" lon="5.5907591711729765">
        <ele>306.9</ele>
        <time>2021-07-27T13:50:35.033Z</time>
      </trkpt>
      <trkpt lat="50.29223995283246" lon="5.591009957715869">
        <ele>307.26</ele>
        <time>2021-07-27T13:50:41.191Z</time>
      </trkpt>
      <trkpt lat="50.29239141382277" lon="5.591440452262759">
        <ele>307.67</ele>
        <time>2021-07-27T13:50:47.354Z</time>
      </trkpt>
      <trkpt lat="50.29254287481308" lon="5.5918709468096495">
        <ele>308.14</ele>
        <time>2021-07-27T13:50:53.522Z</time>
      </trkpt>
      <trkpt lat="50.29269433580339" lon="5.59230144135654">
        <ele>308.76</ele>
        <time>2021-07-27T13:50:59.695Z</time>
      </trkpt>
      <trkpt lat="50.292809922248125" lon="5.592629928141832">
        <ele>309.38</ele>
        <time>2021-07-27T13:51:05.872Z</time>
      </trkpt>
      <trkpt lat="50.29295685701072" lon="5.593064362183213">
        <ele>310.07</ele>
        <time>2021-07-27T13:51:12.054Z</time>
      </trkpt>
      <trkpt lat="50.29310370795429" lon="5.593498712405562">
        <ele>310.83</ele>
        <time>2021-07-27T13:51:18.241Z</time>
      </trkpt>
      <trkpt lat="50.29325055889785" lon="5.593933062627912">
        <ele>311.67</ele>
        <time>2021-07-27T13:51:24.433Z</time>
      </trkpt>
      <trkpt lat="50.293279979377985" lon="5.5940199829638">
        <ele>312.6</ele>
        <time>2021-07-27T13:51:30.626Z</time>
      </trkpt>
      <trkpt lat="50.29343227855861" lon="5.594449723139405">
        <ele>313.62</ele>
        <time>2021-07-27T13:51:36.824Z</time>
      </trkpt>
      <trkpt lat="50.29358457773924" lon="5.594879547134042">
        <ele>314.71</ele>
        <time>2021-07-27T13:51:43.027Z</time>
      </trkpt>
      <trkpt lat="50.2937369607389" lon="5.595309287309647">
        <ele>315.9</ele>
        <time>2021-07-27T13:51:49.235Z</time>
      </trkpt>
      <trkpt lat="50.293839974328876" lon="5.595599971711636">
        <ele>317.14</ele>
        <time>2021-07-27T13:51:55.446Z</time>
      </trkpt>
      <trkpt lat="50.2939957100898" lon="5.596026694402099">
        <ele>318.61</ele>
        <time>2021-07-27T13:52:01.662Z</time>
      </trkpt>
      <trkpt lat="50.2940699737519" lon="5.5962299555540085">
        <ele>320.05</ele>
        <time>2021-07-27T13:52:07.881Z</time>
      </trkpt>
      <trkpt lat="50.294119929894805" lon="5.596319977194071">
        <ele>321.52</ele>
        <time>2021-07-27T13:52:14.101Z</time>
      </trkpt>
      <trkpt lat="50.29420995153487" lon="5.596559951081872">
        <ele>323.09</ele>
        <time>2021-07-27T13:52:20.324Z</time>
      </trkpt>
      <trkpt lat="50.29435713775456" lon="5.596994133666158">
        <ele>324.73</ele>
        <time>2021-07-27T13:52:26.552Z</time>
      </trkpt>
      <trkpt lat="50.29440994374454" lon="5.597149953246117">
        <ele>326.39</ele>
        <time>2021-07-27T13:52:32.782Z</time>
      </trkpt>
      <trkpt lat="50.294549921527505" lon="5.597559995949268">
        <ele>328.32</ele>
        <time>2021-07-27T13:52:39.016Z</time>
      </trkpt>
      <trkpt lat="50.2946899831295" lon="5.597959980368614">
        <ele>330.12</ele>
        <time>2021-07-27T13:52:45.255Z</time>
      </trkpt>
      <trkpt lat="50.29483708553016" lon="5.598394079133868">
        <ele>332.15</ele>
        <time>2021-07-27T13:52:51.499Z</time>
      </trkpt>
      <trkpt lat="50.294889975339174" lon="5.598549982532859">
        <ele>334.03</ele>
        <time>2021-07-27T13:52:57.745Z</time>
      </trkpt>
      <trkpt lat="50.29495996423066" lon="5.5989099852740765">
        <ele>335.96</ele>
        <time>2021-07-27T13:53:03.995Z</time>
      </trkpt>
      <trkpt lat="50.294999945908785" lon="5.599079970270395">
        <ele>337.78</ele>
        <time>2021-07-27T13:53:10.247Z</time>
      </trkpt>
      <trkpt lat="50.295051326975226" lon="5.599564528092742">
        <ele>339.5</ele>
        <time>2021-07-27T13:53:16.504Z</time>
      </trkpt>
      <trkpt lat="50.29506993480027" lon="5.599739961326122">
        <ele>341.31</ele>
        <time>2021-07-27T13:53:22.762Z</time>
      </trkpt>
      <trkpt lat="50.295096170157194" lon="5.60022946447134">
        <ele>343.06</ele>
        <time>2021-07-27T13:53:29.026Z</time>
      </trkpt>
      <trkpt lat="50.29509994201362" lon="5.600299956277013">
        <ele>344.84</ele>
        <time>2021-07-27T13:53:35.290Z</time>
      </trkpt>
      <trkpt lat="50.29509994201362" lon="5.600579995661974">
        <ele>346.64</ele>
        <time>2021-07-27T13:53:41.557Z</time>
      </trkpt>
      <trkpt lat="50.29508996754885" lon="5.60095994733274">
        <ele>348.49</ele>
        <time>2021-07-27T13:53:47.828Z</time>
      </trkpt>
      <trkpt lat="50.29502995312214" lon="5.60140997171402">
        <ele>350.23</ele>
        <time>2021-07-27T13:53:54.104Z</time>
      </trkpt>
      <trkpt lat="50.29496750794351" lon="5.601891344413161">
        <ele>352.03</ele>
        <time>2021-07-27T13:54:00.385Z</time>
      </trkpt>
      <trkpt lat="50.29495996423066" lon="5.60194993391633">
        <ele>353.74</ele>
        <time>2021-07-27T13:54:06.666Z</time>
      </trkpt>
      <trkpt lat="50.29494998976588" lon="5.60224992223084">
        <ele>355.5</ele>
        <time>2021-07-27T13:54:12.950Z</time>
      </trkpt>
      <trkpt lat="50.294932471588254" lon="5.6027403473854065">
        <ele>357.42</ele>
        <time>2021-07-27T13:54:19.240Z</time>
      </trkpt>
      <trkpt lat="50.29491998255253" lon="5.603089956566691">
        <ele>359.07</ele>
        <time>2021-07-27T13:54:25.533Z</time>
      </trkpt>
      <trkpt lat="50.29491998255253" lon="5.603581136092544">
        <ele>360.72</ele>
        <time>2021-07-27T13:54:31.831Z</time>
      </trkpt>
      <trkpt lat="50.29491998255253" lon="5.603929990902543">
        <ele>362.31</ele>
        <time>2021-07-27T13:54:38.133Z</time>
      </trkpt>
      <trkpt lat="50.29493993148208" lon="5.6042099464684725">
        <ele>363.9</ele>
        <time>2021-07-27T13:54:44.438Z</time>
      </trkpt>
      <trkpt lat="50.29496993869543" lon="5.604649996384978">
        <ele>365.5</ele>
        <time>2021-07-27T13:54:50.747Z</time>
      </trkpt>
      <trkpt lat="50.29503992758691" lon="5.605039922520518">
        <ele>367.06</ele>
        <time>2021-07-27T13:54:57.060Z</time>
      </trkpt>
      <trkpt lat="50.29508996754885" lon="5.605309987440705">
        <ele>368.52</ele>
        <time>2021-07-27T13:55:03.376Z</time>
      </trkpt>
      <trkpt lat="50.29524888843298" lon="5.60573386028409">
        <ele>370.08</ele>
        <time>2021-07-27T13:55:09.697Z</time>
      </trkpt>
      <trkpt lat="50.29526992700994" lon="5.605789935216308">
        <ele>371.48</ele>
        <time>2021-07-27T13:55:16.019Z</time>
      </trkpt>
      <trkpt lat="50.29542960226536" lon="5.606213305145502">
        <ele>373.05</ele>
        <time>2021-07-27T13:55:22.346Z</time>
      </trkpt>
      <trkpt lat="50.295589193701744" lon="5.606636591255665">
        <ele>374.49</ele>
        <time>2021-07-27T13:55:28.678Z</time>
      </trkpt>
      <trkpt lat="50.295729925855994" lon="5.607009921222925">
        <ele>375.8</ele>
        <time>2021-07-27T13:55:35.014Z</time>
      </trkpt>
      <trkpt lat="50.295890271663666" lon="5.607432620599866">
        <ele>377.13</ele>
        <time>2021-07-27T13:55:41.355Z</time>
      </trkpt>
      <trkpt lat="50.29605061747134" lon="5.607855236157775">
        <ele>378.48</ele>
        <time>2021-07-27T13:55:47.702Z</time>
      </trkpt>
      <trkpt lat="50.29605992138386" lon="5.607879962772131">
        <ele>379.63</ele>
        <time>2021-07-27T13:55:54.049Z</time>
      </trkpt>
      <trkpt lat="50.296139968559146" lon="5.608289921656251">
        <ele>380.83</ele>
        <time>2021-07-27T13:56:00.400Z</time>
      </trkpt>
      <trkpt lat="50.296139968559146" lon="5.608781185001135">
        <ele>381.87</ele>
        <time>2021-07-27T13:56:06.756Z</time>
      </trkpt>
      <trkpt lat="50.296139968559146" lon="5.608829967677593">
        <ele>382.88</ele>
        <time>2021-07-27T13:56:13.113Z</time>
      </trkpt>
      <trkpt lat="50.29614994302392" lon="5.609129955992103">
        <ele>383.86</ele>
        <time>2021-07-27T13:56:19.473Z</time>
      </trkpt>
      <trkpt lat="50.29620995745063" lon="5.6095099914819">
        <ele>384.81</ele>
        <time>2021-07-27T13:56:25.837Z</time>
      </trkpt>
      <trkpt lat="50.29630375094712" lon="5.609978875145316">
        <ele>385.75</ele>
        <time>2021-07-27T13:56:32.206Z</time>
      </trkpt>
      <trkpt lat="50.296309953555465" lon="5.6100099720060825">
        <ele>386.63</ele>
        <time>2021-07-27T13:56:38.575Z</time>
      </trkpt>
      <trkpt lat="50.29643350280821" lon="5.610442478209734">
        <ele>387.51</ele>
        <time>2021-07-27T13:56:44.949Z</time>
      </trkpt>
      <trkpt lat="50.29643811285496" lon="5.610458571463823">
        <ele>388.35</ele>
        <time>2021-07-27T13:56:51.323Z</time>
      </trkpt>
      <trkpt lat="50.29644993133843" lon="5.610499978065491">
        <ele>389.17</ele>
        <time>2021-07-27T13:56:57.698Z</time>
      </trkpt>
      <trkpt lat="50.29645035043359" lon="5.6105012353509665">
        <ele>389.98</ele>
        <time>2021-07-27T13:57:04.073Z</time>
      </trkpt>
      <trkpt lat="50.296591836959124" lon="5.610938435420394">
        <ele>390.78</ele>
        <time>2021-07-27T13:57:10.453Z</time>
      </trkpt>
      <trkpt lat="50.29666995629668" lon="5.611179918050766">
        <ele>391.64</ele>
        <time>2021-07-27T13:57:16.836Z</time>
      </trkpt>
      <trkpt lat="50.296815214678645" lon="5.611615693196654">
        <ele>392.69</ele>
        <time>2021-07-27T13:57:23.224Z</time>
      </trkpt>
      <trkpt lat="50.29681999236345" lon="5.611629942432046">
        <ele>393.5</ele>
        <time>2021-07-27T13:57:29.612Z</time>
      </trkpt>
      <trkpt lat="50.29691546224058" lon="5.612097987905145">
        <ele>394.17</ele>
        <time>2021-07-27T13:57:36.005Z</time>
      </trkpt>
      <trkpt lat="50.29701101593673" lon="5.6125660333782434">
        <ele>395.06</ele>
        <time>2021-07-27T13:57:42.403Z</time>
      </trkpt>
      <trkpt lat="50.297019984573126" lon="5.612609954550862">
        <ele>395.89</ele>
        <time>2021-07-27T13:57:48.801Z</time>
      </trkpt>
      <trkpt lat="50.29699735343456" lon="5.613099876791239">
        <ele>396.74</ele>
        <time>2021-07-27T13:57:55.204Z</time>
      </trkpt>
      <trkpt lat="50.29698997735977" lon="5.613259971141815">
        <ele>397.56</ele>
        <time>2021-07-27T13:58:01.609Z</time>
      </trkpt>
      <trkpt lat="50.29700992628932" lon="5.613709995523095">
        <ele>398.47</ele>
        <time>2021-07-27T13:58:08.019Z</time>
      </trkpt>
      <trkpt lat="50.297096176072955" lon="5.614182399585843">
        <ele>399.46</ele>
        <time>2021-07-27T13:58:14.434Z</time>
      </trkpt>
      <trkpt lat="50.29718242585659" lon="5.614654803648591">
        <ele>400.33</ele>
        <time>2021-07-27T13:58:20.854Z</time>
      </trkpt>
      <trkpt lat="50.29723992571235" lon="5.614969963207841">
        <ele>401.31</ele>
        <time>2021-07-27T13:58:27.277Z</time>
      </trkpt>
      <trkpt lat="50.297319972887635" lon="5.615379922091961">
        <ele>402.29</ele>
        <time>2021-07-27T13:58:33.704Z</time>
      </trkpt>
      <trkpt lat="50.29742927290499" lon="5.615840591490269">
        <ele>403.21</ele>
        <time>2021-07-27T13:58:40.136Z</time>
      </trkpt>
      <trkpt lat="50.29753857292235" lon="5.616301177069545">
        <ele>404.18</ele>
        <time>2021-07-27T13:58:46.574Z</time>
      </trkpt>
      <trkpt lat="50.297599928453565" lon="5.61655992642045">
        <ele>405.16</ele>
        <time>2021-07-27T13:58:53.014Z</time>
      </trkpt>
      <trkpt lat="50.29766086488962" lon="5.617041885852814">
        <ele>406.21</ele>
        <time>2021-07-27T13:58:59.459Z</time>
      </trkpt>
      <trkpt lat="50.29771995730698" lon="5.6175099313259125">
        <ele>407.26</ele>
        <time>2021-07-27T13:59:05.909Z</time>
      </trkpt>
      <trkpt lat="50.29777184128761" lon="5.6179944053292274">
        <ele>408.4</ele>
        <time>2021-07-27T13:59:12.364Z</time>
      </trkpt>
      <trkpt lat="50.29777997173369" lon="5.618069926276803">
        <ele>409.39</ele>
        <time>2021-07-27T13:59:18.820Z</time>
      </trkpt>
      <trkpt lat="50.29782774858177" lon="5.61855548992753">
        <ele>410.47</ele>
        <time>2021-07-27T13:59:25.281Z</time>
      </trkpt>
      <trkpt lat="50.2978399861604" lon="5.618679961189628">
        <ele>411.45</ele>
        <time>2021-07-27T13:59:31.743Z</time>
      </trkpt>
      <trkpt lat="50.29781995341182" lon="5.618919935077429">
        <ele>412.38</ele>
        <time>2021-07-27T13:59:38.208Z</time>
      </trkpt>
      <trkpt lat="50.297749964520335" lon="5.619159992784262">
        <ele>413.29</ele>
        <time>2021-07-27T13:59:44.676Z</time>
      </trkpt>
      <trkpt lat="50.29754050076008" lon="5.619526533409953">
        <ele>414.16</ele>
        <time>2021-07-27T13:59:51.149Z</time>
      </trkpt>
      <trkpt lat="50.297509990632534" lon="5.619579926133156">
        <ele>415.16</ele>
        <time>2021-07-27T13:59:57.622Z</time>
      </trkpt>
      <trkpt lat="50.29741996899247" lon="5.619819983839989">
        <ele>416.19</ele>
        <time>2021-07-27T14:00:04.098Z</time>
      </trkpt>
      <trkpt lat="50.297288624569774" lon="5.620266320183873">
        <ele>417.37</ele>
        <time>2021-07-27T14:00:10.579Z</time>
      </trkpt>
      <trkpt lat="50.2972699329257" lon="5.620329938828945">
        <ele>418.44</ele>
        <time>2021-07-27T14:00:17.061Z</time>
      </trkpt>
      <trkpt lat="50.29720991849899" lon="5.620609978213906">
        <ele>419.61</ele>
        <time>2021-07-27T14:00:23.546Z</time>
      </trkpt>
      <trkpt lat="50.297189969569445" lon="5.620879959315062">
        <ele>420.8</ele>
        <time>2021-07-27T14:00:30.034Z</time>
      </trkpt>
      <trkpt lat="50.297189969569445" lon="5.621159998700023">
        <ele>422.04</ele>
        <time>2021-07-27T14:00:36.525Z</time>
      </trkpt>
      <trkpt lat="50.29719994403422" lon="5.621449928730726">
        <ele>423.24</ele>
        <time>2021-07-27T14:00:43.019Z</time>
      </trkpt>
      <trkpt lat="50.297169936820865" lon="5.621649920940399">
        <ele>424.45</ele>
        <time>2021-07-27T14:00:49.515Z</time>
      </trkpt>
      <trkpt lat="50.29710992239416" lon="5.621899953112006">
        <ele>425.74</ele>
        <time>2021-07-27T14:00:56.014Z</time>
      </trkpt>
      <trkpt lat="50.29698997735977" lon="5.622069938108325">
        <ele>426.96</ele>
        <time>2021-07-27T14:01:02.515Z</time>
      </trkpt>
      <trkpt lat="50.296869948506355" lon="5.622219974175096">
        <ele>428.19</ele>
        <time>2021-07-27T14:01:09.019Z</time>
      </trkpt>
      <trkpt lat="50.29667993076146" lon="5.6223999336361885">
        <ele>429.47</ele>
        <time>2021-07-27T14:01:15.526Z</time>
      </trkpt>
      <trkpt lat="50.296403244137764" lon="5.622633621096611">
        <ele>430.7</ele>
        <time>2021-07-27T14:01:22.038Z</time>
      </trkpt>
      <trkpt lat="50.29622999019921" lon="5.622779969125986">
        <ele>432.0</ele>
        <time>2021-07-27T14:01:28.553Z</time>
      </trkpt>
      <trkpt lat="50.29603997245431" lon="5.623029917478561">
        <ele>433.35</ele>
        <time>2021-07-27T14:01:35.072Z</time>
      </trkpt>
      <trkpt lat="50.295849200338125" lon="5.623420597985387">
        <ele>434.72</ele>
        <time>2021-07-27T14:01:41.596Z</time>
      </trkpt>
      <trkpt lat="50.29582992196083" lon="5.623459992930293">
        <ele>436.05</ele>
        <time>2021-07-27T14:01:48.121Z</time>
      </trkpt>
      <trkpt lat="50.29575993306935" lon="5.62366995960474">
        <ele>437.43</ele>
        <time>2021-07-27T14:01:54.648Z</time>
      </trkpt>
      <trkpt lat="50.295682065188885" lon="5.62414588406682">
        <ele>438.91</ele>
        <time>2021-07-27T14:02:01.180Z</time>
      </trkpt>
      <trkpt lat="50.29566999524832" lon="5.6242199800908566">
        <ele>440.33</ele>
        <time>2021-07-27T14:02:07.713Z</time>
      </trkpt>
      <trkpt lat="50.29565247707069" lon="5.624710405245423">
        <ele>441.95</ele>
        <time>2021-07-27T14:02:14.251Z</time>
      </trkpt>
      <trkpt lat="50.29564996249974" lon="5.624779975041747">
        <ele>443.4</ele>
        <time>2021-07-27T14:02:20.790Z</time>
      </trkpt>
      <trkpt lat="50.29568566940725" lon="5.625267969444394">
        <ele>445.0</ele>
        <time>2021-07-27T14:02:27.334Z</time>
      </trkpt>
      <trkpt lat="50.295709976926446" lon="5.625599976629019">
        <ele>446.52</ele>
        <time>2021-07-27T14:02:33.881Z</time>
      </trkpt>
      <trkpt lat="50.29573084786534" lon="5.626090066507459">
        <ele>448.04</ele>
        <time>2021-07-27T14:02:40.433Z</time>
      </trkpt>
      <trkpt lat="50.295749958604574" lon="5.626539923250675">
        <ele>449.47</ele>
        <time>2021-07-27T14:02:46.990Z</time>
      </trkpt>
      <trkpt lat="50.295793376863" lon="5.627026408910751">
        <ele>450.94</ele>
        <time>2021-07-27T14:02:53.552Z</time>
      </trkpt>
      <trkpt lat="50.29579999856651" lon="5.627099918201566">
        <ele>452.41</ele>
        <time>2021-07-27T14:03:00.115Z</time>
      </trkpt>
      <trkpt lat="50.29589530080557" lon="5.627568047493696">
        <ele>454.01</ele>
        <time>2021-07-27T14:03:06.683Z</time>
      </trkpt>
      <trkpt lat="50.29590996913612" lon="5.627639964222908">
        <ele>455.47</ele>
        <time>2021-07-27T14:03:13.252Z</time>
      </trkpt>
      <trkpt lat="50.29596998356283" lon="5.627899970859289">
        <ele>456.99</ele>
        <time>2021-07-27T14:03:19.823Z</time>
      </trkpt>
      <trkpt lat="50.296049946919084" lon="5.628189984709024">
        <ele>458.52</ele>
        <time>2021-07-27T14:03:26.398Z</time>
      </trkpt>
      <trkpt lat="50.296199982985854" lon="5.628619976341724">
        <ele>460.08</ele>
        <time>2021-07-27T14:03:32.978Z</time>
      </trkpt>
      <trkpt lat="50.29638203792274" lon="5.629020547494292">
        <ele>461.62</ele>
        <time>2021-07-27T14:03:39.563Z</time>
      </trkpt>
      <trkpt lat="50.296564092859626" lon="5.62942111864686">
        <ele>463.17</ele>
        <time>2021-07-27T14:03:46.153Z</time>
      </trkpt>
      <trkpt lat="50.2966499235481" lon="5.629609962925315">
        <ele>464.55</ele>
        <time>2021-07-27T14:03:52.745Z</time>
      </trkpt>
      <trkpt lat="50.296739945188165" lon="5.629829987883568">
        <ele>465.86</ele>
        <time>2021-07-27T14:03:59.340Z</time>
      </trkpt>
      <trkpt lat="50.29677992686629" lon="5.630069961771369">
        <ele>467.09</ele>
        <time>2021-07-27T14:04:05.937Z</time>
      </trkpt>
      <trkpt lat="50.29679995961487" lon="5.630349917337298">
        <ele>468.23</ele>
        <time>2021-07-27T14:04:12.537Z</time>
      </trkpt>
      <trkpt lat="50.29677992686629" lon="5.630569942295551">
        <ele>469.32</ele>
        <time>2021-07-27T14:04:19.140Z</time>
      </trkpt>
      <trkpt lat="50.29670993797481" lon="5.630859956145287">
        <ele>470.31</ele>
        <time>2021-07-27T14:04:25.746Z</time>
      </trkpt>
      <trkpt lat="50.29661991633475" lon="5.631139995530248">
        <ele>471.21</ele>
        <time>2021-07-27T14:04:32.355Z</time>
      </trkpt>
      <trkpt lat="50.29645881615579" lon="5.631561856716871">
        <ele>472.09</ele>
        <time>2021-07-27T14:04:38.969Z</time>
      </trkpt>
      <trkpt lat="50.2964099496603" lon="5.631689932197332">
        <ele>472.92</ele>
        <time>2021-07-27T14:04:45.585Z</time>
      </trkpt>
      <trkpt lat="50.29631992802024" lon="5.632129982113838">
        <ele>473.73</ele>
        <time>2021-07-27T14:04:52.205Z</time>
      </trkpt>
      <trkpt lat="50.29625756666064" lon="5.632611438632011">
        <ele>474.5</ele>
        <time>2021-07-27T14:04:58.830Z</time>
      </trkpt>
      <trkpt lat="50.29624993912876" lon="5.632669944316149">
        <ele>475.16</ele>
        <time>2021-07-27T14:05:05.456Z</time>
      </trkpt>
      <trkpt lat="50.29623996466398" lon="5.632989965379238">
        <ele>475.76</ele>
        <time>2021-07-27T14:05:12.085Z</time>
      </trkpt>
      <trkpt lat="50.29622999019921" lon="5.633209990337491">
        <ele>476.3</ele>
        <time>2021-07-27T14:05:18.717Z</time>
      </trkpt>
      <trkpt lat="50.2961699757725" lon="5.633529927581549">
        <ele>476.78</ele>
        <time>2021-07-27T14:05:25.352Z</time>
      </trkpt>
      <trkpt lat="50.296119935810566" lon="5.633689938113093">
        <ele>477.26</ele>
        <time>2021-07-27T14:05:31.989Z</time>
      </trkpt>
      <trkpt lat="50.29600233770907" lon="5.634145578369498">
        <ele>477.66</ele>
        <time>2021-07-27T14:05:38.631Z</time>
      </trkpt>
      <trkpt lat="50.29595992527902" lon="5.634309947490692">
        <ele>478.08</ele>
        <time>2021-07-27T14:05:45.275Z</time>
      </trkpt>
      <trkpt lat="50.29591994360089" lon="5.634589986875653">
        <ele>478.39</ele>
        <time>2021-07-27T14:05:51.922Z</time>
      </trkpt>
      <trkpt lat="50.29590996913612" lon="5.634769946336746">
        <ele>478.67</ele>
        <time>2021-07-27T14:05:58.570Z</time>
      </trkpt>
      <trkpt lat="50.29593997634947" lon="5.635199937969446">
        <ele>478.83</ele>
        <time>2021-07-27T14:06:05.223Z</time>
      </trkpt>
      <trkpt lat="50.296014323830605" lon="5.635677203536034">
        <ele>479.05</ele>
        <time>2021-07-27T14:06:11.881Z</time>
      </trkpt>
      <trkpt lat="50.29605992138386" lon="5.6359699834138155">
        <ele>479.34</ele>
        <time>2021-07-27T14:06:18.542Z</time>
      </trkpt>
      <trkpt lat="50.29617014341056" lon="5.636430066078901">
        <ele>479.71</ele>
        <time>2021-07-27T14:06:25.208Z</time>
      </trkpt>
      <trkpt lat="50.29628036543727" lon="5.636890064924955">
        <ele>480.08</ele>
        <time>2021-07-27T14:06:31.879Z</time>
      </trkpt>
      <trkpt lat="50.296289920806885" lon="5.636929962784052">
        <ele>480.24</ele>
        <time>2021-07-27T14:06:38.550Z</time>
      </trkpt>
      <trkpt lat="50.296329986304045" lon="5.637129954993725">
        <ele>480.4</ele>
        <time>2021-07-27T14:06:45.224Z</time>
      </trkpt>
      <trkpt lat="50.29636996798217" lon="5.637579979375005">
        <ele>480.55</ele>
        <time>2021-07-27T14:06:51.902Z</time>
      </trkpt>
      <trkpt lat="50.29641673900187" lon="5.6380657106637955">
        <ele>480.65</ele>
        <time>2021-07-27T14:06:58.585Z</time>
      </trkpt>
      <trkpt lat="50.29644993133843" lon="5.638409955427051">
        <ele>480.7</ele>
        <time>2021-07-27T14:07:05.272Z</time>
      </trkpt>
      <trkpt lat="50.296479938551784" lon="5.638689994812012">
        <ele>480.73</ele>
        <time>2021-07-27T14:07:11.962Z</time>
      </trkpt>
      <trkpt lat="50.29656736180186" lon="5.639161812141538">
        <ele>480.69</ele>
        <time>2021-07-27T14:07:18.657Z</time>
      </trkpt>
      <trkpt lat="50.29657993465662" lon="5.639229957014322">
        <ele>480.65</ele>
        <time>2021-07-27T14:07:25.353Z</time>
      </trkpt>
      <trkpt lat="50.29668998904526" lon="5.639649974182248">
        <ele>480.59</ele>
        <time>2021-07-27T14:07:32.053Z</time>
      </trkpt>
      <trkpt lat="50.29676995240152" lon="5.639909980818629">
        <ele>480.49</ele>
        <time>2021-07-27T14:07:38.756Z</time>
      </trkpt>
      <trkpt lat="50.29692996293306" lon="5.640289932489395">
        <ele>480.28</ele>
        <time>2021-07-27T14:07:45.464Z</time>
      </trkpt>
      <trkpt lat="50.297138588503" lon="5.640657646581531">
        <ele>479.98</ele>
        <time>2021-07-27T14:07:52.177Z</time>
      </trkpt>
      <trkpt lat="50.29713992960751" lon="5.640659993514419">
        <ele>479.88</ele>
        <time>2021-07-27T14:07:58.890Z</time>
      </trkpt>
      <trkpt lat="50.29725995846093" lon="5.6408599857240915">
        <ele>479.71</ele>
        <time>2021-07-27T14:08:05.606Z</time>
      </trkpt>
      <trkpt lat="50.29749968089163" lon="5.641178162768483">
        <ele>479.58</ele>
        <time>2021-07-27T14:08:12.327Z</time>
      </trkpt>
      <trkpt lat="50.29773940332234" lon="5.641496339812875">
        <ele>479.54</ele>
        <time>2021-07-27T14:08:19.053Z</time>
      </trkpt>
      <trkpt lat="50.29780997894704" lon="5.641589965671301">
        <ele>479.46</ele>
        <time>2021-07-27T14:08:25.780Z</time>
      </trkpt>
      <trkpt lat="50.297899916768074" lon="5.641729943454266">
        <ele>479.39</ele>
        <time>2021-07-27T14:08:32.509Z</time>
      </trkpt>
      <trkpt lat="50.298009971156716" lon="5.642049964517355">
        <ele>479.35</ele>
        <time>2021-07-27T14:08:39.242Z</time>
      </trkpt>
      <trkpt lat="50.298069985583425" lon="5.642279963940382">
        <ele>479.33</ele>
        <time>2021-07-27T14:08:45.978Z</time>
      </trkpt>
      <trkpt lat="50.29810359701514" lon="5.642768377438188">
        <ele>479.31</ele>
        <time>2021-07-27T14:08:52.719Z</time>
      </trkpt>
      <trkpt lat="50.29810996726155" lon="5.6428599916398525">
        <ele>479.32</ele>
        <time>2021-07-27T14:08:59.461Z</time>
      </trkpt>
      <trkpt lat="50.29809278436005" lon="5.643350416794419">
        <ele>479.39</ele>
        <time>2021-07-27T14:09:06.208Z</time>
      </trkpt>
      <trkpt lat="50.29808993451297" lon="5.643429961055517">
        <ele>479.43</ele>
        <time>2021-07-27T14:09:12.955Z</time>
      </trkpt>
      <trkpt lat="50.29803360812366" lon="5.643913261592388">
        <ele>479.43</ele>
        <time>2021-07-27T14:09:19.708Z</time>
      </trkpt>
      <trkpt lat="50.29801994562149" lon="5.644029937684536">
        <ele>479.45</ele>
        <time>2021-07-27T14:09:26.462Z</time>
      </trkpt>
      <trkpt lat="50.29792363755405" lon="5.644497647881508">
        <ele>479.44</ele>
        <time>2021-07-27T14:09:33.221Z</time>
      </trkpt>
      <trkpt lat="50.297879967838526" lon="5.644709961488843">
        <ele>479.49</ele>
        <time>2021-07-27T14:09:39.982Z</time>
      </trkpt>
      <trkpt lat="50.297749964520335" lon="5.6450199242681265">
        <ele>479.54</ele>
        <time>2021-07-27T14:09:46.747Z</time>
      </trkpt>
      <trkpt lat="50.29762993566692" lon="5.645219916477799">
        <ele>479.61</ele>
        <time>2021-07-27T14:09:53.515Z</time>
      </trkpt>
      <trkpt lat="50.29737252742052" lon="5.645502302795649">
        <ele>479.65</ele>
        <time>2021-07-27T14:10:00.288Z</time>
      </trkpt>
      <trkpt lat="50.297319972887635" lon="5.645559970289469">
        <ele>479.66</ele>
        <time>2021-07-27T14:10:07.062Z</time>
      </trkpt>
      <trkpt lat="50.29702786356211" lon="5.645742528140545">
        <ele>479.7</ele>
        <time>2021-07-27T14:10:13.841Z</time>
      </trkpt>
      <trkpt lat="50.296999951824546" lon="5.645759962499142">
        <ele>479.66</ele>
        <time>2021-07-27T14:10:20.620Z</time>
      </trkpt>
      <trkpt lat="50.296839941293" lon="5.645879991352558">
        <ele>479.69</ele>
        <time>2021-07-27T14:10:27.402Z</time>
      </trkpt>
      <trkpt lat="50.29657758772373" lon="5.646151062101126">
        <ele>479.76</ele>
        <time>2021-07-27T14:10:34.189Z</time>
      </trkpt>
      <trkpt lat="50.29653995297849" lon="5.646189954131842">
        <ele>479.6</ele>
        <time>2021-07-27T14:10:40.977Z</time>
      </trkpt>
      <trkpt lat="50.296439956873655" lon="5.646329931914806">
        <ele>479.41</ele>
        <time>2021-07-27T14:10:47.767Z</time>
      </trkpt>
      <trkpt lat="50.29629997909069" lon="5.646539982408285">
        <ele>479.1</ele>
        <time>2021-07-27T14:10:54.560Z</time>
      </trkpt>
      <trkpt lat="50.29609135352075" lon="5.646907696500421">
        <ele>478.67</ele>
        <time>2021-07-27T14:11:01.358Z</time>
      </trkpt>
      <trkpt lat="50.29591994360089" lon="5.647209947928786">
        <ele>478.16</ele>
        <time>2021-07-27T14:11:08.160Z</time>
      </trkpt>
      <trkpt lat="50.29570771381259" lon="5.647572549059987">
        <ele>477.56</ele>
        <time>2021-07-27T14:11:14.967Z</time>
      </trkpt>
      <trkpt lat="50.29567996971309" lon="5.647619990631938">
        <ele>476.95</ele>
        <time>2021-07-27T14:11:21.775Z</time>
      </trkpt>
      <trkpt lat="50.29542725533247" lon="5.647912602871656">
        <ele>476.2</ele>
        <time>2021-07-27T14:11:28.588Z</time>
      </trkpt>
      <trkpt lat="50.295299934223294" lon="5.648059956729412">
        <ele>475.37</ele>
        <time>2021-07-27T14:11:35.404Z</time>
      </trkpt>
      <trkpt lat="50.295028779655695" lon="5.648309150710702">
        <ele>474.46</ele>
        <time>2021-07-27T14:11:42.225Z</time>
      </trkpt>
      <trkpt lat="50.2949299570173" lon="5.64839992672205">
        <ele>473.58</ele>
        <time>2021-07-27T14:11:49.047Z</time>
      </trkpt>
      <trkpt lat="50.294644720852375" lon="5.648607378825545">
        <ele>472.6</ele>
        <time>2021-07-27T14:11:55.875Z</time>
      </trkpt>
      <trkpt lat="50.29459996148944" lon="5.648639984428883">
        <ele>471.61</ele>
        <time>2021-07-27T14:12:02.703Z</time>
      </trkpt>
      <trkpt lat="50.294329980388284" lon="5.648809969425201">
        <ele>470.46</ele>
        <time>2021-07-27T14:12:09.536Z</time>
      </trkpt>
      <trkpt lat="50.29405471868813" lon="5.649048015475273">
        <ele>469.22</ele>
        <time>2021-07-27T14:12:16.374Z</time>
      </trkpt>
      <trkpt lat="50.29395991936326" lon="5.649129990488291">
        <ele>468.06</ele>
        <time>2021-07-27T14:12:23.214Z</time>
      </trkpt>
      <trkpt lat="50.293709971010685" lon="5.649369964376092">
        <ele>466.8</ele>
        <time>2021-07-27T14:12:30.058Z</time>
      </trkpt>
      <trkpt lat="50.293461782857776" lon="5.649671796709299">
        <ele>465.55</ele>
        <time>2021-07-27T14:12:36.907Z</time>
      </trkpt>
      <trkpt lat="50.29333999380469" lon="5.649819988757372">
        <ele>464.36</ele>
        <time>2021-07-27T14:12:43.759Z</time>
      </trkpt>
      <trkpt lat="50.29309784062207" lon="5.650133639574051">
        <ele>463.11</ele>
        <time>2021-07-27T14:12:50.616Z</time>
      </trkpt>
      <trkpt lat="50.29289994388819" lon="5.650389958173037">
        <ele>461.8</ele>
        <time>2021-07-27T14:12:57.477Z</time>
      </trkpt>
      <trkpt lat="50.292673045769334" lon="5.650730263441801">
        <ele>460.53</ele>
        <time>2021-07-27T14:13:04.343Z</time>
      </trkpt>
      <trkpt lat="50.29255997389555" lon="5.650899996981025">
        <ele>459.32</ele>
        <time>2021-07-27T14:13:11.212Z</time>
      </trkpt>
      <trkpt lat="50.292347157374024" lon="5.651261759921908">
        <ele>458.12</ele>
        <time>2021-07-27T14:13:18.086Z</time>
      </trkpt>
      <trkpt lat="50.2921343408525" lon="5.651623522862792">
        <ele>456.85</ele>
        <time>2021-07-27T14:13:24.965Z</time>
      </trkpt>
      <trkpt lat="50.2920875698328" lon="5.6517028994858265">
        <ele>455.65</ele>
        <time>2021-07-27T14:13:31.845Z</time>
      </trkpt>
      <trkpt lat="50.29205999337137" lon="5.651749921962619">
        <ele>454.49</ele>
        <time>2021-07-27T14:13:38.726Z</time>
      </trkpt>
      <trkpt lat="50.292059406638145" lon="5.651751095429063">
        <ele>453.35</ele>
        <time>2021-07-27T14:13:45.607Z</time>
      </trkpt>
      <trkpt lat="50.29187198728323" lon="5.6521437875926495">
        <ele>452.15</ele>
        <time>2021-07-27T14:13:52.493Z</time>
      </trkpt>
      <trkpt lat="50.29168398119509" lon="5.65253765322268">
        <ele>450.99</ele>
        <time>2021-07-27T14:13:59.384Z</time>
      </trkpt>
      <trkpt lat="50.29163997620344" lon="5.652629937976599">
        <ele>449.92</ele>
        <time>2021-07-27T14:14:06.276Z</time>
      </trkpt>
      <trkpt lat="50.29147082939744" lon="5.6530440878123045">
        <ele>448.82</ele>
        <time>2021-07-27T14:14:13.173Z</time>
      </trkpt>
      <trkpt lat="50.291349962353706" lon="5.65333996899426">
        <ele>447.78</ele>
        <time>2021-07-27T14:14:20.073Z</time>
      </trkpt>
      <trkpt lat="50.291216522455215" lon="5.653784712776542">
        <ele>446.76</ele>
        <time>2021-07-27T14:14:26.978Z</time>
      </trkpt>
      <trkpt lat="50.291083082556725" lon="5.654229540377855">
        <ele>445.76</ele>
        <time>2021-07-27T14:14:33.888Z</time>
      </trkpt>
      <trkpt lat="50.29107998125255" lon="5.654239933937788">
        <ele>444.84</ele>
        <time>2021-07-27T14:14:40.799Z</time>
      </trkpt>
      <trkpt lat="50.290979985147715" lon="5.654599936679006">
        <ele>443.95</ele>
        <time>2021-07-27T14:14:47.714Z</time>
      </trkpt>
      <trkpt lat="50.29088359326124" lon="5.655067479237914">
        <ele>443.11</ele>
        <time>2021-07-27T14:14:54.634Z</time>
      </trkpt>
      <trkpt lat="50.29078720137477" lon="5.6555350217968225">
        <ele>442.24</ele>
        <time>2021-07-27T14:15:01.559Z</time>
      </trkpt>
      <trkpt lat="50.29077999293804" lon="5.655569974333048">
        <ele>441.42</ele>
        <time>2021-07-27T14:15:08.484Z</time>
      </trkpt>
      <trkpt lat="50.2906992752105" lon="5.656044641509652">
        <ele>440.56</ele>
        <time>2021-07-27T14:15:15.414Z</time>
      </trkpt>
      <trkpt lat="50.29061864130199" lon="5.656519392505288">
        <ele>439.7</ele>
        <time>2021-07-27T14:15:22.349Z</time>
      </trkpt>
      <trkpt lat="50.29053792357445" lon="5.656994143500924">
        <ele>438.91</ele>
        <time>2021-07-27T14:15:29.289Z</time>
      </trkpt>
      <trkpt lat="50.29051998630166" lon="5.657099923118949">
        <ele>438.16</ele>
        <time>2021-07-27T14:15:36.230Z</time>
      </trkpt>
      <trkpt lat="50.290489979088306" lon="5.657529998570681">
        <ele>437.44</ele>
        <time>2021-07-27T14:15:43.176Z</time>
      </trkpt>
      <trkpt lat="50.29047874733806" lon="5.658020759001374">
        <ele>436.76</ele>
        <time>2021-07-27T14:15:50.127Z</time>
      </trkpt>
      <trkpt lat="50.290467431768775" lon="5.6585116032511">
        <ele>436.08</ele>
        <time>2021-07-27T14:15:57.083Z</time>
      </trkpt>
      <trkpt lat="50.29045997187495" lon="5.658839922398329">
        <ele>435.33</ele>
        <time>2021-07-27T14:16:04.042Z</time>
      </trkpt>
      <trkpt lat="50.29048930853605" lon="5.659328922629356">
        <ele>434.54</ele>
        <time>2021-07-27T14:16:11.006Z</time>
      </trkpt>
      <trkpt lat="50.290489979088306" lon="5.659339986741543">
        <ele>433.87</ele>
        <time>2021-07-27T14:16:17.970Z</time>
      </trkpt>
      <trkpt lat="50.29046994633973" lon="5.659449957311153">
        <ele>433.18</ele>
        <time>2021-07-27T14:16:24.936Z</time>
      </trkpt>
      <trkpt lat="50.29044999741018" lon="5.6597299966961145">
        <ele>432.5</ele>
        <time>2021-07-27T14:16:31.904Z</time>
      </trkpt>
      <trkpt lat="50.29044999741018" lon="5.659739971160889">
        <ele>431.86</ele>
        <time>2021-07-27T14:16:38.873Z</time>
      </trkpt>
      <trkpt lat="50.29043993912637" lon="5.659759920090437">
        <ele>431.24</ele>
        <time>2021-07-27T14:16:45.842Z</time>
      </trkpt>
      <trkpt lat="50.29043993912637" lon="5.659779952839017">
        <ele>430.63</ele>
        <time>2021-07-27T14:16:52.811Z</time>
      </trkpt>
      <trkpt lat="50.2904299646616" lon="5.659819934517145">
        <ele>430.02</ele>
        <time>2021-07-27T14:16:59.780Z</time>
      </trkpt>
      <trkpt lat="50.29043993912637" lon="5.659859916195273">
        <ele>429.43</ele>
        <time>2021-07-27T14:17:06.750Z</time>
      </trkpt>
      <trkpt lat="50.29045997187495" lon="5.6599299889057875">
        <ele>428.83</ele>
        <time>2021-07-27T14:17:13.721Z</time>
      </trkpt>
      <trkpt lat="50.29051998630166" lon="5.659959996119142">
        <ele>428.26</ele>
        <time>2021-07-27T14:17:20.693Z</time>
      </trkpt>
      <trkpt lat="50.290586622431874" lon="5.660439943894744">
        <ele>427.64</ele>
        <time>2021-07-27T14:17:27.670Z</time>
      </trkpt>
      <trkpt lat="50.29065325856209" lon="5.660919975489378">
        <ele>427.11</ele>
        <time>2021-07-27T14:17:34.652Z</time>
      </trkpt>
      <trkpt lat="50.2906699385494" lon="5.661039920523763">
        <ele>426.61</ele>
        <time>2021-07-27T14:17:41.635Z</time>
      </trkpt>
      <trkpt lat="50.2907302044332" lon="5.66152204759419">
        <ele>426.08</ele>
        <time>2021-07-27T14:17:48.623Z</time>
      </trkpt>
      <trkpt lat="50.290790470317006" lon="5.662004090845585">
        <ele>425.59</ele>
        <time>2021-07-27T14:17:55.616Z</time>
      </trkpt>
      <trkpt lat="50.290829949080944" lon="5.6623199209570885">
        <ele>425.13</ele>
        <time>2021-07-27T14:18:02.612Z</time>
      </trkpt>
      <trkpt lat="50.290888119488955" lon="5.662802634760737">
        <ele>424.63</ele>
        <time>2021-07-27T14:18:09.613Z</time>
      </trkpt>
      <trkpt lat="50.290946289896965" lon="5.663285348564386">
        <ele>424.22</ele>
        <time>2021-07-27T14:18:16.619Z</time>
      </trkpt>
      <trkpt lat="50.291004376485944" lon="5.663767978549004">
        <ele>423.87</ele>
        <time>2021-07-27T14:18:23.631Z</time>
      </trkpt>
      <trkpt lat="50.29102994129062" lon="5.663979956880212">
        <ele>423.6</ele>
        <time>2021-07-27T14:18:30.645Z</time>
      </trkpt>
      <trkpt lat="50.29107118025422" lon="5.6644668616354465">
        <ele>423.42</ele>
        <time>2021-07-27T14:18:37.664Z</time>
      </trkpt>
      <trkpt lat="50.29107998125255" lon="5.6645699590444565">
        <ele>423.3</ele>
        <time>2021-07-27T14:18:44.684Z</time>
      </trkpt>
      <trkpt lat="50.291142174974084" lon="5.66505141556263">
        <ele>423.25</ele>
        <time>2021-07-27T14:18:51.709Z</time>
      </trkpt>
      <trkpt lat="50.29120445251465" lon="5.665532872080803">
        <ele>423.23</ele>
        <time>2021-07-27T14:18:58.739Z</time>
      </trkpt>
      <trkpt lat="50.29122993350029" lon="5.665729930624366">
        <ele>423.26</ele>
        <time>2021-07-27T14:19:05.771Z</time>
      </trkpt>
      <trkpt lat="50.291281482204795" lon="5.6662144884467125">
        <ele>423.39</ele>
        <time>2021-07-27T14:19:12.808Z</time>
      </trkpt>
      <trkpt lat="50.291329929605126" lon="5.666669961065054">
        <ele>423.58</ele>
        <time>2021-07-27T14:19:19.850Z</time>
      </trkpt>
      <trkpt lat="50.291386004537344" lon="5.667153261601925">
        <ele>423.86</ele>
        <time>2021-07-27T14:19:26.897Z</time>
      </trkpt>
      <trkpt lat="50.29144199565053" lon="5.667636562138796">
        <ele>424.13</ele>
        <time>2021-07-27T14:19:33.949Z</time>
      </trkpt>
      <trkpt lat="50.29149807058275" lon="5.668119862675667">
        <ele>424.45</ele>
        <time>2021-07-27T14:19:41.006Z</time>
      </trkpt>
      <trkpt lat="50.29155406169593" lon="5.668603163212538">
        <ele>424.81</ele>
        <time>2021-07-27T14:19:48.068Z</time>
      </trkpt>
      <trkpt lat="50.29156998731196" lon="5.668739955872297">
        <ele>425.23</ele>
        <time>2021-07-27T14:19:55.131Z</time>
      </trkpt>
      <trkpt lat="50.29162631370127" lon="5.6692231725901365">
        <ele>425.7</ele>
        <time>2021-07-27T14:20:02.199Z</time>
      </trkpt>
      <trkpt lat="50.291682640090585" lon="5.669706389307976">
        <ele>426.22</ele>
        <time>2021-07-27T14:20:09.272Z</time>
      </trkpt>
      <trkpt lat="50.2917389664799" lon="5.670189606025815">
        <ele>426.75</ele>
        <time>2021-07-27T14:20:16.350Z</time>
      </trkpt>
      <trkpt lat="50.29179529286921" lon="5.670672822743654">
        <ele>427.35</ele>
        <time>2021-07-27T14:20:23.434Z</time>
      </trkpt>
      <trkpt lat="50.29185161925852" lon="5.6711560394614935">
        <ele>428.01</ele>
        <time>2021-07-27T14:20:30.523Z</time>
      </trkpt>
      <trkpt lat="50.291907945647836" lon="5.671639256179333">
        <ele>428.69</ele>
        <time>2021-07-27T14:20:37.617Z</time>
      </trkpt>
      <trkpt lat="50.29196435585618" lon="5.672122472897172">
        <ele>429.37</ele>
        <time>2021-07-27T14:20:44.716Z</time>
      </trkpt>
      <trkpt lat="50.29202068224549" lon="5.672605689615011">
        <ele>430.06</ele>
        <time>2021-07-27T14:20:51.820Z</time>
      </trkpt>
      <trkpt lat="50.292077008634806" lon="5.6730889063328505">
        <ele>430.8</ele>
        <time>2021-07-27T14:20:58.929Z</time>
      </trkpt>
      <trkpt lat="50.29213341884315" lon="5.67357212305069">
        <ele>431.57</ele>
        <time>2021-07-27T14:21:06.043Z</time>
      </trkpt>
      <trkpt lat="50.292159989476204" lon="5.673799943178892">
        <ele>432.29</ele>
        <time>2021-07-27T14:21:13.159Z</time>
      </trkpt>
      <trkpt lat="50.29219997115433" lon="5.67415994592011">
        <ele>433.02</ele>
        <time>2021-07-27T14:21:20.279Z</time>
      </trkpt>
      <trkpt lat="50.29225520789623" lon="5.674643497914076">
        <ele>433.75</ele>
        <time>2021-07-27T14:21:27.404Z</time>
      </trkpt>
      <trkpt lat="50.29231044463813" lon="5.67512696608901">
        <ele>434.41</ele>
        <time>2021-07-27T14:21:34.534Z</time>
      </trkpt>
      <trkpt lat="50.29231991618872" lon="5.6752099469304085">
        <ele>435.09</ele>
        <time>2021-07-27T14:21:41.665Z</time>
      </trkpt>
      <trkpt lat="50.292379930615425" lon="5.675529967993498">
        <ele>435.76</ele>
        <time>2021-07-27T14:21:48.799Z</time>
      </trkpt>
      <trkpt lat="50.292376996949315" lon="5.6755321472883224">
        <ele>436.45</ele>
        <time>2021-07-27T14:21:55.933Z</time>
      </trkpt>
      <trkpt lat="50.2923399489373" lon="5.675559975206852">
        <ele>437.16</ele>
        <time>2021-07-27T14:22:03.068Z</time>
      </trkpt>
      <trkpt lat="50.29233919456601" lon="5.675560561940074">
        <ele>437.87</ele>
        <time>2021-07-27T14:22:10.203Z</time>
      </trkpt>
      <trkpt lat="50.292065693065524" lon="5.67580078728497">
        <ele>438.58</ele>
        <time>2021-07-27T14:22:17.343Z</time>
      </trkpt>
      <trkpt lat="50.29179152101278" lon="5.676041599363089">
        <ele>439.3</ele>
        <time>2021-07-27T14:22:24.488Z</time>
      </trkpt>
      <trkpt lat="50.29151726514101" lon="5.676282411441207">
        <ele>440.1</ele>
        <time>2021-07-27T14:22:31.638Z</time>
      </trkpt>
      <trkpt lat="50.29124300926924" lon="5.676523223519325">
        <ele>440.94</ele>
        <time>2021-07-27T14:22:38.793Z</time>
      </trkpt>
      <trkpt lat="50.290968753397465" lon="5.676764035597444">
        <ele>441.82</ele>
        <time>2021-07-27T14:22:45.953Z</time>
      </trkpt>
      <trkpt lat="50.290694581344724" lon="5.677004847675562">
        <ele>442.73</ele>
        <time>2021-07-27T14:22:53.118Z</time>
      </trkpt>
      <trkpt lat="50.29042032547295" lon="5.67724565975368">
        <ele>443.63</ele>
        <time>2021-07-27T14:23:00.288Z</time>
      </trkpt>
      <trkpt lat="50.29014606960118" lon="5.6774864718317986">
        <ele>444.6</ele>
        <time>2021-07-27T14:23:07.463Z</time>
      </trkpt>
      <trkpt lat="50.28995999135077" lon="5.677649918943644">
        <ele>445.56</ele>
        <time>2021-07-27T14:23:14.642Z</time>
      </trkpt>
      <trkpt lat="50.289686154574156" lon="5.677892072126269">
        <ele>446.67</ele>
        <time>2021-07-27T14:23:21.826Z</time>
      </trkpt>
      <trkpt lat="50.28941240161657" lon="5.678134141489863">
        <ele>447.81</ele>
        <time>2021-07-27T14:23:29.015Z</time>
      </trkpt>
      <trkpt lat="50.28913864865899" lon="5.6783762108534575">
        <ele>448.93</ele>
        <time>2021-07-27T14:23:36.209Z</time>
      </trkpt>
      <trkpt lat="50.28900998644531" lon="5.678489953279495">
        <ele>450.08</ele>
        <time>2021-07-27T14:23:43.405Z</time>
      </trkpt>
      <trkpt lat="50.288735227659345" lon="5.678729340434074">
        <ele>451.28</ele>
        <time>2021-07-27T14:23:50.606Z</time>
      </trkpt>
      <trkpt lat="50.28846046887338" lon="5.678968811407685">
        <ele>452.55</ele>
        <time>2021-07-27T14:23:57.812Z</time>
      </trkpt>
      <trkpt lat="50.28830992989242" lon="5.67909998819232">
        <ele>453.89</ele>
        <time>2021-07-27T14:24:05.021Z</time>
      </trkpt>
      <trkpt lat="50.28803609311581" lon="5.679341806098819">
        <ele>455.45</ele>
        <time>2021-07-27T14:24:12.235Z</time>
      </trkpt>
      <trkpt lat="50.28776225633919" lon="5.679583624005318">
        <ele>456.96</ele>
        <time>2021-07-27T14:24:19.454Z</time>
      </trkpt>
      <trkpt lat="50.28748841956258" lon="5.679825525730848">
        <ele>458.51</ele>
        <time>2021-07-27T14:24:26.678Z</time>
      </trkpt>
      <trkpt lat="50.28721449896693" lon="5.680067343637347">
        <ele>460.06</ele>
        <time>2021-07-27T14:24:33.907Z</time>
      </trkpt>
      <trkpt lat="50.28694066219032" lon="5.680309161543846">
        <ele>461.59</ele>
        <time>2021-07-27T14:24:41.141Z</time>
      </trkpt>
      <trkpt lat="50.286769922822714" lon="5.680459951981902">
        <ele>463.15</ele>
        <time>2021-07-27T14:24:48.378Z</time>
      </trkpt>
      <trkpt lat="50.286497762426734" lon="5.680706212297082">
        <ele>464.82</ele>
        <time>2021-07-27T14:24:55.620Z</time>
      </trkpt>
      <trkpt lat="50.28634998947382" lon="5.6808399874717">
        <ele>466.45</ele>
        <time>2021-07-27T14:25:02.865Z</time>
      </trkpt>
      <trkpt lat="50.286189978942275" lon="5.681029921397567">
        <ele>468.13</ele>
        <time>2021-07-27T14:25:10.113Z</time>
      </trkpt>
      <trkpt lat="50.28610029257834" lon="5.681156907230616">
        <ele>469.77</ele>
        <time>2021-07-27T14:25:17.363Z</time>
      </trkpt>
      <trkpt lat="50.28596886433661" lon="5.681369304656982">
        <ele>471.43</ele>
        <time>2021-07-27T14:25:24.616Z</time>
      </trkpt>
      <trkpt lat="50.285818576812744" lon="5.68166971206665">
        <ele>473.12</ele>
        <time>2021-07-27T14:25:31.873Z</time>
      </trkpt>
      <trkpt lat="50.285684717819095" lon="5.682104816660285">
        <ele>474.87</ele>
        <time>2021-07-27T14:25:39.135Z</time>
      </trkpt>
      <trkpt lat="50.28564691543579" lon="5.682227611541748">
        <ele>476.63</ele>
        <time>2021-07-27T14:25:46.399Z</time>
      </trkpt>
      <trkpt lat="50.28559310361743" lon="5.682614855468273">
        <ele>478.48</ele>
        <time>2021-07-27T14:25:53.667Z</time>
      </trkpt>
      <trkpt lat="50.28553971089423" lon="5.683000087738037">
        <ele>480.35</ele>
        <time>2021-07-27T14:26:00.939Z</time>
      </trkpt>
      <trkpt lat="50.28555404394865" lon="5.683329999446869">
        <ele>482.12</ele>
        <time>2021-07-27T14:26:08.214Z</time>
      </trkpt>
      <trkpt lat="50.285568377003074" lon="5.683659911155701">
        <ele>483.9</ele>
        <time>2021-07-27T14:26:15.493Z</time>
      </trkpt>
      <trkpt lat="50.285582626238465" lon="5.683987140655518">
        <ele>485.67</ele>
        <time>2021-07-27T14:26:22.775Z</time>
      </trkpt>
      <trkpt lat="50.28562386520207" lon="5.684456862509251">
        <ele>487.53</ele>
        <time>2021-07-27T14:26:30.062Z</time>
      </trkpt>
      <trkpt lat="50.28566510416567" lon="5.684926668182015">
        <ele>489.44</ele>
        <time>2021-07-27T14:26:37.354Z</time>
      </trkpt>
      <trkpt lat="50.28570634312928" lon="5.68539647385478">
        <ele>491.39</ele>
        <time>2021-07-27T14:26:44.650Z</time>
      </trkpt>
      <trkpt lat="50.28574758209288" lon="5.685866279527545">
        <ele>493.23</ele>
        <time>2021-07-27T14:26:51.951Z</time>
      </trkpt>
      <trkpt lat="50.285788821056485" lon="5.686336001381278">
        <ele>494.94</ele>
        <time>2021-07-27T14:26:59.257Z</time>
      </trkpt>
      <trkpt lat="50.28583006002009" lon="5.686805807054043">
        <ele>496.55</ele>
        <time>2021-07-27T14:27:06.568Z</time>
      </trkpt>
      <trkpt lat="50.28587129898369" lon="5.687275612726808">
        <ele>498.13</ele>
        <time>2021-07-27T14:27:13.884Z</time>
      </trkpt>
      <trkpt lat="50.2859125379473" lon="5.687745418399572">
        <ele>499.58</ele>
        <time>2021-07-27T14:27:21.205Z</time>
      </trkpt>
      <trkpt lat="50.2859537769109" lon="5.688215224072337">
        <ele>501.15</ele>
        <time>2021-07-27T14:27:28.531Z</time>
      </trkpt>
      <trkpt lat="50.285995015874505" lon="5.68868494592607">
        <ele>502.75</ele>
        <time>2021-07-27T14:27:35.862Z</time>
      </trkpt>
      <trkpt lat="50.28603625483811" lon="5.689154751598835">
        <ele>504.18</ele>
        <time>2021-07-27T14:27:43.197Z</time>
      </trkpt>
      <trkpt lat="50.286076068878174" lon="5.689609050750732">
        <ele>505.43</ele>
        <time>2021-07-27T14:27:50.537Z</time>
      </trkpt>
      <trkpt lat="50.28608319349587" lon="5.689996378496289">
        <ele>506.67</ele>
        <time>2021-07-27T14:27:57.881Z</time>
      </trkpt>
      <trkpt lat="50.2860904019326" lon="5.690383706241846">
        <ele>507.89</ele>
        <time>2021-07-27T14:28:05.229Z</time>
      </trkpt>
      <trkpt lat="50.28609752655029" lon="5.690767765045166">
        <ele>509.07</ele>
        <time>2021-07-27T14:28:12.581Z</time>
      </trkpt>
      <trkpt lat="50.286057125777006" lon="5.691203456372023">
        <ele>510.25</ele>
        <time>2021-07-27T14:28:19.938Z</time>
      </trkpt>
      <trkpt lat="50.28601680882275" lon="5.691639147698879">
        <ele>511.34</ele>
        <time>2021-07-27T14:28:27.299Z</time>
      </trkpt>
      <trkpt lat="50.285976491868496" lon="5.692074922844768">
        <ele>512.42</ele>
        <time>2021-07-27T14:28:34.665Z</time>
      </trkpt>
      <trkpt lat="50.28593609109521" lon="5.692510614171624">
        <ele>513.48</ele>
        <time>2021-07-27T14:28:42.035Z</time>
      </trkpt>
      <trkpt lat="50.285895774140954" lon="5.692946305498481">
        <ele>514.49</ele>
        <time>2021-07-27T14:28:49.410Z</time>
      </trkpt>
      <trkpt lat="50.2858554571867" lon="5.693382080644369">
        <ele>515.42</ele>
        <time>2021-07-27T14:28:56.789Z</time>
      </trkpt>
      <trkpt lat="50.285815140232444" lon="5.693817771971226">
        <ele>516.38</ele>
        <time>2021-07-27T14:29:04.173Z</time>
      </trkpt>
      <trkpt lat="50.285775661468506" lon="5.694243907928467">
        <ele>498.37</ele>
        <time>2021-07-27T14:29:11.561Z</time>
      </trkpt>
      <trkpt lat="50.28573274612427" lon="5.694587230682373">
        <ele>518.21</ele>
        <time>2021-07-27T14:29:18.953Z</time>
      </trkpt>
      <trkpt lat="50.28566820546985" lon="5.694866850972176">
        <ele>519.01</ele>
        <time>2021-07-27T14:29:26.348Z</time>
      </trkpt>
      <trkpt lat="50.28560400009155" lon="5.695145130157471">
        <ele>519.77</ele>
        <time>2021-07-27T14:29:33.746Z</time>
      </trkpt>
      <trkpt lat="50.28544273227453" lon="5.695478310808539">
        <ele>520.53</ele>
        <time>2021-07-27T14:29:41.148Z</time>
      </trkpt>
      <trkpt lat="50.285282135009766" lon="5.695810317993164">
        <ele>521.32</ele>
        <time>2021-07-27T14:29:48.554Z</time>
      </trkpt>
      <trkpt lat="50.285046100616455" lon="5.696110725402832">
        <ele>522.03</ele>
        <time>2021-07-27T14:29:55.965Z</time>
      </trkpt>
      <trkpt lat="50.28489581309259" lon="5.696218013763428">
        <ele>522.58</ele>
        <time>2021-07-27T14:30:03.379Z</time>
      </trkpt>
      <trkpt lat="50.28474569320679" lon="5.696325302124023">
        <ele>523.07</ele>
        <time>2021-07-27T14:30:10.795Z</time>
      </trkpt>
      <trkpt lat="50.284509574994445" lon="5.69640040397644">
        <ele>523.45</ele>
        <time>2021-07-27T14:30:18.215Z</time>
      </trkpt>
      <trkpt lat="50.284273624420166" lon="5.696475505828857">
        <ele>523.8</ele>
        <time>2021-07-27T14:30:25.639Z</time>
      </trkpt>
      <trkpt lat="50.284005319699645" lon="5.696411048993468">
        <ele>524.16</ele>
        <time>2021-07-27T14:30:33.068Z</time>
      </trkpt>
      <trkpt lat="50.28373718261719" lon="5.696346759796143">
        <ele>520.87</ele>
        <time>2021-07-27T14:30:40.501Z</time>
      </trkpt>
      <trkpt lat="50.28346041217446" lon="5.69623033516109">
        <ele>524.9</ele>
        <time>2021-07-27T14:30:47.938Z</time>
      </trkpt>
      <trkpt lat="50.28318372555077" lon="5.696113994345069">
        <ele>525.24</ele>
        <time>2021-07-27T14:30:55.380Z</time>
      </trkpt>
      <trkpt lat="50.28290703892708" lon="5.695997653529048">
        <ele>525.54</ele>
        <time>2021-07-27T14:31:02.827Z</time>
      </trkpt>
      <trkpt lat="50.282630268484354" lon="5.695881312713027">
        <ele>525.82</ele>
        <time>2021-07-27T14:31:10.278Z</time>
      </trkpt>
      <trkpt lat="50.28235358186066" lon="5.695764971897006">
        <ele>526.14</ele>
        <time>2021-07-27T14:31:17.734Z</time>
      </trkpt>
      <trkpt lat="50.28207689523697" lon="5.695648631080985">
        <ele>526.46</ele>
        <time>2021-07-27T14:31:25.194Z</time>
      </trkpt>
      <trkpt lat="50.281800124794245" lon="5.695532290264964">
        <ele>526.74</ele>
        <time>2021-07-27T14:31:32.659Z</time>
      </trkpt>
      <trkpt lat="50.28152343817055" lon="5.695415949448943">
        <ele>527.0</ele>
        <time>2021-07-27T14:31:40.129Z</time>
      </trkpt>
      <trkpt lat="50.28124742209911" lon="5.695299943909049">
        <ele>527.25</ele>
        <time>2021-07-27T14:31:47.603Z</time>
      </trkpt>
      <trkpt lat="50.28124096803367" lon="5.695282509550452">
        <ele>527.47</ele>
        <time>2021-07-27T14:31:55.077Z</time>
      </trkpt>
      <trkpt lat="50.28120995499194" lon="5.695269936695695">
        <ele>527.68</ele>
        <time>2021-07-27T14:32:02.552Z</time>
      </trkpt>
      <trkpt lat="50.28120920062065" lon="5.695269601419568">
        <ele>527.86</ele>
        <time>2021-07-27T14:32:10.027Z</time>
      </trkpt>
      <trkpt lat="50.28090577572584" lon="5.69514412432909">
        <ele>528.06</ele>
        <time>2021-07-27T14:32:17.507Z</time>
      </trkpt>
      <trkpt lat="50.28060168027878" lon="5.695018311962485">
        <ele>528.25</ele>
        <time>2021-07-27T14:32:24.992Z</time>
      </trkpt>
      <trkpt lat="50.28029750101268" lon="5.6948924995958805">
        <ele>528.41</ele>
        <time>2021-07-27T14:32:32.482Z</time>
      </trkpt>
      <trkpt lat="50.27999340556562" lon="5.694766771048307">
        <ele>528.55</ele>
        <time>2021-07-27T14:32:39.977Z</time>
      </trkpt>
      <trkpt lat="50.279689226299524" lon="5.694640958681703">
        <ele>528.68</ele>
        <time>2021-07-27T14:32:47.477Z</time>
      </trkpt>
      <trkpt lat="50.27938504703343" lon="5.694515146315098">
        <ele>528.78</ele>
        <time>2021-07-27T14:32:54.982Z</time>
      </trkpt>
      <trkpt lat="50.279080951586366" lon="5.694389333948493">
        <ele>528.75</ele>
        <time>2021-07-27T14:33:02.492Z</time>
      </trkpt>
      <trkpt lat="50.2790099568665" lon="5.694359997287393">
        <ele>528.74</ele>
        <time>2021-07-27T14:33:10.003Z</time>
      </trkpt>
      <trkpt lat="50.27870594523847" lon="5.694233262911439">
        <ele>528.77</ele>
        <time>2021-07-27T14:33:17.519Z</time>
      </trkpt>
      <trkpt lat="50.27840193361044" lon="5.694106612354517">
        <ele>528.83</ele>
        <time>2021-07-27T14:33:25.040Z</time>
      </trkpt>
      <trkpt lat="50.27809792198241" lon="5.693979961797595">
        <ele>528.7</ele>
        <time>2021-07-27T14:33:32.566Z</time>
      </trkpt>
      <trkpt lat="50.27779399417341" lon="5.693853311240673">
        <ele>528.4</ele>
        <time>2021-07-27T14:33:40.098Z</time>
      </trkpt>
      <trkpt lat="50.277489982545376" lon="5.693726660683751">
        <ele>528.08</ele>
        <time>2021-07-27T14:33:47.635Z</time>
      </trkpt>
      <trkpt lat="50.27732997201383" lon="5.693659940734506">
        <ele>527.81</ele>
        <time>2021-07-27T14:33:55.174Z</time>
      </trkpt>
      <trkpt lat="50.27702654711902" lon="5.69352968595922">
        <ele>527.57</ele>
        <time>2021-07-27T14:34:02.718Z</time>
      </trkpt>
      <trkpt lat="50.27672320604324" lon="5.693399431183934">
        <ele>527.22</ele>
        <time>2021-07-27T14:34:10.267Z</time>
      </trkpt>
      <trkpt lat="50.276419864967465" lon="5.6932691764086485">
        <ele>526.81</ele>
        <time>2021-07-27T14:34:17.821Z</time>
      </trkpt>
      <trkpt lat="50.276116440072656" lon="5.693138921633363">
        <ele>526.31</ele>
        <time>2021-07-27T14:34:25.380Z</time>
      </trkpt>
      <trkpt lat="50.27581309899688" lon="5.693008666858077">
        <ele>525.86</ele>
        <time>2021-07-27T14:34:32.944Z</time>
      </trkpt>
      <trkpt lat="50.2755599655211" lon="5.692899953573942">
        <ele>525.39</ele>
        <time>2021-07-27T14:34:40.513Z</time>
      </trkpt>
      <trkpt lat="50.27525704354048" lon="5.692767100408673">
        <ele>524.98</ele>
        <time>2021-07-27T14:34:48.087Z</time>
      </trkpt>
      <trkpt lat="50.27498999610543" lon="5.692649921402335">
        <ele>524.57</ele>
        <time>2021-07-27T14:34:55.665Z</time>
      </trkpt>
      <trkpt lat="50.27468145824969" lon="5.6925535295158625">
        <ele>524.09</ele>
        <time>2021-07-27T14:35:03.248Z</time>
      </trkpt>
      <trkpt lat="50.2745099645108" lon="5.692499969154596">
        <ele>523.63</ele>
        <time>2021-07-27T14:35:10.834Z</time>
      </trkpt>
      <trkpt lat="50.27419681660831" lon="5.69245177321136">
        <ele>523.19</ele>
        <time>2021-07-27T14:35:18.425Z</time>
      </trkpt>
      <trkpt lat="50.27411995455623" lon="5.692439954727888">
        <ele>522.77</ele>
        <time>2021-07-27T14:35:26.017Z</time>
      </trkpt>
      <trkpt lat="50.2738053817302" lon="5.692431656643748">
        <ele>522.42</ele>
        <time>2021-07-27T14:35:33.614Z</time>
      </trkpt>
      <trkpt lat="50.27373991906643" lon="5.692429980263114">
        <ele>522.03</ele>
        <time>2021-07-27T14:35:41.212Z</time>
      </trkpt>
      <trkpt lat="50.27342576533556" lon="5.692456886172295">
        <ele>521.61</ele>
        <time>2021-07-27T14:35:48.815Z</time>
      </trkpt>
      <trkpt lat="50.27338997460902" lon="5.692459987476468">
        <ele>521.26</ele>
        <time>2021-07-27T14:35:56.419Z</time>
      </trkpt>
      <trkpt lat="50.27315997518599" lon="5.692489994689822">
        <ele>520.89</ele>
        <time>2021-07-27T14:36:04.027Z</time>
      </trkpt>
      <trkpt lat="50.2728486713022" lon="5.692561827600002">
        <ele>520.54</ele>
        <time>2021-07-27T14:36:11.640Z</time>
      </trkpt>
      <trkpt lat="50.27276996523142" lon="5.692579932510853">
        <ele>520.31</ele>
        <time>2021-07-27T14:36:19.254Z</time>
      </trkpt>
      <trkpt lat="50.27245933189988" lon="5.692658554762602">
        <ele>520.15</ele>
        <time>2021-07-27T14:36:26.873Z</time>
      </trkpt>
      <trkpt lat="50.272148782387376" lon="5.692737093195319">
        <ele>520.08</ele>
        <time>2021-07-27T14:36:34.497Z</time>
      </trkpt>
      <trkpt lat="50.27183814905584" lon="5.692815715447068">
        <ele>520.0</ele>
        <time>2021-07-27T14:36:42.126Z</time>
      </trkpt>
      <trkpt lat="50.27152759954333" lon="5.6928942538797855">
        <ele>519.95</ele>
        <time>2021-07-27T14:36:49.760Z</time>
      </trkpt>
      <trkpt lat="50.271216966211796" lon="5.692972876131535">
        <ele>520.08</ele>
        <time>2021-07-27T14:36:57.399Z</time>
      </trkpt>
      <trkpt lat="50.271109929308295" lon="5.692999949678779">
        <ele>520.26</ele>
        <time>2021-07-27T14:37:05.040Z</time>
      </trkpt>
      <trkpt lat="50.27079929597676" lon="5.693078236654401">
        <ele>520.51</ele>
        <time>2021-07-27T14:37:12.686Z</time>
      </trkpt>
      <trkpt lat="50.27048866264522" lon="5.693156439810991">
        <ele>520.79</ele>
        <time>2021-07-27T14:37:20.337Z</time>
      </trkpt>
      <trkpt lat="50.270178113132715" lon="5.6932347267866135">
        <ele>521.23</ele>
        <time>2021-07-27T14:37:27.993Z</time>
      </trkpt>
      <trkpt lat="50.26986747980118" lon="5.693312929943204">
        <ele>521.81</ele>
        <time>2021-07-27T14:37:35.654Z</time>
      </trkpt>
      <trkpt lat="50.269799921661615" lon="5.693329945206642">
        <ele>522.42</ele>
        <time>2021-07-27T14:37:43.316Z</time>
      </trkpt>
      <trkpt lat="50.269490629434586" lon="5.693419799208641">
        <ele>523.18</ele>
        <time>2021-07-27T14:37:50.983Z</time>
      </trkpt>
      <trkpt lat="50.26948995888233" lon="5.6934199668467045">
        <ele>523.96</ele>
        <time>2021-07-27T14:37:58.650Z</time>
      </trkpt>
      <trkpt lat="50.26933992281556" lon="5.693489955738187">
        <ele>524.83</ele>
        <time>2021-07-27T14:38:06.320Z</time>
      </trkpt>
      <trkpt lat="50.26915996335447" lon="5.693579977378249">
        <ele>525.79</ele>
        <time>2021-07-27T14:38:13.993Z</time>
      </trkpt>
      <trkpt lat="50.26887992396951" lon="5.693759936839342">
        <ele>526.87</ele>
        <time>2021-07-27T14:38:21.671Z</time>
      </trkpt>
      <trkpt lat="50.26861120015383" lon="5.694015249609947">
        <ele>528.06</ele>
        <time>2021-07-27T14:38:29.354Z</time>
      </trkpt>
      <trkpt lat="50.26847993955016" lon="5.69413997232914">
        <ele>529.34</ele>
        <time>2021-07-27T14:38:37.039Z</time>
      </trkpt>
      <trkpt lat="50.26823996566236" lon="5.694449935108423">
        <ele>530.87</ele>
        <time>2021-07-27T14:38:44.729Z</time>
      </trkpt>
      <trkpt lat="50.26802882552147" lon="5.694813961163163">
        <ele>532.48</ele>
        <time>2021-07-27T14:38:52.424Z</time>
      </trkpt>
      <trkpt lat="50.267949951812625" lon="5.694949999451637">
        <ele>534.04</ele>
        <time>2021-07-27T14:39:00.121Z</time>
      </trkpt>
      <trkpt lat="50.26776270009577" lon="5.69534445181489">
        <ele>535.79</ele>
        <time>2021-07-27T14:39:07.823Z</time>
      </trkpt>
      <trkpt lat="50.267669996246696" lon="5.69553991779685">
        <ele>537.47</ele>
        <time>2021-07-27T14:39:15.527Z</time>
      </trkpt>
      <trkpt lat="50.267483750358224" lon="5.695935627445579">
        <ele>539.23</ele>
        <time>2021-07-27T14:39:23.237Z</time>
      </trkpt>
      <trkpt lat="50.26729750446975" lon="5.696331337094307">
        <ele>541.09</ele>
        <time>2021-07-27T14:39:30.952Z</time>
      </trkpt>
      <trkpt lat="50.26711125858128" lon="5.696727046743035">
        <ele>543.07</ele>
        <time>2021-07-27T14:39:38.672Z</time>
      </trkpt>
      <trkpt lat="50.26692509651184" lon="5.697122756391764">
        <ele>545.15</ele>
        <time>2021-07-27T14:39:46.397Z</time>
      </trkpt>
      <trkpt lat="50.26673885062337" lon="5.697518466040492">
        <ele>547.31</ele>
        <time>2021-07-27T14:39:54.127Z</time>
      </trkpt>
      <trkpt lat="50.26655268855393" lon="5.69791417568922">
        <ele>549.39</ele>
        <time>2021-07-27T14:40:01.862Z</time>
      </trkpt>
      <trkpt lat="50.26636644266546" lon="5.698309801518917">
        <ele>551.5</ele>
        <time>2021-07-27T14:40:09.602Z</time>
      </trkpt>
      <trkpt lat="50.266180196776986" lon="5.6987055111676455">
        <ele>553.61</ele>
        <time>2021-07-27T14:40:17.347Z</time>
      </trkpt>
      <trkpt lat="50.265994034707546" lon="5.699101220816374">
        <ele>555.62</ele>
        <time>2021-07-27T14:40:25.097Z</time>
      </trkpt>
      <trkpt lat="50.265807788819075" lon="5.699496930465102">
        <ele>557.73</ele>
        <time>2021-07-27T14:40:32.852Z</time>
      </trkpt>
      <trkpt lat="50.265621626749635" lon="5.699892640113831">
        <ele>559.96</ele>
        <time>2021-07-27T14:40:40.612Z</time>
      </trkpt>
      <trkpt lat="50.26543538086116" lon="5.700288349762559">
        <ele>562.27</ele>
        <time>2021-07-27T14:40:48.377Z</time>
      </trkpt>
      <trkpt lat="50.26524921879172" lon="5.700684059411287">
        <ele>564.58</ele>
        <time>2021-07-27T14:40:56.147Z</time>
      </trkpt>
      <trkpt lat="50.26506297290325" lon="5.701079769060016">
        <ele>566.86</ele>
        <time>2021-07-27T14:41:03.922Z</time>
      </trkpt>
      <trkpt lat="50.26487681083381" lon="5.701475394889712">
        <ele>569.22</ele>
        <time>2021-07-27T14:41:11.702Z</time>
      </trkpt>
      <trkpt lat="50.264789974316955" lon="5.70165996439755">
        <ele>571.49</ele>
        <time>2021-07-27T14:41:19.484Z</time>
      </trkpt>
      <trkpt lat="50.264603309333324" lon="5.702055087313056">
        <ele>573.8</ele>
        <time>2021-07-27T14:41:27.271Z</time>
      </trkpt>
      <trkpt lat="50.264416644349694" lon="5.702450294047594">
        <ele>576.07</ele>
        <time>2021-07-27T14:41:35.064Z</time>
      </trkpt>
      <trkpt lat="50.264229979366064" lon="5.7028454169631">
        <ele>578.25</ele>
        <time>2021-07-27T14:41:42.862Z</time>
      </trkpt>
      <trkpt lat="50.264043314382434" lon="5.7032406236976385">
        <ele>580.46</ele>
        <time>2021-07-27T14:41:50.665Z</time>
      </trkpt>
      <trkpt lat="50.263856649398804" lon="5.703635746613145">
        <ele>582.66</ele>
        <time>2021-07-27T14:41:58.473Z</time>
      </trkpt>
      <trkpt lat="50.26366998441517" lon="5.704030953347683">
        <ele>584.8</ele>
        <time>2021-07-27T14:42:06.286Z</time>
      </trkpt>
      <trkpt lat="50.26348331943154" lon="5.704426076263189">
        <ele>586.98</ele>
        <time>2021-07-27T14:42:14.104Z</time>
      </trkpt>
      <trkpt lat="50.26329665444791" lon="5.704821199178696">
        <ele>589.11</ele>
        <time>2021-07-27T14:42:21.927Z</time>
      </trkpt>
      <trkpt lat="50.26310998946428" lon="5.705216405913234">
        <ele>591.13</ele>
        <time>2021-07-27T14:42:29.755Z</time>
      </trkpt>
      <trkpt lat="50.26307998225093" lon="5.705279940739274">
        <ele>592.94</ele>
        <time>2021-07-27T14:42:37.584Z</time>
      </trkpt>
      <trkpt lat="50.26289323344827" lon="5.70567506365478">
        <ele>594.78</ele>
        <time>2021-07-27T14:42:45.418Z</time>
      </trkpt>
      <trkpt lat="50.26270656846464" lon="5.706070186570287">
        <ele>596.48</ele>
        <time>2021-07-27T14:42:53.257Z</time>
      </trkpt>
      <trkpt lat="50.262519819661975" lon="5.706465309485793">
        <ele>598.09</ele>
        <time>2021-07-27T14:43:01.101Z</time>
      </trkpt>
      <trkpt lat="50.262333154678345" lon="5.706860348582268">
        <ele>599.62</ele>
        <time>2021-07-27T14:43:08.950Z</time>
      </trkpt>
      <trkpt lat="50.26221999898553" lon="5.707099987193942">
        <ele>601.01</ele>
        <time>2021-07-27T14:43:16.802Z</time>
      </trkpt>
      <trkpt lat="50.26204749941826" lon="5.707510532811284">
        <ele>602.29</ele>
        <time>2021-07-27T14:43:24.659Z</time>
      </trkpt>
      <trkpt lat="50.26200994849205" lon="5.707599967718124">
        <ele>603.41</ele>
        <time>2021-07-27T14:43:32.517Z</time>
      </trkpt>
      <trkpt lat="50.26188128627837" lon="5.707925856113434">
        <ele>604.41</ele>
        <time>2021-07-27T14:43:40.379Z</time>
      </trkpt>
      <trkpt lat="50.26185999624431" lon="5.70797991938889">
        <ele>605.31</ele>
        <time>2021-07-27T14:43:48.242Z</time>
      </trkpt>
      <trkpt lat="50.26185957714915" lon="5.707980925217271">
        <ele>606.13</ele>
        <time>2021-07-27T14:43:56.105Z</time>
      </trkpt>
      <trkpt lat="50.26170124299824" lon="5.708403792232275">
        <ele>606.86</ele>
        <time>2021-07-27T14:44:03.973Z</time>
      </trkpt>
      <trkpt lat="50.261542573571205" lon="5.708827581256628">
        <ele>607.5</ele>
        <time>2021-07-27T14:44:11.846Z</time>
      </trkpt>
      <trkpt lat="50.261383820325136" lon="5.709251454100013">
        <ele>608.08</ele>
        <time>2021-07-27T14:44:19.724Z</time>
      </trkpt>
      <trkpt lat="50.2612251508981" lon="5.709675243124366">
        <ele>608.53</ele>
        <time>2021-07-27T14:44:27.607Z</time>
      </trkpt>
      <trkpt lat="50.26106639765203" lon="5.7100991159677505">
        <ele>608.91</ele>
        <time>2021-07-27T14:44:35.495Z</time>
      </trkpt>
      <trkpt lat="50.26090772822499" lon="5.710522904992104">
        <ele>609.31</ele>
        <time>2021-07-27T14:44:43.388Z</time>
      </trkpt>
      <trkpt lat="50.260748974978924" lon="5.710946777835488">
        <ele>609.73</ele>
        <time>2021-07-27T14:44:51.286Z</time>
      </trkpt>
      <trkpt lat="50.26059030555189" lon="5.711370566859841">
        <ele>610.07</ele>
        <time>2021-07-27T14:44:59.189Z</time>
      </trkpt>
      <trkpt lat="50.26043163612485" lon="5.711794439703226">
        <ele>610.26</ele>
        <time>2021-07-27T14:45:07.097Z</time>
      </trkpt>
      <trkpt lat="50.26027288287878" lon="5.712218228727579">
        <ele>610.43</ele>
        <time>2021-07-27T14:45:15.010Z</time>
      </trkpt>
      <trkpt lat="50.26011421345174" lon="5.712642101570964">
        <ele>610.72</ele>
        <time>2021-07-27T14:45:22.928Z</time>
      </trkpt>
      <trkpt lat="50.259955544024706" lon="5.713065890595317">
        <ele>611.1</ele>
        <time>2021-07-27T14:45:30.851Z</time>
      </trkpt>
      <trkpt lat="50.25979679077864" lon="5.713489763438702">
        <ele>611.51</ele>
        <time>2021-07-27T14:45:38.779Z</time>
      </trkpt>
      <trkpt lat="50.2596381213516" lon="5.713913552463055">
        <ele>611.9</ele>
        <time>2021-07-27T14:45:46.712Z</time>
      </trkpt>
      <trkpt lat="50.25947945192456" lon="5.714337425306439">
        <ele>612.25</ele>
        <time>2021-07-27T14:45:54.650Z</time>
      </trkpt>
      <trkpt lat="50.25933997705579" lon="5.714709917083383">
        <ele>612.65</ele>
        <time>2021-07-27T14:46:02.593Z</time>
      </trkpt>
      <trkpt lat="50.25918122380972" lon="5.715133789926767">
        <ele>613.04</ele>
        <time>2021-07-27T14:46:10.541Z</time>
      </trkpt>
      <trkpt lat="50.25902255438268" lon="5.71555757895112">
        <ele>613.48</ele>
        <time>2021-07-27T14:46:18.494Z</time>
      </trkpt>
      <trkpt lat="50.258863884955645" lon="5.715981451794505">
        <ele>614.04</ele>
        <time>2021-07-27T14:46:26.452Z</time>
      </trkpt>
      <trkpt lat="50.25870521552861" lon="5.716405240818858">
        <ele>614.58</ele>
        <time>2021-07-27T14:46:34.415Z</time>
      </trkpt>
      <trkpt lat="50.25854646228254" lon="5.716829029843211">
        <ele>615.05</ele>
        <time>2021-07-27T14:46:42.383Z</time>
      </trkpt>
      <trkpt lat="50.258519975468516" lon="5.716899940744042">
        <ele>615.56</ele>
        <time>2021-07-27T14:46:50.352Z</time>
      </trkpt>
      <trkpt lat="50.25836247950792" lon="5.717324903234839">
        <ele>616.16</ele>
        <time>2021-07-27T14:46:58.326Z</time>
      </trkpt>
      <trkpt lat="50.25820498354733" lon="5.717749781906605">
        <ele>616.78</ele>
        <time>2021-07-27T14:47:06.305Z</time>
      </trkpt>
      <trkpt lat="50.25804748758674" lon="5.71817466057837">
        <ele>617.38</ele>
        <time>2021-07-27T14:47:14.289Z</time>
      </trkpt>
      <trkpt lat="50.25798998773098" lon="5.718329977244139">
        <ele>617.99</ele>
        <time>2021-07-27T14:47:22.275Z</time>
      </trkpt>
      <trkpt lat="50.25783902965486" lon="5.718760639429092">
        <ele>618.69</ele>
        <time>2021-07-27T14:47:30.266Z</time>
      </trkpt>
      <trkpt lat="50.25768815539777" lon="5.719191301614046">
        <ele>619.45</ele>
        <time>2021-07-27T14:47:38.262Z</time>
      </trkpt>
      <trkpt lat="50.257537281140685" lon="5.719621963799">
        <ele>620.26</ele>
        <time>2021-07-27T14:47:46.263Z</time>
      </trkpt>
      <trkpt lat="50.257509956136346" lon="5.719699999317527">
        <ele>621.01</ele>
        <time>2021-07-27T14:47:54.265Z</time>
      </trkpt>
      <trkpt lat="50.25737006217241" lon="5.720139630138874">
        <ele>621.85</ele>
        <time>2021-07-27T14:48:02.272Z</time>
      </trkpt>
      <trkpt lat="50.25723016820848" lon="5.720579260960221">
        <ele>622.71</ele>
        <time>2021-07-27T14:48:10.284Z</time>
      </trkpt>
      <trkpt lat="50.2571599278599" lon="5.720799956470728">
        <ele>623.55</ele>
        <time>2021-07-27T14:48:18.298Z</time>
      </trkpt>
      <trkpt lat="50.25703486986458" lon="5.721250316128135">
        <ele>624.55</ele>
        <time>2021-07-27T14:48:26.317Z</time>
      </trkpt>
      <trkpt lat="50.25690972805023" lon="5.7217006757855415">
        <ele>625.5</ele>
        <time>2021-07-27T14:48:34.341Z</time>
      </trkpt>
      <trkpt lat="50.25685993954539" lon="5.721879964694381">
        <ele>626.42</ele>
        <time>2021-07-27T14:48:42.367Z</time>
      </trkpt>
      <trkpt lat="50.25673798285425" lon="5.7223324198275805">
        <ele>627.37</ele>
        <time>2021-07-27T14:48:50.398Z</time>
      </trkpt>
      <trkpt lat="50.25661610998213" lon="5.72278487496078">
        <ele>628.26</ele>
        <time>2021-07-27T14:48:58.434Z</time>
      </trkpt>
      <trkpt lat="50.25649415329099" lon="5.723237246274948">
        <ele>629.22</ele>
        <time>2021-07-27T14:49:06.475Z</time>
      </trkpt>
      <trkpt lat="50.25647998787463" lon="5.723289968445897">
        <ele>630.13</ele>
        <time>2021-07-27T14:49:14.517Z</time>
      </trkpt>
      <trkpt lat="50.25634688325226" lon="5.723734712228179">
        <ele>631.02</ele>
        <time>2021-07-27T14:49:22.564Z</time>
      </trkpt>
      <trkpt lat="50.2562137786299" lon="5.724179372191429">
        <ele>631.99</ele>
        <time>2021-07-27T14:49:30.616Z</time>
      </trkpt>
      <trkpt lat="50.256080674007535" lon="5.724624115973711">
        <ele>632.84</ele>
        <time>2021-07-27T14:49:38.673Z</time>
      </trkpt>
      <trkpt lat="50.256069945171475" lon="5.724659990519285">
        <ele>633.71</ele>
        <time>2021-07-27T14:49:46.731Z</time>
      </trkpt>
      <trkpt lat="50.25592946447432" lon="5.725099118426442">
        <ele>634.64</ele>
        <time>2021-07-27T14:49:54.794Z</time>
      </trkpt>
      <trkpt lat="50.255829971283674" lon="5.725409919396043">
        <ele>635.51</ele>
        <time>2021-07-27T14:50:02.860Z</time>
      </trkpt>
      <trkpt lat="50.25567532517016" lon="5.725837396457791">
        <ele>636.47</ele>
        <time>2021-07-27T14:50:10.931Z</time>
      </trkpt>
      <trkpt lat="50.255520679056644" lon="5.726264789700508">
        <ele>637.38</ele>
        <time>2021-07-27T14:50:19.007Z</time>
      </trkpt>
      <trkpt lat="50.25536603294313" lon="5.726692182943225">
        <ele>638.24</ele>
        <time>2021-07-27T14:50:27.088Z</time>
      </trkpt>
      <trkpt lat="50.25527995079756" lon="5.7269299775362015">
        <ele>639.02</ele>
        <time>2021-07-27T14:50:35.172Z</time>
      </trkpt>
      <trkpt lat="50.255109714344144" lon="5.727342702448368">
        <ele>639.76</ele>
        <time>2021-07-27T14:50:43.261Z</time>
      </trkpt>
      <trkpt lat="50.254949955269694" lon="5.727729946374893">
        <ele>640.44</ele>
        <time>2021-07-27T14:50:51.355Z</time>
      </trkpt>
      <trkpt lat="50.254772594198585" lon="5.7281353790313005">
        <ele>641.07</ele>
        <time>2021-07-27T14:50:59.454Z</time>
      </trkpt>
      <trkpt lat="50.254595233127475" lon="5.728540727868676">
        <ele>641.74</ele>
        <time>2021-07-27T14:51:07.558Z</time>
      </trkpt>
      <trkpt lat="50.254417872056365" lon="5.728946076706052">
        <ele>642.41</ele>
        <time>2021-07-27T14:51:15.667Z</time>
      </trkpt>
      <trkpt lat="50.25431997142732" lon="5.729169957339764">
        <ele>643.0</ele>
        <time>2021-07-27T14:51:23.779Z</time>
      </trkpt>
      <trkpt lat="50.25413146242499" lon="5.729562984779477">
        <ele>643.54</ele>
        <time>2021-07-27T14:51:31.896Z</time>
      </trkpt>
      <trkpt lat="50.2539430372417" lon="5.729955928400159">
        <ele>644.01</ele>
        <time>2021-07-27T14:51:40.018Z</time>
      </trkpt>
      <trkpt lat="50.2537546120584" lon="5.730348955839872">
        <ele>644.45</ele>
        <time>2021-07-27T14:51:48.145Z</time>
      </trkpt>
      <trkpt lat="50.25356610305607" lon="5.730741983279586">
        <ele>644.9</ele>
        <time>2021-07-27T14:51:56.277Z</time>
      </trkpt>
      <trkpt lat="50.25349996984005" lon="5.730879949405789">
        <ele>645.25</ele>
        <time>2021-07-27T14:52:04.411Z</time>
      </trkpt>
      <trkpt lat="50.25334993377328" lon="5.7311599887907505">
        <ele>645.65</ele>
        <time>2021-07-27T14:52:12.548Z</time>
      </trkpt>
      <trkpt lat="50.25314457714558" lon="5.731531726196408">
        <ele>646.02</ele>
        <time>2021-07-27T14:52:20.690Z</time>
      </trkpt>
      <trkpt lat="50.25293913669884" lon="5.731903547421098">
        <ele>646.3</ele>
        <time>2021-07-27T14:52:28.838Z</time>
      </trkpt>
      <trkpt lat="50.25273378007114" lon="5.7322752848267555">
        <ele>646.5</ele>
        <time>2021-07-27T14:52:36.991Z</time>
      </trkpt>
      <trkpt lat="50.25255993939936" lon="5.732589941471815">
        <ele>646.69</ele>
        <time>2021-07-27T14:52:45.148Z</time>
      </trkpt>
      <trkpt lat="50.25234628468752" lon="5.73295027948916">
        <ele>646.77</ele>
        <time>2021-07-27T14:52:53.310Z</time>
      </trkpt>
      <trkpt lat="50.25213271379471" lon="5.733310533687472">
        <ele>646.82</ele>
        <time>2021-07-27T14:53:01.477Z</time>
      </trkpt>
      <trkpt lat="50.251919059082866" lon="5.733670871704817">
        <ele>646.89</ele>
        <time>2021-07-27T14:53:09.649Z</time>
      </trkpt>
      <trkpt lat="50.25188997387886" lon="5.733719989657402">
        <ele>646.88</ele>
        <time>2021-07-27T14:53:17.822Z</time>
      </trkpt>
      <trkpt lat="50.25167405605316" lon="5.734076974913478">
        <ele>646.88</ele>
        <time>2021-07-27T14:53:26.000Z</time>
      </trkpt>
      <trkpt lat="50.251458222046494" lon="5.7344340439885855">
        <ele>646.79</ele>
        <time>2021-07-27T14:53:34.183Z</time>
      </trkpt>
      <trkpt lat="50.251242304220796" lon="5.734791029244661">
        <ele>646.64</ele>
        <time>2021-07-27T14:53:42.371Z</time>
      </trkpt>
      <trkpt lat="50.25110995396972" lon="5.735009964555502">
        <ele>646.46</ele>
        <time>2021-07-27T14:53:50.562Z</time>
      </trkpt>
      <trkpt lat="50.25089361704886" lon="5.735366279259324">
        <ele>646.21</ele>
        <time>2021-07-27T14:53:58.758Z</time>
      </trkpt>
      <trkpt lat="50.250677280128" lon="5.735722593963146">
        <ele>645.97</ele>
        <time>2021-07-27T14:54:06.959Z</time>
      </trkpt>
      <trkpt lat="50.250460943207145" lon="5.736078908666968">
        <ele>645.69</ele>
        <time>2021-07-27T14:54:15.165Z</time>
      </trkpt>
      <trkpt lat="50.25024460628629" lon="5.736435307189822">
        <ele>645.44</ele>
        <time>2021-07-27T14:54:23.376Z</time>
      </trkpt>
      <trkpt lat="50.25008996017277" lon="5.736689949408174">
        <ele>645.24</ele>
        <time>2021-07-27T14:54:31.591Z</time>
      </trkpt>
      <trkpt lat="50.24987337179482" lon="5.7370460126549006">
        <ele>645.0</ele>
        <time>2021-07-27T14:54:39.811Z</time>
      </trkpt>
      <trkpt lat="50.2496568672359" lon="5.737401992082596">
        <ele>644.92</ele>
        <time>2021-07-27T14:54:48.036Z</time>
      </trkpt>
      <trkpt lat="50.24949995800853" lon="5.737659987062216">
        <ele>644.85</ele>
        <time>2021-07-27T14:54:56.264Z</time>
      </trkpt>
      <trkpt lat="50.249319998547435" lon="5.737729975953698">
        <ele>644.81</ele>
        <time>2021-07-27T14:55:04.495Z</time>
      </trkpt>
      <trkpt lat="50.249299965798855" lon="5.737709943205118">
        <ele>644.79</ele>
        <time>2021-07-27T14:55:12.727Z</time>
      </trkpt>
      <trkpt lat="50.24923995137215" lon="5.737699968740344">
        <ele>644.82</ele>
        <time>2021-07-27T14:55:20.960Z</time>
      </trkpt>
      <trkpt lat="50.24920994415879" lon="5.737699968740344">
        <ele>644.87</ele>
        <time>2021-07-27T14:55:29.193Z</time>
      </trkpt>
      <trkpt lat="50.249169962480664" lon="5.737459994852543">
        <ele>644.98</ele>
        <time>2021-07-27T14:55:37.429Z</time>
      </trkpt>
      <trkpt lat="50.24915998801589" lon="5.737069984897971">
        <ele>645.13</ele>
        <time>2021-07-27T14:55:45.669Z</time>
      </trkpt>
      <trkpt lat="50.249154875054955" lon="5.736579308286309">
        <ele>645.31</ele>
        <time>2021-07-27T14:55:53.914Z</time>
      </trkpt>
      <trkpt lat="50.249149929732084" lon="5.736099947243929">
        <ele>645.54</ele>
        <time>2021-07-27T14:56:02.164Z</time>
      </trkpt>
      <trkpt lat="50.24912277236581" lon="5.735611114650965">
        <ele>645.88</ele>
        <time>2021-07-27T14:56:10.419Z</time>
      </trkpt>
      <trkpt lat="50.249109948053956" lon="5.735379941761494">
        <ele>646.14</ele>
        <time>2021-07-27T14:56:18.676Z</time>
      </trkpt>
      <trkpt lat="50.249065859243274" lon="5.734922373667359">
        <ele>646.47</ele>
        <time>2021-07-27T14:56:26.938Z</time>
      </trkpt>
      <trkpt lat="50.24906326085329" lon="5.734894629567862">
        <ele>646.71</ele>
        <time>2021-07-27T14:56:35.200Z</time>
      </trkpt>
      <trkpt lat="50.249059991911054" lon="5.734859928488731">
        <ele>646.96</ele>
        <time>2021-07-27T14:56:43.462Z</time>
      </trkpt>
      <trkpt lat="50.24905982427299" lon="5.734858922660351">
        <ele>647.21</ele>
        <time>2021-07-27T14:56:51.724Z</time>
      </trkpt>
      <trkpt lat="50.24900550954044" lon="5.73437662795186">
        <ele>647.5</ele>
        <time>2021-07-27T14:56:59.992Z</time>
      </trkpt>
      <trkpt lat="50.248979944735765" lon="5.734149981290102">
        <ele>647.76</ele>
        <time>2021-07-27T14:57:08.262Z</time>
      </trkpt>
      <trkpt lat="50.24891020730138" lon="5.733671458438039">
        <ele>648.0</ele>
        <time>2021-07-27T14:57:16.537Z</time>
      </trkpt>
      <trkpt lat="50.24890995584428" lon="5.733669949695468">
        <ele>648.22</ele>
        <time>2021-07-27T14:57:24.812Z</time>
      </trkpt>
      <trkpt lat="50.2488399669528" lon="5.733379935845733">
        <ele>648.4</ele>
        <time>2021-07-27T14:57:33.090Z</time>
      </trkpt>
      <trkpt lat="50.24873938411474" lon="5.732914991676807">
        <ele>648.56</ele>
        <time>2021-07-27T14:57:41.373Z</time>
      </trkpt>
      <trkpt lat="50.248638885095716" lon="5.73244996368885">
        <ele>648.7</ele>
        <time>2021-07-27T14:57:49.661Z</time>
      </trkpt>
      <trkpt lat="50.248599993065" lon="5.732269920408726">
        <ele>648.83</ele>
        <time>2021-07-27T14:57:57.951Z</time>
      </trkpt>
      <trkpt lat="50.24847191758454" lon="5.7318217400461435">
        <ele>648.89</ele>
        <time>2021-07-27T14:58:06.246Z</time>
      </trkpt>
      <trkpt lat="50.248459931463" lon="5.731779998168349">
        <ele>648.97</ele>
        <time>2021-07-27T14:58:14.542Z</time>
      </trkpt>
      <trkpt lat="50.24835993535817" lon="5.73145997710526">
        <ele>649.01</ele>
        <time>2021-07-27T14:58:22.841Z</time>
      </trkpt>
      <trkpt lat="50.24822121486068" lon="5.7310195080935955">
        <ele>649.04</ele>
        <time>2021-07-27T14:58:31.145Z</time>
      </trkpt>
      <trkpt lat="50.24812993593514" lon="5.7307299971580505">
        <ele>649.06</ele>
        <time>2021-07-27T14:58:39.453Z</time>
      </trkpt>
      <trkpt lat="50.24795735254884" lon="5.730319619178772">
        <ele>649.02</ele>
        <time>2021-07-27T14:58:47.766Z</time>
      </trkpt>
      <trkpt lat="50.24778485298157" lon="5.729909325018525">
        <ele>648.93</ele>
        <time>2021-07-27T14:58:56.084Z</time>
      </trkpt>
      <trkpt lat="50.24767999537289" lon="5.729659963399172">
        <ele>648.82</ele>
        <time>2021-07-27T14:59:04.405Z</time>
      </trkpt>
      <trkpt lat="50.247539933770895" lon="5.729329967871308">
        <ele>648.68</ele>
        <time>2021-07-27T14:59:12.730Z</time>
      </trkpt>
      <trkpt lat="50.24733834899962" lon="5.728953201323748">
        <ele>648.45</ele>
        <time>2021-07-27T14:59:21.060Z</time>
      </trkpt>
      <trkpt lat="50.24715998210013" lon="5.728619936853647">
        <ele>648.27</ele>
        <time>2021-07-27T14:59:29.394Z</time>
      </trkpt>
      <trkpt lat="50.24712821468711" lon="5.728566963225603">
        <ele>648.06</ele>
        <time>2021-07-27T14:59:37.729Z</time>
      </trkpt>
      <trkpt lat="50.24709996767342" lon="5.728519940748811">
        <ele>647.82</ele>
        <time>2021-07-27T14:59:46.065Z</time>
      </trkpt>
      <trkpt lat="50.24709954857826" lon="5.728519270196557">
        <ele>647.52</ele>
        <time>2021-07-27T14:59:54.401Z</time>
      </trkpt>
      <trkpt lat="50.24688438512385" lon="5.728162536397576">
        <ele>647.29</ele>
        <time>2021-07-27T15:00:02.742Z</time>
      </trkpt>
      <trkpt lat="50.24666880257428" lon="5.727805132046342">
        <ele>646.96</ele>
        <time>2021-07-27T15:00:11.088Z</time>
      </trkpt>
      <trkpt lat="50.246453220024705" lon="5.727447643876076">
        <ele>646.53</ele>
        <time>2021-07-27T15:00:19.439Z</time>
      </trkpt>
      <trkpt lat="50.24623763747513" lon="5.727090239524841">
        <ele>646.04</ele>
        <time>2021-07-27T15:00:27.795Z</time>
      </trkpt>
      <trkpt lat="50.24602205492556" lon="5.726732835173607">
        <ele>645.54</ele>
        <time>2021-07-27T15:00:36.156Z</time>
      </trkpt>
      <trkpt lat="50.24580655619502" lon="5.726375347003341">
        <ele>645.04</ele>
        <time>2021-07-27T15:00:44.522Z</time>
      </trkpt>
      <trkpt lat="50.24559097364545" lon="5.726017942652106">
        <ele>644.47</ele>
        <time>2021-07-27T15:00:52.893Z</time>
      </trkpt>
      <trkpt lat="50.24554998613894" lon="5.725949965417385">
        <ele>643.91</ele>
        <time>2021-07-27T15:01:01.265Z</time>
      </trkpt>
      <trkpt lat="50.245334738865495" lon="5.72559205815196">
        <ele>643.3</ele>
        <time>2021-07-27T15:01:09.642Z</time>
      </trkpt>
      <trkpt lat="50.24511940777302" lon="5.725234150886536">
        <ele>642.56</ele>
        <time>2021-07-27T15:01:18.024Z</time>
      </trkpt>
      <trkpt lat="50.24490416049957" lon="5.724876327440143">
        <ele>641.87</ele>
        <time>2021-07-27T15:01:26.411Z</time>
      </trkpt>
      <trkpt lat="50.24468891322613" lon="5.724518420174718">
        <ele>641.26</ele>
        <time>2021-07-27T15:01:34.803Z</time>
      </trkpt>
      <trkpt lat="50.24447366595268" lon="5.724160512909293">
        <ele>640.61</ele>
        <time>2021-07-27T15:01:43.200Z</time>
      </trkpt>
      <trkpt lat="50.24425841867924" lon="5.7238026056438684">
        <ele>639.9</ele>
        <time>2021-07-27T15:01:51.602Z</time>
      </trkpt>
      <trkpt lat="50.24404317140579" lon="5.723444698378444">
        <ele>639.15</ele>
        <time>2021-07-27T15:02:00.009Z</time>
      </trkpt>
      <trkpt lat="50.24388995021582" lon="5.723189972341061">
        <ele>638.42</ele>
        <time>2021-07-27T15:02:08.420Z</time>
      </trkpt>
      <trkpt lat="50.24370999075472" lon="5.722869951277971">
        <ele>637.74</ele>
        <time>2021-07-27T15:02:16.835Z</time>
      </trkpt>
      <trkpt lat="50.243492145091295" lon="5.722515815868974">
        <ele>637.11</ele>
        <time>2021-07-27T15:02:25.255Z</time>
      </trkpt>
      <trkpt lat="50.2432743832469" lon="5.722161680459976">
        <ele>636.47</ele>
        <time>2021-07-27T15:02:33.680Z</time>
      </trkpt>
      <trkpt lat="50.2430566214025" lon="5.721807545050979">
        <ele>635.74</ele>
        <time>2021-07-27T15:02:42.110Z</time>
      </trkpt>
      <trkpt lat="50.242838859558105" lon="5.721453409641981">
        <ele>635.02</ele>
        <time>2021-07-27T15:02:50.545Z</time>
      </trkpt>
      <trkpt lat="50.24262101389468" lon="5.721099274232984">
        <ele>634.33</ele>
        <time>2021-07-27T15:02:58.985Z</time>
      </trkpt>
      <trkpt lat="50.24255999363959" lon="5.720999948680401">
        <ele>633.72</ele>
        <time>2021-07-27T15:03:07.427Z</time>
      </trkpt>
      <trkpt lat="50.24234474636614" lon="5.720641957595944">
        <ele>633.13</ele>
        <time>2021-07-27T15:03:15.874Z</time>
      </trkpt>
      <trkpt lat="50.24212958291173" lon="5.720283966511488">
        <ele>632.52</ele>
        <time>2021-07-27T15:03:24.326Z</time>
      </trkpt>
      <trkpt lat="50.241914419457316" lon="5.719926059246063">
        <ele>631.88</ele>
        <time>2021-07-27T15:03:32.783Z</time>
      </trkpt>
      <trkpt lat="50.2416992560029" lon="5.719568068161607">
        <ele>631.28</ele>
        <time>2021-07-27T15:03:41.245Z</time>
      </trkpt>
      <trkpt lat="50.24148409254849" lon="5.71921007707715">
        <ele>630.81</ele>
        <time>2021-07-27T15:03:49.712Z</time>
      </trkpt>
      <trkpt lat="50.241459952667356" lon="5.719169927760959">
        <ele>630.45</ele>
        <time>2021-07-27T15:03:58.180Z</time>
      </trkpt>
      <trkpt lat="50.24124369956553" lon="5.718813529238105">
        <ele>630.16</ele>
        <time>2021-07-27T15:04:06.653Z</time>
      </trkpt>
      <trkpt lat="50.241027446463704" lon="5.718457130715251">
        <ele>629.97</ele>
        <time>2021-07-27T15:04:15.131Z</time>
      </trkpt>
      <trkpt lat="50.24081127718091" lon="5.718100732192397">
        <ele>629.93</ele>
        <time>2021-07-27T15:04:23.614Z</time>
      </trkpt>
      <trkpt lat="50.240595024079084" lon="5.7177442498505116">
        <ele>629.82</ele>
        <time>2021-07-27T15:04:32.102Z</time>
      </trkpt>
      <trkpt lat="50.24037877097726" lon="5.717387851327658">
        <ele>629.71</ele>
        <time>2021-07-27T15:04:40.595Z</time>
      </trkpt>
      <trkpt lat="50.24016251787543" lon="5.717031452804804">
        <ele>629.63</ele>
        <time>2021-07-27T15:04:49.093Z</time>
      </trkpt>
      <trkpt lat="50.23994634859264" lon="5.71667505428195">
        <ele>629.73</ele>
        <time>2021-07-27T15:04:57.596Z</time>
      </trkpt>
      <trkpt lat="50.23973009549081" lon="5.716318571940064">
        <ele>629.82</ele>
        <time>2021-07-27T15:05:06.104Z</time>
      </trkpt>
      <trkpt lat="50.23951384238899" lon="5.715962173417211">
        <ele>629.98</ele>
        <time>2021-07-27T15:05:14.617Z</time>
      </trkpt>
      <trkpt lat="50.23929767310619" lon="5.715605774894357">
        <ele>630.23</ele>
        <time>2021-07-27T15:05:23.135Z</time>
      </trkpt>
      <trkpt lat="50.23908142000437" lon="5.715249292552471">
        <ele>630.5</ele>
        <time>2021-07-27T15:05:31.658Z</time>
      </trkpt>
      <trkpt lat="50.23886516690254" lon="5.714892894029617">
        <ele>630.78</ele>
        <time>2021-07-27T15:05:40.186Z</time>
      </trkpt>
      <trkpt lat="50.238729966804385" lon="5.714669935405254">
        <ele>631.17</ele>
        <time>2021-07-27T15:05:48.717Z</time>
      </trkpt>
      <trkpt lat="50.238514468073845" lon="5.71431253105402">
        <ele>631.59</ele>
        <time>2021-07-27T15:05:57.253Z</time>
      </trkpt>
      <trkpt lat="50.23834808729589" lon="5.714036682620645">
        <ele>631.99</ele>
        <time>2021-07-27T15:06:05.793Z</time>
      </trkpt>
      <trkpt lat="50.23831992410123" lon="5.713989995419979">
        <ele>632.47</ele>
        <time>2021-07-27T15:06:14.334Z</time>
      </trkpt>
      <trkpt lat="50.23831958882511" lon="5.713989408686757">
        <ele>632.98</ele>
        <time>2021-07-27T15:06:22.875Z</time>
      </trkpt>
      <trkpt lat="50.23810341954231" lon="5.7136340998113155">
        <ele>633.51</ele>
        <time>2021-07-27T15:06:31.421Z</time>
      </trkpt>
      <trkpt lat="50.23788683116436" lon="5.713278204202652">
        <ele>634.17</ele>
        <time>2021-07-27T15:06:39.972Z</time>
      </trkpt>
      <trkpt lat="50.23767024278641" lon="5.712922224774957">
        <ele>634.82</ele>
        <time>2021-07-27T15:06:48.528Z</time>
      </trkpt>
      <trkpt lat="50.237453654408455" lon="5.712566329166293">
        <ele>635.45</ele>
        <time>2021-07-27T15:06:57.089Z</time>
      </trkpt>
      <trkpt lat="50.2372370660305" lon="5.71221043355763">
        <ele>636.14</ele>
        <time>2021-07-27T15:07:05.655Z</time>
      </trkpt>
      <trkpt lat="50.23702056147158" lon="5.711854537948966">
        <ele>636.83</ele>
        <time>2021-07-27T15:07:14.226Z</time>
      </trkpt>
      <trkpt lat="50.23680397309363" lon="5.7114986423403025">
        <ele>637.49</ele>
        <time>2021-07-27T15:07:22.802Z</time>
      </trkpt>
      <trkpt lat="50.236587384715676" lon="5.711142746731639">
        <ele>638.04</ele>
        <time>2021-07-27T15:07:31.383Z</time>
      </trkpt>
      <trkpt lat="50.236370796337724" lon="5.710786851122975">
        <ele>638.5</ele>
        <time>2021-07-27T15:07:39.969Z</time>
      </trkpt>
      <trkpt lat="50.2361542917788" lon="5.710430955514312">
        <ele>638.84</ele>
        <time>2021-07-27T15:07:48.560Z</time>
      </trkpt>
      <trkpt lat="50.23593770340085" lon="5.710075059905648">
        <ele>639.02</ele>
        <time>2021-07-27T15:07:57.156Z</time>
      </trkpt>
      <trkpt lat="50.2357211150229" lon="5.709719164296985">
        <ele>639.2</ele>
        <time>2021-07-27T15:08:05.757Z</time>
      </trkpt>
      <trkpt lat="50.23550461046398" lon="5.709363268688321">
        <ele>639.4</ele>
        <time>2021-07-27T15:08:14.363Z</time>
      </trkpt>
      <trkpt lat="50.235288022086024" lon="5.7090073730796576">
        <ele>639.51</ele>
        <time>2021-07-27T15:08:22.974Z</time>
      </trkpt>
      <trkpt lat="50.23507143370807" lon="5.708651477470994">
        <ele>639.51</ele>
        <time>2021-07-27T15:08:31.590Z</time>
      </trkpt>
      <trkpt lat="50.23485492914915" lon="5.70829558186233">
        <ele>639.43</ele>
        <time>2021-07-27T15:08:40.211Z</time>
      </trkpt>
      <trkpt lat="50.2346383407712" lon="5.707939686253667">
        <ele>639.35</ele>
        <time>2021-07-27T15:08:48.838Z</time>
      </trkpt>
      <trkpt lat="50.23442183621228" lon="5.707583790645003">
        <ele>639.23</ele>
        <time>2021-07-27T15:08:57.470Z</time>
      </trkpt>
      <trkpt lat="50.23430993780494" lon="5.7073999755084515">
        <ele>639.05</ele>
        <time>2021-07-27T15:09:06.104Z</time>
      </trkpt>
      <trkpt lat="50.234104581177235" lon="5.707028321921825">
        <ele>638.81</ele>
        <time>2021-07-27T15:09:14.743Z</time>
      </trkpt>
      <trkpt lat="50.23409997113049" lon="5.707019940018654">
        <ele>638.57</ele>
        <time>2021-07-27T15:09:23.382Z</time>
      </trkpt>
      <trkpt lat="50.2338817063719" lon="5.706666558980942">
        <ele>638.33</ele>
        <time>2021-07-27T15:09:32.026Z</time>
      </trkpt>
      <trkpt lat="50.23366344161332" lon="5.70631317794323">
        <ele>638.04</ele>
        <time>2021-07-27T15:09:40.675Z</time>
      </trkpt>
      <trkpt lat="50.23344526067376" lon="5.705959796905518">
        <ele>637.63</ele>
        <time>2021-07-27T15:09:49.329Z</time>
      </trkpt>
      <trkpt lat="50.233226995915174" lon="5.7056064158678055">
        <ele>637.11</ele>
        <time>2021-07-27T15:09:57.988Z</time>
      </trkpt>
      <trkpt lat="50.23300873115659" lon="5.705253034830093">
        <ele>636.52</ele>
        <time>2021-07-27T15:10:06.653Z</time>
      </trkpt>
      <trkpt lat="50.23279055021703" lon="5.704899653792381">
        <ele>635.97</ele>
        <time>2021-07-27T15:10:15.323Z</time>
      </trkpt>
      <trkpt lat="50.232572285458446" lon="5.704546272754669">
        <ele>635.6</ele>
        <time>2021-07-27T15:10:23.998Z</time>
      </trkpt>
      <trkpt lat="50.23235410451889" lon="5.704192891716957">
        <ele>635.3</ele>
        <time>2021-07-27T15:10:32.678Z</time>
      </trkpt>
      <trkpt lat="50.2321358397603" lon="5.703839510679245">
        <ele>634.98</ele>
        <time>2021-07-27T15:10:41.363Z</time>
      </trkpt>
      <trkpt lat="50.23212997242808" lon="5.703829955309629">
        <ele>634.57</ele>
        <time>2021-07-27T15:10:50.048Z</time>
      </trkpt>
      <trkpt lat="50.23191933520138" lon="5.703465510159731">
        <ele>634.15</ele>
        <time>2021-07-27T15:10:58.738Z</time>
      </trkpt>
      <trkpt lat="50.2318699657917" lon="5.7033799309283495">
        <ele>633.74</ele>
        <time>2021-07-27T15:11:07.429Z</time>
      </trkpt>
      <trkpt lat="50.23165295831859" lon="5.70302470587194">
        <ele>633.26</ele>
        <time>2021-07-27T15:11:16.125Z</time>
      </trkpt>
      <trkpt lat="50.23143603466451" lon="5.702669396996498">
        <ele>632.91</ele>
        <time>2021-07-27T15:11:24.826Z</time>
      </trkpt>
      <trkpt lat="50.2312190271914" lon="5.702314171940088">
        <ele>632.52</ele>
        <time>2021-07-27T15:11:33.532Z</time>
      </trkpt>
      <trkpt lat="50.23100210353732" lon="5.701958946883678">
        <ele>632.09</ele>
        <time>2021-07-27T15:11:42.243Z</time>
      </trkpt>
      <trkpt lat="50.23078509606421" lon="5.701603638008237">
        <ele>631.63</ele>
        <time>2021-07-27T15:11:50.959Z</time>
      </trkpt>
      <trkpt lat="50.23056817241013" lon="5.701248412951827">
        <ele>631.23</ele>
        <time>2021-07-27T15:11:59.680Z</time>
      </trkpt>
      <trkpt lat="50.23035116493702" lon="5.7008931040763855">
        <ele>630.86</ele>
        <time>2021-07-27T15:12:08.406Z</time>
      </trkpt>
      <trkpt lat="50.23013424128294" lon="5.700537879019976">
        <ele>630.55</ele>
        <time>2021-07-27T15:12:17.137Z</time>
      </trkpt>
      <trkpt lat="50.22991723380983" lon="5.700182653963566">
        <ele>630.32</ele>
        <time>2021-07-27T15:12:25.873Z</time>
      </trkpt>
      <trkpt lat="50.22970031015575" lon="5.699827345088124">
        <ele>630.14</ele>
        <time>2021-07-27T15:12:34.614Z</time>
      </trkpt>
      <trkpt lat="50.22948330268264" lon="5.699472120031714">
        <ele>629.9</ele>
        <time>2021-07-27T15:12:43.360Z</time>
      </trkpt>
      <trkpt lat="50.22926637902856" lon="5.699116811156273">
        <ele>629.73</ele>
        <time>2021-07-27T15:12:52.112Z</time>
      </trkpt>
      <trkpt lat="50.22904937155545" lon="5.698761586099863">
        <ele>629.49</ele>
        <time>2021-07-27T15:13:00.869Z</time>
      </trkpt>
      <trkpt lat="50.22883244790137" lon="5.6984062772244215">
        <ele>629.24</ele>
        <time>2021-07-27T15:13:09.631Z</time>
      </trkpt>
      <trkpt lat="50.22861552424729" lon="5.698051052168012">
        <ele>628.98</ele>
        <time>2021-07-27T15:13:18.398Z</time>
      </trkpt>
      <trkpt lat="50.22839851677418" lon="5.69769574329257">
        <ele>628.67</ele>
        <time>2021-07-27T15:13:27.170Z</time>
      </trkpt>
      <trkpt lat="50.2281815931201" lon="5.69734051823616">
        <ele>628.34</ele>
        <time>2021-07-27T15:13:35.947Z</time>
      </trkpt>
      <trkpt lat="50.22796466946602" lon="5.69698529317975">
        <ele>627.99</ele>
        <time>2021-07-27T15:13:44.729Z</time>
      </trkpt>
      <trkpt lat="50.22774766199291" lon="5.696629984304309">
        <ele>627.64</ele>
        <time>2021-07-27T15:13:53.516Z</time>
      </trkpt>
      <trkpt lat="50.22764992900193" lon="5.696469973772764">
        <ele>627.32</ele>
        <time>2021-07-27T15:14:02.305Z</time>
      </trkpt>
      <trkpt lat="50.22743300534785" lon="5.696114664897323">
        <ele>627.0</ele>
        <time>2021-07-27T15:14:11.099Z</time>
      </trkpt>
      <trkpt lat="50.22721608169377" lon="5.695759356021881">
        <ele>626.64</ele>
        <time>2021-07-27T15:14:19.898Z</time>
      </trkpt>
      <trkpt lat="50.22706998512149" lon="5.695519968867302">
        <ele>626.25</ele>
        <time>2021-07-27T15:14:28.701Z</time>
      </trkpt>
      <trkpt lat="50.22688616998494" lon="5.695121828466654">
        <ele>625.86</ele>
        <time>2021-07-27T15:14:37.509Z</time>
      </trkpt>
      <trkpt lat="50.226829927414656" lon="5.69499995559454">
        <ele>625.55</ele>
        <time>2021-07-27T15:14:46.318Z</time>
      </trkpt>
      <trkpt lat="50.226684836670756" lon="5.694564683362842">
        <ele>625.25</ele>
        <time>2021-07-27T15:14:55.132Z</time>
      </trkpt>
      <trkpt lat="50.22663999348879" lon="5.694429986178875">
        <ele>624.95</ele>
        <time>2021-07-27T15:15:03.948Z</time>
      </trkpt>
      <trkpt lat="50.22654469124973" lon="5.6939624436199665">
        <ele>624.69</ele>
        <time>2021-07-27T15:15:12.769Z</time>
      </trkpt>
      <trkpt lat="50.226529939100146" lon="5.693889940157533">
        <ele>624.37</ele>
        <time>2021-07-27T15:15:21.591Z</time>
      </trkpt>
      <trkpt lat="50.22647453472018" lon="5.693407142534852">
        <ele>624.05</ele>
        <time>2021-07-27T15:15:30.418Z</time>
      </trkpt>
      <trkpt lat="50.226459950208664" lon="5.69327998906374">
        <ele>623.71</ele>
        <time>2021-07-27T15:15:39.246Z</time>
      </trkpt>
      <trkpt lat="50.22642734460533" lon="5.692792162299156">
        <ele>623.31</ele>
        <time>2021-07-27T15:15:48.079Z</time>
      </trkpt>
      <trkpt lat="50.22639465518296" lon="5.692304251715541">
        <ele>622.85</ele>
        <time>2021-07-27T15:15:56.917Z</time>
      </trkpt>
      <trkpt lat="50.22636204957962" lon="5.691816424950957">
        <ele>622.51</ele>
        <time>2021-07-27T15:16:05.760Z</time>
      </trkpt>
      <trkpt lat="50.22632936015725" lon="5.691328598186374">
        <ele>622.12</ele>
        <time>2021-07-27T15:16:14.608Z</time>
      </trkpt>
      <trkpt lat="50.226296754553914" lon="5.69084077142179">
        <ele>621.59</ele>
        <time>2021-07-27T15:16:23.461Z</time>
      </trkpt>
      <trkpt lat="50.22627999074757" lon="5.690589984878898">
        <ele>621.09</ele>
        <time>2021-07-27T15:16:32.317Z</time>
      </trkpt>
      <trkpt lat="50.22624294273555" lon="5.6901029124855995">
        <ele>620.6</ele>
        <time>2021-07-27T15:16:41.178Z</time>
      </trkpt>
      <trkpt lat="50.226205978542566" lon="5.68961575627327">
        <ele>620.21</ele>
        <time>2021-07-27T15:16:50.044Z</time>
      </trkpt>
      <trkpt lat="50.22616901434958" lon="5.6891286838799715">
        <ele>619.82</ele>
        <time>2021-07-27T15:16:58.915Z</time>
      </trkpt>
      <trkpt lat="50.22613205015659" lon="5.688641611486673">
        <ele>619.36</ele>
        <time>2021-07-27T15:17:07.791Z</time>
      </trkpt>
      <trkpt lat="50.22609508596361" lon="5.688154539093375">
        <ele>618.86</ele>
        <time>2021-07-27T15:17:16.672Z</time>
      </trkpt>
      <trkpt lat="50.22605812177062" lon="5.687667466700077">
        <ele>618.34</ele>
        <time>2021-07-27T15:17:25.558Z</time>
      </trkpt>
      <trkpt lat="50.226021157577634" lon="5.687180394306779">
        <ele>617.74</ele>
        <time>2021-07-27T15:17:34.449Z</time>
      </trkpt>
      <trkpt lat="50.22598419338465" lon="5.686693321913481">
        <ele>617.13</ele>
        <time>2021-07-27T15:17:43.345Z</time>
      </trkpt>
      <trkpt lat="50.22594722919166" lon="5.686206249520183">
        <ele>616.47</ele>
        <time>2021-07-27T15:17:52.246Z</time>
      </trkpt>
      <trkpt lat="50.225910264998674" lon="5.6857191771268845">
        <ele>615.76</ele>
        <time>2021-07-27T15:18:01.152Z</time>
      </trkpt>
      <trkpt lat="50.22587992250919" lon="5.685319947078824">
        <ele>615.04</ele>
        <time>2021-07-27T15:18:10.062Z</time>
      </trkpt>
      <trkpt lat="50.22584597580135" lon="5.684832371771336">
        <ele>614.35</ele>
        <time>2021-07-27T15:18:18.977Z</time>
      </trkpt>
      <trkpt lat="50.225812029093504" lon="5.6843447126448154">
        <ele>613.66</ele>
        <time>2021-07-27T15:18:27.897Z</time>
      </trkpt>
      <trkpt lat="50.22577808238566" lon="5.683857137337327">
        <ele>613.01</ele>
        <time>2021-07-27T15:18:36.822Z</time>
      </trkpt>
      <trkpt lat="50.225744135677814" lon="5.683369478210807">
        <ele>612.36</ele>
        <time>2021-07-27T15:18:45.752Z</time>
      </trkpt>
      <trkpt lat="50.22571018896997" lon="5.682881902903318">
        <ele>611.7</ele>
        <time>2021-07-27T15:18:54.687Z</time>
      </trkpt>
      <trkpt lat="50.225676242262125" lon="5.68239432759583">
        <ele>611.0</ele>
        <time>2021-07-27T15:19:03.627Z</time>
      </trkpt>
      <trkpt lat="50.22565998136997" lon="5.682159969583154">
        <ele>610.28</ele>
        <time>2021-07-27T15:19:12.570Z</time>
      </trkpt>
      <trkpt lat="50.22562553174794" lon="5.681672478094697">
        <ele>609.59</ele>
        <time>2021-07-27T15:19:21.518Z</time>
      </trkpt>
      <trkpt lat="50.22559099830687" lon="5.681184902787209">
        <ele>608.83</ele>
        <time>2021-07-27T15:19:30.471Z</time>
      </trkpt>
      <trkpt lat="50.225556548684835" lon="5.680697411298752">
        <ele>608.03</ele>
        <time>2021-07-27T15:19:39.429Z</time>
      </trkpt>
      <trkpt lat="50.2255220990628" lon="5.680209835991263">
        <ele>607.22</ele>
        <time>2021-07-27T15:19:48.392Z</time>
      </trkpt>
      <trkpt lat="50.225487649440765" lon="5.679722344502807">
        <ele>606.4</ele>
        <time>2021-07-27T15:19:57.360Z</time>
      </trkpt>
      <trkpt lat="50.22545319981873" lon="5.67923485301435">
        <ele>605.65</ele>
        <time>2021-07-27T15:20:06.333Z</time>
      </trkpt>
      <trkpt lat="50.225418750196695" lon="5.6787472777068615">
        <ele>604.79</ele>
        <time>2021-07-27T15:20:15.311Z</time>
      </trkpt>
      <trkpt lat="50.225389916449785" lon="5.678339917212725">
        <ele>603.95</ele>
        <time>2021-07-27T15:20:24.293Z</time>
      </trkpt>
      <trkpt lat="50.22535261698067" lon="5.677852928638458">
        <ele>603.18</ele>
        <time>2021-07-27T15:20:33.280Z</time>
      </trkpt>
      <trkpt lat="50.22531531751156" lon="5.677365940064192">
        <ele>602.39</ele>
        <time>2021-07-27T15:20:42.272Z</time>
      </trkpt>
      <trkpt lat="50.225278018042445" lon="5.676878951489925">
        <ele>601.56</ele>
        <time>2021-07-27T15:20:51.270Z</time>
      </trkpt>
      <trkpt lat="50.22524071857333" lon="5.676391962915659">
        <ele>600.78</ele>
        <time>2021-07-27T15:21:00.273Z</time>
      </trkpt>
      <trkpt lat="50.22520341910422" lon="5.675904890522361">
        <ele>600.01</ele>
        <time>2021-07-27T15:21:09.281Z</time>
      </trkpt>
      <trkpt lat="50.22519998252392" lon="5.675859963521361">
        <ele>599.28</ele>
        <time>2021-07-27T15:21:18.289Z</time>
      </trkpt>
      <trkpt lat="50.22515011020005" lon="5.67537565715611">
        <ele>598.47</ele>
        <time>2021-07-27T15:21:27.302Z</time>
      </trkpt>
      <trkpt lat="50.225129993632436" lon="5.675179939717054">
        <ele>597.74</ele>
        <time>2021-07-27T15:21:36.317Z</time>
      </trkpt>
      <trkpt lat="50.22504416294396" lon="5.674708038568497">
        <ele>597.01</ele>
        <time>2021-07-27T15:21:45.337Z</time>
      </trkpt>
      <trkpt lat="50.22500996477902" lon="5.674519948661327">
        <ele>596.33</ele>
        <time>2021-07-27T15:21:54.359Z</time>
      </trkpt>
      <trkpt lat="50.22489999420941" lon="5.674109989777207">
        <ele>595.68</ele>
        <time>2021-07-27T15:22:03.386Z</time>
      </trkpt>
      <trkpt lat="50.22475993260741" lon="5.673719979822636">
        <ele>595.03</ele>
        <time>2021-07-27T15:22:12.417Z</time>
      </trkpt>
      <trkpt lat="50.224572429433465" lon="5.673326114192605">
        <ele>594.35</ele>
        <time>2021-07-27T15:22:21.453Z</time>
      </trkpt>
      <trkpt lat="50.224384842440486" lon="5.672932332381606">
        <ele>593.59</ele>
        <time>2021-07-27T15:22:30.494Z</time>
      </trkpt>
      <trkpt lat="50.22435994818807" lon="5.672879945486784">
        <ele>592.92</ele>
        <time>2021-07-27T15:22:39.536Z</time>
      </trkpt>
      <trkpt lat="50.22416649386287" lon="5.672493120655417">
        <ele>592.22</ele>
        <time>2021-07-27T15:22:48.583Z</time>
      </trkpt>
      <trkpt lat="50.2239731233567" lon="5.672106295824051">
        <ele>591.57</ele>
        <time>2021-07-27T15:22:57.635Z</time>
      </trkpt>
      <trkpt lat="50.22387991659343" lon="5.671919966116548">
        <ele>590.93</ele>
        <time>2021-07-27T15:23:06.690Z</time>
      </trkpt>
      <trkpt lat="50.223685037344694" lon="5.671534901484847">
        <ele>590.26</ele>
        <time>2021-07-27T15:23:15.750Z</time>
      </trkpt>
      <trkpt lat="50.223490158095956" lon="5.671149920672178">
        <ele>589.59</ele>
        <time>2021-07-27T15:23:24.815Z</time>
      </trkpt>
      <trkpt lat="50.223295195028186" lon="5.6707649398595095">
        <ele>588.9</ele>
        <time>2021-07-27T15:23:33.885Z</time>
      </trkpt>
      <trkpt lat="50.22310031577945" lon="5.670379875227809">
        <ele>588.23</ele>
        <time>2021-07-27T15:23:42.960Z</time>
      </trkpt>
      <trkpt lat="50.22290535271168" lon="5.66999489441514">
        <ele>587.62</ele>
        <time>2021-07-27T15:23:52.040Z</time>
      </trkpt>
      <trkpt lat="50.22271047346294" lon="5.66960982978344">
        <ele>586.98</ele>
        <time>2021-07-27T15:24:01.125Z</time>
      </trkpt>
      <trkpt lat="50.2225155942142" lon="5.669224848970771">
        <ele>586.34</ele>
        <time>2021-07-27T15:24:10.215Z</time>
      </trkpt>
      <trkpt lat="50.22232063114643" lon="5.66883978433907">
        <ele>585.71</ele>
        <time>2021-07-27T15:24:19.310Z</time>
      </trkpt>
      <trkpt lat="50.22212575189769" lon="5.6684548035264015">
        <ele>585.1</ele>
        <time>2021-07-27T15:24:28.410Z</time>
      </trkpt>
      <trkpt lat="50.221930872648954" lon="5.668069738894701">
        <ele>584.53</ele>
        <time>2021-07-27T15:24:37.515Z</time>
      </trkpt>
      <trkpt lat="50.22184998728335" lon="5.6679099798202515">
        <ele>583.92</ele>
        <time>2021-07-27T15:24:46.622Z</time>
      </trkpt>
      <trkpt lat="50.221655778586864" lon="5.667523993179202">
        <ele>583.27</ele>
        <time>2021-07-27T15:24:55.734Z</time>
      </trkpt>
      <trkpt lat="50.22146165370941" lon="5.667138090357184">
        <ele>582.66</ele>
        <time>2021-07-27T15:25:04.851Z</time>
      </trkpt>
      <trkpt lat="50.22126752883196" lon="5.666752103716135">
        <ele>582.11</ele>
        <time>2021-07-27T15:25:13.973Z</time>
      </trkpt>
      <trkpt lat="50.221073320135474" lon="5.666366200894117">
        <ele>581.59</ele>
        <time>2021-07-27T15:25:23.100Z</time>
      </trkpt>
      <trkpt lat="50.22087919525802" lon="5.6659802980721">
        <ele>581.04</ele>
        <time>2021-07-27T15:25:32.232Z</time>
      </trkpt>
      <trkpt lat="50.22068507038057" lon="5.66559431143105">
        <ele>580.48</ele>
        <time>2021-07-27T15:25:41.369Z</time>
      </trkpt>
      <trkpt lat="50.220490945503116" lon="5.665208408609033">
        <ele>579.95</ele>
        <time>2021-07-27T15:25:50.511Z</time>
      </trkpt>
      <trkpt lat="50.22029673680663" lon="5.664822421967983">
        <ele>579.61</ele>
        <time>2021-07-27T15:25:59.658Z</time>
      </trkpt>
      <trkpt lat="50.22010261192918" lon="5.664436519145966">
        <ele>579.24</ele>
        <time>2021-07-27T15:26:08.810Z</time>
      </trkpt>
      <trkpt lat="50.219908487051725" lon="5.664050532504916">
        <ele>578.82</ele>
        <time>2021-07-27T15:26:17.968Z</time>
      </trkpt>
      <trkpt lat="50.21971436217427" lon="5.6636646296828985">
        <ele>578.27</ele>
        <time>2021-07-27T15:26:27.131Z</time>
      </trkpt>
      <trkpt lat="50.21952023729682" lon="5.663278643041849">
        <ele>577.84</ele>
        <time>2021-07-27T15:26:36.299Z</time>
      </trkpt>
      <trkpt lat="50.219369949772954" lon="5.662979995831847">
        <ele>577.48</ele>
        <time>2021-07-27T15:26:45.470Z</time>
      </trkpt>
      <trkpt lat="50.21917490288615" lon="5.662595182657242">
        <ele>577.14</ele>
        <time>2021-07-27T15:26:54.647Z</time>
      </trkpt>
      <trkpt lat="50.21897985599935" lon="5.6622103694826365">
        <ele>576.82</ele>
        <time>2021-07-27T15:27:03.829Z</time>
      </trkpt>
      <trkpt lat="50.21878472529352" lon="5.661825556308031">
        <ele>576.62</ele>
        <time>2021-07-27T15:27:13.016Z</time>
      </trkpt>
      <trkpt lat="50.218589678406715" lon="5.661440743133426">
        <ele>576.34</ele>
        <time>2021-07-27T15:27:22.208Z</time>
      </trkpt>
      <trkpt lat="50.218394631519914" lon="5.66105592995882">
        <ele>576.03</ele>
        <time>2021-07-27T15:27:31.405Z</time>
      </trkpt>
      <trkpt lat="50.21819958463311" lon="5.660671200603247">
        <ele>575.73</ele>
        <time>2021-07-27T15:27:40.607Z</time>
      </trkpt>
      <trkpt lat="50.21800453774631" lon="5.660286387428641">
        <ele>575.42</ele>
        <time>2021-07-27T15:27:49.814Z</time>
      </trkpt>
      <trkpt lat="50.21780949085951" lon="5.659901574254036">
        <ele>575.14</ele>
        <time>2021-07-27T15:27:59.026Z</time>
      </trkpt>
      <trkpt lat="50.21761444397271" lon="5.659516761079431">
        <ele>574.85</ele>
        <time>2021-07-27T15:28:08.243Z</time>
      </trkpt>
      <trkpt lat="50.21741931326687" lon="5.659131947904825">
        <ele>574.6</ele>
        <time>2021-07-27T15:28:17.465Z</time>
      </trkpt>
      <trkpt lat="50.21722426638007" lon="5.65874713473022">
        <ele>574.37</ele>
        <time>2021-07-27T15:28:26.692Z</time>
      </trkpt>
      <trkpt lat="50.21716995164752" lon="5.658639930188656">
        <ele>574.03</ele>
        <time>2021-07-27T15:28:35.920Z</time>
      </trkpt>
      <trkpt lat="50.216984543949366" lon="5.658243801444769">
        <ele>573.6</ele>
        <time>2021-07-27T15:28:45.153Z</time>
      </trkpt>
      <trkpt lat="50.21694992668927" lon="5.658169956877828">
        <ele>573.12</ele>
        <time>2021-07-27T15:28:54.387Z</time>
      </trkpt>
      <trkpt lat="50.21684993058443" lon="5.657919924706221">
        <ele>572.59</ele>
        <time>2021-07-27T15:29:03.624Z</time>
      </trkpt>
      <trkpt lat="50.21671992726624" lon="5.657519940286875">
        <ele>572.09</ele>
        <time>2021-07-27T15:29:12.866Z</time>
      </trkpt>
      <trkpt lat="50.21660475991666" lon="5.657063629478216">
        <ele>571.47</ele>
        <time>2021-07-27T15:29:22.113Z</time>
      </trkpt>
      <trkpt lat="50.216489592567086" lon="5.656607318669558">
        <ele>570.79</ele>
        <time>2021-07-27T15:29:31.365Z</time>
      </trkpt>
      <trkpt lat="50.21645992062986" lon="5.656489972025156">
        <ele>570.11</ele>
        <time>2021-07-27T15:29:40.618Z</time>
      </trkpt>
      <trkpt lat="50.21635036915541" lon="5.656030308455229">
        <ele>569.36</ele>
        <time>2021-07-27T15:29:49.876Z</time>
      </trkpt>
      <trkpt lat="50.21624073386192" lon="5.655570644885302">
        <ele>568.53</ele>
        <time>2021-07-27T15:29:59.139Z</time>
      </trkpt>
      <trkpt lat="50.21613118238747" lon="5.655110981315374">
        <ele>567.64</ele>
        <time>2021-07-27T15:30:08.407Z</time>
      </trkpt>
      <trkpt lat="50.21602154709399" lon="5.654651233926415">
        <ele>566.73</ele>
        <time>2021-07-27T15:30:17.680Z</time>
      </trkpt>
      <trkpt lat="50.215911995619535" lon="5.654191570356488">
        <ele>565.76</ele>
        <time>2021-07-27T15:30:26.959Z</time>
      </trkpt>
      <trkpt lat="50.21580244414508" lon="5.653731906786561">
        <ele>564.79</ele>
        <time>2021-07-27T15:30:36.243Z</time>
      </trkpt>
      <trkpt lat="50.215739998966455" lon="5.65346997231245">
        <ele>563.82</ele>
        <time>2021-07-27T15:30:45.529Z</time>
      </trkpt>
      <trkpt lat="50.2156306989491" lon="5.65301014110446">
        <ele>562.8</ele>
        <time>2021-07-27T15:30:54.820Z</time>
      </trkpt>
      <trkpt lat="50.21552139893174" lon="5.652550226077437">
        <ele>561.76</ele>
        <time>2021-07-27T15:31:04.117Z</time>
      </trkpt>
      <trkpt lat="50.21541218273342" lon="5.652090394869447">
        <ele>560.84</ele>
        <time>2021-07-27T15:31:13.419Z</time>
      </trkpt>
      <trkpt lat="50.21530288271606" lon="5.651630563661456">
        <ele>559.94</ele>
        <time>2021-07-27T15:31:22.726Z</time>
      </trkpt>
      <trkpt lat="50.215193666517735" lon="5.651170648634434">
        <ele>558.99</ele>
        <time>2021-07-27T15:31:32.038Z</time>
      </trkpt>
      <trkpt lat="50.21508436650038" lon="5.650710817426443">
        <ele>558.14</ele>
        <time>2021-07-27T15:31:41.355Z</time>
      </trkpt>
      <trkpt lat="50.21497515030205" lon="5.6502509862184525">
        <ele>557.3</ele>
        <time>2021-07-27T15:31:50.677Z</time>
      </trkpt>
      <trkpt lat="50.214865850284696" lon="5.649791155010462">
        <ele>556.37</ele>
        <time>2021-07-27T15:32:00.004Z</time>
      </trkpt>
      <trkpt lat="50.21482997573912" lon="5.649639945477247">
        <ele>555.55</ele>
        <time>2021-07-27T15:32:09.332Z</time>
      </trkpt>
      <trkpt lat="50.21471958607435" lon="5.64918078482151">
        <ele>554.76</ele>
        <time>2021-07-27T15:32:18.665Z</time>
      </trkpt>
      <trkpt lat="50.21460919640958" lon="5.648721540346742">
        <ele>553.97</ele>
        <time>2021-07-27T15:32:28.003Z</time>
      </trkpt>
      <trkpt lat="50.214498890563846" lon="5.648262295871973">
        <ele>553.22</ele>
        <time>2021-07-27T15:32:37.347Z</time>
      </trkpt>
      <trkpt lat="50.21438850089908" lon="5.647803135216236">
        <ele>552.6</ele>
        <time>2021-07-27T15:32:46.696Z</time>
      </trkpt>
      <trkpt lat="50.21427811123431" lon="5.6473438907414675">
        <ele>551.97</ele>
        <time>2021-07-27T15:32:56.050Z</time>
      </trkpt>
      <trkpt lat="50.21416780538857" lon="5.6468847300857306">
        <ele>551.4</ele>
        <time>2021-07-27T15:33:05.409Z</time>
      </trkpt>
      <trkpt lat="50.2140574157238" lon="5.646425485610962">
        <ele>550.85</ele>
        <time>2021-07-27T15:33:14.773Z</time>
      </trkpt>
      <trkpt lat="50.21394702605903" lon="5.645966324955225">
        <ele>550.28</ele>
        <time>2021-07-27T15:33:24.142Z</time>
      </trkpt>
      <trkpt lat="50.213836720213294" lon="5.645507080480456">
        <ele>549.71</ele>
        <time>2021-07-27T15:33:33.516Z</time>
      </trkpt>
      <trkpt lat="50.213726330548525" lon="5.645047919824719">
        <ele>549.22</ele>
        <time>2021-07-27T15:33:42.895Z</time>
      </trkpt>
      <trkpt lat="50.21361602470279" lon="5.644588675349951">
        <ele>548.73</ele>
        <time>2021-07-27T15:33:52.279Z</time>
      </trkpt>
      <trkpt lat="50.21350563503802" lon="5.644129430875182">
        <ele>548.27</ele>
        <time>2021-07-27T15:34:01.668Z</time>
      </trkpt>
      <trkpt lat="50.21339532919228" lon="5.643670270219445">
        <ele>547.84</ele>
        <time>2021-07-27T15:34:11.062Z</time>
      </trkpt>
      <trkpt lat="50.21328493952751" lon="5.643211025744677">
        <ele>547.42</ele>
        <time>2021-07-27T15:34:20.461Z</time>
      </trkpt>
      <trkpt lat="50.213174633681774" lon="5.64275186508894">
        <ele>547.05</ele>
        <time>2021-07-27T15:34:29.865Z</time>
      </trkpt>
      <trkpt lat="50.21306432783604" lon="5.642292620614171">
        <ele>546.68</ele>
        <time>2021-07-27T15:34:39.274Z</time>
      </trkpt>
      <trkpt lat="50.21295393817127" lon="5.641833459958434">
        <ele>546.39</ele>
        <time>2021-07-27T15:34:48.688Z</time>
      </trkpt>
      <trkpt lat="50.21284363232553" lon="5.6413742154836655">
        <ele>546.11</ele>
        <time>2021-07-27T15:34:58.107Z</time>
      </trkpt>
      <trkpt lat="50.21273332647979" lon="5.640914971008897">
        <ele>545.86</ele>
        <time>2021-07-27T15:35:07.531Z</time>
      </trkpt>
      <trkpt lat="50.21262293681502" lon="5.64045581035316">
        <ele>545.59</ele>
        <time>2021-07-27T15:35:16.960Z</time>
      </trkpt>
      <trkpt lat="50.212512630969286" lon="5.639996565878391">
        <ele>545.41</ele>
        <time>2021-07-27T15:35:26.394Z</time>
      </trkpt>
      <trkpt lat="50.21240232512355" lon="5.639537405222654">
        <ele>545.29</ele>
        <time>2021-07-27T15:35:35.833Z</time>
      </trkpt>
      <trkpt lat="50.21229201927781" lon="5.639078160747886">
        <ele>545.13</ele>
        <time>2021-07-27T15:35:45.277Z</time>
      </trkpt>
      <trkpt lat="50.21222999319434" lon="5.638819998130202">
        <ele>545.06</ele>
        <time>2021-07-27T15:35:54.724Z</time>
      </trkpt>
      <trkpt lat="50.21211884915829" lon="5.638361256569624">
        <ele>545.02</ele>
        <time>2021-07-27T15:36:04.176Z</time>
      </trkpt>
      <trkpt lat="50.21200770512223" lon="5.637902515009046">
        <ele>545.05</ele>
        <time>2021-07-27T15:36:13.633Z</time>
      </trkpt>
      <trkpt lat="50.21189656108618" lon="5.637443773448467">
        <ele>545.13</ele>
        <time>2021-07-27T15:36:23.095Z</time>
      </trkpt>
      <trkpt lat="50.21178541705012" lon="5.636985031887889">
        <ele>545.19</ele>
        <time>2021-07-27T15:36:32.562Z</time>
      </trkpt>
      <trkpt lat="50.21167427301407" lon="5.636526290327311">
        <ele>545.28</ele>
        <time>2021-07-27T15:36:42.034Z</time>
      </trkpt>
      <trkpt lat="50.211563128978014" lon="5.636067548766732">
        <ele>545.43</ele>
        <time>2021-07-27T15:36:51.511Z</time>
      </trkpt>
      <trkpt lat="50.21145198494196" lon="5.635608891025186">
        <ele>545.6</ele>
        <time>2021-07-27T15:37:00.993Z</time>
      </trkpt>
      <trkpt lat="50.211340840905905" lon="5.635150149464607">
        <ele>545.7</ele>
        <time>2021-07-27T15:37:10.480Z</time>
      </trkpt>
      <trkpt lat="50.21128996275365" lon="5.634939931333065">
        <ele>545.8</ele>
        <time>2021-07-27T15:37:19.970Z</time>
      </trkpt>
      <trkpt lat="50.211229948326945" lon="5.63464991748333">
        <ele>545.9</ele>
        <time>2021-07-27T15:37:29.463Z</time>
      </trkpt>
      <trkpt lat="50.21121997386217" lon="5.634589986875653">
        <ele>546.01</ele>
        <time>2021-07-27T15:37:38.957Z</time>
      </trkpt>
      <trkpt lat="50.21127998828888" lon="5.634429976344109">
        <ele>546.12</ele>
        <time>2021-07-27T15:37:48.452Z</time>
      </trkpt>
      <trkpt lat="50.21134997718036" lon="5.634319921955466">
        <ele>546.23</ele>
        <time>2021-07-27T15:37:57.949Z</time>
      </trkpt>
      <trkpt lat="50.21145994774997" lon="5.634209951385856">
        <ele>546.35</ele>
        <time>2021-07-27T15:38:07.448Z</time>
      </trkpt>
      <trkpt lat="50.21159992553294" lon="5.63423995859921">
        <ele>546.45</ele>
        <time>2021-07-27T15:38:16.949Z</time>
      </trkpt>
      <trkpt lat="50.21190980449319" lon="5.634325537830591">
        <ele>546.55</ele>
        <time>2021-07-27T15:38:26.455Z</time>
      </trkpt>
      <trkpt lat="50.21221959963441" lon="5.634411200881004">
        <ele>546.66</ele>
        <time>2021-07-27T15:38:35.966Z</time>
      </trkpt>
      <trkpt lat="50.21235999651253" lon="5.634449925273657">
        <ele>546.77</ele>
        <time>2021-07-27T15:38:45.480Z</time>
      </trkpt>
      <trkpt lat="50.212669875472784" lon="5.634534917771816">
        <ele>546.89</ele>
        <time>2021-07-27T15:38:54.999Z</time>
      </trkpt>
      <trkpt lat="50.212979754433036" lon="5.634619910269976">
        <ele>546.97</ele>
        <time>2021-07-27T15:39:04.523Z</time>
      </trkpt>
      <trkpt lat="50.2129799220711" lon="5.634619994089007">
        <ele>547.02</ele>
        <time>2021-07-27T15:39:14.047Z</time>
      </trkpt>
      <trkpt lat="50.213079918175936" lon="5.634619994089007">
        <ele>547.05</ele>
        <time>2021-07-27T15:39:23.572Z</time>
      </trkpt>
      <trkpt lat="50.213179998099804" lon="5.634579928591847">
        <ele>547.07</ele>
        <time>2021-07-27T15:39:33.099Z</time>
      </trkpt>
      <trkpt lat="50.21330991759896" lon="5.634529972448945">
        <ele>547.09</ele>
        <time>2021-07-27T15:39:42.628Z</time>
      </trkpt>
      <trkpt lat="50.213419971987605" lon="5.634469958022237">
        <ele>547.11</ele>
        <time>2021-07-27T15:39:52.159Z</time>
      </trkpt>
      <trkpt lat="50.21353991702199" lon="5.6343999691307545">
        <ele>547.12</ele>
        <time>2021-07-27T15:40:01.692Z</time>
      </trkpt>
      <trkpt lat="50.213739993050694" lon="5.634229984134436">
        <ele>547.1</ele>
        <time>2021-07-27T15:40:11.229Z</time>
      </trkpt>
      <trkpt lat="50.21383998915553" lon="5.634139962494373">
        <ele>547.08</ele>
        <time>2021-07-27T15:40:20.768Z</time>
      </trkpt>
      <trkpt lat="50.21411156281829" lon="5.633892361074686">
        <ele>547.06</ele>
        <time>2021-07-27T15:40:30.312Z</time>
      </trkpt>
      <trkpt lat="50.21438313648105" lon="5.633644675835967">
        <ele>547.11</ele>
        <time>2021-07-27T15:40:39.861Z</time>
      </trkpt>
      <trkpt lat="50.214519929140806" lon="5.633519953116775">
        <ele>547.15</ele>
        <time>2021-07-27T15:40:49.412Z</time>
      </trkpt>
      <trkpt lat="50.21479032933712" lon="5.63326908275485">
        <ele>547.12</ele>
        <time>2021-07-27T15:40:58.968Z</time>
      </trkpt>
      <trkpt lat="50.2150606457144" lon="5.6330181285738945">
        <ele>547.11</ele>
        <time>2021-07-27T15:41:08.529Z</time>
      </trkpt>
      <trkpt lat="50.215330962091684" lon="5.63276725821197">
        <ele>547.15</ele>
        <time>2021-07-27T15:41:18.095Z</time>
      </trkpt>
      <trkpt lat="50.215601362288" lon="5.632516304031014">
        <ele>547.1</ele>
        <time>2021-07-27T15:41:27.666Z</time>
      </trkpt>
      <trkpt lat="50.21587167866528" lon="5.63226543366909">
        <ele>547.11</ele>
        <time>2021-07-27T15:41:37.242Z</time>
      </trkpt>
      <trkpt lat="50.21601433865726" lon="5.63213299959898">
        <ele>547.15</ele>
        <time>2021-07-27T15:41:46.821Z</time>
      </trkpt>
      <trkpt lat="50.21604996174574" lon="5.632099974900484">
        <ele>547.22</ele>
        <time>2021-07-27T15:41:56.401Z</time>
      </trkpt>
      <trkpt lat="50.216050213202834" lon="5.632099639624357">
        <ele>547.33</ele>
        <time>2021-07-27T15:42:05.981Z</time>
      </trkpt>
      <trkpt lat="50.21632111631334" lon="5.631851200014353">
        <ele>547.53</ele>
        <time>2021-07-27T15:42:15.566Z</time>
      </trkpt>
      <trkpt lat="50.21659227088094" lon="5.631602508947253">
        <ele>547.68</ele>
        <time>2021-07-27T15:42:25.156Z</time>
      </trkpt>
      <trkpt lat="50.21686342544854" lon="5.631353734061122">
        <ele>547.75</ele>
        <time>2021-07-27T15:42:34.751Z</time>
      </trkpt>
      <trkpt lat="50.21713466383517" lon="5.631104959174991">
        <ele>547.85</ele>
        <time>2021-07-27T15:42:44.351Z</time>
      </trkpt>
      <trkpt lat="50.21737991832197" lon="5.6308799888938665">
        <ele>548.11</ele>
        <time>2021-07-27T15:42:53.956Z</time>
      </trkpt>
      <trkpt lat="50.217607989907265" lon="5.630542114377022">
        <ele>548.41</ele>
        <time>2021-07-27T15:43:03.566Z</time>
      </trkpt>
      <trkpt lat="50.21783606149256" lon="5.630204239860177">
        <ele>548.67</ele>
        <time>2021-07-27T15:43:13.181Z</time>
      </trkpt>
      <trkpt lat="50.21791996434331" lon="5.630079936236143">
        <ele>548.88</ele>
        <time>2021-07-27T15:43:22.797Z</time>
      </trkpt>
      <trkpt lat="50.2180999238044" lon="5.629859995096922">
        <ele>549.12</ele>
        <time>2021-07-27T15:43:32.417Z</time>
      </trkpt>
      <trkpt lat="50.21825993433595" lon="5.629699984565377">
        <ele>549.29</ele>
        <time>2021-07-27T15:43:42.040Z</time>
      </trkpt>
      <trkpt lat="50.21854441612959" lon="5.629490353167057">
        <ele>549.51</ele>
        <time>2021-07-27T15:43:51.668Z</time>
      </trkpt>
      <trkpt lat="50.21882889792323" lon="5.629280721768737">
        <ele>549.75</ele>
        <time>2021-07-27T15:44:01.301Z</time>
      </trkpt>
      <trkpt lat="50.21901992149651" lon="5.629139989614487">
        <ele>549.91</ele>
        <time>2021-07-27T15:44:10.938Z</time>
      </trkpt>
      <trkpt lat="50.21922997198999" lon="5.628989953547716">
        <ele>550.11</ele>
        <time>2021-07-27T15:44:20.578Z</time>
      </trkpt>
      <trkpt lat="50.219389982521534" lon="5.628799935802817">
        <ele>550.19</ele>
        <time>2021-07-27T15:44:30.222Z</time>
      </trkpt>
      <trkpt lat="50.219611935317516" lon="5.628452422097325">
        <ele>550.28</ele>
        <time>2021-07-27T15:44:39.871Z</time>
      </trkpt>
      <trkpt lat="50.21983397193253" lon="5.628104908391833">
        <ele>550.39</ele>
        <time>2021-07-27T15:44:49.525Z</time>
      </trkpt>
      <trkpt lat="50.220056008547544" lon="5.627757394686341">
        <ele>550.43</ele>
        <time>2021-07-27T15:44:59.184Z</time>
      </trkpt>
      <trkpt lat="50.22027804516256" lon="5.627409880980849">
        <ele>550.39</ele>
        <time>2021-07-27T15:45:08.848Z</time>
      </trkpt>
      <trkpt lat="50.22050008177757" lon="5.627062367275357">
        <ele>550.25</ele>
        <time>2021-07-27T15:45:18.517Z</time>
      </trkpt>
      <trkpt lat="50.22072211839259" lon="5.626714853569865">
        <ele>550.09</ele>
        <time>2021-07-27T15:45:28.191Z</time>
      </trkpt>
      <trkpt lat="50.220769979059696" lon="5.626639919355512">
        <ele>549.89</ele>
        <time>2021-07-27T15:45:37.866Z</time>
      </trkpt>
      <trkpt lat="50.22099168039858" lon="5.626291986554861">
        <ele>549.67</ele>
        <time>2021-07-27T15:45:47.546Z</time>
      </trkpt>
      <trkpt lat="50.22121338173747" lon="5.625943969935179">
        <ele>549.41</ele>
        <time>2021-07-27T15:45:57.231Z</time>
      </trkpt>
      <trkpt lat="50.22143516689539" lon="5.625596037134528">
        <ele>548.95</ele>
        <time>2021-07-27T15:46:06.921Z</time>
      </trkpt>
      <trkpt lat="50.22148998454213" lon="5.6255099549889565">
        <ele>548.49</ele>
        <time>2021-07-27T15:46:16.612Z</time>
      </trkpt>
      <trkpt lat="50.22161998786032" lon="5.625189933925867">
        <ele>547.96</ele>
        <time>2021-07-27T15:46:26.307Z</time>
      </trkpt>
      <trkpt lat="50.2217573672533" lon="5.624748794361949">
        <ele>547.3</ele>
        <time>2021-07-27T15:46:36.007Z</time>
      </trkpt>
      <trkpt lat="50.22180992178619" lon="5.624579982832074">
        <ele>546.61</ele>
        <time>2021-07-27T15:46:45.709Z</time>
      </trkpt>
      <trkpt lat="50.22199993953109" lon="5.624259961768985">
        <ele>545.84</ele>
        <time>2021-07-27T15:46:55.416Z</time>
      </trkpt>
      <trkpt lat="50.222229938954115" lon="5.623999955132604">
        <ele>545.06</ele>
        <time>2021-07-27T15:47:05.127Z</time>
      </trkpt>
      <trkpt lat="50.22248776629567" lon="5.6237187422811985">
        <ele>544.16</ele>
        <time>2021-07-27T15:47:14.843Z</time>
      </trkpt>
      <trkpt lat="50.22266998887062" lon="5.62351992353797">
        <ele>543.04</ele>
        <time>2021-07-27T15:47:24.563Z</time>
      </trkpt>
      <trkpt lat="50.222849948331714" lon="5.623389920219779">
        <ele>541.82</ele>
        <time>2021-07-27T15:47:34.286Z</time>
      </trkpt>
      <trkpt lat="50.223149601370096" lon="5.623240135610104">
        <ele>540.64</ele>
        <time>2021-07-27T15:47:44.014Z</time>
      </trkpt>
      <trkpt lat="50.22322998382151" lon="5.623199986293912">
        <ele>539.49</ele>
        <time>2021-07-27T15:47:53.743Z</time>
      </trkpt>
      <trkpt lat="50.22346995770931" lon="5.623139971867204">
        <ele>538.19</ele>
        <time>2021-07-27T15:48:03.476Z</time>
      </trkpt>
      <trkpt lat="50.22378461435437" lon="5.623139971867204">
        <ele>536.74</ele>
        <time>2021-07-27T15:48:13.214Z</time>
      </trkpt>
      <trkpt lat="50.223819985985756" lon="5.623139971867204">
        <ele>535.38</ele>
        <time>2021-07-27T15:48:22.953Z</time>
      </trkpt>
      <trkpt lat="50.2241303678602" lon="5.6232204381376505">
        <ele>533.95</ele>
        <time>2021-07-27T15:48:32.697Z</time>
      </trkpt>
      <trkpt lat="50.22435994818807" lon="5.623279949650168">
        <ele>532.48</ele>
        <time>2021-07-27T15:48:42.445Z</time>
      </trkpt>
      <trkpt lat="50.22453999146819" lon="5.623279949650168">
        <ele>530.96</ele>
        <time>2021-07-27T15:48:52.195Z</time>
      </trkpt>
      <trkpt lat="50.224846014752984" lon="5.623166291043162">
        <ele>529.42</ele>
        <time>2021-07-27T15:49:01.951Z</time>
      </trkpt>
      <trkpt lat="50.2248899359256" lon="5.623149946331978">
        <ele>527.83</ele>
        <time>2021-07-27T15:49:11.707Z</time>
      </trkpt>
      <trkpt lat="50.22519998252392" lon="5.6230999901890755">
        <ele>526.12</ele>
        <time>2021-07-27T15:49:21.468Z</time>
      </trkpt>
      <trkpt lat="50.225429981946945" lon="5.62312999740243">
        <ele>524.42</ele>
        <time>2021-07-27T15:49:31.233Z</time>
      </trkpt>
      <trkpt lat="50.22573600523174" lon="5.623243656009436">
        <ele>522.51</ele>
        <time>2021-07-27T15:49:41.003Z</time>
      </trkpt>
      <trkpt lat="50.22577992640436" lon="5.623259916901588">
        <ele>520.81</ele>
        <time>2021-07-27T15:49:50.774Z</time>
      </trkpt>
      <trkpt lat="50.22608117200434" lon="5.623401738703251">
        <ele>518.96</ele>
        <time>2021-07-27T15:50:00.550Z</time>
      </trkpt>
      <trkpt lat="50.226119980216026" lon="5.623419927433133">
        <ele>517.26</ele>
        <time>2021-07-27T15:50:10.326Z</time>
      </trkpt>
      <trkpt lat="50.22641435265541" lon="5.623593097552657">
        <ele>515.5</ele>
        <time>2021-07-27T15:50:20.107Z</time>
      </trkpt>
      <trkpt lat="50.226459950208664" lon="5.623619919642806">
        <ele>513.81</ele>
        <time>2021-07-27T15:50:29.889Z</time>
      </trkpt>
      <trkpt lat="50.226738564670086" lon="5.623847907409072">
        <ele>512.03</ele>
        <time>2021-07-27T15:50:39.676Z</time>
      </trkpt>
      <trkpt lat="50.22678994573653" lon="5.623889984562993">
        <ele>510.35</ele>
        <time>2021-07-27T15:50:49.464Z</time>
      </trkpt>
      <trkpt lat="50.2269399818033" lon="5.6239899806678295">
        <ele>508.67</ele>
        <time>2021-07-27T15:50:59.255Z</time>
      </trkpt>
      <trkpt lat="50.22711994126439" lon="5.624049995094538">
        <ele>507.03</ele>
        <time>2021-07-27T15:51:09.049Z</time>
      </trkpt>
      <trkpt lat="50.227433843538165" lon="5.624084863811731">
        <ele>505.42</ele>
        <time>2021-07-27T15:51:18.848Z</time>
      </trkpt>
      <trkpt lat="50.22765998728573" lon="5.624109925702214">
        <ele>503.82</ele>
        <time>2021-07-27T15:51:28.650Z</time>
      </trkpt>
      <trkpt lat="50.227973721921444" lon="5.624147476628423">
        <ele>502.16</ele>
        <time>2021-07-27T15:51:38.457Z</time>
      </trkpt>
      <trkpt lat="50.228287456557155" lon="5.6241849437355995">
        <ele>500.6</ele>
        <time>2021-07-27T15:51:48.269Z</time>
      </trkpt>
      <trkpt lat="50.22857998497784" lon="5.6242199800908566">
        <ele>499.11</ele>
        <time>2021-07-27T15:51:58.086Z</time>
      </trkpt>
      <trkpt lat="50.228893384337425" lon="5.624263901263475">
        <ele>497.68</ele>
        <time>2021-07-27T15:52:07.908Z</time>
      </trkpt>
      <trkpt lat="50.22920669987798" lon="5.624307822436094">
        <ele>496.35</ele>
        <time>2021-07-27T15:52:17.735Z</time>
      </trkpt>
      <trkpt lat="50.22952009923756" lon="5.624351743608713">
        <ele>495.13</ele>
        <time>2021-07-27T15:52:27.567Z</time>
      </trkpt>
      <trkpt lat="50.22964993491769" lon="5.624369932338595">
        <ele>493.98</ele>
        <time>2021-07-27T15:52:37.401Z</time>
      </trkpt>
      <trkpt lat="50.22996283136308" lon="5.624422654509544">
        <ele>492.9</ele>
        <time>2021-07-27T15:52:47.240Z</time>
      </trkpt>
      <trkpt lat="50.230275643989444" lon="5.624475292861462">
        <ele>491.89</ele>
        <time>2021-07-27T15:52:57.084Z</time>
      </trkpt>
      <trkpt lat="50.230588456615806" lon="5.624528015032411">
        <ele>490.93</ele>
        <time>2021-07-27T15:53:06.934Z</time>
      </trkpt>
      <trkpt lat="50.23059993982315" lon="5.62452994287014">
        <ele>490.06</ele>
        <time>2021-07-27T15:53:16.784Z</time>
      </trkpt>
      <trkpt lat="50.23091216571629" lon="5.624591214582324">
        <ele>489.19</ele>
        <time>2021-07-27T15:53:26.639Z</time>
      </trkpt>
      <trkpt lat="50.2312243077904" lon="5.624652402475476">
        <ele>488.36</ele>
        <time>2021-07-27T15:53:36.499Z</time>
      </trkpt>
      <trkpt lat="50.23153653368354" lon="5.6247135903686285">
        <ele>487.61</ele>
        <time>2021-07-27T15:53:46.364Z</time>
      </trkpt>
      <trkpt lat="50.231619933620095" lon="5.624729935079813">
        <ele>486.99</ele>
        <time>2021-07-27T15:53:56.230Z</time>
      </trkpt>
      <trkpt lat="50.23193350061774" lon="5.624771174043417">
        <ele>486.41</ele>
        <time>2021-07-27T15:54:06.101Z</time>
      </trkpt>
      <trkpt lat="50.23199996910989" lon="5.624779975041747">
        <ele>485.9</ele>
        <time>2021-07-27T15:54:15.973Z</time>
      </trkpt>
      <trkpt lat="50.23209996521473" lon="5.624709986150265">
        <ele>485.45</ele>
        <time>2021-07-27T15:54:25.847Z</time>
      </trkpt>
      <trkpt lat="50.232362151145935" lon="5.624438747763634">
        <ele>485.0</ele>
        <time>2021-07-27T15:54:35.726Z</time>
      </trkpt>
      <trkpt lat="50.232389979064465" lon="5.624409997835755">
        <ele>484.62</ele>
        <time>2021-07-27T15:54:45.606Z</time>
      </trkpt>
      <trkpt lat="50.23255996406078" lon="5.624159965664148">
        <ele>484.26</ele>
        <time>2021-07-27T15:54:55.489Z</time>
      </trkpt>
      <trkpt lat="50.232669934630394" lon="5.623749922960997">
        <ele>483.89</ele>
        <time>2021-07-27T15:55:05.377Z</time>
      </trkpt>
      <trkpt lat="50.23276892490685" lon="5.623284308239818">
        <ele>483.61</ele>
        <time>2021-07-27T15:55:15.270Z</time>
      </trkpt>
      <trkpt lat="50.23283991962671" lon="5.622949954122305">
        <ele>483.39</ele>
        <time>2021-07-27T15:55:25.167Z</time>
      </trkpt>
      <trkpt lat="50.232956344261765" lon="5.622494230046868">
        <ele>483.21</ele>
        <time>2021-07-27T15:55:35.069Z</time>
      </trkpt>
      <trkpt lat="50.23295994848013" lon="5.622479980811477">
        <ele>483.03</ele>
        <time>2021-07-27T15:55:44.971Z</time>
      </trkpt>
      <trkpt lat="50.233182990923524" lon="5.622133892029524">
        <ele>482.93</ele>
        <time>2021-07-27T15:55:54.878Z</time>
      </trkpt>
      <trkpt lat="50.233249962329865" lon="5.622029956430197">
        <ele>482.78</ele>
        <time>2021-07-27T15:56:04.786Z</time>
      </trkpt>
      <trkpt lat="50.23332992568612" lon="5.62192996032536">
        <ele>482.66</ele>
        <time>2021-07-27T15:56:14.696Z</time>
      </trkpt>
      <trkpt lat="50.2335399761796" lon="5.621789982542396">
        <ele>482.53</ele>
        <time>2021-07-27T15:56:24.610Z</time>
      </trkpt>
      <trkpt lat="50.23362999781966" lon="5.62177992425859">
        <ele>482.37</ele>
        <time>2021-07-27T15:56:34.525Z</time>
      </trkpt>
      <trkpt lat="50.23384993895888" lon="5.62177992425859">
        <ele>482.19</ele>
        <time>2021-07-27T15:56:44.444Z</time>
      </trkpt>
      <trkpt lat="50.23416258394718" lon="5.621836083009839">
        <ele>482.02</ele>
        <time>2021-07-27T15:56:54.368Z</time>
      </trkpt>
      <trkpt lat="50.234239948913455" lon="5.621849996969104">
        <ele>481.84</ele>
        <time>2021-07-27T15:57:04.293Z</time>
      </trkpt>
      <trkpt lat="50.234389984980226" lon="5.621939934790134">
        <ele>481.64</ele>
        <time>2021-07-27T15:57:14.220Z</time>
      </trkpt>
      <trkpt lat="50.23468695580959" lon="5.62210195697844">
        <ele>481.3</ele>
        <time>2021-07-27T15:57:24.153Z</time>
      </trkpt>
      <trkpt lat="50.23471998050809" lon="5.622119978070259">
        <ele>481.06</ele>
        <time>2021-07-27T15:57:34.086Z</time>
      </trkpt>
      <trkpt lat="50.23488996550441" lon="5.622159959748387">
        <ele>480.71</ele>
        <time>2021-07-27T15:57:44.022Z</time>
      </trkpt>
      <trkpt lat="50.235009994357824" lon="5.622149985283613">
        <ele>480.43</ele>
        <time>2021-07-27T15:57:53.960Z</time>
      </trkpt>
      <trkpt lat="50.23531719110906" lon="5.622044373303652">
        <ele>480.2</ele>
        <time>2021-07-27T15:58:03.903Z</time>
      </trkpt>
      <trkpt lat="50.23532993160188" lon="5.622039930894971">
        <ele>479.91</ele>
        <time>2021-07-27T15:58:13.846Z</time>
      </trkpt>
      <trkpt lat="50.23563536815345" lon="5.621921746060252">
        <ele>479.58</ele>
        <time>2021-07-27T15:58:23.794Z</time>
      </trkpt>
      <trkpt lat="50.2356399782002" lon="5.621919985860586">
        <ele>479.24</ele>
        <time>2021-07-27T15:58:33.742Z</time>
      </trkpt>
      <trkpt lat="50.23592999204993" lon="5.62177992425859">
        <ele>478.76</ele>
        <time>2021-07-27T15:58:43.695Z</time>
      </trkpt>
      <trkpt lat="50.23617994040251" lon="5.621579932048917">
        <ele>478.28</ele>
        <time>2021-07-27T15:58:53.652Z</time>
      </trkpt>
      <trkpt lat="50.23633995093405" lon="5.621409947052598">
        <ele>477.83</ele>
        <time>2021-07-27T15:59:03.613Z</time>
      </trkpt>
      <trkpt lat="50.236594174057245" lon="5.621120855212212">
        <ele>477.44</ele>
        <time>2021-07-27T15:59:13.579Z</time>
      </trkpt>
      <trkpt lat="50.23684839718044" lon="5.620831763371825">
        <ele>476.98</ele>
        <time>2021-07-27T15:59:23.550Z</time>
      </trkpt>
      <trkpt lat="50.23710262030363" lon="5.620542671531439">
        <ele>476.32</ele>
        <time>2021-07-27T15:59:33.526Z</time>
      </trkpt>
      <trkpt lat="50.237356843426824" lon="5.620253579691052">
        <ele>475.68</ele>
        <time>2021-07-27T15:59:43.507Z</time>
      </trkpt>
      <trkpt lat="50.237359944731" lon="5.620249975472689">
        <ele>475.15</ele>
        <time>2021-07-27T15:59:53.488Z</time>
      </trkpt>
      <trkpt lat="50.23751995526254" lon="5.620029950514436">
        <ele>474.55</ele>
        <time>2021-07-27T16:00:03.472Z</time>
      </trkpt>
      <trkpt lat="50.237730257213116" lon="5.619665002450347">
        <ele>473.98</ele>
        <time>2021-07-27T16:00:13.461Z</time>
      </trkpt>
      <trkpt lat="50.23785992525518" lon="5.619439948350191">
        <ele>473.32</ele>
        <time>2021-07-27T16:00:23.453Z</time>
      </trkpt>
      <trkpt lat="50.23807684890926" lon="5.619084555655718">
        <ele>472.68</ele>
        <time>2021-07-27T16:00:33.450Z</time>
      </trkpt>
      <trkpt lat="50.23829377256334" lon="5.618729162961245">
        <ele>472.02</ele>
        <time>2021-07-27T16:00:43.452Z</time>
      </trkpt>
      <trkpt lat="50.23830123245716" lon="5.618716925382614">
        <ele>471.28</ele>
        <time>2021-07-27T16:00:53.455Z</time>
      </trkpt>
      <trkpt lat="50.23832998238504" lon="5.6186699867248535">
        <ele>470.5</ele>
        <time>2021-07-27T16:01:03.458Z</time>
      </trkpt>
      <trkpt lat="50.2383301500231" lon="5.618669567629695">
        <ele>469.67</ele>
        <time>2021-07-27T16:01:13.461Z</time>
      </trkpt>
      <trkpt lat="50.23853860795498" lon="5.618302691727877">
        <ele>468.87</ele>
        <time>2021-07-27T16:01:23.469Z</time>
      </trkpt>
      <trkpt lat="50.23874723352492" lon="5.6179354805499315">
        <ele>467.91</ele>
        <time>2021-07-27T16:01:33.482Z</time>
      </trkpt>
      <trkpt lat="50.23882996290922" lon="5.617789970710874">
        <ele>466.9</ele>
        <time>2021-07-27T16:01:43.497Z</time>
      </trkpt>
      <trkpt lat="50.239017801359296" lon="5.617396356537938">
        <ele>465.95</ele>
        <time>2021-07-27T16:01:53.517Z</time>
      </trkpt>
      <trkpt lat="50.23903992958367" lon="5.617349920794368">
        <ele>464.85</ele>
        <time>2021-07-27T16:02:03.538Z</time>
      </trkpt>
      <trkpt lat="50.23920547217131" lon="5.616932669654489">
        <ele>463.58</ele>
        <time>2021-07-27T16:02:13.564Z</time>
      </trkpt>
      <trkpt lat="50.239371014758945" lon="5.616515502333641">
        <ele>462.19</ele>
        <time>2021-07-27T16:02:23.595Z</time>
      </trkpt>
      <trkpt lat="50.2395199611783" lon="5.616139993071556">
        <ele>460.79</ele>
        <time>2021-07-27T16:02:33.631Z</time>
      </trkpt>
      <trkpt lat="50.2397099789232" lon="5.615769932046533">
        <ele>459.35</ele>
        <time>2021-07-27T16:02:43.671Z</time>
      </trkpt>
      <trkpt lat="50.239921789616346" lon="5.615407163277268">
        <ele>458.03</ele>
        <time>2021-07-27T16:02:53.717Z</time>
      </trkpt>
      <trkpt lat="50.24013368412852" lon="5.615044478327036">
        <ele>456.56</ele>
        <time>2021-07-27T16:03:03.768Z</time>
      </trkpt>
      <trkpt lat="50.24034549482167" lon="5.614681709557772">
        <ele>455.05</ele>
        <time>2021-07-27T16:03:13.824Z</time>
      </trkpt>
      <trkpt lat="50.24043995887041" lon="5.614519938826561">
        <ele>453.45</ele>
        <time>2021-07-27T16:03:23.882Z</time>
      </trkpt>
      <trkpt lat="50.240639951080084" lon="5.614179968833923">
        <ele>451.81</ele>
        <time>2021-07-27T16:03:33.945Z</time>
      </trkpt>
      <trkpt lat="50.24080867879093" lon="5.613765818998218">
        <ele>450.17</ele>
        <time>2021-07-27T16:03:44.013Z</time>
      </trkpt>
      <trkpt lat="50.24085997603834" lon="5.613639922812581">
        <ele>448.59</ele>
        <time>2021-07-27T16:03:54.082Z</time>
      </trkpt>
      <trkpt lat="50.240974221378565" lon="5.613182857632637">
        <ele>447.03</ele>
        <time>2021-07-27T16:04:04.156Z</time>
      </trkpt>
      <trkpt lat="50.24097992107272" lon="5.613159975036979">
        <ele>445.5</ele>
        <time>2021-07-27T16:04:14.230Z</time>
      </trkpt>
      <trkpt lat="50.241071535274386" lon="5.6126905884593725">
        <ele>443.95</ele>
        <time>2021-07-27T16:04:24.309Z</time>
      </trkpt>
      <trkpt lat="50.241139931604266" lon="5.612339973449707">
        <ele>442.42</ele>
        <time>2021-07-27T16:04:34.392Z</time>
      </trkpt>
      <trkpt lat="50.24121109396219" lon="5.611862037330866">
        <ele>440.86</ele>
        <time>2021-07-27T16:04:44.480Z</time>
      </trkpt>
      <trkpt lat="50.24128234013915" lon="5.611384101212025">
        <ele>439.33</ele>
        <time>2021-07-27T16:04:54.573Z</time>
      </trkpt>
      <trkpt lat="50.24135350249708" lon="5.610906248912215">
        <ele>437.79</ele>
        <time>2021-07-27T16:05:04.671Z</time>
      </trkpt>
      <trkpt lat="50.24141997098923" lon="5.6104599963873625">
        <ele>436.14</ele>
        <time>2021-07-27T16:05:14.774Z</time>
      </trkpt>
      <trkpt lat="50.24149004369974" lon="5.609981641173363">
        <ele>434.38</ele>
        <time>2021-07-27T16:05:24.882Z</time>
      </trkpt>
      <trkpt lat="50.241560116410255" lon="5.609503285959363">
        <ele>432.82</ele>
        <time>2021-07-27T16:05:34.995Z</time>
      </trkpt>
      <trkpt lat="50.24163018912077" lon="5.609025014564395">
        <ele>431.45</ele>
        <time>2021-07-27T16:05:45.113Z</time>
      </trkpt>
      <trkpt lat="50.241649970412254" lon="5.6088899821043015">
        <ele>430.13</ele>
        <time>2021-07-27T16:05:55.233Z</time>
      </trkpt>
      <trkpt lat="50.24170436896384" lon="5.6084066815674305">
        <ele>428.76</ele>
        <time>2021-07-27T16:06:05.358Z</time>
      </trkpt>
      <trkpt lat="50.24172993376851" lon="5.60817995108664">
        <ele>427.47</ele>
        <time>2021-07-27T16:06:15.485Z</time>
      </trkpt>
      <trkpt lat="50.241721384227276" lon="5.607689525932074">
        <ele>426.27</ele>
        <time>2021-07-27T16:06:25.617Z</time>
      </trkpt>
      <trkpt lat="50.24171995930374" lon="5.607609981670976">
        <ele>425.16</ele>
        <time>2021-07-27T16:06:35.750Z</time>
      </trkpt>
      <trkpt lat="50.241642175242305" lon="5.607134560123086">
        <ele>424.02</ele>
        <time>2021-07-27T16:06:45.888Z</time>
      </trkpt>
      <trkpt lat="50.241629937663674" lon="5.607059961184859">
        <ele>422.99</ele>
        <time>2021-07-27T16:06:56.027Z</time>
      </trkpt>
      <trkpt lat="50.24148719385266" lon="5.606622761115432">
        <ele>421.96</ele>
        <time>2021-07-27T16:07:06.171Z</time>
      </trkpt>
      <trkpt lat="50.24146992713213" lon="5.606569955125451">
        <ele>421.03</ele>
        <time>2021-07-27T16:07:16.315Z</time>
      </trkpt>
      <trkpt lat="50.241268426179886" lon="5.60619318857789">
        <ele>420.16</ele>
        <time>2021-07-27T16:07:26.464Z</time>
      </trkpt>
      <trkpt lat="50.2412399277091" lon="5.606139963492751">
        <ele>419.34</ele>
        <time>2021-07-27T16:07:36.614Z</time>
      </trkpt>
      <trkpt lat="50.241009928286076" lon="5.605839975178242">
        <ele>418.53</ele>
        <time>2021-07-27T16:07:46.769Z</time>
      </trkpt>
      <trkpt lat="50.24074380286038" lon="5.605578292161226">
        <ele>417.76</ele>
        <time>2021-07-27T16:07:56.929Z</time>
      </trkpt>
      <trkpt lat="50.24047759361565" lon="5.605316609144211">
        <ele>416.9</ele>
        <time>2021-07-27T16:08:07.094Z</time>
      </trkpt>
      <trkpt lat="50.24041992612183" lon="5.605259947478771">
        <ele>416.18</ele>
        <time>2021-07-27T16:08:17.260Z</time>
      </trkpt>
      <trkpt lat="50.240153297781944" lon="5.604999605566263">
        <ele>415.45</ele>
        <time>2021-07-27T16:08:27.431Z</time>
      </trkpt>
      <trkpt lat="50.23999999277294" lon="5.604849988594651">
        <ele>414.77</ele>
        <time>2021-07-27T16:08:37.605Z</time>
      </trkpt>
      <trkpt lat="50.239909971132874" lon="5.604699952527881">
        <ele>414.08</ele>
        <time>2021-07-27T16:08:47.781Z</time>
      </trkpt>
      <trkpt lat="50.23987996391952" lon="5.604599956423044">
        <ele>413.41</ele>
        <time>2021-07-27T16:08:57.958Z</time>
      </trkpt>
      <trkpt lat="50.239869989454746" lon="5.604399964213371">
        <ele>412.75</ele>
        <time>2021-07-27T16:09:08.137Z</time>
      </trkpt>
      <trkpt lat="50.2398999966681" lon="5.604309942573309">
        <ele>412.09</ele>
        <time>2021-07-27T16:09:18.317Z</time>
      </trkpt>
      <trkpt lat="50.23996998555958" lon="5.604199972003698">
        <ele>411.43</ele>
        <time>2021-07-27T16:09:28.499Z</time>
      </trkpt>
      <trkpt lat="50.24004994891584" lon="5.60415999032557">
        <ele>410.72</ele>
        <time>2021-07-27T16:09:38.682Z</time>
      </trkpt>
      <trkpt lat="50.24024994112551" lon="5.604199972003698">
        <ele>409.9</ele>
        <time>2021-07-27T16:09:48.869Z</time>
      </trkpt>
      <trkpt lat="50.24055856280029" lon="5.604295525699854">
        <ele>409.09</ele>
        <time>2021-07-27T16:09:59.061Z</time>
      </trkpt>
      <trkpt lat="50.24066995829344" lon="5.604329975321889">
        <ele>408.23</ele>
        <time>2021-07-27T16:10:09.254Z</time>
      </trkpt>
      <trkpt lat="50.24096776731312" lon="5.604488477110863">
        <ele>407.19</ele>
        <time>2021-07-27T16:10:19.452Z</time>
      </trkpt>
      <trkpt lat="50.241265492513776" lon="5.6046469788998365">
        <ele>406.14</ele>
        <time>2021-07-27T16:10:29.655Z</time>
      </trkpt>
      <trkpt lat="50.24128996767104" lon="5.604659970849752">
        <ele>405.2</ele>
        <time>2021-07-27T16:10:39.859Z</time>
      </trkpt>
      <trkpt lat="50.2415871899575" lon="5.604820819571614">
        <ele>404.13</ele>
        <time>2021-07-27T16:10:50.068Z</time>
      </trkpt>
      <trkpt lat="50.241884496062994" lon="5.604981668293476">
        <ele>403.15</ele>
        <time>2021-07-27T16:11:00.282Z</time>
      </trkpt>
      <trkpt lat="50.24213997647166" lon="5.6051199696958065">
        <ele>402.11</ele>
        <time>2021-07-27T16:11:10.500Z</time>
      </trkpt>
      <trkpt lat="50.24236997589469" lon="5.605249973013997">
        <ele>401.01</ele>
        <time>2021-07-27T16:11:20.722Z</time>
      </trkpt>
      <trkpt lat="50.242659989744425" lon="5.6053499691188335">
        <ele>399.89</ele>
        <time>2021-07-27T16:11:30.949Z</time>
      </trkpt>
      <trkpt lat="50.24296844378114" lon="5.6054468639194965">
        <ele>398.59</ele>
        <time>2021-07-27T16:11:41.181Z</time>
      </trkpt>
      <trkpt lat="50.24300993420184" lon="5.605459939688444">
        <ele>397.42</ele>
        <time>2021-07-27T16:11:51.414Z</time>
      </trkpt>
      <trkpt lat="50.24332039989531" lon="5.605539567768574">
        <ele>396.0</ele>
        <time>2021-07-27T16:12:01.652Z</time>
      </trkpt>
      <trkpt lat="50.243630949407816" lon="5.605619195848703">
        <ele>394.68</ele>
        <time>2021-07-27T16:12:11.895Z</time>
      </trkpt>
      <trkpt lat="50.24378995411098" lon="5.605659931898117">
        <ele>393.48</ele>
        <time>2021-07-27T16:12:22.140Z</time>
      </trkpt>
      <trkpt lat="50.24403998628259" lon="5.605699997395277">
        <ele>392.28</ele>
        <time>2021-07-27T16:12:32.389Z</time>
      </trkpt>
      <trkpt lat="50.24417996406555" lon="5.605689939111471">
        <ele>391.11</ele>
        <time>2021-07-27T16:12:42.641Z</time>
      </trkpt>
      <trkpt lat="50.24438993074" lon="5.605639982968569">
        <ele>389.88</ele>
        <time>2021-07-27T16:12:52.896Z</time>
      </trkpt>
      <trkpt lat="50.244489926844835" lon="5.605579968541861">
        <ele>388.64</ele>
        <time>2021-07-27T16:13:03.153Z</time>
      </trkpt>
      <trkpt lat="50.24460995569825" lon="5.605459939688444">
        <ele>387.41</ele>
        <time>2021-07-27T16:13:13.412Z</time>
      </trkpt>
      <trkpt lat="50.244699977338314" lon="5.6053499691188335">
        <ele>386.21</ele>
        <time>2021-07-27T16:13:23.673Z</time>
      </trkpt>
      <trkpt lat="50.244887229055166" lon="5.604955684393644">
        <ele>385.02</ele>
        <time>2021-07-27T16:13:33.939Z</time>
      </trkpt>
      <trkpt lat="50.24488999508321" lon="5.604949984699488">
        <ele>383.87</ele>
        <time>2021-07-27T16:13:44.205Z</time>
      </trkpt>
      <trkpt lat="50.24506199173629" lon="5.604539103806019">
        <ele>382.71</ele>
        <time>2021-07-27T16:13:54.476Z</time>
      </trkpt>
      <trkpt lat="50.245234072208405" lon="5.604128306731582">
        <ele>381.51</ele>
        <time>2021-07-27T16:14:04.752Z</time>
      </trkpt>
      <trkpt lat="50.24537991732359" lon="5.6037799548357725">
        <ele>380.4</ele>
        <time>2021-07-27T16:14:15.032Z</time>
      </trkpt>
      <trkpt lat="50.24553674273193" lon="5.603354489430785">
        <ele>379.14</ele>
        <time>2021-07-27T16:14:25.317Z</time>
      </trkpt>
      <trkpt lat="50.24558996781707" lon="5.603209985420108">
        <ele>378.03</ele>
        <time>2021-07-27T16:14:35.604Z</time>
      </trkpt>
      <trkpt lat="50.245777890086174" lon="5.602816455066204">
        <ele>376.92</ele>
        <time>2021-07-27T16:14:45.896Z</time>
      </trkpt>
      <trkpt lat="50.24590998888016" lon="5.602539936080575">
        <ele>375.84</ele>
        <time>2021-07-27T16:14:56.192Z</time>
      </trkpt>
      <trkpt lat="50.24613244459033" lon="5.602192925289273">
        <ele>374.71</ele>
        <time>2021-07-27T16:15:06.493Z</time>
      </trkpt>
      <trkpt lat="50.24615993723273" lon="5.602149926126003">
        <ele>373.66</ele>
        <time>2021-07-27T16:15:16.794Z</time>
      </trkpt>
      <trkpt lat="50.24639521725476" lon="5.601824205368757">
        <ele>372.51</ele>
        <time>2021-07-27T16:15:27.100Z</time>
      </trkpt>
      <trkpt lat="50.246419943869114" lon="5.601789923384786">
        <ele>371.49</ele>
        <time>2021-07-27T16:15:37.407Z</time>
      </trkpt>
      <trkpt lat="50.246663857251406" lon="5.601480044424534">
        <ele>370.42</ele>
        <time>2021-07-27T16:15:47.719Z</time>
      </trkpt>
      <trkpt lat="50.24690785445273" lon="5.60117008164525">
        <ele>369.42</ele>
        <time>2021-07-27T16:15:58.036Z</time>
      </trkpt>
      <trkpt lat="50.24715176783502" lon="5.600860118865967">
        <ele>368.36</ele>
        <time>2021-07-27T16:16:08.358Z</time>
      </trkpt>
      <trkpt lat="50.24726995266974" lon="5.6007099989801645">
        <ele>367.37</ele>
        <time>2021-07-27T16:16:18.682Z</time>
      </trkpt>
      <trkpt lat="50.247526187449694" lon="5.600425181910396">
        <ele>366.46</ele>
        <time>2021-07-27T16:16:29.011Z</time>
      </trkpt>
      <trkpt lat="50.247539933770895" lon="5.600409926846623">
        <ele>365.54</ele>
        <time>2021-07-27T16:16:39.341Z</time>
      </trkpt>
      <trkpt lat="50.24771997705102" lon="5.600259974598885">
        <ele>364.55</ele>
        <time>2021-07-27T16:16:49.674Z</time>
      </trkpt>
      <trkpt lat="50.24799666367471" lon="5.6000264547765255">
        <ele>363.65</ele>
        <time>2021-07-27T16:17:00.012Z</time>
      </trkpt>
      <trkpt lat="50.248273434117436" lon="5.599792934954166">
        <ele>362.73</ele>
        <time>2021-07-27T16:17:10.355Z</time>
      </trkpt>
      <trkpt lat="50.24835993535817" lon="5.599719928577542">
        <ele>361.83</ele>
        <time>2021-07-27T16:17:20.700Z</time>
      </trkpt>
      <trkpt lat="50.24863469414413" lon="5.599480709061027">
        <ele>360.9</ele>
        <time>2021-07-27T16:17:31.050Z</time>
      </trkpt>
      <trkpt lat="50.24866998195648" lon="5.599449947476387">
        <ele>360.04</ele>
        <time>2021-07-27T16:17:41.400Z</time>
      </trkpt>
      <trkpt lat="50.24882999248803" lon="5.599299995228648">
        <ele>359.15</ele>
        <time>2021-07-27T16:17:51.753Z</time>
      </trkpt>
      <trkpt lat="50.24908958002925" lon="5.599022638052702">
        <ele>358.34</ele>
        <time>2021-07-27T16:18:02.111Z</time>
      </trkpt>
      <trkpt lat="50.2492699585855" lon="5.598829938098788">
        <ele>357.53</ele>
        <time>2021-07-27T16:18:12.473Z</time>
      </trkpt>
      <trkpt lat="50.24952418170869" lon="5.598540678620338">
        <ele>356.65</ele>
        <time>2021-07-27T16:18:22.840Z</time>
      </trkpt>
      <trkpt lat="50.249778321012855" lon="5.59825150296092">
        <ele>355.84</ele>
        <time>2021-07-27T16:18:33.212Z</time>
      </trkpt>
      <trkpt lat="50.24984998628497" lon="5.598169947043061">
        <ele>355.07</ele>
        <time>2021-07-27T16:18:43.585Z</time>
      </trkpt>
      <trkpt lat="50.250009996816516" lon="5.5980299692600965">
        <ele>354.27</ele>
        <time>2021-07-27T16:18:53.961Z</time>
      </trkpt>
      <trkpt lat="50.250179981812835" lon="5.59792997315526">
        <ele>353.41</ele>
        <time>2021-07-27T16:19:04.340Z</time>
      </trkpt>
      <trkpt lat="50.250469744205475" lon="5.597738698124886">
        <ele>352.43</ele>
        <time>2021-07-27T16:19:14.724Z</time>
      </trkpt>
      <trkpt lat="50.25067996233702" lon="5.597599977627397">
        <ele>351.58</ele>
        <time>2021-07-27T16:19:25.112Z</time>
      </trkpt>
      <trkpt lat="50.25096645578742" lon="5.597397219389677">
        <ele>350.82</ele>
        <time>2021-07-27T16:19:35.505Z</time>
      </trkpt>
      <trkpt lat="50.251253033056855" lon="5.597194377332926">
        <ele>350.3</ele>
        <time>2021-07-27T16:19:45.903Z</time>
      </trkpt>
      <trkpt lat="50.25132997892797" lon="5.5971399787813425">
        <ele>349.73</ele>
        <time>2021-07-27T16:19:56.302Z</time>
      </trkpt>
      <trkpt lat="50.251617478206754" lon="5.59694048948586">
        <ele>349.22</ele>
        <time>2021-07-27T16:20:06.706Z</time>
      </trkpt>
      <trkpt lat="50.25181998498738" lon="5.596799924969673">
        <ele>348.67</ele>
        <time>2021-07-27T16:20:17.114Z</time>
      </trkpt>
      <trkpt lat="50.25211435742676" lon="5.596626754850149">
        <ele>348.05</ele>
        <time>2021-07-27T16:20:27.527Z</time>
      </trkpt>
      <trkpt lat="50.252159954980016" lon="5.59659993276">
        <ele>347.48</ele>
        <time>2021-07-27T16:20:37.941Z</time>
      </trkpt>
      <trkpt lat="50.25243999436498" lon="5.5964599549770355">
        <ele>346.91</ele>
        <time>2021-07-27T16:20:48.360Z</time>
      </trkpt>
      <trkpt lat="50.2527426648885" lon="5.596326179802418">
        <ele>346.41</ele>
        <time>2021-07-27T16:20:58.784Z</time>
      </trkpt>
      <trkpt lat="50.25304541923106" lon="5.5961924046278">
        <ele>345.95</ele>
        <time>2021-07-27T16:21:09.213Z</time>
      </trkpt>
      <trkpt lat="50.25329997763038" lon="5.596079919487238">
        <ele>345.51</ele>
        <time>2021-07-27T16:21:19.646Z</time>
      </trkpt>
      <trkpt lat="50.25360843166709" lon="5.595983024686575">
        <ele>344.99</ele>
        <time>2021-07-27T16:21:30.084Z</time>
      </trkpt>
      <trkpt lat="50.25364992208779" lon="5.595969948917627">
        <ele>344.48</ele>
        <time>2021-07-27T16:21:40.523Z</time>
      </trkpt>
      <trkpt lat="50.25382996536791" lon="5.595949999988079">
        <ele>343.88</ele>
        <time>2021-07-27T16:21:50.964Z</time>
      </trkpt>
      <trkpt lat="50.25414462201297" lon="5.595949999988079">
        <ele>343.29</ele>
        <time>2021-07-27T16:22:01.410Z</time>
      </trkpt>
      <trkpt lat="50.25418996810913" lon="5.595949999988079">
        <ele>342.85</ele>
        <time>2021-07-27T16:22:11.857Z</time>
      </trkpt>
      <trkpt lat="50.25450454093516" lon="5.5959569569677114">
        <ele>342.43</ele>
        <time>2021-07-27T16:22:22.309Z</time>
      </trkpt>
      <trkpt lat="50.25481919758022" lon="5.595963913947344">
        <ele>341.99</ele>
        <time>2021-07-27T16:22:32.766Z</time>
      </trkpt>
      <trkpt lat="50.25508993305266" lon="5.595969948917627">
        <ele>341.44</ele>
        <time>2021-07-27T16:22:43.228Z</time>
      </trkpt>
      <trkpt lat="50.25540458969772" lon="5.595979588106275">
        <ele>340.84</ele>
        <time>2021-07-27T16:22:53.695Z</time>
      </trkpt>
      <trkpt lat="50.25571916252375" lon="5.595989227294922">
        <ele>340.36</ele>
        <time>2021-07-27T16:23:04.167Z</time>
      </trkpt>
      <trkpt lat="50.256033735349774" lon="5.595998866483569">
        <ele>339.94</ele>
        <time>2021-07-27T16:23:14.644Z</time>
      </trkpt>
      <trkpt lat="50.256069945171475" lon="5.5959999561309814">
        <ele>339.62</ele>
        <time>2021-07-27T16:23:25.121Z</time>
      </trkpt>
      <trkpt lat="50.25617999956012" lon="5.5959799233824015">
        <ele>339.35</ele>
        <time>2021-07-27T16:23:35.600Z</time>
      </trkpt>
      <trkpt lat="50.25632995180786" lon="5.595879927277565">
        <ele>339.11</ele>
        <time>2021-07-27T16:23:46.082Z</time>
      </trkpt>
      <trkpt lat="50.25647998787463" lon="5.5957399494946">
        <ele>338.94</ele>
        <time>2021-07-27T16:23:56.567Z</time>
      </trkpt>
      <trkpt lat="50.256559951230884" lon="5.595619920641184">
        <ele>338.76</ele>
        <time>2021-07-27T16:24:07.053Z</time>
      </trkpt>
      <trkpt lat="50.25663999840617" lon="5.595409953966737">
        <ele>338.62</ele>
        <time>2021-07-27T16:24:17.542Z</time>
      </trkpt>
      <trkpt lat="50.25669992901385" lon="5.595129998400807">
        <ele>338.48</ele>
        <time>2021-07-27T16:24:28.034Z</time>
      </trkpt>
      <trkpt lat="50.25671560317278" lon="5.594639740884304">
        <ele>338.4</ele>
        <time>2021-07-27T16:24:38.531Z</time>
      </trkpt>
      <trkpt lat="50.2567299362272" lon="5.594189967960119">
        <ele>338.27</ele>
        <time>2021-07-27T16:24:49.032Z</time>
      </trkpt>
      <trkpt lat="50.256709987297654" lon="5.593879921361804">
        <ele>338.13</ele>
        <time>2021-07-27T16:24:59.537Z</time>
      </trkpt>
      <trkpt lat="50.25668827816844" lon="5.593390334397554">
        <ele>338.0</ele>
        <time>2021-07-27T16:25:10.047Z</time>
      </trkpt>
      <trkpt lat="50.25666665285826" lon="5.592900663614273">
        <ele>337.8</ele>
        <time>2021-07-27T16:25:20.562Z</time>
      </trkpt>
      <trkpt lat="50.25665994733572" lon="5.592749956995249">
        <ele>337.58</ele>
        <time>2021-07-27T16:25:31.078Z</time>
      </trkpt>
      <trkpt lat="50.256649972870946" lon="5.592469917610288">
        <ele>337.29</ele>
        <time>2021-07-27T16:25:41.597Z</time>
      </trkpt>
      <trkpt lat="50.256649972870946" lon="5.591979157179594">
        <ele>336.93</ele>
        <time>2021-07-27T16:25:52.121Z</time>
      </trkpt>
      <trkpt lat="50.256649972870946" lon="5.591849992051721">
        <ele>336.69</ele>
        <time>2021-07-27T16:26:02.647Z</time>
      </trkpt>
      <trkpt lat="50.25671996176243" lon="5.5915699526667595">
        <ele>336.49</ele>
        <time>2021-07-27T16:26:13.176Z</time>
      </trkpt>
      <trkpt lat="50.256799925118685" lon="5.591409942135215">
        <ele>336.25</ele>
        <time>2021-07-27T16:26:23.707Z</time>
      </trkpt>
      <trkpt lat="50.25699212215841" lon="5.5910212732851505">
        <ele>336.01</ele>
        <time>2021-07-27T16:26:34.243Z</time>
      </trkpt>
      <trkpt lat="50.2571842353791" lon="5.590632604435086">
        <ele>335.67</ele>
        <time>2021-07-27T16:26:44.784Z</time>
      </trkpt>
      <trkpt lat="50.25723997503519" lon="5.590519951656461">
        <ele>335.35</ele>
        <time>2021-07-27T16:26:55.326Z</time>
      </trkpt>
      <trkpt lat="50.257389759644866" lon="5.590105382725596">
        <ele>334.95</ele>
        <time>2021-07-27T16:27:05.873Z</time>
      </trkpt>
      <trkpt lat="50.257394537329674" lon="5.590092474594712">
        <ele>334.64</ele>
        <time>2021-07-27T16:27:16.420Z</time>
      </trkpt>
      <trkpt lat="50.25740996003151" lon="5.5900499783456326">
        <ele>334.3</ele>
        <time>2021-07-27T16:27:26.968Z</time>
      </trkpt>
      <trkpt lat="50.25741004385054" lon="5.590049223974347">
        <ele>333.97</ele>
        <time>2021-07-27T16:27:37.516Z</time>
      </trkpt>
      <trkpt lat="50.25751129724085" lon="5.589585285633802">
        <ele>333.61</ele>
        <time>2021-07-27T16:27:48.069Z</time>
      </trkpt>
      <trkpt lat="50.257529988884926" lon="5.589499957859516">
        <ele>333.25</ele>
        <time>2021-07-27T16:27:58.623Z</time>
      </trkpt>
      <trkpt lat="50.257613472640514" lon="5.589026715606451">
        <ele>332.86</ele>
        <time>2021-07-27T16:28:09.182Z</time>
      </trkpt>
      <trkpt lat="50.2576969563961" lon="5.588553557172418">
        <ele>332.45</ele>
        <time>2021-07-27T16:28:19.746Z</time>
      </trkpt>
      <trkpt lat="50.25776996277273" lon="5.588139994069934">
        <ele>332.09</ele>
        <time>2021-07-27T16:28:30.314Z</time>
      </trkpt>
      <trkpt lat="50.257849087938666" lon="5.587664907798171">
        <ele>331.77</ele>
        <time>2021-07-27T16:28:40.887Z</time>
      </trkpt>
      <trkpt lat="50.25785998441279" lon="5.587599948048592">
        <ele>331.47</ele>
        <time>2021-07-27T16:28:51.461Z</time>
      </trkpt>
      <trkpt lat="50.25791178457439" lon="5.587115893140435">
        <ele>331.15</ele>
        <time>2021-07-27T16:29:02.040Z</time>
      </trkpt>
      <trkpt lat="50.2579199988395" lon="5.587039953097701">
        <ele>330.88</ele>
        <time>2021-07-27T16:29:12.620Z</time>
      </trkpt>
      <trkpt lat="50.25796802714467" lon="5.586554892361164">
        <ele>330.65</ele>
        <time>2021-07-27T16:29:23.205Z</time>
      </trkpt>
      <trkpt lat="50.25801605544984" lon="5.586069831624627">
        <ele>330.41</ele>
        <time>2021-07-27T16:29:33.795Z</time>
      </trkpt>
      <trkpt lat="50.25802996940911" lon="5.585929937660694">
        <ele>330.21</ele>
        <time>2021-07-27T16:29:44.386Z</time>
      </trkpt>
      <trkpt lat="50.25808813981712" lon="5.585447642952204">
        <ele>330.07</ele>
        <time>2021-07-27T16:29:54.982Z</time>
      </trkpt>
      <trkpt lat="50.25809995830059" lon="5.585349993780255">
        <ele>329.89</ele>
        <time>2021-07-27T16:30:05.579Z</time>
      </trkpt>
      <trkpt lat="50.25821428745985" lon="5.584892677143216">
        <ele>329.6</ele>
        <time>2021-07-27T16:30:16.181Z</time>
      </trkpt>
      <trkpt lat="50.25828997604549" lon="5.58458992280066">
        <ele>329.38</ele>
        <time>2021-07-27T16:30:26.787Z</time>
      </trkpt>
      <trkpt lat="50.25841059163213" lon="5.584136629477143">
        <ele>329.19</ele>
        <time>2021-07-27T16:30:37.398Z</time>
      </trkpt>
      <trkpt lat="50.258531207218766" lon="5.583683336153626">
        <ele>328.94</ele>
        <time>2021-07-27T16:30:48.014Z</time>
      </trkpt>
      <trkpt lat="50.258651822805405" lon="5.58323004283011">
        <ele>328.86</ele>
        <time>2021-07-27T16:30:58.635Z</time>
      </trkpt>
      <trkpt lat="50.25877243839204" lon="5.582776665687561">
        <ele>328.78</ele>
        <time>2021-07-27T16:31:09.261Z</time>
      </trkpt>
      <trkpt lat="50.25889305397868" lon="5.582323372364044">
        <ele>328.87</ele>
        <time>2021-07-27T16:31:19.892Z</time>
      </trkpt>
      <trkpt lat="50.25890998542309" lon="5.582259921357036">
        <ele>328.75</ele>
        <time>2021-07-27T16:31:30.524Z</time>
      </trkpt>
      <trkpt lat="50.2590580098331" lon="5.581826828420162">
        <ele>328.72</ele>
        <time>2021-07-27T16:31:41.161Z</time>
      </trkpt>
      <trkpt lat="50.25917996652424" lon="5.581469926983118">
        <ele>328.63</ele>
        <time>2021-07-27T16:31:51.802Z</time>
      </trkpt>
      <trkpt lat="50.25936998426914" lon="5.581079917028546">
        <ele>328.46</ele>
        <time>2021-07-27T16:32:02.448Z</time>
      </trkpt>
      <trkpt lat="50.259549943730235" lon="5.580759979784489">
        <ele>328.24</ele>
        <time>2021-07-27T16:32:13.098Z</time>
      </trkpt>
      <trkpt lat="50.259775165468454" lon="5.580417243763804">
        <ele>327.84</ele>
        <time>2021-07-27T16:32:23.753Z</time>
      </trkpt>
      <trkpt lat="50.260000387206674" lon="5.58007450774312">
        <ele>327.44</ele>
        <time>2021-07-27T16:32:34.413Z</time>
      </trkpt>
      <trkpt lat="50.26000994257629" lon="5.580059923231602">
        <ele>327.22</ele>
        <time>2021-07-27T16:32:45.074Z</time>
      </trkpt>
      <trkpt lat="50.26023373939097" lon="5.579714924097061">
        <ele>327.0</ele>
        <time>2021-07-27T16:32:55.740Z</time>
      </trkpt>
      <trkpt lat="50.26045753620565" lon="5.579369924962521">
        <ele>326.72</ele>
        <time>2021-07-27T16:33:06.411Z</time>
      </trkpt>
      <trkpt lat="50.26048997417092" lon="5.579319968819618">
        <ele>326.45</ele>
        <time>2021-07-27T16:33:17.082Z</time>
      </trkpt>
      <trkpt lat="50.260619977489114" lon="5.5791099183261395">
        <ele>326.14</ele>
        <time>2021-07-27T16:33:27.756Z</time>
      </trkpt>
      <trkpt lat="50.26078778319061" lon="5.578694762662053">
        <ele>325.78</ele>
        <time>2021-07-27T16:33:38.435Z</time>
      </trkpt>
      <trkpt lat="50.26080999523401" lon="5.578639945015311">
        <ele>325.52</ele>
        <time>2021-07-27T16:33:49.115Z</time>
      </trkpt>
      <trkpt lat="50.2609399985522" lon="5.578339956700802">
        <ele>325.18</ele>
        <time>2021-07-27T16:33:59.799Z</time>
      </trkpt>
      <trkpt lat="50.261049969121814" lon="5.578129990026355">
        <ele>324.89</ele>
        <time>2021-07-27T16:34:10.486Z</time>
      </trkpt>
      <trkpt lat="50.26114996522665" lon="5.5780199356377125">
        <ele>324.64</ele>
        <time>2021-07-27T16:34:21.175Z</time>
      </trkpt>
      <trkpt lat="50.26129991747439" lon="5.577909965068102">
        <ele>324.42</ele>
        <time>2021-07-27T16:34:31.866Z</time>
      </trkpt>
      <trkpt lat="50.26159957051277" lon="5.5777601804584265">
        <ele>324.21</ele>
        <time>2021-07-27T16:34:42.562Z</time>
      </trkpt>
      <trkpt lat="50.26159998960793" lon="5.577759929001331">
        <ele>323.95</ele>
        <time>2021-07-27T16:34:53.258Z</time>
      </trkpt>
      <trkpt lat="50.26174994185567" lon="5.577649958431721">
        <ele>323.66</ele>
        <time>2021-07-27T16:35:03.957Z</time>
      </trkpt>
      <trkpt lat="50.26185999624431" lon="5.577509980648756">
        <ele>323.36</ele>
        <time>2021-07-27T16:35:14.658Z</time>
      </trkpt>
      <trkpt lat="50.26187994517386" lon="5.577459940686822">
        <ele>323.08</ele>
        <time>2021-07-27T16:35:25.360Z</time>
      </trkpt>
      <trkpt lat="50.26205328293145" lon="5.577050317078829">
        <ele>322.82</ele>
        <time>2021-07-27T16:35:36.067Z</time>
      </trkpt>
      <trkpt lat="50.262226620689034" lon="5.576640609651804">
        <ele>322.61</ele>
        <time>2021-07-27T16:35:46.779Z</time>
      </trkpt>
      <trkpt lat="50.26239995844662" lon="5.576230986043811">
        <ele>322.26</ele>
        <time>2021-07-27T16:35:57.496Z</time>
      </trkpt>
      <trkpt lat="50.262429965659976" lon="5.576159991323948">
        <ele>321.89</ele>
        <time>2021-07-27T16:36:08.214Z</time>
      </trkpt>
      <trkpt lat="50.2625531796366" lon="5.575708290562034">
        <ele>321.47</ele>
        <time>2021-07-27T16:36:18.937Z</time>
      </trkpt>
      <trkpt lat="50.26267630979419" lon="5.575256589800119">
        <ele>320.99</ele>
        <time>2021-07-27T16:36:29.665Z</time>
      </trkpt>
      <trkpt lat="50.26275996118784" lon="5.5749499797821045">
        <ele>320.54</ele>
        <time>2021-07-27T16:36:40.396Z</time>
      </trkpt>
      <trkpt lat="50.26287638582289" lon="5.574493920430541">
        <ele>320.03</ele>
        <time>2021-07-27T16:36:51.132Z</time>
      </trkpt>
      <trkpt lat="50.262992810457945" lon="5.574037944898009">
        <ele>319.51</ele>
        <time>2021-07-27T16:37:01.873Z</time>
      </trkpt>
      <trkpt lat="50.26310931891203" lon="5.573581969365478">
        <ele>318.91</ele>
        <time>2021-07-27T16:37:12.619Z</time>
      </trkpt>
      <trkpt lat="50.26322574354708" lon="5.573125910013914">
        <ele>318.32</ele>
        <time>2021-07-27T16:37:23.370Z</time>
      </trkpt>
      <trkpt lat="50.263342168182135" lon="5.572669934481382">
        <ele>317.66</ele>
        <time>2021-07-27T16:37:34.127Z</time>
      </trkpt>
      <trkpt lat="50.26345867663622" lon="5.572213875129819">
        <ele>316.98</ele>
        <time>2021-07-27T16:37:44.889Z</time>
      </trkpt>
      <trkpt lat="50.26357510127127" lon="5.571757899597287">
        <ele>316.27</ele>
        <time>2021-07-27T16:37:55.656Z</time>
      </trkpt>
      <trkpt lat="50.263691525906324" lon="5.571301924064755">
        <ele>315.53</ele>
        <time>2021-07-27T16:38:06.428Z</time>
      </trkpt>
      <trkpt lat="50.26380803436041" lon="5.570845864713192">
        <ele>314.69</ele>
        <time>2021-07-27T16:38:17.205Z</time>
      </trkpt>
      <trkpt lat="50.26382999494672" lon="5.570759950205684">
        <ele>313.89</ele>
        <time>2021-07-27T16:38:27.983Z</time>
      </trkpt>
      <trkpt lat="50.263943653553724" lon="5.570302214473486">
        <ele>312.96</ele>
        <time>2021-07-27T16:38:38.766Z</time>
      </trkpt>
      <trkpt lat="50.26405731216073" lon="5.56984456256032">
        <ele>312.09</ele>
        <time>2021-07-27T16:38:49.554Z</time>
      </trkpt>
      <trkpt lat="50.264170970767736" lon="5.569386826828122">
        <ele>311.21</ele>
        <time>2021-07-27T16:39:00.347Z</time>
      </trkpt>
      <trkpt lat="50.264209946617484" lon="5.569229917600751">
        <ele>310.33</ele>
        <time>2021-07-27T16:39:11.141Z</time>
      </trkpt>
      <trkpt lat="50.264327712357044" lon="5.568774780258536">
        <ele>309.35</ele>
        <time>2021-07-27T16:39:21.941Z</time>
      </trkpt>
      <trkpt lat="50.264359982684255" lon="5.568649973720312">
        <ele>308.42</ele>
        <time>2021-07-27T16:39:32.742Z</time>
      </trkpt>
      <trkpt lat="50.264469953253865" lon="5.56827999651432">
        <ele>307.44</ele>
        <time>2021-07-27T16:39:43.547Z</time>
      </trkpt>
      <trkpt lat="50.26462996378541" lon="5.567929968237877">
        <ele>306.45</ele>
        <time>2021-07-27T16:39:54.356Z</time>
      </trkpt>
      <trkpt lat="50.2648099232465" lon="5.5676099471747875">
        <ele>305.45</ele>
        <time>2021-07-27T16:40:05.170Z</time>
      </trkpt>
      <trkpt lat="50.2649999409914" lon="5.567319933325052">
        <ele>304.48</ele>
        <time>2021-07-27T16:40:15.988Z</time>
      </trkpt>
      <trkpt lat="50.265214098617435" lon="5.5669602658599615">
        <ele>303.49</ele>
        <time>2021-07-27T16:40:26.811Z</time>
      </trkpt>
      <trkpt lat="50.26524997316301" lon="5.566899999976158">
        <ele>302.57</ele>
        <time>2021-07-27T16:40:37.635Z</time>
      </trkpt>
      <trkpt lat="50.26540210470557" lon="5.566470259800553">
        <ele>301.58</ele>
        <time>2021-07-27T16:40:48.464Z</time>
      </trkpt>
      <trkpt lat="50.26541995815933" lon="5.566419968381524">
        <ele>300.74</ele>
        <time>2021-07-27T16:40:59.294Z</time>
      </trkpt>
      <trkpt lat="50.265513667836785" lon="5.565951336175203">
        <ele>299.87</ele>
        <time>2021-07-27T16:41:10.129Z</time>
      </trkpt>
      <trkpt lat="50.26560737751424" lon="5.565482787787914">
        <ele>299.04</ele>
        <time>2021-07-27T16:41:20.969Z</time>
      </trkpt>
      <trkpt lat="50.26568993926048" lon="5.565069979056716">
        <ele>298.28</ele>
        <time>2021-07-27T16:41:31.813Z</time>
      </trkpt>
      <trkpt lat="50.26578892953694" lon="5.56460402905941">
        <ele>297.53</ele>
        <time>2021-07-27T16:41:42.662Z</time>
      </trkpt>
      <trkpt lat="50.2658599242568" lon="5.5642699263989925">
        <ele>296.85</ele>
        <time>2021-07-27T16:41:53.515Z</time>
      </trkpt>
      <trkpt lat="50.26592957787216" lon="5.563791235908866">
        <ele>296.28</ele>
        <time>2021-07-27T16:42:04.373Z</time>
      </trkpt>
      <trkpt lat="50.26593997143209" lon="5.563719989731908">
        <ele>295.76</ele>
        <time>2021-07-27T16:42:15.232Z</time>
      </trkpt>
      <trkpt lat="50.26598481461406" lon="5.563234090805054">
        <ele>295.27</ele>
        <time>2021-07-27T16:42:26.096Z</time>
      </trkpt>
      <trkpt lat="50.266029657796025" lon="5.5627481918782">
        <ele>294.78</ele>
        <time>2021-07-27T16:42:36.965Z</time>
      </trkpt>
      <trkpt lat="50.26607450097799" lon="5.562262292951345">
        <ele>294.47</ele>
        <time>2021-07-27T16:42:47.839Z</time>
      </trkpt>
      <trkpt lat="50.26611934415996" lon="5.561776477843523">
        <ele>294.23</ele>
        <time>2021-07-27T16:42:58.718Z</time>
      </trkpt>
      <trkpt lat="50.26611993089318" lon="5.561769939959049">
        <ele>293.96</ele>
        <time>2021-07-27T16:43:09.597Z</time>
      </trkpt>
      <trkpt lat="50.26617994531989" lon="5.561659969389439">
        <ele>293.71</ele>
        <time>2021-07-27T16:43:20.477Z</time>
      </trkpt>
      <trkpt lat="50.2662399597466" lon="5.56161998771131">
        <ele>293.52</ele>
        <time>2021-07-27T16:43:31.358Z</time>
      </trkpt>
      <trkpt lat="50.26632998138666" lon="5.56159995496273">
        <ele>293.36</ele>
        <time>2021-07-27T16:43:42.241Z</time>
      </trkpt>
      <trkpt lat="50.26657992973924" lon="5.561589980497956">
        <ele>293.24</ele>
        <time>2021-07-27T16:43:53.128Z</time>
      </trkpt>
      <trkpt lat="50.26674999855459" lon="5.561529966071248">
        <ele>293.18</ele>
        <time>2021-07-27T16:44:04.018Z</time>
      </trkpt>
      <trkpt lat="50.266829961910844" lon="5.5613799300044775">
        <ele>293.17</ele>
        <time>2021-07-27T16:44:14.910Z</time>
      </trkpt>
      <trkpt lat="50.266879918053746" lon="5.561299966648221">
        <ele>293.21</ele>
        <time>2021-07-27T16:44:25.803Z</time>
      </trkpt>
      <trkpt lat="50.26702274568379" lon="5.560862515121698">
        <ele>293.31</ele>
        <time>2021-07-27T16:44:36.701Z</time>
      </trkpt>
      <trkpt lat="50.26703992858529" lon="5.560809960588813">
        <ele>293.44</ele>
        <time>2021-07-27T16:44:47.599Z</time>
      </trkpt>
      <trkpt lat="50.26710991747677" lon="5.560569986701012">
        <ele>293.57</ele>
        <time>2021-07-27T16:44:58.500Z</time>
      </trkpt>
      <trkpt lat="50.26722994633019" lon="5.56015994399786">
        <ele>293.77</ele>
        <time>2021-07-27T16:45:09.406Z</time>
      </trkpt>
      <trkpt lat="50.267349975183606" lon="5.5598299484699965">
        <ele>293.99</ele>
        <time>2021-07-27T16:45:20.316Z</time>
      </trkpt>
      <trkpt lat="50.26745994575322" lon="5.559589974582195">
        <ele>294.21</ele>
        <time>2021-07-27T16:45:31.229Z</time>
      </trkpt>
      <trkpt lat="50.26766438037157" lon="5.559216728433967">
        <ele>294.46</ele>
        <time>2021-07-27T16:45:42.147Z</time>
      </trkpt>
      <trkpt lat="50.26786873117089" lon="5.558843482285738">
        <ele>294.82</ele>
        <time>2021-07-27T16:45:53.070Z</time>
      </trkpt>
      <trkpt lat="50.26791994459927" lon="5.558749940246344">
        <ele>295.1</ele>
        <time>2021-07-27T16:46:03.994Z</time>
      </trkpt>
      <trkpt lat="50.268153212964535" lon="5.55842044763267">
        <ele>295.38</ele>
        <time>2021-07-27T16:46:14.923Z</time>
      </trkpt>
      <trkpt lat="50.2683864813298" lon="5.558091038838029">
        <ele>295.62</ele>
        <time>2021-07-27T16:46:25.857Z</time>
      </trkpt>
      <trkpt lat="50.26861974969506" lon="5.557761546224356">
        <ele>295.82</ele>
        <time>2021-07-27T16:46:36.796Z</time>
      </trkpt>
      <trkpt lat="50.268719997256994" lon="5.557619975879788">
        <ele>296.01</ele>
        <time>2021-07-27T16:46:47.737Z</time>
      </trkpt>
      <trkpt lat="50.268934071063995" lon="5.557260224595666">
        <ele>296.16</ele>
        <time>2021-07-27T16:46:58.683Z</time>
      </trkpt>
      <trkpt lat="50.26896994560957" lon="5.557199958711863">
        <ele>296.35</ele>
        <time>2021-07-27T16:47:09.630Z</time>
      </trkpt>
      <trkpt lat="50.26915518566966" lon="5.55680307559669">
        <ele>296.52</ele>
        <time>2021-07-27T16:47:20.582Z</time>
      </trkpt>
      <trkpt lat="50.26931997388601" lon="5.556449946016073">
        <ele>296.69</ele>
        <time>2021-07-27T16:47:31.539Z</time>
      </trkpt>
      <trkpt lat="50.269539998844266" lon="5.55609991773963">
        <ele>296.81</ele>
        <time>2021-07-27T16:47:42.501Z</time>
      </trkpt>
      <trkpt lat="50.269752983003855" lon="5.555738657712936">
        <ele>296.96</ele>
        <time>2021-07-27T16:47:53.468Z</time>
      </trkpt>
      <trkpt lat="50.269966050982475" lon="5.555377397686243">
        <ele>297.06</ele>
        <time>2021-07-27T16:48:04.440Z</time>
      </trkpt>
      <trkpt lat="50.26999999769032" lon="5.555319981649518">
        <ele>297.14</ele>
        <time>2021-07-27T16:48:15.413Z</time>
      </trkpt>
      <trkpt lat="50.27014994993806" lon="5.555109931156039">
        <ele>297.25</ele>
        <time>2021-07-27T16:48:26.389Z</time>
      </trkpt>
      <trkpt lat="50.270249946042895" lon="5.554999960586429">
        <ele>297.33</ele>
        <time>2021-07-27T16:48:37.367Z</time>
      </trkpt>
      <trkpt lat="50.27046997100115" lon="5.5547599866986275">
        <ele>297.42</ele>
        <time>2021-07-27T16:48:48.349Z</time>
      </trkpt>
      <trkpt lat="50.270706340670586" lon="5.5544360261410475">
        <ele>297.36</ele>
        <time>2021-07-27T16:48:59.336Z</time>
      </trkpt>
      <trkpt lat="50.2707399521023" lon="5.554389925673604">
        <ele>297.29</ele>
        <time>2021-07-27T16:49:10.324Z</time>
      </trkpt>
      <trkpt lat="50.270973639562726" lon="5.5540611036121845">
        <ele>297.28</ele>
        <time>2021-07-27T16:49:21.317Z</time>
      </trkpt>
      <trkpt lat="50.27100993320346" lon="5.554009974002838">
        <ele>297.16</ele>
        <time>2021-07-27T16:49:32.311Z</time>
      </trkpt>
      <trkpt lat="50.27122995816171" lon="5.553699927404523">
        <ele>296.94</ele>
        <time>2021-07-27T16:49:43.309Z</time>
      </trkpt>
      <trkpt lat="50.27146825566888" lon="5.553379403427243">
        <ele>296.6</ele>
        <time>2021-07-27T16:49:54.312Z</time>
      </trkpt>
      <trkpt lat="50.27151997201145" lon="5.553309917449951">
        <ele>296.32</ele>
        <time>2021-07-27T16:50:05.317Z</time>
      </trkpt>
      <trkpt lat="50.271741673350334" lon="5.552961565554142">
        <ele>296.06</ele>
        <time>2021-07-27T16:50:16.327Z</time>
      </trkpt>
      <trkpt lat="50.271799927577376" lon="5.552869951352477">
        <ele>295.75</ele>
        <time>2021-07-27T16:50:27.338Z</time>
      </trkpt>
      <trkpt lat="50.27200201526284" lon="5.552493687719107">
        <ele>295.47</ele>
        <time>2021-07-27T16:50:38.354Z</time>
      </trkpt>
      <trkpt lat="50.27208994142711" lon="5.5523299891501665">
        <ele>295.15</ele>
        <time>2021-07-27T16:50:49.372Z</time>
      </trkpt>
      <trkpt lat="50.272274846211076" lon="5.551932770758867">
        <ele>294.81</ele>
        <time>2021-07-27T16:51:00.395Z</time>
      </trkpt>
      <trkpt lat="50.27235992252827" lon="5.551749961450696">
        <ele>294.45</ele>
        <time>2021-07-27T16:51:11.421Z</time>
      </trkpt>
      <trkpt lat="50.27257005684078" lon="5.551384510472417">
        <ele>293.94</ele>
        <time>2021-07-27T16:51:22.452Z</time>
      </trkpt>
      <trkpt lat="50.272589921951294" lon="5.55134997703135">
        <ele>293.58</ele>
        <time>2021-07-27T16:51:33.483Z</time>
      </trkpt>
      <trkpt lat="50.272719925269485" lon="5.551159959286451">
        <ele>293.2</ele>
        <time>2021-07-27T16:51:44.517Z</time>
      </trkpt>
      <trkpt lat="50.272869961336255" lon="5.550999948754907">
        <ele>292.84</ele>
        <time>2021-07-27T16:51:55.554Z</time>
      </trkpt>
      <trkpt lat="50.27313491329551" lon="5.550735080614686">
        <ele>292.4</ele>
        <time>2021-07-27T16:52:06.596Z</time>
      </trkpt>
      <trkpt lat="50.2732199896127" lon="5.550649920478463">
        <ele>292.02</ele>
        <time>2021-07-27T16:52:17.639Z</time>
      </trkpt>
      <trkpt lat="50.27347496710718" lon="5.550362253561616">
        <ele>291.7</ele>
        <time>2021-07-27T16:52:28.687Z</time>
      </trkpt>
      <trkpt lat="50.27360999956727" lon="5.550209954380989">
        <ele>291.43</ele>
        <time>2021-07-27T16:52:39.738Z</time>
      </trkpt>
      <trkpt lat="50.27373991906643" lon="5.55001993663609">
        <ele>291.24</ele>
        <time>2021-07-27T16:52:50.792Z</time>
      </trkpt>
      <trkpt lat="50.273879980668426" lon="5.5498299188911915">
        <ele>291.06</ele>
        <time>2021-07-27T16:53:01.849Z</time>
      </trkpt>
      <trkpt lat="50.27401995845139" lon="5.549659933894873">
        <ele>290.86</ele>
        <time>2021-07-27T16:53:12.909Z</time>
      </trkpt>
      <trkpt lat="50.274289855733514" lon="5.549407470971346">
        <ele>290.6</ele>
        <time>2021-07-27T16:53:23.974Z</time>
      </trkpt>
      <trkpt lat="50.274329921230674" lon="5.549369920045137">
        <ele>290.32</ele>
        <time>2021-07-27T16:53:35.040Z</time>
      </trkpt>
      <trkpt lat="50.274479957297444" lon="5.549209993332624">
        <ele>290.05</ele>
        <time>2021-07-27T16:53:46.109Z</time>
      </trkpt>
      <trkpt lat="50.27472554706037" lon="5.548902964219451">
        <ele>289.73</ele>
        <time>2021-07-27T16:53:57.183Z</time>
      </trkpt>
      <trkpt lat="50.274759996682405" lon="5.548859965056181">
        <ele>289.44</ele>
        <time>2021-07-27T16:54:08.257Z</time>
      </trkpt>
      <trkpt lat="50.275014555081725" lon="5.548571459949017">
        <ele>289.11</ele>
        <time>2021-07-27T16:54:19.336Z</time>
      </trkpt>
      <trkpt lat="50.275059984996915" lon="5.548519995063543">
        <ele>288.8</ele>
        <time>2021-07-27T16:54:30.416Z</time>
      </trkpt>
      <trkpt lat="50.27533181011677" lon="5.548272812739015">
        <ele>288.43</ele>
        <time>2021-07-27T16:54:41.501Z</time>
      </trkpt>
      <trkpt lat="50.27549995109439" lon="5.548119926825166">
        <ele>288.07</ele>
        <time>2021-07-27T16:54:52.589Z</time>
      </trkpt>
      <trkpt lat="50.27575518004596" lon="5.5478328466415405">
        <ele>287.7</ele>
        <time>2021-07-27T16:55:03.682Z</time>
      </trkpt>
      <trkpt lat="50.27581997215748" lon="5.547759924083948">
        <ele>287.35</ele>
        <time>2021-07-27T16:55:14.777Z</time>
      </trkpt>
      <trkpt lat="50.276076877489686" lon="5.547476448118687">
        <ele>286.97</ele>
        <time>2021-07-27T16:55:25.877Z</time>
      </trkpt>
      <trkpt lat="50.276109986007214" lon="5.5474399868398905">
        <ele>286.64</ele>
        <time>2021-07-27T16:55:36.977Z</time>
      </trkpt>
      <trkpt lat="50.276374854147434" lon="5.547175034880638">
        <ele>286.35</ele>
        <time>2021-07-27T16:55:48.082Z</time>
      </trkpt>
      <trkpt lat="50.27644995599985" lon="5.547099933028221">
        <ele>286.02</ele>
        <time>2021-07-27T16:55:59.189Z</time>
      </trkpt>
      <trkpt lat="50.27655992656946" lon="5.547039918601513">
        <ele>285.67</ele>
        <time>2021-07-27T16:56:10.298Z</time>
      </trkpt>
      <trkpt lat="50.27673996984959" lon="5.546979987993836">
        <ele>285.28</ele>
        <time>2021-07-27T16:56:21.410Z</time>
      </trkpt>
      <trkpt lat="50.27704993262887" lon="5.546895414590836">
        <ele>284.91</ele>
        <time>2021-07-27T16:56:32.527Z</time>
      </trkpt>
      <trkpt lat="50.27706996537745" lon="5.546889966353774">
        <ele>284.55</ele>
        <time>2021-07-27T16:56:43.644Z</time>
      </trkpt>
      <trkpt lat="50.27718882076442" lon="5.546860210597515">
        <ele>284.19</ele>
        <time>2021-07-27T16:56:54.763Z</time>
      </trkpt>
      <trkpt lat="50.277229975908995" lon="5.546849984675646">
        <ele>283.83</ele>
        <time>2021-07-27T16:57:05.883Z</time>
      </trkpt>
      <trkpt lat="50.27723031118512" lon="5.546849817037582">
        <ele>283.47</ele>
        <time>2021-07-27T16:57:17.003Z</time>
      </trkpt>
      <trkpt lat="50.27753499336541" lon="5.546729536727071">
        <ele>283.06</ele>
        <time>2021-07-27T16:57:28.128Z</time>
      </trkpt>
      <trkpt lat="50.27784001082182" lon="5.5466091725975275">
        <ele>282.65</ele>
        <time>2021-07-27T16:57:39.258Z</time>
      </trkpt>
      <trkpt lat="50.27798996306956" lon="5.546549996361136">
        <ele>282.27</ele>
        <time>2021-07-27T16:57:50.390Z</time>
      </trkpt>
      <trkpt lat="50.27828995138407" lon="5.546459974721074">
        <ele>281.84</ele>
        <time>2021-07-27T16:58:01.527Z</time>
      </trkpt>
      <trkpt lat="50.27848994359374" lon="5.546439941972494">
        <ele>281.48</ele>
        <time>2021-07-27T16:58:12.667Z</time>
      </trkpt>
      <trkpt lat="50.278803845867515" lon="5.546405995264649">
        <ele>281.06</ele>
        <time>2021-07-27T16:58:23.812Z</time>
      </trkpt>
      <trkpt lat="50.27885992079973" lon="5.546399960294366">
        <ele>280.78</ele>
        <time>2021-07-27T16:58:34.958Z</time>
      </trkpt>
      <trkpt lat="50.27917214669287" lon="5.546460896730423">
        <ele>280.51</ele>
        <time>2021-07-27T16:58:46.109Z</time>
      </trkpt>
      <trkpt lat="50.279269963502884" lon="5.546479923650622">
        <ele>280.27</ele>
        <time>2021-07-27T16:58:57.262Z</time>
      </trkpt>
      <trkpt lat="50.2794399484992" lon="5.546479923650622">
        <ele>280.07</ele>
        <time>2021-07-27T16:59:08.418Z</time>
      </trkpt>
      <trkpt lat="50.2796299662441" lon="5.546439941972494">
        <ele>279.87</ele>
        <time>2021-07-27T16:59:19.577Z</time>
      </trkpt>
      <trkpt lat="50.27992785908282" lon="5.5462816916406155">
        <ele>279.75</ele>
        <time>2021-07-27T16:59:30.741Z</time>
      </trkpt>
      <trkpt lat="50.27994998730719" lon="5.546269956976175">
        <ele>279.63</ele>
        <time>2021-07-27T16:59:41.905Z</time>
      </trkpt>
      <trkpt lat="50.28025089763105" lon="5.546126626431942">
        <ele>279.65</ele>
        <time>2021-07-27T16:59:53.074Z</time>
      </trkpt>
      <trkpt lat="50.28055189177394" lon="5.545983295887709">
        <ele>279.66</ele>
        <time>2021-07-27T17:00:04.248Z</time>
      </trkpt>
      <trkpt lat="50.28078993782401" lon="5.5458699725568295">
        <ele>279.63</ele>
        <time>2021-07-27T17:00:15.426Z</time>
      </trkpt>
      <trkpt lat="50.28095992282033" lon="5.545789925381541">
        <ele>279.57</ele>
        <time>2021-07-27T17:00:26.607Z</time>
      </trkpt>
      <trkpt lat="50.28126276098192" lon="5.545656401664019">
        <ele>279.49</ele>
        <time>2021-07-27T17:00:37.793Z</time>
      </trkpt>
      <trkpt lat="50.281299976632" lon="5.545639973133802">
        <ele>279.43</ele>
        <time>2021-07-27T17:00:48.980Z</time>
      </trkpt>
      <trkpt lat="50.28140994720161" lon="5.545699987560511">
        <ele>279.33</ele>
        <time>2021-07-27T17:01:00.168Z</time>
      </trkpt>
      <trkpt lat="50.28170574456453" lon="5.54586754180491">
        <ele>279.16</ele>
        <time>2021-07-27T17:01:11.362Z</time>
      </trkpt>
      <trkpt lat="50.28170993551612" lon="5.5458699725568295">
        <ele>279.13</ele>
        <time>2021-07-27T17:01:22.556Z</time>
      </trkpt>
      <trkpt lat="50.281979916617274" lon="5.545959994196892">
        <ele>279.0</ele>
        <time>2021-07-27T17:01:33.754Z</time>
      </trkpt>
      <trkpt lat="50.282129952684045" lon="5.54599997587502">
        <ele>278.92</ele>
        <time>2021-07-27T17:01:44.954Z</time>
      </trkpt>
      <trkpt lat="50.28233991935849" lon="5.546019924804568">
        <ele>278.83</ele>
        <time>2021-07-27T17:01:56.158Z</time>
      </trkpt>
      <trkpt lat="50.2825399953872" lon="5.546029983088374">
        <ele>278.79</ele>
        <time>2021-07-27T17:02:07.365Z</time>
      </trkpt>
      <trkpt lat="50.282854568213224" lon="5.546029983088374">
        <ele>278.76</ele>
        <time>2021-07-27T17:02:18.577Z</time>
      </trkpt>
      <trkpt lat="50.283169224858284" lon="5.546029983088374">
        <ele>278.79</ele>
        <time>2021-07-27T17:02:29.794Z</time>
      </trkpt>
      <trkpt lat="50.28323996812105" lon="5.546029983088374">
        <ele>278.8</ele>
        <time>2021-07-27T17:02:41.012Z</time>
      </trkpt>
      <trkpt lat="50.28355462476611" lon="5.5460278037935495">
        <ele>278.82</ele>
        <time>2021-07-27T17:02:52.235Z</time>
      </trkpt>
      <trkpt lat="50.28386928141117" lon="5.546025624498725">
        <ele>278.77</ele>
        <time>2021-07-27T17:03:03.463Z</time>
      </trkpt>
      <trkpt lat="50.28418393805623" lon="5.546023361384869">
        <ele>278.85</ele>
        <time>2021-07-27T17:03:14.696Z</time>
      </trkpt>
      <trkpt lat="50.28449851088226" lon="5.546021182090044">
        <ele>279.0</ele>
        <time>2021-07-27T17:03:25.934Z</time>
      </trkpt>
      <trkpt lat="50.28467997908592" lon="5.546019924804568">
        <ele>279.03</ele>
        <time>2021-07-27T17:03:37.175Z</time>
      </trkpt>
      <trkpt lat="50.28495993465185" lon="5.546019924804568">
        <ele>279.07</ele>
        <time>2021-07-27T17:03:48.421Z</time>
      </trkpt>
      <trkpt lat="50.28525992296636" lon="5.546139953657985">
        <ele>279.06</ele>
        <time>2021-07-27T17:03:59.672Z</time>
      </trkpt>
      <trkpt lat="50.285557229071856" lon="5.546300802379847">
        <ele>278.88</ele>
        <time>2021-07-27T17:04:10.928Z</time>
      </trkpt>
      <trkpt lat="50.28585453517735" lon="5.546461651101708">
        <ele>278.76</ele>
        <time>2021-07-27T17:04:22.189Z</time>
      </trkpt>
      <trkpt lat="50.285869957879186" lon="5.546469949185848">
        <ele>278.51</ele>
        <time>2021-07-27T17:04:33.450Z</time>
      </trkpt>
      <trkpt lat="50.28591999784112" lon="5.546479923650622">
        <ele>278.24</ele>
        <time>2021-07-27T17:04:44.712Z</time>
      </trkpt>
      <trkpt lat="50.286230966448784" lon="5.5465546902269125">
        <ele>278.03</ele>
        <time>2021-07-27T17:04:55.979Z</time>
      </trkpt>
      <trkpt lat="50.28654193505645" lon="5.546629456803203">
        <ele>277.55</ele>
        <time>2021-07-27T17:05:07.251Z</time>
      </trkpt>
      <trkpt lat="50.28685290366411" lon="5.546704223379493">
        <ele>277.01</ele>
        <time>2021-07-27T17:05:18.528Z</time>
      </trkpt>
      <trkpt lat="50.28695994056761" lon="5.546729955822229">
        <ele>276.54</ele>
        <time>2021-07-27T17:05:29.807Z</time>
      </trkpt>
      <trkpt lat="50.28727074153721" lon="5.546806734055281">
        <ele>275.98</ele>
        <time>2021-07-27T17:05:41.091Z</time>
      </trkpt>
      <trkpt lat="50.287581542506814" lon="5.5468834284693">
        <ele>275.29</ele>
        <time>2021-07-27T17:05:52.380Z</time>
      </trkpt>
      <trkpt lat="50.287892343476415" lon="5.546960206702352">
        <ele>274.54</ele>
        <time>2021-07-27T17:06:03.674Z</time>
      </trkpt>
      <trkpt lat="50.288203060626984" lon="5.547036901116371">
        <ele>273.93</ele>
        <time>2021-07-27T17:06:14.973Z</time>
      </trkpt>
      <trkpt lat="50.288513861596584" lon="5.5471136793494225">
        <ele>273.48</ele>
        <time>2021-07-27T17:06:26.277Z</time>
      </trkpt>
      <trkpt lat="50.28857999481261" lon="5.547129940241575">
        <ele>273.03</ele>
        <time>2021-07-27T17:06:37.582Z</time>
      </trkpt>
      <trkpt lat="50.288619976490736" lon="5.547139998525381">
        <ele>272.6</ele>
        <time>2021-07-27T17:06:48.888Z</time>
      </trkpt>
      <trkpt lat="50.2887599542737" lon="5.5471699219197035">
        <ele>272.2</ele>
        <time>2021-07-27T17:07:00.196Z</time>
      </trkpt>
      <trkpt lat="50.288919964805245" lon="5.5473099835217">
        <ele>271.78</ele>
        <time>2021-07-27T17:07:11.507Z</time>
      </trkpt>
      <trkpt lat="50.288919964805245" lon="5.547379972413182">
        <ele>271.46</ele>
        <time>2021-07-27T17:07:22.819Z</time>
      </trkpt>
      <trkpt lat="50.28892993927002" lon="5.5474399868398905">
        <ele>271.21</ele>
        <time>2021-07-27T17:07:34.131Z</time>
      </trkpt>
      <trkpt lat="50.28898995369673" lon="5.547539982944727">
        <ele>271.0</ele>
        <time>2021-07-27T17:07:45.445Z</time>
      </trkpt>
      <trkpt lat="50.2889999281615" lon="5.547999981790781">
        <ele>270.84</ele>
        <time>2021-07-27T17:07:56.763Z</time>
      </trkpt>
      <trkpt lat="50.28900998644531" lon="5.548139959573746">
        <ele>270.84</ele>
        <time>2021-07-27T17:08:08.083Z</time>
      </trkpt>
      <trkpt lat="50.288959946483374" lon="5.548409940674901">
        <ele>270.95</ele>
        <time>2021-07-27T17:08:19.406Z</time>
      </trkpt>
      <trkpt lat="50.288877971470356" lon="5.548884104937315">
        <ele>271.14</ele>
        <time>2021-07-27T17:08:30.734Z</time>
      </trkpt>
      <trkpt lat="50.28881996870041" lon="5.549219967797399">
        <ele>271.41</ele>
        <time>2021-07-27T17:08:42.065Z</time>
      </trkpt>
      <trkpt lat="50.28877998702228" lon="5.549499923363328">
        <ele>271.81</ele>
        <time>2021-07-27T17:08:53.399Z</time>
      </trkpt>
      <trkpt lat="50.28877998702228" lon="5.549679966643453">
        <ele>272.31</ele>
        <time>2021-07-27T17:09:04.735Z</time>
      </trkpt>
      <trkpt lat="50.288789961487055" lon="5.549809969961643">
        <ele>272.87</ele>
        <time>2021-07-27T17:09:16.072Z</time>
      </trkpt>
      <trkpt lat="50.28886992484331" lon="5.55001993663609">
        <ele>273.57</ele>
        <time>2021-07-27T17:09:27.412Z</time>
      </trkpt>
      <trkpt lat="50.28892993927002" lon="5.550109958276153">
        <ele>274.27</ele>
        <time>2021-07-27T17:09:38.753Z</time>
      </trkpt>
      <trkpt lat="50.28901996091008" lon="5.550179947167635">
        <ele>275.03</ele>
        <time>2021-07-27T17:09:50.096Z</time>
      </trkpt>
      <trkpt lat="50.28927996754646" lon="5.550269968807697">
        <ele>275.86</ele>
        <time>2021-07-27T17:10:01.443Z</time>
      </trkpt>
      <trkpt lat="50.289519941434264" lon="5.55033995769918">
        <ele>276.74</ele>
        <time>2021-07-27T17:10:12.794Z</time>
      </trkpt>
      <trkpt lat="50.28978992253542" lon="5.550439953804016">
        <ele>277.7</ele>
        <time>2021-07-27T17:10:24.150Z</time>
      </trkpt>
      <trkpt lat="50.29009049758315" lon="5.550585379824042">
        <ele>278.68</ele>
        <time>2021-07-27T17:10:35.511Z</time>
      </trkpt>
      <trkpt lat="50.290099969133735" lon="5.550589989870787">
        <ele>279.63</ele>
        <time>2021-07-27T17:10:46.872Z</time>
      </trkpt>
      <trkpt lat="50.29040314257145" lon="5.550721501931548">
        <ele>280.66</ele>
        <time>2021-07-27T17:10:58.238Z</time>
      </trkpt>
      <trkpt lat="50.29062995687127" lon="5.550819989293814">
        <ele>281.75</ele>
        <time>2021-07-27T17:11:09.608Z</time>
      </trkpt>
      <trkpt lat="50.290942434221506" lon="5.5508774891495705">
        <ele>282.93</ele>
        <time>2021-07-27T17:11:20.983Z</time>
      </trkpt>
      <trkpt lat="50.29100999236107" lon="5.550889978185296">
        <ele>284.04</ele>
        <time>2021-07-27T17:11:32.359Z</time>
      </trkpt>
      <trkpt lat="50.29126999899745" lon="5.55089995265007">
        <ele>285.27</ele>
        <time>2021-07-27T17:11:43.739Z</time>
      </trkpt>
      <trkpt lat="50.2914799656719" lon="5.550949992612004">
        <ele>286.39</ele>
        <time>2021-07-27T17:11:55.122Z</time>
      </trkpt>
      <trkpt lat="50.29158993624151" lon="5.551019981503487">
        <ele>287.49</ele>
        <time>2021-07-27T17:12:06.507Z</time>
      </trkpt>
      <trkpt lat="50.291729997843504" lon="5.5511699337512255">
        <ele>288.61</ele>
        <time>2021-07-27T17:12:17.895Z</time>
      </trkpt>
      <trkpt lat="50.29176436364651" lon="5.551238749176264">
        <ele>289.75</ele>
        <time>2021-07-27T17:12:29.284Z</time>
      </trkpt>
      <trkpt lat="50.29178992845118" lon="5.551289962604642">
        <ele>290.89</ele>
        <time>2021-07-27T17:12:40.673Z</time>
      </trkpt>
      <trkpt lat="50.291790096089244" lon="5.551290297880769">
        <ele>292.03</ele>
        <time>2021-07-27T17:12:52.062Z</time>
      </trkpt>
      <trkpt lat="50.29184994287789" lon="5.551429940387607">
        <ele>293.2</ele>
        <time>2021-07-27T17:13:03.453Z</time>
      </trkpt>
      <trkpt lat="50.29192999005318" lon="5.551729928702116">
        <ele>294.38</ele>
        <time>2021-07-27T17:13:14.847Z</time>
      </trkpt>
      <trkpt lat="50.29192999005318" lon="5.552009968087077">
        <ele>295.56</ele>
        <time>2021-07-27T17:13:26.244Z</time>
      </trkpt>
      <trkpt lat="50.29186368919909" lon="5.552490083500743">
        <ele>296.8</ele>
        <time>2021-07-27T17:13:37.646Z</time>
      </trkpt>
      <trkpt lat="50.29184994287789" lon="5.552589995786548">
        <ele>298.02</ele>
        <time>2021-07-27T17:13:49.049Z</time>
      </trkpt>
      <trkpt lat="50.291819935664535" lon="5.552799962460995">
        <ele>299.28</ele>
        <time>2021-07-27T17:14:00.455Z</time>
      </trkpt>
      <trkpt lat="50.291757406666875" lon="5.553281335160136">
        <ele>300.56</ele>
        <time>2021-07-27T17:14:11.866Z</time>
      </trkpt>
      <trkpt lat="50.29169479385018" lon="5.553762624040246">
        <ele>301.86</ele>
        <time>2021-07-27T17:14:23.282Z</time>
      </trkpt>
      <trkpt lat="50.291689932346344" lon="5.553799923509359">
        <ele>303.1</ele>
        <time>2021-07-27T17:14:34.698Z</time>
      </trkpt>
      <trkpt lat="50.291669983416796" lon="5.554199991747737">
        <ele>304.36</ele>
        <time>2021-07-27T17:14:46.118Z</time>
      </trkpt>
      <trkpt lat="50.29169999063015" lon="5.554479947313666">
        <ele>305.63</ele>
        <time>2021-07-27T17:14:57.541Z</time>
      </trkpt>
      <trkpt lat="50.29184516519308" lon="5.554915638640523">
        <ele>306.94</ele>
        <time>2021-07-27T17:15:08.969Z</time>
      </trkpt>
      <trkpt lat="50.29184994287789" lon="5.554929971694946">
        <ele>308.2</ele>
        <time>2021-07-27T17:15:20.397Z</time>
      </trkpt>
      <trkpt lat="50.291868885979056" lon="5.554956458508968">
        <ele>309.46</ele>
        <time>2021-07-27T17:15:31.826Z</time>
      </trkpt>
      <trkpt lat="50.29189998283982" lon="5.554999960586429">
        <ele>310.74</ele>
        <time>2021-07-27T17:15:43.255Z</time>
      </trkpt>
      <trkpt lat="50.291900066658854" lon="5.555000128224492">
        <ele>312.01</ele>
        <time>2021-07-27T17:15:54.684Z</time>
      </trkpt>
      <trkpt lat="50.29212998226285" lon="5.55525996722281">
        <ele>313.37</ele>
        <time>2021-07-27T17:16:06.118Z</time>
      </trkpt>
      <trkpt lat="50.29241530224681" lon="5.555467000231147">
        <ele>314.69</ele>
        <time>2021-07-27T17:16:17.557Z</time>
      </trkpt>
      <trkpt lat="50.292639937251806" lon="5.5556299444288015">
        <ele>316.02</ele>
        <time>2021-07-27T17:16:29.000Z</time>
      </trkpt>
      <trkpt lat="50.29292391613126" lon="5.555841503664851">
        <ele>317.34</ele>
        <time>2021-07-27T17:16:40.448Z</time>
      </trkpt>
      <trkpt lat="50.29320789501071" lon="5.556053146719933">
        <ele>318.73</ele>
        <time>2021-07-27T17:16:51.901Z</time>
      </trkpt>
      <trkpt lat="50.29349187389016" lon="5.556264705955982">
        <ele>320.05</ele>
        <time>2021-07-27T17:17:03.359Z</time>
      </trkpt>
      <trkpt lat="50.29365993104875" lon="5.556389931589365">
        <ele>321.28</ele>
        <time>2021-07-27T17:17:14.820Z</time>
      </trkpt>
      <trkpt lat="50.293915662914515" lon="5.556676173582673">
        <ele>322.6</ele>
        <time>2021-07-27T17:17:26.286Z</time>
      </trkpt>
      <trkpt lat="50.29417139478028" lon="5.556962415575981">
        <ele>323.87</ele>
        <time>2021-07-27T17:17:37.757Z</time>
      </trkpt>
      <trkpt lat="50.294329980388284" lon="5.557139944285154">
        <ele>325.01</ele>
        <time>2021-07-27T17:17:49.231Z</time>
      </trkpt>
      <trkpt lat="50.29444992542267" lon="5.557329962030053">
        <ele>326.12</ele>
        <time>2021-07-27T17:18:00.708Z</time>
      </trkpt>
      <trkpt lat="50.2944999653846" lon="5.557479998096824">
        <ele>327.19</ele>
        <time>2021-07-27T17:18:12.187Z</time>
      </trkpt>
      <trkpt lat="50.2944999653846" lon="5.557619975879788">
        <ele>328.19</ele>
        <time>2021-07-27T17:18:23.667Z</time>
      </trkpt>
      <trkpt lat="50.294459983706474" lon="5.55783991701901">
        <ele>329.15</ele>
        <time>2021-07-27T17:18:35.150Z</time>
      </trkpt>
      <trkpt lat="50.29438999481499" lon="5.5579699203372">
        <ele>330.06</ele>
        <time>2021-07-27T17:18:46.634Z</time>
      </trkpt>
      <trkpt lat="50.29431992210448" lon="5.558029934763908">
        <ele>330.89</ele>
        <time>2021-07-27T17:18:58.120Z</time>
      </trkpt>
      <trkpt lat="50.29423995874822" lon="5.5580599419772625">
        <ele>331.62</ele>
        <time>2021-07-27T17:19:09.607Z</time>
      </trkpt>
      <trkpt lat="50.294029992073774" lon="5.558069916442037">
        <ele>332.3</ele>
        <time>2021-07-27T17:19:21.097Z</time>
      </trkpt>
      <trkpt lat="50.29390174895525" lon="5.558062372729182">
        <ele>332.91</ele>
        <time>2021-07-27T17:19:32.589Z</time>
      </trkpt>
      <trkpt lat="50.293859923258424" lon="5.5580599419772625">
        <ele>333.44</ele>
        <time>2021-07-27T17:19:44.082Z</time>
      </trkpt>
      <trkpt lat="50.293859923258424" lon="5.558059690520167">
        <ele>333.88</ele>
        <time>2021-07-27T17:19:55.575Z</time>
      </trkpt>
      <trkpt lat="50.293859923258424" lon="5.558049967512488">
        <ele>334.25</ele>
        <time>2021-07-27T17:20:07.068Z</time>
      </trkpt>
      <trkpt lat="50.29354560188949" lon="5.558028174564242">
        <ele>334.65</ele>
        <time>2021-07-27T17:20:18.566Z</time>
      </trkpt>
      <trkpt lat="50.29323128052056" lon="5.558006381615996">
        <ele>334.95</ele>
        <time>2021-07-27T17:20:30.069Z</time>
      </trkpt>
      <trkpt lat="50.292916959151626" lon="5.55798458866775">
        <ele>335.1</ele>
        <time>2021-07-27T17:20:41.577Z</time>
      </trkpt>
      <trkpt lat="50.292849987745285" lon="5.557979978621006">
        <ele>335.17</ele>
        <time>2021-07-27T17:20:53.086Z</time>
      </trkpt>
      <trkpt lat="50.29272995889187" lon="5.55800998583436">
        <ele>335.15</ele>
        <time>2021-07-27T17:21:04.597Z</time>
      </trkpt>
      <trkpt lat="50.29251999221742" lon="5.558129930868745">
        <ele>335.07</ele>
        <time>2021-07-27T17:21:16.112Z</time>
      </trkpt>
      <trkpt lat="50.292399963364005" lon="5.558219952508807">
        <ele>334.88</ele>
        <time>2021-07-27T17:21:27.629Z</time>
      </trkpt>
      <trkpt lat="50.292269960045815" lon="5.558359930291772">
        <ele>334.59</ele>
        <time>2021-07-27T17:21:39.148Z</time>
      </trkpt>
      <trkpt lat="50.29204540885985" lon="5.558575764298439">
        <ele>334.23</ele>
        <time>2021-07-27T17:21:50.672Z</time>
      </trkpt>
      <trkpt lat="50.292051611468196" lon="5.558600323274732">
        <ele>333.86</ele>
        <time>2021-07-27T17:22:02.196Z</time>
      </trkpt>
      <trkpt lat="50.291826808825135" lon="5.558738708496094">
        <ele>333.39</ele>
        <time>2021-07-27T17:22:13.724Z</time>
      </trkpt>
      <trkpt lat="50.29155632480979" lon="5.558781623840332">
        <ele>332.87</ele>
        <time>2021-07-27T17:22:25.256Z</time>
      </trkpt>
      <trkpt lat="50.291285924613476" lon="5.55882453918457">
        <ele>332.3</ele>
        <time>2021-07-27T17:22:36.793Z</time>
      </trkpt>
      <trkpt lat="50.29101552441716" lon="5.558867454528809">
        <ele>331.66</ele>
        <time>2021-07-27T17:22:48.334Z</time>
      </trkpt>
      <trkpt lat="50.29074512422085" lon="5.558910369873047">
        <ele>331.01</ele>
        <time>2021-07-27T17:22:59.879Z</time>
      </trkpt>
      <trkpt lat="50.2904748916626" lon="5.558953285217285">
        <ele>330.27</ele>
        <time>2021-07-27T17:23:11.429Z</time>
      </trkpt>
      <trkpt lat="50.2902174834162" lon="5.559060573577881">
        <ele>329.49</ele>
        <time>2021-07-27T17:23:22.983Z</time>
      </trkpt>
      <trkpt lat="50.28998136520386" lon="5.5593180656433105">
        <ele>328.69</ele>
        <time>2021-07-27T17:23:34.541Z</time>
      </trkpt>
      <trkpt lat="50.28985261917114" lon="5.559597015380859">
        <ele>327.91</ele>
        <time>2021-07-27T17:23:46.103Z</time>
      </trkpt>
      <trkpt lat="50.289788246154785" lon="5.5599188804626465">
        <ele>327.06</ele>
        <time>2021-07-27T17:23:57.668Z</time>
      </trkpt>
      <trkpt lat="50.28974516317248" lon="5.56040083989501">
        <ele>326.19</ele>
        <time>2021-07-27T17:24:09.238Z</time>
      </trkpt>
      <trkpt lat="50.28970216400921" lon="5.5608827993273735">
        <ele>325.36</ele>
        <time>2021-07-27T17:24:20.813Z</time>
      </trkpt>
      <trkpt lat="50.28965916484594" lon="5.561364758759737">
        <ele>324.44</ele>
        <time>2021-07-27T17:24:32.393Z</time>
      </trkpt>
      <trkpt lat="50.28961616568267" lon="5.561846802011132">
        <ele>323.43</ele>
        <time>2021-07-27T17:24:43.978Z</time>
      </trkpt>
      <trkpt lat="50.289573753252625" lon="5.56232213973999">
        <ele>322.51</ele>
        <time>2021-07-27T17:24:55.568Z</time>
      </trkpt>
      <trkpt lat="50.28955212794244" lon="5.562666384503245">
        <ele>321.64</ele>
        <time>2021-07-27T17:25:07.162Z</time>
      </trkpt>
      <trkpt lat="50.28953058645129" lon="5.5630106292665005">
        <ele>320.79</ele>
        <time>2021-07-27T17:25:18.759Z</time>
      </trkpt>
      <trkpt lat="50.289509296417236" lon="5.563352108001709">
        <ele>319.93</ele>
        <time>2021-07-27T17:25:30.360Z</time>
      </trkpt>
      <trkpt lat="50.289530754089355" lon="5.563610270619392">
        <ele>319.08</ele>
        <time>2021-07-27T17:25:41.964Z</time>
      </trkpt>
      <trkpt lat="50.289552211761475" lon="5.563867092132568">
        <ele>318.22</ele>
        <time>2021-07-27T17:25:53.570Z</time>
      </trkpt>
      <trkpt lat="50.28962530195713" lon="5.5643317848443985">
        <ele>317.35</ele>
        <time>2021-07-27T17:26:05.181Z</time>
      </trkpt>
      <trkpt lat="50.28969847597182" lon="5.564796477556229">
        <ele>316.49</ele>
        <time>2021-07-27T17:26:16.797Z</time>
      </trkpt>
      <trkpt lat="50.289771649986506" lon="5.565261170268059">
        <ele>315.6</ele>
        <time>2021-07-27T17:26:28.418Z</time>
      </trkpt>
      <trkpt lat="50.28984482400119" lon="5.565725946798921">
        <ele>314.69</ele>
        <time>2021-07-27T17:26:40.044Z</time>
      </trkpt>
      <trkpt lat="50.28991707600653" lon="5.5661845207214355">
        <ele>313.89</ele>
        <time>2021-07-27T17:26:51.675Z</time>
      </trkpt>
      <trkpt lat="50.28993844985962" lon="5.566356182098389">
        <ele>313.1</ele>
        <time>2021-07-27T17:27:03.308Z</time>
      </trkpt>
      <trkpt lat="50.28993853367865" lon="5.566356182098389">
        <ele>312.3</ele>
        <time>2021-07-27T17:27:14.941Z</time>
      </trkpt>
      <trkpt lat="50.29000609181821" lon="5.56678332388401">
        <ele>311.55</ele>
        <time>2021-07-27T17:27:26.578Z</time>
      </trkpt>
      <trkpt lat="50.29007373377681" lon="5.567210549488664">
        <ele>310.75</ele>
        <time>2021-07-27T17:27:38.220Z</time>
      </trkpt>
      <trkpt lat="50.29014129191637" lon="5.567637775093317">
        <ele>309.97</ele>
        <time>2021-07-27T17:27:49.866Z</time>
      </trkpt>
      <trkpt lat="50.290208933874965" lon="5.56806500069797">
        <ele>309.17</ele>
        <time>2021-07-27T17:28:01.517Z</time>
      </trkpt>
      <trkpt lat="50.29027657583356" lon="5.568492226302624">
        <ele>308.44</ele>
        <time>2021-07-27T17:28:13.172Z</time>
      </trkpt>
      <trkpt lat="50.29034413397312" lon="5.568919451907277">
        <ele>307.69</ele>
        <time>2021-07-27T17:28:24.832Z</time>
      </trkpt>
      <trkpt lat="50.29041051864624" lon="5.569338798522949">
        <ele>306.93</ele>
        <time>2021-07-27T17:28:36.496Z</time>
      </trkpt>
      <trkpt lat="50.29043197631836" lon="5.569789409637451">
        <ele>306.23</ele>
        <time>2021-07-27T17:28:48.165Z</time>
      </trkpt>
      <trkpt lat="50.29041051864624" lon="5.570068359375">
        <ele>305.61</ele>
        <time>2021-07-27T17:28:59.837Z</time>
      </trkpt>
      <trkpt lat="50.29034597799182" lon="5.570337167009711">
        <ele>305.02</ele>
        <time>2021-07-27T17:29:11.512Z</time>
      </trkpt>
      <trkpt lat="50.290281772613525" lon="5.5706048011779785">
        <ele>304.47</ele>
        <time>2021-07-27T17:29:23.190Z</time>
      </trkpt>
      <trkpt lat="50.29013156890869" lon="5.570948123931885">
        <ele>303.9</ele>
        <time>2021-07-27T17:29:34.872Z</time>
      </trkpt>
      <trkpt lat="50.28993811458349" lon="5.571313491091132">
        <ele>303.41</ele>
        <time>2021-07-27T17:29:46.559Z</time>
      </trkpt>
      <trkpt lat="50.28974466025829" lon="5.57167885825038">
        <ele>302.96</ele>
        <time>2021-07-27T17:29:58.251Z</time>
      </trkpt>
      <trkpt lat="50.289551205933094" lon="5.572044309228659">
        <ele>302.6</ele>
        <time>2021-07-27T17:30:09.947Z</time>
      </trkpt>
      <trkpt lat="50.289359176531434" lon="5.572407245635986">
        <ele>302.34</ele>
        <time>2021-07-27T17:30:21.648Z</time>
      </trkpt>
      <trkpt lat="50.28918709605932" lon="5.572772696614265">
        <ele>302.09</ele>
        <time>2021-07-27T17:30:33.354Z</time>
      </trkpt>
      <trkpt lat="50.289015769958496" lon="5.573136806488037">
        <ele>301.86</ele>
        <time>2021-07-27T17:30:45.065Z</time>
      </trkpt>
      <trkpt lat="50.288929687812924" lon="5.573437884449959">
        <ele>301.75</ele>
        <time>2021-07-27T17:30:56.779Z</time>
      </trkpt>
      <trkpt lat="50.28884410858154" lon="5.573737621307373">
        <ele>301.72</ele>
        <time>2021-07-27T17:31:08.496Z</time>
      </trkpt>
      <trkpt lat="50.28882256709039" lon="5.574124865233898">
        <ele>301.72</ele>
        <time>2021-07-27T17:31:20.217Z</time>
      </trkpt>
      <trkpt lat="50.288801193237305" lon="5.574510097503662">
        <ele>301.75</ele>
        <time>2021-07-27T17:31:31.942Z</time>
      </trkpt>
      <trkpt lat="50.288801193237305" lon="5.574929695576429">
        <ele>301.87</ele>
        <time>2021-07-27T17:31:43.672Z</time>
      </trkpt>
      <trkpt lat="50.288801193237305" lon="5.575346946716309">
        <ele>302.09</ele>
        <time>2021-07-27T17:31:55.406Z</time>
      </trkpt>
      <trkpt lat="50.288818376138806" lon="5.575798815116286">
        <ele>302.39</ele>
        <time>2021-07-27T17:32:07.144Z</time>
      </trkpt>
      <trkpt lat="50.28883555904031" lon="5.576250683516264">
        <ele>302.81</ele>
        <time>2021-07-27T17:32:18.887Z</time>
      </trkpt>
      <trkpt lat="50.28885282576084" lon="5.576702551916242">
        <ele>303.24</ele>
        <time>2021-07-27T17:32:30.635Z</time>
      </trkpt>
      <trkpt lat="50.28887000866234" lon="5.577154420316219">
        <ele>303.53</ele>
        <time>2021-07-27T17:32:42.387Z</time>
      </trkpt>
      <trkpt lat="50.28888702392578" lon="5.577600002288818">
        <ele>303.84</ele>
        <time>2021-07-27T17:32:54.144Z</time>
      </trkpt>
      <trkpt lat="50.28889004141092" lon="5.578054888173938">
        <ele>304.2</ele>
        <time>2021-07-27T17:33:05.906Z</time>
      </trkpt>
      <trkpt lat="50.2888931427151" lon="5.578509857878089">
        <ele>304.59</ele>
        <time>2021-07-27T17:33:17.672Z</time>
      </trkpt>
      <trkpt lat="50.28889624401927" lon="5.57896482758224">
        <ele>304.96</ele>
        <time>2021-07-27T17:33:29.443Z</time>
      </trkpt>
      <trkpt lat="50.28889926150441" lon="5.579419797286391">
        <ele>305.32</ele>
        <time>2021-07-27T17:33:41.219Z</time>
      </trkpt>
      <trkpt lat="50.288902362808585" lon="5.579874766990542">
        <ele>305.66</ele>
        <time>2021-07-27T17:33:52.999Z</time>
      </trkpt>
      <trkpt lat="50.28890546411276" lon="5.580329736694694">
        <ele>306.01</ele>
        <time>2021-07-27T17:34:04.784Z</time>
      </trkpt>
      <trkpt lat="50.2889084815979" lon="5.580775737762451">
        <ele>306.37</ele>
        <time>2021-07-27T17:34:16.574Z</time>
      </trkpt>
      <trkpt lat="50.28894075192511" lon="5.581184523180127">
        <ele>306.68</ele>
        <time>2021-07-27T17:34:28.368Z</time>
      </trkpt>
      <trkpt lat="50.28897285461426" lon="5.5815911293029785">
        <ele>306.92</ele>
        <time>2021-07-27T17:34:40.166Z</time>
      </trkpt>
      <trkpt lat="50.28908014297485" lon="5.5820417404174805">
        <ele>307.11</ele>
        <time>2021-07-27T17:34:51.969Z</time>
      </trkpt>
      <trkpt lat="50.28920914046466" lon="5.582407275214791">
        <ele>307.31</ele>
        <time>2021-07-27T17:35:03.776Z</time>
      </trkpt>
      <trkpt lat="50.28933813795447" lon="5.582772810012102">
        <ele>307.41</ele>
        <time>2021-07-27T17:35:15.587Z</time>
      </trkpt>
      <trkpt lat="50.289467219263315" lon="5.583138428628445">
        <ele>307.43</ele>
        <time>2021-07-27T17:35:27.403Z</time>
      </trkpt>
      <trkpt lat="50.289596216753125" lon="5.5835039634257555">
        <ele>307.48</ele>
        <time>2021-07-27T17:35:39.223Z</time>
      </trkpt>
      <trkpt lat="50.28972387313843" lon="5.583865642547607">
        <ele>304.45</ele>
        <time>2021-07-27T17:35:51.047Z</time>
      </trkpt>
      <trkpt lat="50.289869382977486" lon="5.584282474592328">
        <ele>307.52</ele>
        <time>2021-07-27T17:36:02.876Z</time>
      </trkpt>
      <trkpt lat="50.290014976635575" lon="5.584699306637049">
        <ele>307.55</ele>
        <time>2021-07-27T17:36:14.710Z</time>
      </trkpt>
      <trkpt lat="50.290160570293665" lon="5.585116138681769">
        <ele>307.55</ele>
        <time>2021-07-27T17:36:26.549Z</time>
      </trkpt>
      <trkpt lat="50.290306163951755" lon="5.58553297072649">
        <ele>307.43</ele>
        <time>2021-07-27T17:36:38.393Z</time>
      </trkpt>
      <trkpt lat="50.290451757609844" lon="5.585949802771211">
        <ele>307.26</ele>
        <time>2021-07-27T17:36:50.242Z</time>
      </trkpt>
      <trkpt lat="50.2905972674489" lon="5.586366634815931">
        <ele>307.14</ele>
        <time>2021-07-27T17:37:02.096Z</time>
      </trkpt>
      <trkpt lat="50.29074286110699" lon="5.586783466860652">
        <ele>307.04</ele>
        <time>2021-07-27T17:37:13.954Z</time>
      </trkpt>
      <trkpt lat="50.29088845476508" lon="5.587200382724404">
        <ele>306.91</ele>
        <time>2021-07-27T17:37:25.817Z</time>
      </trkpt>
      <trkpt lat="50.29103404842317" lon="5.587617214769125">
        <ele>306.77</ele>
        <time>2021-07-27T17:37:37.685Z</time>
      </trkpt>
      <trkpt lat="50.29117964208126" lon="5.588034046813846">
        <ele>306.63</ele>
        <time>2021-07-27T17:37:49.558Z</time>
      </trkpt>
      <trkpt lat="50.29132515192032" lon="5.588450878858566">
        <ele>306.52</ele>
        <time>2021-07-27T17:38:01.436Z</time>
      </trkpt>
      <trkpt lat="50.29147074557841" lon="5.588867794722319">
        <ele>306.35</ele>
        <time>2021-07-27T17:38:13.319Z</time>
      </trkpt>
      <trkpt lat="50.29161214828491" lon="5.589272975921631">
        <ele>306.23</ele>
        <time>2021-07-27T17:38:25.206Z</time>
      </trkpt>
      <trkpt lat="50.29165506362915" lon="5.589358806610107">
        <ele>306.16</ele>
        <time>2021-07-27T17:38:37.095Z</time>
      </trkpt>
      <trkpt lat="50.29174106195569" lon="5.589616801589727">
        <ele>306.13</ele>
        <time>2021-07-27T17:38:48.987Z</time>
      </trkpt>
      <trkpt lat="50.2918267250061" lon="5.589873790740967">
        <ele>306.13</ele>
        <time>2021-07-27T17:39:00.882Z</time>
      </trkpt>
      <trkpt lat="50.29195572249591" lon="5.590239325538278">
        <ele>306.21</ele>
        <time>2021-07-27T17:39:12.781Z</time>
      </trkpt>
      <trkpt lat="50.29208471998572" lon="5.5906048603355885">
        <ele>306.37</ele>
        <time>2021-07-27T17:39:24.684Z</time>
      </trkpt>
      <trkpt lat="50.292213801294565" lon="5.590970478951931">
        <ele>306.6</ele>
        <time>2021-07-27T17:39:36.591Z</time>
      </trkpt>
      <trkpt lat="50.29234170913696" lon="5.591332912445068">
        <ele>306.83</ele>
        <time>2021-07-27T17:39:48.503Z</time>
      </trkpt>
      <trkpt lat="50.292442040517926" lon="5.5916267819702625">
        <ele>307.07</ele>
        <time>2021-07-27T17:40:00.418Z</time>
      </trkpt>
      <trkpt lat="50.29254245571792" lon="5.591920651495457">
        <ele>307.4</ele>
        <time>2021-07-27T17:40:12.336Z</time>
      </trkpt>
      <trkpt lat="50.29264220036566" lon="5.592212677001953">
        <ele>307.83</ele>
        <time>2021-07-27T17:40:24.258Z</time>
      </trkpt>
      <trkpt lat="50.29272794723511" lon="5.592405796051025">
        <ele>308.27</ele>
        <time>2021-07-27T17:40:36.182Z</time>
      </trkpt>
      <trkpt lat="50.29286834411323" lon="5.592817682772875">
        <ele>308.76</ele>
        <time>2021-07-27T17:40:48.111Z</time>
      </trkpt>
      <trkpt lat="50.29286834411323" lon="5.592817598953843">
        <ele>309.31</ele>
        <time>2021-07-27T17:41:00.040Z</time>
      </trkpt>
      <trkpt lat="50.29295928776264" lon="5.5930843111127615">
        <ele>309.95</ele>
        <time>2021-07-27T17:41:11.972Z</time>
      </trkpt>
      <trkpt lat="50.293049896135926" lon="5.593349933624268">
        <ele>310.63</ele>
        <time>2021-07-27T17:41:23.907Z</time>
      </trkpt>
      <trkpt lat="50.29309272766113" lon="5.593478679656982">
        <ele>311.39</ele>
        <time>2021-07-27T17:41:35.844Z</time>
      </trkpt>
      <trkpt lat="50.29324318282306" lon="5.593887213617563">
        <ele>312.23</ele>
        <time>2021-07-27T17:41:47.786Z</time>
      </trkpt>
      <trkpt lat="50.2933931350708" lon="5.59429407119751">
        <ele>313.17</ele>
        <time>2021-07-27T17:41:59.732Z</time>
      </trkpt>
      <trkpt lat="50.29339321888983" lon="5.59429407119751">
        <ele>314.14</ele>
        <time>2021-07-27T17:42:11.678Z</time>
      </trkpt>
      <trkpt lat="50.29352649115026" lon="5.594685422256589">
        <ele>315.19</ele>
        <time>2021-07-27T17:42:23.629Z</time>
      </trkpt>
      <trkpt lat="50.29365984722972" lon="5.595076773315668">
        <ele>316.35</ele>
        <time>2021-07-27T17:42:35.585Z</time>
      </trkpt>
      <trkpt lat="50.29379311949015" lon="5.595468208193779">
        <ele>317.56</ele>
        <time>2021-07-27T17:42:47.545Z</time>
      </trkpt>
      <trkpt lat="50.293926475569606" lon="5.595859559252858">
        <ele>318.94</ele>
        <time>2021-07-27T17:42:59.510Z</time>
      </trkpt>
      <trkpt lat="50.294058322906494" lon="5.596246719360352">
        <ele>320.38</ele>
        <time>2021-07-27T17:43:11.479Z</time>
      </trkpt>
      <trkpt lat="50.294187320396304" lon="5.596605045720935">
        <ele>321.84</ele>
        <time>2021-07-27T17:43:23.452Z</time>
      </trkpt>
      <trkpt lat="50.294316317886114" lon="5.59696345590055">
        <ele>323.36</ele>
        <time>2021-07-27T17:43:35.430Z</time>
      </trkpt>
      <trkpt lat="50.29444456100464" lon="5.597319602966309">
        <ele>324.97</ele>
        <time>2021-07-27T17:43:47.412Z</time>
      </trkpt>
      <trkpt lat="50.29448747634888" lon="5.597405433654785">
        <ele>326.59</ele>
        <time>2021-07-27T17:43:59.395Z</time>
      </trkpt>
      <trkpt lat="50.29461647383869" lon="5.597792509943247">
        <ele>328.34</ele>
        <time>2021-07-27T17:44:11.382Z</time>
      </trkpt>
      <trkpt lat="50.2947454713285" lon="5.5981795862317085">
        <ele>330.09</ele>
        <time>2021-07-27T17:44:23.374Z</time>
      </trkpt>
      <trkpt lat="50.29487371444702" lon="5.598564147949219">
        <ele>332.03</ele>
        <time>2021-07-27T17:44:35.370Z</time>
      </trkpt>
      <trkpt lat="50.29487379826605" lon="5.598564147949219">
        <ele>333.69</ele>
        <time>2021-07-27T17:44:47.366Z</time>
      </trkpt>
      <trkpt lat="50.2949595451355" lon="5.598971843719482">
        <ele>335.53</ele>
        <time>2021-07-27T17:44:59.367Z</time>
      </trkpt>
      <trkpt lat="50.29499181546271" lon="5.599230006337166">
        <ele>337.19</ele>
        <time>2021-07-27T17:45:11.370Z</time>
      </trkpt>
      <trkpt lat="50.295023918151855" lon="5.599486827850342">
        <ele>338.86</ele>
        <time>2021-07-27T17:45:23.376Z</time>
      </trkpt>
      <trkpt lat="50.295045375823975" lon="5.5999386962503195">
        <ele>340.51</ele>
        <time>2021-07-27T17:45:35.387Z</time>
      </trkpt>
      <trkpt lat="50.295066833496094" lon="5.600388050079346">
        <ele>342.24</ele>
        <time>2021-07-27T17:45:47.402Z</time>
      </trkpt>
      <trkpt lat="50.295056020841" lon="5.60066775418818">
        <ele>343.97</ele>
        <time>2021-07-27T17:45:59.420Z</time>
      </trkpt>
      <trkpt lat="50.295045375823975" lon="5.600945949554443">
        <ele>345.72</ele>
        <time>2021-07-27T17:46:11.441Z</time>
      </trkpt>
      <trkpt lat="50.29499156400561" lon="5.601354734972119">
        <ele>347.39</ele>
        <time>2021-07-27T17:46:23.466Z</time>
      </trkpt>
      <trkpt lat="50.29493808746338" lon="5.601761341094971">
        <ele>349.12</ele>
        <time>2021-07-27T17:46:35.496Z</time>
      </trkpt>
      <trkpt lat="50.29491654597223" lon="5.602094857022166">
        <ele>350.9</ele>
        <time>2021-07-27T17:46:47.529Z</time>
      </trkpt>
      <trkpt lat="50.29489517211914" lon="5.602426528930664">
        <ele>352.68</ele>
        <time>2021-07-27T17:46:59.565Z</time>
      </trkpt>
      <trkpt lat="50.29489525593817" lon="5.602426528930664">
        <ele>354.34</ele>
        <time>2021-07-27T17:47:11.601Z</time>
      </trkpt>
      <trkpt lat="50.29488083906472" lon="5.602864064276218">
        <ele>356.14</ele>
        <time>2021-07-27T17:47:23.642Z</time>
      </trkpt>
      <trkpt lat="50.294866506010294" lon="5.603301599621773">
        <ele>357.78</ele>
        <time>2021-07-27T17:47:35.687Z</time>
      </trkpt>
      <trkpt lat="50.2948522567749" lon="5.603735446929932">
        <ele>359.44</ele>
        <time>2021-07-27T17:47:47.737Z</time>
      </trkpt>
      <trkpt lat="50.29487371444702" lon="5.604111962020397">
        <ele>361.08</ele>
        <time>2021-07-27T17:47:59.791Z</time>
      </trkpt>
      <trkpt lat="50.29489517211914" lon="5.604486465454102">
        <ele>362.72</ele>
        <time>2021-07-27T17:48:11.849Z</time>
      </trkpt>
      <trkpt lat="50.29493817128241" lon="5.604798439890146">
        <ele>364.41</ele>
        <time>2021-07-27T17:48:23.910Z</time>
      </trkpt>
      <trkpt lat="50.29498100280762" lon="5.605108737945557">
        <ele>365.99</ele>
        <time>2021-07-27T17:48:35.974Z</time>
      </trkpt>
      <trkpt lat="50.29511000029743" lon="5.605465639382601">
        <ele>367.63</ele>
        <time>2021-07-27T17:48:48.042Z</time>
      </trkpt>
      <trkpt lat="50.29523899778724" lon="5.605822624638677">
        <ele>369.26</ele>
        <time>2021-07-27T17:49:00.115Z</time>
      </trkpt>
      <trkpt lat="50.29536807909608" lon="5.6061796098947525">
        <ele>370.95</ele>
        <time>2021-07-27T17:49:12.192Z</time>
      </trkpt>
      <trkpt lat="50.29549707658589" lon="5.606536511331797">
        <ele>372.57</ele>
        <time>2021-07-27T17:49:24.273Z</time>
      </trkpt>
      <trkpt lat="50.29562473297119" lon="5.606889724731445">
        <ele>374.06</ele>
        <time>2021-07-27T17:49:36.358Z</time>
      </trkpt>
      <trkpt lat="50.29577518813312" lon="5.607222905382514">
        <ele>375.56</ele>
        <time>2021-07-27T17:49:48.447Z</time>
      </trkpt>
      <trkpt lat="50.29592514038086" lon="5.607554912567139">
        <ele>377.11</ele>
        <time>2021-07-27T17:50:00.541Z</time>
      </trkpt>
      <trkpt lat="50.29607534408569" lon="5.607962608337402">
        <ele>378.66</ele>
        <time>2021-07-27T17:50:12.639Z</time>
      </trkpt>
      <trkpt lat="50.29611825942993" lon="5.608370304107666">
        <ele>380.04</ele>
        <time>2021-07-27T17:50:24.742Z</time>
      </trkpt>
      <trkpt lat="50.29612898826599" lon="5.608703820034862">
        <ele>381.36</ele>
        <time>2021-07-27T17:50:36.848Z</time>
      </trkpt>
      <trkpt lat="50.29613971710205" lon="5.609035491943359">
        <ele>382.64</ele>
        <time>2021-07-27T17:50:48.957Z</time>
      </trkpt>
      <trkpt lat="50.29616117477417" lon="5.609292984008789">
        <ele>383.87</ele>
        <time>2021-07-27T17:51:01.069Z</time>
      </trkpt>
      <trkpt lat="50.2961612585932" lon="5.609292984008789">
        <ele>385.07</ele>
        <time>2021-07-27T17:51:13.181Z</time>
      </trkpt>
      <trkpt lat="50.29624725691974" lon="5.6096801441162825">
        <ele>386.33</ele>
        <time>2021-07-27T17:51:25.297Z</time>
      </trkpt>
      <trkpt lat="50.29633283615112" lon="5.610065460205078">
        <ele>387.49</ele>
        <time>2021-07-27T17:51:37.417Z</time>
      </trkpt>
      <trkpt lat="50.29645110480487" lon="5.610425630584359">
        <ele>388.66</ele>
        <time>2021-07-27T17:51:49.542Z</time>
      </trkpt>
      <trkpt lat="50.296569373458624" lon="5.610785884782672">
        <ele>389.78</ele>
        <time>2021-07-27T17:52:01.671Z</time>
      </trkpt>
      <trkpt lat="50.296687642112374" lon="5.611146055161953">
        <ele>390.93</ele>
        <time>2021-07-27T17:52:13.804Z</time>
      </trkpt>
      <trkpt lat="50.296804904937744" lon="5.6115031242370605">
        <ele>392.23</ele>
        <time>2021-07-27T17:52:25.941Z</time>
      </trkpt>
      <trkpt lat="50.296890903264284" lon="5.6118580140173435">
        <ele>393.29</ele>
        <time>2021-07-27T17:52:38.082Z</time>
      </trkpt>
      <trkpt lat="50.2969765663147" lon="5.612211227416992">
        <ele>394.26</ele>
        <time>2021-07-27T17:52:50.227Z</time>
      </trkpt>
      <trkpt lat="50.297040939331055" lon="5.612661838531494">
        <ele>395.4</ele>
        <time>2021-07-27T17:53:02.377Z</time>
      </trkpt>
      <trkpt lat="50.297019397839904" lon="5.612963084131479">
        <ele>396.42</ele>
        <time>2021-07-27T17:53:14.530Z</time>
      </trkpt>
      <trkpt lat="50.296998023986816" lon="5.61326265335083">
        <ele>397.41</ele>
        <time>2021-07-27T17:53:26.686Z</time>
      </trkpt>
      <trkpt lat="50.297019481658936" lon="5.613510087132454">
        <ele>398.49</ele>
        <time>2021-07-27T17:53:38.844Z</time>
      </trkpt>
      <trkpt lat="50.297040939331055" lon="5.61375617980957">
        <ele>399.51</ele>
        <time>2021-07-27T17:53:51.005Z</time>
      </trkpt>
      <trkpt lat="50.297121573239565" lon="5.614191787317395">
        <ele>400.64</ele>
        <time>2021-07-27T17:54:03.171Z</time>
      </trkpt>
      <trkpt lat="50.29720229096711" lon="5.614627478644252">
        <ele>401.63</ele>
        <time>2021-07-27T17:54:15.341Z</time>
      </trkpt>
      <trkpt lat="50.29728292487562" lon="5.615063086152077">
        <ele>402.74</ele>
        <time>2021-07-27T17:54:27.516Z</time>
      </trkpt>
      <trkpt lat="50.29736280441284" lon="5.615494251251221">
        <ele>403.78</ele>
        <time>2021-07-27T17:54:39.695Z</time>
      </trkpt>
      <trkpt lat="50.29744880273938" lon="5.615831203758717">
        <ele>404.78</ele>
        <time>2021-07-27T17:54:51.878Z</time>
      </trkpt>
      <trkpt lat="50.29753488488495" lon="5.6161681562662125">
        <ele>405.82</ele>
        <time>2021-07-27T17:55:04.065Z</time>
      </trkpt>
      <trkpt lat="50.29762029647827" lon="5.61650276184082">
        <ele>406.87</ele>
        <time>2021-07-27T17:55:16.256Z</time>
      </trkpt>
      <trkpt lat="50.29766329564154" lon="5.616894280537963">
        <ele>407.93</ele>
        <time>2021-07-27T17:55:28.451Z</time>
      </trkpt>
      <trkpt lat="50.29770629480481" lon="5.617285883054137">
        <ele>408.99</ele>
        <time>2021-07-27T17:55:40.650Z</time>
      </trkpt>
      <trkpt lat="50.29774937778711" lon="5.6176774855703115">
        <ele>410.07</ele>
        <time>2021-07-27T17:55:52.853Z</time>
      </trkpt>
      <trkpt lat="50.29779237695038" lon="5.618069088086486">
        <ele>411.24</ele>
        <time>2021-07-27T17:56:05.060Z</time>
      </trkpt>
      <trkpt lat="50.29783487319946" lon="5.618455410003662">
        <ele>412.34</ele>
        <time>2021-07-27T17:56:17.271Z</time>
      </trkpt>
      <trkpt lat="50.29783487319946" lon="5.618841648101807">
        <ele>413.31</ele>
        <time>2021-07-27T17:56:29.486Z</time>
      </trkpt>
      <trkpt lat="50.297791957855225" lon="5.619034767150879">
        <ele>414.25</ele>
        <time>2021-07-27T17:56:41.703Z</time>
      </trkpt>
      <trkpt lat="50.297652231529355" lon="5.619292678311467">
        <ele>415.13</ele>
        <time>2021-07-27T17:56:53.923Z</time>
      </trkpt>
      <trkpt lat="50.297513008117676" lon="5.619549751281738">
        <ele>416.08</ele>
        <time>2021-07-27T17:57:06.147Z</time>
      </trkpt>
      <trkpt lat="50.297394655644894" lon="5.6199045572429895">
        <ele>417.16</ele>
        <time>2021-07-27T17:57:18.375Z</time>
      </trkpt>
      <trkpt lat="50.297276973724365" lon="5.62025785446167">
        <ele>418.28</ele>
        <time>2021-07-27T17:57:30.607Z</time>
      </trkpt>
      <trkpt lat="50.29723389074206" lon="5.620548287406564">
        <ele>419.46</ele>
        <time>2021-07-27T17:57:42.842Z</time>
      </trkpt>
      <trkpt lat="50.29719114303589" lon="5.620837211608887">
        <ele>420.59</ele>
        <time>2021-07-27T17:57:55.080Z</time>
      </trkpt>
      <trkpt lat="50.29719114303589" lon="5.621192185208201">
        <ele>421.82</ele>
        <time>2021-07-27T17:58:07.322Z</time>
      </trkpt>
      <trkpt lat="50.29719114303589" lon="5.621545314788818">
        <ele>422.99</ele>
        <time>2021-07-27T17:58:19.567Z</time>
      </trkpt>
      <trkpt lat="50.29714822769165" lon="5.621695518493652">
        <ele>424.13</ele>
        <time>2021-07-27T17:58:31.814Z</time>
      </trkpt>
      <trkpt lat="50.296998023986816" lon="5.621931552886963">
        <ele>425.29</ele>
        <time>2021-07-27T17:58:44.065Z</time>
      </trkpt>
      <trkpt lat="50.29699810780585" lon="5.621931552886963">
        <ele>426.43</ele>
        <time>2021-07-27T17:58:56.316Z</time>
      </trkpt>
      <trkpt lat="50.29681546613574" lon="5.622157109901309">
        <ele>427.6</ele>
        <time>2021-07-27T17:59:08.570Z</time>
      </trkpt>
      <trkpt lat="50.29663324356079" lon="5.622382164001465">
        <ele>428.86</ele>
        <time>2021-07-27T17:59:20.828Z</time>
      </trkpt>
      <trkpt lat="50.296418499201536" lon="5.622575366869569">
        <ele>430.02</ele>
        <time>2021-07-27T17:59:33.090Z</time>
      </trkpt>
      <trkpt lat="50.29620409011841" lon="5.622768402099609">
        <ele>431.25</ele>
        <time>2021-07-27T17:59:45.356Z</time>
      </trkpt>
      <trkpt lat="50.29607534408569" lon="5.6229400634765625">
        <ele>432.52</ele>
        <time>2021-07-27T17:59:57.625Z</time>
      </trkpt>
      <trkpt lat="50.29595707543194" lon="5.6231441628187895">
        <ele>433.8</ele>
        <time>2021-07-27T18:00:09.896Z</time>
      </trkpt>
      <trkpt lat="50.29583930969238" lon="5.623347759246826">
        <ele>435.08</ele>
        <time>2021-07-27T18:00:22.170Z</time>
      </trkpt>
      <trkpt lat="50.295774936676025" lon="5.623583793640137">
        <ele>436.41</ele>
        <time>2021-07-27T18:00:34.447Z</time>
      </trkpt>
      <trkpt lat="50.29566764831543" lon="5.624034404754639">
        <ele>437.79</ele>
        <time>2021-07-27T18:00:46.729Z</time>
      </trkpt>
      <trkpt lat="50.29564610682428" lon="5.6242818385362625">
        <ele>439.19</ele>
        <time>2021-07-27T18:00:59.013Z</time>
      </trkpt>
      <trkpt lat="50.29562473297119" lon="5.624527931213379">
        <ele>440.64</ele>
        <time>2021-07-27T18:01:11.300Z</time>
      </trkpt>
      <trkpt lat="50.29563831165433" lon="5.624882820993662">
        <ele>442.12</ele>
        <time>2021-07-27T18:01:23.591Z</time>
      </trkpt>
      <trkpt lat="50.2956519741565" lon="5.625237794592977">
        <ele>443.61</ele>
        <time>2021-07-27T18:01:35.885Z</time>
      </trkpt>
      <trkpt lat="50.29566555283964" lon="5.6255897507071495">
        <ele>445.06</ele>
        <time>2021-07-27T18:01:48.183Z</time>
      </trkpt>
      <trkpt lat="50.29566555283964" lon="5.625589834526181">
        <ele>446.46</ele>
        <time>2021-07-27T18:02:00.481Z</time>
      </trkpt>
      <trkpt lat="50.29567737132311" lon="5.625896528363228">
        <ele>447.9</ele>
        <time>2021-07-27T18:02:12.782Z</time>
      </trkpt>
      <trkpt lat="50.29568918980658" lon="5.626201629638672">
        <ele>449.34</ele>
        <time>2021-07-27T18:02:25.086Z</time>
      </trkpt>
      <trkpt lat="50.29573210515082" lon="5.626653414219618">
        <ele>450.74</ele>
        <time>2021-07-27T18:02:37.395Z</time>
      </trkpt>
      <trkpt lat="50.295774936676025" lon="5.627102851867676">
        <ele>452.17</ele>
        <time>2021-07-27T18:02:49.708Z</time>
      </trkpt>
      <trkpt lat="50.295839477330446" lon="5.6274578254669905">
        <ele>453.69</ele>
        <time>2021-07-27T18:03:02.025Z</time>
      </trkpt>
      <trkpt lat="50.29590368270874" lon="5.627810955047607">
        <ele>455.2</ele>
        <time>2021-07-27T18:03:14.346Z</time>
      </trkpt>
      <trkpt lat="50.29598968103528" lon="5.628090491518378">
        <ele>456.71</ele>
        <time>2021-07-27T18:03:26.670Z</time>
      </trkpt>
      <trkpt lat="50.29607534408569" lon="5.628368854522705">
        <ele>458.19</ele>
        <time>2021-07-27T18:03:38.997Z</time>
      </trkpt>
      <trkpt lat="50.2962043415755" lon="5.628676973283291">
        <ele>459.68</ele>
        <time>2021-07-27T18:03:51.328Z</time>
      </trkpt>
      <trkpt lat="50.29633333906531" lon="5.628985175862908">
        <ele>461.14</ele>
        <time>2021-07-27T18:04:03.663Z</time>
      </trkpt>
      <trkpt lat="50.29646158218384" lon="5.629291534423828">
        <ele>462.61</ele>
        <time>2021-07-27T18:04:16.002Z</time>
      </trkpt>
      <trkpt lat="50.29646166600287" lon="5.629291534423828">
        <ele>463.87</ele>
        <time>2021-07-27T18:04:28.341Z</time>
      </trkpt>
      <trkpt lat="50.29657985083759" lon="5.6295817997306585">
        <ele>465.26</ele>
        <time>2021-07-27T18:04:40.683Z</time>
      </trkpt>
      <trkpt lat="50.29669761657715" lon="5.629870891571045">
        <ele>466.54</ele>
        <time>2021-07-27T18:04:53.029Z</time>
      </trkpt>
      <trkpt lat="50.29674053192139" lon="5.630064010620117">
        <ele>467.71</ele>
        <time>2021-07-27T18:05:05.377Z</time>
      </trkpt>
      <trkpt lat="50.296761989593506" lon="5.630321502685547">
        <ele>468.79</ele>
        <time>2021-07-27T18:05:17.728Z</time>
      </trkpt>
      <trkpt lat="50.29669761657715" lon="5.630686283111572">
        <ele>469.84</ele>
        <time>2021-07-27T18:05:30.082Z</time>
      </trkpt>
      <trkpt lat="50.29663324356079" lon="5.630922317504883">
        <ele>470.75</ele>
        <time>2021-07-27T18:05:42.439Z</time>
      </trkpt>
      <trkpt lat="50.2965257037431" lon="5.631234124302864">
        <ele>471.63</ele>
        <time>2021-07-27T18:05:54.800Z</time>
      </trkpt>
      <trkpt lat="50.2964186668396" lon="5.631544589996338">
        <ele>472.49</ele>
        <time>2021-07-27T18:06:07.164Z</time>
      </trkpt>
      <trkpt lat="50.29634331353009" lon="5.63180266879499">
        <ele>473.29</ele>
        <time>2021-07-27T18:06:19.531Z</time>
      </trkpt>
      <trkpt lat="50.296268463134766" lon="5.632059574127197">
        <ele>474.06</ele>
        <time>2021-07-27T18:06:31.901Z</time>
      </trkpt>
      <trkpt lat="50.29623610898852" lon="5.632393006235361">
        <ele>474.77</ele>
        <time>2021-07-27T18:06:44.275Z</time>
      </trkpt>
      <trkpt lat="50.29620409011841" lon="5.632724761962891">
        <ele>475.45</ele>
        <time>2021-07-27T18:06:56.652Z</time>
      </trkpt>
      <trkpt lat="50.29618254862726" lon="5.633036736398935">
        <ele>476.05</ele>
        <time>2021-07-27T18:07:09.032Z</time>
      </trkpt>
      <trkpt lat="50.29616117477417" lon="5.633347034454346">
        <ele>476.56</ele>
        <time>2021-07-27T18:07:21.415Z</time>
      </trkpt>
      <trkpt lat="50.29609680175781" lon="5.633668899536133">
        <ele>477.07</ele>
        <time>2021-07-27T18:07:33.802Z</time>
      </trkpt>
      <trkpt lat="50.2960214484483" lon="5.6339269783347845">
        <ele>477.53</ele>
        <time>2021-07-27T18:07:46.192Z</time>
      </trkpt>
      <trkpt lat="50.29594659805298" lon="5.634183883666992">
        <ele>477.98</ele>
        <time>2021-07-27T18:07:58.585Z</time>
      </trkpt>
      <trkpt lat="50.29588222503662" lon="5.634548664093018">
        <ele>478.38</ele>
        <time>2021-07-27T18:08:10.982Z</time>
      </trkpt>
      <trkpt lat="50.29588222503662" lon="5.634956359863281">
        <ele>478.65</ele>
        <time>2021-07-27T18:08:23.383Z</time>
      </trkpt>
      <trkpt lat="50.29591449536383" lon="5.635246792808175">
        <ele>478.89</ele>
        <time>2021-07-27T18:08:35.787Z</time>
      </trkpt>
      <trkpt lat="50.29594659805298" lon="5.635535717010498">
        <ele>479.18</ele>
        <time>2021-07-27T18:08:48.194Z</time>
      </trkpt>
      <trkpt lat="50.29603796079755" lon="5.635944418609142">
        <ele>479.52</ele>
        <time>2021-07-27T18:09:00.605Z</time>
      </trkpt>
      <trkpt lat="50.29612940736115" lon="5.636353120207787">
        <ele>479.93</ele>
        <time>2021-07-27T18:09:13.021Z</time>
      </trkpt>
      <trkpt lat="50.29622085392475" lon="5.636761821806431">
        <ele>480.33</ele>
        <time>2021-07-27T18:09:25.441Z</time>
      </trkpt>
      <trkpt lat="50.296311378479004" lon="5.637166500091553">
        <ele>480.67</ele>
        <time>2021-07-27T18:09:37.865Z</time>
      </trkpt>
      <trkpt lat="50.29634004458785" lon="5.637560952454805">
        <ele>480.92</ele>
        <time>2021-07-27T18:09:50.294Z</time>
      </trkpt>
      <trkpt lat="50.2963687106967" lon="5.637955404818058">
        <ele>481.13</ele>
        <time>2021-07-27T18:10:02.727Z</time>
      </trkpt>
      <trkpt lat="50.29639720916748" lon="5.6383466720581055">
        <ele>484.11</ele>
        <time>2021-07-27T18:10:15.164Z</time>
      </trkpt>
      <trkpt lat="50.2964617498219" lon="5.638705166056752">
        <ele>481.41</ele>
        <time>2021-07-27T18:10:27.605Z</time>
      </trkpt>
      <trkpt lat="50.29652629047632" lon="5.639063743874431">
        <ele>481.48</ele>
        <time>2021-07-27T18:10:40.049Z</time>
      </trkpt>
      <trkpt lat="50.29659032821655" lon="5.6394195556640625">
        <ele>481.55</ele>
        <time>2021-07-27T18:10:52.497Z</time>
      </trkpt>
      <trkpt lat="50.29671907424927" lon="5.639848709106445">
        <ele>481.56</ele>
        <time>2021-07-27T18:11:04.950Z</time>
      </trkpt>
      <trkpt lat="50.2968695294112" lon="5.640171160921454">
        <ele>481.49</ele>
        <time>2021-07-27T18:11:17.407Z</time>
      </trkpt>
      <trkpt lat="50.297019481658936" lon="5.6404924392700195">
        <ele>481.34</ele>
        <time>2021-07-27T18:11:29.868Z</time>
      </trkpt>
      <trkpt lat="50.29720212332904" lon="5.640803994610906">
        <ele>481.17</ele>
        <time>2021-07-27T18:11:42.333Z</time>
      </trkpt>
      <trkpt lat="50.29738426208496" lon="5.641114711761475">
        <ele>481.12</ele>
        <time>2021-07-27T18:11:54.803Z</time>
      </trkpt>
      <trkpt lat="50.29757738113403" lon="5.641329288482666">
        <ele>481.1</ele>
        <time>2021-07-27T18:12:07.277Z</time>
      </trkpt>
      <trkpt lat="50.297577464953065" lon="5.641329288482666">
        <ele>481.07</ele>
        <time>2021-07-27T18:12:19.751Z</time>
      </trkpt>
      <trkpt lat="50.29766329564154" lon="5.641436576843262">
        <ele>481.06</ele>
        <time>2021-07-27T18:12:32.226Z</time>
      </trkpt>
      <trkpt lat="50.29783487319946" lon="5.641651153564453">
        <ele>481.02</ele>
        <time>2021-07-27T18:12:44.705Z</time>
      </trkpt>
      <trkpt lat="50.2979850769043" lon="5.6420159339904785">
        <ele>481.0</ele>
        <time>2021-07-27T18:12:57.188Z</time>
      </trkpt>
      <trkpt lat="50.29802807606757" lon="5.642392449080944">
        <ele>480.98</ele>
        <time>2021-07-27T18:13:09.675Z</time>
      </trkpt>
      <trkpt lat="50.29807090759277" lon="5.642766952514648">
        <ele>480.95</ele>
        <time>2021-07-27T18:13:22.166Z</time>
      </trkpt>
      <trkpt lat="50.29804936610162" lon="5.643240278586745">
        <ele>480.97</ele>
        <time>2021-07-27T18:13:34.662Z</time>
      </trkpt>
      <trkpt lat="50.298027992248535" lon="5.643711090087891">
        <ele>480.96</ele>
        <time>2021-07-27T18:13:47.163Z</time>
      </trkpt>
      <trkpt lat="50.29796361923218" lon="5.644140243530273">
        <ele>480.82</ele>
        <time>2021-07-27T18:13:59.668Z</time>
      </trkpt>
      <trkpt lat="50.297856414690614" lon="5.644590854644775">
        <ele>480.73</ele>
        <time>2021-07-27T18:14:12.178Z</time>
      </trkpt>
      <trkpt lat="50.2977810613811" lon="5.644816663116217">
        <ele>480.69</ele>
        <time>2021-07-27T18:14:24.691Z</time>
      </trkpt>
      <trkpt lat="50.29770612716675" lon="5.645041465759277">
        <ele>480.58</ele>
        <time>2021-07-27T18:14:37.207Z</time>
      </trkpt>
      <trkpt lat="50.297534465789795" lon="5.645298957824707">
        <ele>480.51</ele>
        <time>2021-07-27T18:14:49.726Z</time>
      </trkpt>
      <trkpt lat="50.29734696261585" lon="5.645459722727537">
        <ele>480.38</ele>
        <time>2021-07-27T18:15:02.249Z</time>
      </trkpt>
      <trkpt lat="50.29723414219916" lon="5.645556449890137">
        <ele>480.23</ele>
        <time>2021-07-27T18:15:14.774Z</time>
      </trkpt>
      <trkpt lat="50.29703012667596" lon="5.645706737414002">
        <ele>480.07</ele>
        <time>2021-07-27T18:15:27.302Z</time>
      </trkpt>
      <trkpt lat="50.29682636260986" lon="5.645856857299805">
        <ele>479.97</ele>
        <time>2021-07-27T18:15:39.834Z</time>
      </trkpt>
      <trkpt lat="50.29664380475879" lon="5.6460716016590595">
        <ele>479.82</ele>
        <time>2021-07-27T18:15:52.370Z</time>
      </trkpt>
      <trkpt lat="50.29646166600287" lon="5.6462860107421875">
        <ele>479.6</ele>
        <time>2021-07-27T18:16:04.909Z</time>
      </trkpt>
      <trkpt lat="50.29625748284161" lon="5.6466191075742245">
        <ele>479.17</ele>
        <time>2021-07-27T18:16:17.453Z</time>
      </trkpt>
      <trkpt lat="50.296053970232606" lon="5.646951198577881">
        <ele>478.65</ele>
        <time>2021-07-27T18:16:30.002Z</time>
      </trkpt>
      <trkpt lat="50.295903431251645" lon="5.647219838574529">
        <ele>478.03</ele>
        <time>2021-07-27T18:16:42.554Z</time>
      </trkpt>
      <trkpt lat="50.295753479003906" lon="5.647487640380859">
        <ele>477.35</ele>
        <time>2021-07-27T18:16:55.110Z</time>
      </trkpt>
      <trkpt lat="50.29554937966168" lon="5.647756112739444">
        <ele>476.62</ele>
        <time>2021-07-27T18:17:07.670Z</time>
      </trkpt>
      <trkpt lat="50.29534578323364" lon="5.648024082183838">
        <ele>475.69</ele>
        <time>2021-07-27T18:17:20.235Z</time>
      </trkpt>
      <trkpt lat="50.29514176771045" lon="5.648217285051942">
        <ele>474.76</ele>
        <time>2021-07-27T18:17:32.804Z</time>
      </trkpt>
      <trkpt lat="50.29493808746338" lon="5.648410320281982">
        <ele>473.82</ele>
        <time>2021-07-27T18:17:45.376Z</time>
      </trkpt>
      <trkpt lat="50.29473767615855" lon="5.648539066314697">
        <ele>472.83</ele>
        <time>2021-07-27T18:17:57.952Z</time>
      </trkpt>
      <trkpt lat="50.29453734867275" lon="5.648667896166444">
        <ele>471.76</ele>
        <time>2021-07-27T18:18:10.531Z</time>
      </trkpt>
      <trkpt lat="50.29433727264404" lon="5.648796558380127">
        <ele>470.59</ele>
        <time>2021-07-27T18:18:23.114Z</time>
      </trkpt>
      <trkpt lat="50.294186901301146" lon="5.6489253882318735">
        <ele>469.39</ele>
        <time>2021-07-27T18:18:35.699Z</time>
      </trkpt>
      <trkpt lat="50.294036865234375" lon="5.649054050445557">
        <ele>468.12</ele>
        <time>2021-07-27T18:18:48.287Z</time>
      </trkpt>
      <trkpt lat="50.29377912171185" lon="5.649326043203473">
        <ele>466.76</ele>
        <time>2021-07-27T18:19:00.880Z</time>
      </trkpt>
      <trkpt lat="50.293521378189325" lon="5.649598119780421">
        <ele>465.45</ele>
        <time>2021-07-27T18:19:13.478Z</time>
      </trkpt>
      <trkpt lat="50.293264389038086" lon="5.649869441986084">
        <ele>464.18</ele>
        <time>2021-07-27T18:19:26.081Z</time>
      </trkpt>
      <trkpt lat="50.29307093471289" lon="5.650141518563032">
        <ele>462.83</ele>
        <time>2021-07-27T18:19:38.688Z</time>
      </trkpt>
      <trkpt lat="50.29287756420672" lon="5.650413678959012">
        <ele>461.4</ele>
        <time>2021-07-27T18:19:51.299Z</time>
      </trkpt>
      <trkpt lat="50.29268503189087" lon="5.650684833526611">
        <ele>460.05</ele>
        <time>2021-07-27T18:20:03.915Z</time>
      </trkpt>
      <trkpt lat="50.292534828186035" lon="5.650899410247803">
        <ele>458.74</ele>
        <time>2021-07-27T18:20:16.534Z</time>
      </trkpt>
      <trkpt lat="50.292357467114925" lon="5.65122714266181">
        <ele>457.42</ele>
        <time>2021-07-27T18:20:29.157Z</time>
      </trkpt>
      <trkpt lat="50.292180106043816" lon="5.651554958894849">
        <ele>456.02</ele>
        <time>2021-07-27T18:20:41.785Z</time>
      </trkpt>
      <trkpt lat="50.29200282879174" lon="5.651882691308856">
        <ele>454.63</ele>
        <time>2021-07-27T18:20:54.417Z</time>
      </trkpt>
      <trkpt lat="50.2918267250061" lon="5.65220832824707">
        <ele>452.84</ele>
        <time>2021-07-27T18:21:07.053Z</time>
      </trkpt>
      <trkpt lat="50.291668977588415" lon="5.652580987662077">
        <ele>451.94</ele>
        <time>2021-07-27T18:21:19.694Z</time>
      </trkpt>
      <trkpt lat="50.29151131398976" lon="5.652953647077084">
        <ele>450.65</ele>
        <time>2021-07-27T18:21:32.340Z</time>
      </trkpt>
      <trkpt lat="50.29135465621948" lon="5.653324127197266">
        <ele>449.36</ele>
        <time>2021-07-27T18:21:44.990Z</time>
      </trkpt>
      <trkpt lat="50.291239907965064" lon="5.6537040788680315">
        <ele>448.1</ele>
        <time>2021-07-27T18:21:57.645Z</time>
      </trkpt>
      <trkpt lat="50.29112524352968" lon="5.654084030538797">
        <ele>446.89</ele>
        <time>2021-07-27T18:22:10.304Z</time>
      </trkpt>
      <trkpt lat="50.291011333465576" lon="5.65446138381958">
        <ele>445.72</ele>
        <time>2021-07-27T18:22:22.967Z</time>
      </trkpt>
      <trkpt lat="50.29093245975673" lon="5.654827086254954">
        <ele>444.59</ele>
        <time>2021-07-27T18:22:35.634Z</time>
      </trkpt>
      <trkpt lat="50.29085358604789" lon="5.655192788690329">
        <ele>443.5</ele>
        <time>2021-07-27T18:22:48.305Z</time>
      </trkpt>
      <trkpt lat="50.2907753828913" lon="5.655555725097656">
        <ele>442.41</ele>
        <time>2021-07-27T18:23:00.980Z</time>
      </trkpt>
      <trkpt lat="50.29075392521918" lon="5.655663013458252">
        <ele>441.33</ele>
        <time>2021-07-27T18:23:13.656Z</time>
      </trkpt>
      <trkpt lat="50.29068217612803" lon="5.656136339530349">
        <ele>440.24</ele>
        <time>2021-07-27T18:23:26.337Z</time>
      </trkpt>
      <trkpt lat="50.29061042703688" lon="5.656609665602446">
        <ele>439.17</ele>
        <time>2021-07-27T18:23:39.023Z</time>
      </trkpt>
      <trkpt lat="50.29053934849799" lon="5.657079219818115">
        <ele>438.15</ele>
        <time>2021-07-27T18:23:51.714Z</time>
      </trkpt>
      <trkpt lat="50.29051059857011" lon="5.657452130690217">
        <ele>437.21</ele>
        <time>2021-07-27T18:24:04.409Z</time>
      </trkpt>
      <trkpt lat="50.29048193246126" lon="5.6578251253813505">
        <ele>436.28</ele>
        <time>2021-07-27T18:24:17.108Z</time>
      </trkpt>
      <trkpt lat="50.29045351780951" lon="5.6581950187683105">
        <ele>435.41</ele>
        <time>2021-07-27T18:24:29.811Z</time>
      </trkpt>
      <trkpt lat="50.29045343399048" lon="5.658528534695506">
        <ele>434.53</ele>
        <time>2021-07-27T18:24:42.517Z</time>
      </trkpt>
      <trkpt lat="50.29045343399048" lon="5.658860206604004">
        <ele>433.6</ele>
        <time>2021-07-27T18:24:55.226Z</time>
      </trkpt>
      <trkpt lat="50.29047019779682" lon="5.659128008410335">
        <ele>432.71</ele>
        <time>2021-07-27T18:25:07.938Z</time>
      </trkpt>
      <trkpt lat="50.29049643315375" lon="5.659546852111816">
        <ele>431.77</ele>
        <time>2021-07-27T18:25:20.654Z</time>
      </trkpt>
      <trkpt lat="50.29049643315375" lon="5.659654140472412">
        <ele>430.96</ele>
        <time>2021-07-27T18:25:33.372Z</time>
      </trkpt>
      <trkpt lat="50.29043197631836" lon="5.659761428833008">
        <ele>430.2</ele>
        <time>2021-07-27T18:25:46.091Z</time>
      </trkpt>
      <trkpt lat="50.29043197631836" lon="5.659847259521484">
        <ele>429.45</ele>
        <time>2021-07-27T18:25:58.811Z</time>
      </trkpt>
      <trkpt lat="50.29047497548163" lon="5.659911632537842">
        <ele>428.72</ele>
        <time>2021-07-27T18:26:11.532Z</time>
      </trkpt>
      <trkpt lat="50.290539264678955" lon="5.659911632537842">
        <ele>428.03</ele>
        <time>2021-07-27T18:26:24.254Z</time>
      </trkpt>
      <trkpt lat="50.290582263842225" lon="5.660254955291748">
        <ele>427.32</ele>
        <time>2021-07-27T18:26:36.980Z</time>
      </trkpt>
      <trkpt lat="50.290637165308" lon="5.660735405981541">
        <ele>426.69</ele>
        <time>2021-07-27T18:26:49.711Z</time>
      </trkpt>
      <trkpt lat="50.290692150592804" lon="5.661215940490365">
        <ele>426.09</ele>
        <time>2021-07-27T18:27:02.447Z</time>
      </trkpt>
      <trkpt lat="50.29074713587761" lon="5.661696474999189">
        <ele>425.52</ele>
        <time>2021-07-27T18:27:15.188Z</time>
      </trkpt>
      <trkpt lat="50.290802121162415" lon="5.662177009508014">
        <ele>424.96</ele>
        <time>2021-07-27T18:27:27.934Z</time>
      </trkpt>
      <trkpt lat="50.29085710644722" lon="5.662657544016838">
        <ele>424.4</ele>
        <time>2021-07-27T18:27:40.685Z</time>
      </trkpt>
      <trkpt lat="50.290912091732025" lon="5.663138078525662">
        <ele>423.94</ele>
        <time>2021-07-27T18:27:53.441Z</time>
      </trkpt>
      <trkpt lat="50.29096707701683" lon="5.663618613034487">
        <ele>423.54</ele>
        <time>2021-07-27T18:28:06.202Z</time>
      </trkpt>
      <trkpt lat="50.291022062301636" lon="5.664099147543311">
        <ele>423.21</ele>
        <time>2021-07-27T18:28:18.968Z</time>
      </trkpt>
      <trkpt lat="50.291075706481934" lon="5.664567947387695">
        <ele>423.0</ele>
        <time>2021-07-27T18:28:31.739Z</time>
      </trkpt>
      <trkpt lat="50.291129518300295" lon="5.665052002295852">
        <ele>422.87</ele>
        <time>2021-07-27T18:28:44.515Z</time>
      </trkpt>
      <trkpt lat="50.29118307866156" lon="5.665533542633057">
        <ele>422.77</ele>
        <time>2021-07-27T18:28:57.296Z</time>
      </trkpt>
      <trkpt lat="50.29121526516974" lon="5.665780892595649">
        <ele>422.74</ele>
        <time>2021-07-27T18:29:10.079Z</time>
      </trkpt>
      <trkpt lat="50.29124736785889" lon="5.666027069091797">
        <ele>422.79</ele>
        <time>2021-07-27T18:29:22.865Z</time>
      </trkpt>
      <trkpt lat="50.2913002576679" lon="5.666483212262392">
        <ele>422.91</ele>
        <time>2021-07-27T18:29:35.655Z</time>
      </trkpt>
      <trkpt lat="50.29135323129594" lon="5.666939355432987">
        <ele>423.13</ele>
        <time>2021-07-27T18:29:48.450Z</time>
      </trkpt>
      <trkpt lat="50.291406121104956" lon="5.667395582422614">
        <ele>423.38</ele>
        <time>2021-07-27T18:30:01.250Z</time>
      </trkpt>
      <trkpt lat="50.291459094733" lon="5.667851725593209">
        <ele>423.64</ele>
        <time>2021-07-27T18:30:14.055Z</time>
      </trkpt>
      <trkpt lat="50.29151131398976" lon="5.668301749974489">
        <ele>423.98</ele>
        <time>2021-07-27T18:30:26.864Z</time>
      </trkpt>
      <trkpt lat="50.29156311415136" lon="5.668748756870627">
        <ele>424.37</ele>
        <time>2021-07-27T18:30:39.678Z</time>
      </trkpt>
      <trkpt lat="50.29161499813199" lon="5.669195763766766">
        <ele>424.8</ele>
        <time>2021-07-27T18:30:52.497Z</time>
      </trkpt>
      <trkpt lat="50.29166688211262" lon="5.6696428544819355">
        <ele>425.3</ele>
        <time>2021-07-27T18:31:05.320Z</time>
      </trkpt>
      <trkpt lat="50.291718766093254" lon="5.670089861378074">
        <ele>425.8</ele>
        <time>2021-07-27T18:31:18.148Z</time>
      </trkpt>
      <trkpt lat="50.291770650073886" lon="5.670536868274212">
        <ele>426.37</ele>
        <time>2021-07-27T18:31:30.981Z</time>
      </trkpt>
      <trkpt lat="50.29182253405452" lon="5.670983958989382">
        <ele>427.01</ele>
        <time>2021-07-27T18:31:43.818Z</time>
      </trkpt>
      <trkpt lat="50.29187441803515" lon="5.67143096588552">
        <ele>427.67</ele>
        <time>2021-07-27T18:31:56.660Z</time>
      </trkpt>
      <trkpt lat="50.29192630201578" lon="5.67187805660069">
        <ele>428.36</ele>
        <time>2021-07-27T18:32:09.507Z</time>
      </trkpt>
      <trkpt lat="50.29197692871094" lon="5.672314167022705">
        <ele>429.03</ele>
        <time>2021-07-27T18:32:22.358Z</time>
      </trkpt>
      <trkpt lat="50.29197701252997" lon="5.672314167022705">
        <ele>429.69</ele>
        <time>2021-07-27T18:32:35.209Z</time>
      </trkpt>
      <trkpt lat="50.2920307405293" lon="5.6727552227675915">
        <ele>430.43</ele>
        <time>2021-07-27T18:32:48.065Z</time>
      </trkpt>
      <trkpt lat="50.29208455234766" lon="5.673196278512478">
        <ele>431.19</ele>
        <time>2021-07-27T18:33:00.926Z</time>
      </trkpt>
      <trkpt lat="50.29213828034699" lon="5.673637334257364">
        <ele>432.0</ele>
        <time>2021-07-27T18:33:13.791Z</time>
      </trkpt>
      <trkpt lat="50.29219150543213" lon="5.674073696136475">
        <ele>432.78</ele>
        <time>2021-07-27T18:33:26.661Z</time>
      </trkpt>
      <trkpt lat="50.29225604608655" lon="5.674539813771844">
        <ele>433.55</ele>
        <time>2021-07-27T18:33:39.536Z</time>
      </trkpt>
      <trkpt lat="50.29232058674097" lon="5.675006015226245">
        <ele>434.24</ele>
        <time>2021-07-27T18:33:52.415Z</time>
      </trkpt>
      <trkpt lat="50.29238470830023" lon="5.675468444824219">
        <ele>434.94</ele>
        <time>2021-07-27T18:34:05.299Z</time>
      </trkpt>
      <trkpt lat="50.29217013157904" lon="5.675597190856934">
        <ele>435.67</ele>
        <time>2021-07-27T18:34:18.187Z</time>
      </trkpt>
      <trkpt lat="50.29204113408923" lon="5.67576901987195">
        <ele>436.38</ele>
        <time>2021-07-27T18:34:31.078Z</time>
      </trkpt>
      <trkpt lat="50.29191255569458" lon="5.67594051361084">
        <ele>437.09</ele>
        <time>2021-07-27T18:34:43.971Z</time>
      </trkpt>
      <trkpt lat="50.29169546440244" lon="5.676127597689629">
        <ele>437.86</ele>
        <time>2021-07-27T18:34:56.868Z</time>
      </trkpt>
      <trkpt lat="50.291478456929326" lon="5.676314681768417">
        <ele>438.67</ele>
        <time>2021-07-27T18:35:09.769Z</time>
      </trkpt>
      <trkpt lat="50.29126136563718" lon="5.676501849666238">
        <ele>439.49</ele>
        <time>2021-07-27T18:35:22.674Z</time>
      </trkpt>
      <trkpt lat="50.291045028716326" lon="5.676688430830836">
        <ele>440.36</ele>
        <time>2021-07-27T18:35:35.583Z</time>
      </trkpt>
      <trkpt lat="50.290856352075934" lon="5.676850955933332">
        <ele>441.24</ele>
        <time>2021-07-27T18:35:48.496Z</time>
      </trkpt>
      <trkpt lat="50.29066801071167" lon="5.677013397216797">
        <ele>442.14</ele>
        <time>2021-07-27T18:36:01.412Z</time>
      </trkpt>
      <trkpt lat="50.29042317532003" lon="5.677232416346669">
        <ele>443.05</ele>
        <time>2021-07-27T18:36:14.333Z</time>
      </trkpt>
      <trkpt lat="50.29017842374742" lon="5.6774514354765415">
        <ele>444.03</ele>
        <time>2021-07-27T18:36:27.258Z</time>
      </trkpt>
      <trkpt lat="50.28993358835578" lon="5.677670454606414">
        <ele>445.0</ele>
        <time>2021-07-27T18:36:40.188Z</time>
      </trkpt>
      <trkpt lat="50.28968883678317" lon="5.677889473736286">
        <ele>446.1</ele>
        <time>2021-07-27T18:36:53.122Z</time>
      </trkpt>
      <trkpt lat="50.28944500721991" lon="5.678107738494873">
        <ele>447.24</ele>
        <time>2021-07-27T18:37:06.061Z</time>
      </trkpt>
      <trkpt lat="50.289208721369505" lon="5.678311670199037">
        <ele>448.36</ele>
        <time>2021-07-27T18:37:19.004Z</time>
      </trkpt>
      <trkpt lat="50.28897251933813" lon="5.678515685722232">
        <ele>449.5</ele>
        <time>2021-07-27T18:37:31.951Z</time>
      </trkpt>
      <trkpt lat="50.28873631730676" lon="5.678719701245427">
        <ele>450.71</ele>
        <time>2021-07-27T18:37:44.903Z</time>
      </trkpt>
      <trkpt lat="50.28850086964667" lon="5.6789231300354">
        <ele>451.96</ele>
        <time>2021-07-27T18:37:57.859Z</time>
      </trkpt>
      <trkpt lat="50.28847932815552" lon="5.6789445877075195">
        <ele>453.26</ele>
        <time>2021-07-27T18:38:10.815Z</time>
      </trkpt>
      <trkpt lat="50.28822158463299" lon="5.679172743111849">
        <ele>454.7</ele>
        <time>2021-07-27T18:38:23.776Z</time>
      </trkpt>
      <trkpt lat="50.2879639249295" lon="5.679400898516178">
        <ele>456.29</ele>
        <time>2021-07-27T18:38:36.742Z</time>
      </trkpt>
      <trkpt lat="50.28770626522601" lon="5.679629053920507">
        <ele>457.83</ele>
        <time>2021-07-27T18:38:49.713Z</time>
      </trkpt>
      <trkpt lat="50.28744852170348" lon="5.679857209324837">
        <ele>459.42</ele>
        <time>2021-07-27T18:39:02.688Z</time>
      </trkpt>
      <trkpt lat="50.28719086199999" lon="5.680085364729166">
        <ele>461.02</ele>
        <time>2021-07-27T18:39:15.668Z</time>
      </trkpt>
      <trkpt lat="50.286933202296495" lon="5.680313520133495">
        <ele>462.58</ele>
        <time>2021-07-27T18:39:28.653Z</time>
      </trkpt>
      <trkpt lat="50.286675542593" lon="5.680541675537825">
        <ele>464.23</ele>
        <time>2021-07-27T18:39:41.643Z</time>
      </trkpt>
      <trkpt lat="50.28641939163208" lon="5.6807684898376465">
        <ele>465.93</ele>
        <time>2021-07-27T18:39:54.637Z</time>
      </trkpt>
      <trkpt lat="50.28624773025513" lon="5.6809401512146">
        <ele>467.63</ele>
        <time>2021-07-27T18:40:07.635Z</time>
      </trkpt>
      <trkpt lat="50.28610808774829" lon="5.681154979392886">
        <ele>469.31</ele>
        <time>2021-07-27T18:40:20.636Z</time>
      </trkpt>
      <trkpt lat="50.28596886433661" lon="5.681369304656982">
        <ele>471.43</ele>
        <time>2021-07-27T18:40:33.640Z</time>
      </trkpt>
      <trkpt lat="50.285818576812744" lon="5.68166971206665">
        <ele>473.12</ele>
        <time>2021-07-27T18:40:46.648Z</time>
      </trkpt>
      <trkpt lat="50.28573249466717" lon="5.681949248537421">
        <ele>474.42</ele>
        <time>2021-07-27T18:40:59.659Z</time>
      </trkpt>
      <trkpt lat="50.28564691543579" lon="5.682227611541748">
        <ele>476.63</ele>
        <time>2021-07-27T18:41:12.673Z</time>
      </trkpt>
      <trkpt lat="50.28559310361743" lon="5.682614855468273">
        <ele>478.48</ele>
        <time>2021-07-27T18:41:25.691Z</time>
      </trkpt>
      <trkpt lat="50.28553971089423" lon="5.683000087738037">
        <ele>480.35</ele>
        <time>2021-07-27T18:41:38.713Z</time>
      </trkpt>
      <trkpt lat="50.28555404394865" lon="5.683329999446869">
        <ele>482.12</ele>
        <time>2021-07-27T18:41:51.739Z</time>
      </trkpt>
      <trkpt lat="50.285568377003074" lon="5.683659911155701">
        <ele>483.9</ele>
        <time>2021-07-27T18:42:04.768Z</time>
      </trkpt>
      <trkpt lat="50.285582626238465" lon="5.683987140655518">
        <ele>485.67</ele>
        <time>2021-07-27T18:42:17.800Z</time>
      </trkpt>
      <trkpt lat="50.28562386520207" lon="5.684456862509251">
        <ele>487.53</ele>
        <time>2021-07-27T18:42:30.837Z</time>
      </trkpt>
      <trkpt lat="50.28566510416567" lon="5.684926668182015">
        <ele>489.44</ele>
        <time>2021-07-27T18:42:43.879Z</time>
      </trkpt>
      <trkpt lat="50.28570634312928" lon="5.68539647385478">
        <ele>491.39</ele>
        <time>2021-07-27T18:42:56.926Z</time>
      </trkpt>
      <trkpt lat="50.28574758209288" lon="5.685866279527545">
        <ele>493.23</ele>
        <time>2021-07-27T18:43:09.978Z</time>
      </trkpt>
      <trkpt lat="50.285788821056485" lon="5.686336001381278">
        <ele>494.94</ele>
        <time>2021-07-27T18:43:23.035Z</time>
      </trkpt>
      <trkpt lat="50.28583006002009" lon="5.686805807054043">
        <ele>496.55</ele>
        <time>2021-07-27T18:43:36.097Z</time>
      </trkpt>
      <trkpt lat="50.28587129898369" lon="5.687275612726808">
        <ele>498.13</ele>
        <time>2021-07-27T18:43:49.164Z</time>
      </trkpt>
      <trkpt lat="50.2859125379473" lon="5.687745418399572">
        <ele>499.58</ele>
        <time>2021-07-27T18:44:02.235Z</time>
      </trkpt>
      <trkpt lat="50.2859537769109" lon="5.688215224072337">
        <ele>501.15</ele>
        <time>2021-07-27T18:44:15.311Z</time>
      </trkpt>
      <trkpt lat="50.285995015874505" lon="5.68868494592607">
        <ele>502.75</ele>
        <time>2021-07-27T18:44:28.392Z</time>
      </trkpt>
      <trkpt lat="50.28603625483811" lon="5.689154751598835">
        <ele>504.18</ele>
        <time>2021-07-27T18:44:41.478Z</time>
      </trkpt>
      <trkpt lat="50.286076068878174" lon="5.689609050750732">
        <ele>505.43</ele>
        <time>2021-07-27T18:44:54.569Z</time>
      </trkpt>
      <trkpt lat="50.28608319349587" lon="5.689996378496289">
        <ele>506.67</ele>
        <time>2021-07-27T18:45:07.664Z</time>
      </trkpt>
      <trkpt lat="50.2860904019326" lon="5.690383706241846">
        <ele>507.89</ele>
        <time>2021-07-27T18:45:20.763Z</time>
      </trkpt>
      <trkpt lat="50.28609752655029" lon="5.690767765045166">
        <ele>509.07</ele>
        <time>2021-07-27T18:45:33.866Z</time>
      </trkpt>
      <trkpt lat="50.28605771251023" lon="5.691197505220771">
        <ele>510.07</ele>
        <time>2021-07-27T18:45:46.973Z</time>
      </trkpt>
      <trkpt lat="50.28601789847016" lon="5.691627329215407">
        <ele>511.16</ele>
        <time>2021-07-27T18:46:00.085Z</time>
      </trkpt>
      <trkpt lat="50.2859780844301" lon="5.692057069391012">
        <ele>512.24</ele>
        <time>2021-07-27T18:46:13.201Z</time>
      </trkpt>
      <trkpt lat="50.285938354209065" lon="5.692486893385649">
        <ele>513.31</ele>
        <time>2021-07-27T18:46:26.321Z</time>
      </trkpt>
      <trkpt lat="50.285898540169" lon="5.6929166335612535">
        <ele>514.33</ele>
        <time>2021-07-27T18:46:39.446Z</time>
      </trkpt>
      <trkpt lat="50.285858726128936" lon="5.69334645755589">
        <ele>515.27</ele>
        <time>2021-07-27T18:46:52.575Z</time>
      </trkpt>
      <trkpt lat="50.28581891208887" lon="5.693776197731495">
        <ele>516.23</ele>
        <time>2021-07-27T18:47:05.709Z</time>
      </trkpt>
      <trkpt lat="50.285780020058155" lon="5.694196550175548">
        <ele>517.17</ele>
        <time>2021-07-27T18:47:18.847Z</time>
      </trkpt>
      <trkpt lat="50.285775661468506" lon="5.694243907928467">
        <ele>498.37</ele>
        <time>2021-07-27T18:47:31.986Z</time>
      </trkpt>
      <trkpt lat="50.28573274612427" lon="5.694587230682373">
        <ele>518.21</ele>
        <time>2021-07-27T18:47:45.128Z</time>
      </trkpt>
      <trkpt lat="50.28566820546985" lon="5.694866850972176">
        <ele>519.01</ele>
        <time>2021-07-27T18:47:58.273Z</time>
      </trkpt>
      <trkpt lat="50.28560400009155" lon="5.695145130157471">
        <ele>519.77</ele>
        <time>2021-07-27T18:48:11.421Z</time>
      </trkpt>
      <trkpt lat="50.28544273227453" lon="5.695478310808539">
        <ele>520.53</ele>
        <time>2021-07-27T18:48:24.574Z</time>
      </trkpt>
      <trkpt lat="50.285282135009766" lon="5.695810317993164">
        <ele>521.32</ele>
        <time>2021-07-27T18:48:37.731Z</time>
      </trkpt>
      <trkpt lat="50.285046100616455" lon="5.696110725402832">
        <ele>522.03</ele>
        <time>2021-07-27T18:48:50.893Z</time>
      </trkpt>
      <trkpt lat="50.28489581309259" lon="5.696218013763428">
        <ele>522.58</ele>
        <time>2021-07-27T18:49:04.057Z</time>
      </trkpt>
      <trkpt lat="50.28474569320679" lon="5.696325302124023">
        <ele>523.07</ele>
        <time>2021-07-27T18:49:17.224Z</time>
      </trkpt>
      <trkpt lat="50.284509574994445" lon="5.69640040397644">
        <ele>523.45</ele>
        <time>2021-07-27T18:49:30.395Z</time>
      </trkpt>
      <trkpt lat="50.284273624420166" lon="5.696475505828857">
        <ele>523.8</ele>
        <time>2021-07-27T18:49:43.570Z</time>
      </trkpt>
      <trkpt lat="50.284005319699645" lon="5.696411048993468">
        <ele>524.16</ele>
        <time>2021-07-27T18:49:56.749Z</time>
      </trkpt>
      <trkpt lat="50.28373718261719" lon="5.696346759796143">
        <ele>520.87</ele>
        <time>2021-07-27T18:50:09.932Z</time>
      </trkpt>
      <trkpt lat="50.28344658203423" lon="5.6962245516479015">
        <ele>525.53</ele>
        <time>2021-07-27T18:50:23.120Z</time>
      </trkpt>
      <trkpt lat="50.28315598145127" lon="5.6961023434996605">
        <ele>525.87</ele>
        <time>2021-07-27T18:50:36.313Z</time>
      </trkpt>
      <trkpt lat="50.282865380868316" lon="5.6959801353514194">
        <ele>526.16</ele>
        <time>2021-07-27T18:50:49.511Z</time>
      </trkpt>
      <trkpt lat="50.28257486410439" lon="5.69585801102221">
        <ele>526.45</ele>
        <time>2021-07-27T18:51:02.714Z</time>
      </trkpt>
      <trkpt lat="50.28228426352143" lon="5.695735802873969">
        <ele>526.78</ele>
        <time>2021-07-27T18:51:15.922Z</time>
      </trkpt>
      <trkpt lat="50.281993662938476" lon="5.695613594725728">
        <ele>527.08</ele>
        <time>2021-07-27T18:51:29.134Z</time>
      </trkpt>
      <trkpt lat="50.28170306235552" lon="5.695491470396519">
        <ele>527.34</ele>
        <time>2021-07-27T18:51:42.351Z</time>
      </trkpt>
      <trkpt lat="50.28141254559159" lon="5.695369262248278">
        <ele>527.58</ele>
        <time>2021-07-27T18:51:55.573Z</time>
      </trkpt>
      <trkpt lat="50.281121945008636" lon="5.695247054100037">
        <ele>527.81</ele>
        <time>2021-07-27T18:52:08.800Z</time>
      </trkpt>
      <trkpt lat="50.28083134442568" lon="5.695124929770827">
        <ele>528.03</ele>
        <time>2021-07-27T18:52:22.032Z</time>
      </trkpt>
      <trkpt lat="50.28054074384272" lon="5.695002721622586">
        <ele>528.22</ele>
        <time>2021-07-27T18:52:35.268Z</time>
      </trkpt>
      <trkpt lat="50.280250227078795" lon="5.694880513474345">
        <ele>528.38</ele>
        <time>2021-07-27T18:52:48.509Z</time>
      </trkpt>
      <trkpt lat="50.27996063232422" lon="5.694758892059326">
        <ele>522.94</ele>
        <time>2021-07-27T18:53:01.755Z</time>
      </trkpt>
      <trkpt lat="50.27987480163574" lon="5.694715976715088">
        <ele>524.8</ele>
        <time>2021-07-27T18:53:15.003Z</time>
      </trkpt>
      <trkpt lat="50.27959065511823" lon="5.694595444947481">
        <ele>528.7</ele>
        <time>2021-07-27T18:53:28.255Z</time>
      </trkpt>
      <trkpt lat="50.27930650860071" lon="5.694474913179874">
        <ele>528.73</ele>
        <time>2021-07-27T18:53:41.512Z</time>
      </trkpt>
      <trkpt lat="50.2790223620832" lon="5.694354381412268">
        <ele>528.68</ele>
        <time>2021-07-27T18:53:54.774Z</time>
      </trkpt>
      <trkpt lat="50.27873821556568" lon="5.694233933463693">
        <ele>528.68</ele>
        <time>2021-07-27T18:54:08.040Z</time>
      </trkpt>
      <trkpt lat="50.278454069048166" lon="5.694113401696086">
        <ele>528.72</ele>
        <time>2021-07-27T18:54:21.311Z</time>
      </trkpt>
      <trkpt lat="50.27816992253065" lon="5.693992953747511">
        <ele>528.61</ele>
        <time>2021-07-27T18:54:34.587Z</time>
      </trkpt>
      <trkpt lat="50.277885776013136" lon="5.693872421979904">
        <ele>528.32</ele>
        <time>2021-07-27T18:54:47.868Z</time>
      </trkpt>
      <trkpt lat="50.277602300047874" lon="5.693752225488424">
        <ele>527.96</ele>
        <time>2021-07-27T18:55:01.153Z</time>
      </trkpt>
      <trkpt lat="50.27732066810131" lon="5.693632699549198">
        <ele>527.66</ele>
        <time>2021-07-27T18:55:14.443Z</time>
      </trkpt>
      <trkpt lat="50.27703903615475" lon="5.693513257429004">
        <ele>527.39</ele>
        <time>2021-07-27T18:55:27.738Z</time>
      </trkpt>
      <trkpt lat="50.27675740420818" lon="5.693393815308809">
        <ele>527.02</ele>
        <time>2021-07-27T18:55:41.037Z</time>
      </trkpt>
      <trkpt lat="50.27647577226162" lon="5.693274373188615">
        <ele>526.59</ele>
        <time>2021-07-27T18:55:54.341Z</time>
      </trkpt>
      <trkpt lat="50.276194140315056" lon="5.69315493106842">
        <ele>526.11</ele>
        <time>2021-07-27T18:56:07.650Z</time>
      </trkpt>
      <trkpt lat="50.27591250836849" lon="5.693035488948226">
        <ele>525.6</ele>
        <time>2021-07-27T18:56:20.963Z</time>
      </trkpt>
      <trkpt lat="50.27563087642193" lon="5.6929160468280315">
        <ele>525.14</ele>
        <time>2021-07-27T18:56:34.281Z</time>
      </trkpt>
      <trkpt lat="50.275349244475365" lon="5.692796604707837">
        <ele>524.69</ele>
        <time>2021-07-27T18:56:47.604Z</time>
      </trkpt>
      <trkpt lat="50.275068283081055" lon="5.6926774978637695">
        <ele>524.28</ele>
        <time>2021-07-27T18:57:00.931Z</time>
      </trkpt>
      <trkpt lat="50.27490726672113" lon="5.69261304102838">
        <ele>523.86</ele>
        <time>2021-07-27T18:57:14.261Z</time>
      </trkpt>
      <trkpt lat="50.27474641799927" lon="5.692548751831055">
        <ele>523.41</ele>
        <time>2021-07-27T18:57:27.594Z</time>
      </trkpt>
      <trkpt lat="50.274488842114806" lon="5.692495023831725">
        <ele>522.97</ele>
        <time>2021-07-27T18:57:40.931Z</time>
      </trkpt>
      <trkpt lat="50.27423143386841" lon="5.692441463470459">
        <ele>522.59</ele>
        <time>2021-07-27T18:57:54.272Z</time>
      </trkpt>
      <trkpt lat="50.273995315656066" lon="5.692430650815368">
        <ele>522.26</ele>
        <time>2021-07-27T18:58:07.617Z</time>
      </trkpt>
      <trkpt lat="50.27375936508179" lon="5.69242000579834">
        <ele>521.97</ele>
        <time>2021-07-27T18:58:20.966Z</time>
      </trkpt>
      <trkpt lat="50.273512518033385" lon="5.692441463470459">
        <ele>521.65</ele>
        <time>2021-07-27T18:58:34.319Z</time>
      </trkpt>
      <trkpt lat="50.27326583862305" lon="5.692462921142578">
        <ele>521.35</ele>
        <time>2021-07-27T18:58:47.675Z</time>
      </trkpt>
      <trkpt lat="50.27296710759401" lon="5.692538022994995">
        <ele>521.01</ele>
        <time>2021-07-27T18:59:01.036Z</time>
      </trkpt>
      <trkpt lat="50.27266846038401" lon="5.692613124847412">
        <ele>520.84</ele>
        <time>2021-07-27T18:59:14.402Z</time>
      </trkpt>
      <trkpt lat="50.27236981317401" lon="5.692688226699829">
        <ele>520.77</ele>
        <time>2021-07-27T18:59:27.773Z</time>
      </trkpt>
      <trkpt lat="50.27207116596401" lon="5.692763328552246">
        <ele>520.77</ele>
        <time>2021-07-27T18:59:41.149Z</time>
      </trkpt>
      <trkpt lat="50.271772518754005" lon="5.692838430404663">
        <ele>520.78</ele>
        <time>2021-07-27T18:59:54.530Z</time>
      </trkpt>
      <trkpt lat="50.27147378772497" lon="5.692913616076112">
        <ele>520.86</ele>
        <time>2021-07-27T19:00:07.916Z</time>
      </trkpt>
      <trkpt lat="50.27117514051497" lon="5.692988717928529">
        <ele>521.11</ele>
        <time>2021-07-27T19:00:21.306Z</time>
      </trkpt>
      <trkpt lat="50.27087649330497" lon="5.693063819780946">
        <ele>521.41</ele>
        <time>2021-07-27T19:00:34.701Z</time>
      </trkpt>
      <trkpt lat="50.270577846094966" lon="5.693138921633363">
        <ele>521.74</ele>
        <time>2021-07-27T19:00:48.101Z</time>
      </trkpt>
      <trkpt lat="50.270279198884964" lon="5.69321402348578">
        <ele>522.22</ele>
        <time>2021-07-27T19:01:01.506Z</time>
      </trkpt>
      <trkpt lat="50.26998055167496" lon="5.693289125338197">
        <ele>522.84</ele>
        <time>2021-07-27T19:01:14.916Z</time>
      </trkpt>
      <trkpt lat="50.26968240737915" lon="5.693364143371582">
        <ele>523.57</ele>
        <time>2021-07-27T19:01:28.331Z</time>
      </trkpt>
      <trkpt lat="50.26944628916681" lon="5.693449974060059">
        <ele>524.35</ele>
        <time>2021-07-27T19:01:41.749Z</time>
      </trkpt>
      <trkpt lat="50.26921042241156" lon="5.693535804748535">
        <ele>525.18</ele>
        <time>2021-07-27T19:01:55.171Z</time>
      </trkpt>
      <trkpt lat="50.269038593396544" lon="5.69365382194519">
        <ele>526.1</ele>
        <time>2021-07-27T19:02:08.596Z</time>
      </trkpt>
      <trkpt lat="50.26886701583862" lon="5.693771839141846">
        <ele>527.14</ele>
        <time>2021-07-27T19:02:22.024Z</time>
      </trkpt>
      <trkpt lat="50.26867372915149" lon="5.69395431317389">
        <ele>528.28</ele>
        <time>2021-07-27T19:02:35.456Z</time>
      </trkpt>
      <trkpt lat="50.26848077774048" lon="5.694136619567871">
        <ele>529.54</ele>
        <time>2021-07-27T19:02:48.892Z</time>
      </trkpt>
      <trkpt lat="50.26830920018256" lon="5.6943511962890625">
        <ele>530.99</ele>
        <time>2021-07-27T19:03:02.331Z</time>
      </trkpt>
      <trkpt lat="50.26809420436621" lon="5.694705750793219">
        <ele>532.55</ele>
        <time>2021-07-27T19:03:15.775Z</time>
      </trkpt>
      <trkpt lat="50.26787996292114" lon="5.695059299468994">
        <ele>534.18</ele>
        <time>2021-07-27T19:03:29.224Z</time>
      </trkpt>
      <trkpt lat="50.26769363321364" lon="5.69545341655612">
        <ele>535.83</ele>
        <time>2021-07-27T19:03:42.678Z</time>
      </trkpt>
      <trkpt lat="50.267507303506136" lon="5.695847533643246">
        <ele>537.46</ele>
        <time>2021-07-27T19:03:56.137Z</time>
      </trkpt>
      <trkpt lat="50.26732097379863" lon="5.6962416507303715">
        <ele>539.19</ele>
        <time>2021-07-27T19:04:09.601Z</time>
      </trkpt>
      <trkpt lat="50.26713464409113" lon="5.696635767817497">
        <ele>541.03</ele>
        <time>2021-07-27T19:04:23.070Z</time>
      </trkpt>
      <trkpt lat="50.26694839820266" lon="5.697029884904623">
        <ele>542.97</ele>
        <time>2021-07-27T19:04:36.544Z</time>
      </trkpt>
      <trkpt lat="50.26676416397095" lon="5.6974196434021">
        <ele>544.99</ele>
        <time>2021-07-27T19:04:50.023Z</time>
      </trkpt>
      <trkpt lat="50.26663516648114" lon="5.697713429108262">
        <ele>546.94</ele>
        <time>2021-07-27T19:05:03.506Z</time>
      </trkpt>
      <trkpt lat="50.26650616899133" lon="5.6980072148144245">
        <ele>548.89</ele>
        <time>2021-07-27T19:05:16.993Z</time>
      </trkpt>
      <trkpt lat="50.2663779258728" lon="5.698299407958984">
        <ele>550.89</ele>
        <time>2021-07-27T19:05:30.483Z</time>
      </trkpt>
      <trkpt lat="50.266378009691834" lon="5.698299407958984">
        <ele>552.88</ele>
        <time>2021-07-27T19:05:43.973Z</time>
      </trkpt>
      <trkpt lat="50.266201654449105" lon="5.6986734084784985">
        <ele>554.91</ele>
        <time>2021-07-27T19:05:57.468Z</time>
      </trkpt>
      <trkpt lat="50.26602538302541" lon="5.699047492817044">
        <ele>556.85</ele>
        <time>2021-07-27T19:06:10.968Z</time>
      </trkpt>
      <trkpt lat="50.26584911160171" lon="5.69942157715559">
        <ele>558.9</ele>
        <time>2021-07-27T19:06:24.473Z</time>
      </trkpt>
      <trkpt lat="50.26567284017801" lon="5.699795577675104">
        <ele>561.01</ele>
        <time>2021-07-27T19:06:37.982Z</time>
      </trkpt>
      <trkpt lat="50.26549824513495" lon="5.70016622543335">
        <ele>563.24</ele>
        <time>2021-07-27T19:06:51.496Z</time>
      </trkpt>
      <trkpt lat="50.26531543582678" lon="5.7005553133785725">
        <ele>565.49</ele>
        <time>2021-07-27T19:07:05.015Z</time>
      </trkpt>
      <trkpt lat="50.26513271033764" lon="5.700944401323795">
        <ele>567.7</ele>
        <time>2021-07-27T19:07:18.539Z</time>
      </trkpt>
      <trkpt lat="50.2649499848485" lon="5.70133357308805">
        <ele>569.97</ele>
        <time>2021-07-27T19:07:32.068Z</time>
      </trkpt>
      <trkpt lat="50.26476725935936" lon="5.701722661033273">
        <ele>572.24</ele>
        <time>2021-07-27T19:07:45.602Z</time>
      </trkpt>
      <trkpt lat="50.26458453387022" lon="5.702111748978496">
        <ele>574.48</ele>
        <time>2021-07-27T19:07:59.141Z</time>
      </trkpt>
      <trkpt lat="50.26440180838108" lon="5.70250092074275">
        <ele>576.69</ele>
        <time>2021-07-27T19:08:12.685Z</time>
      </trkpt>
      <trkpt lat="50.26421908289194" lon="5.702890008687973">
        <ele>578.81</ele>
        <time>2021-07-27T19:08:26.234Z</time>
      </trkpt>
      <trkpt lat="50.2640363574028" lon="5.703279096633196">
        <ele>580.97</ele>
        <time>2021-07-27T19:08:39.788Z</time>
      </trkpt>
      <trkpt lat="50.26385363191366" lon="5.7036682683974504">
        <ele>583.12</ele>
        <time>2021-07-27T19:08:53.347Z</time>
      </trkpt>
      <trkpt lat="50.26367434300482" lon="5.704050064086914">
        <ele>585.21</ele>
        <time>2021-07-27T19:09:06.910Z</time>
      </trkpt>
      <trkpt lat="50.2634940482676" lon="5.704434206709266">
        <ele>587.34</ele>
        <time>2021-07-27T19:09:20.478Z</time>
      </trkpt>
      <trkpt lat="50.263313837349415" lon="5.704818349331617">
        <ele>589.43</ele>
        <time>2021-07-27T19:09:34.051Z</time>
      </trkpt>
      <trkpt lat="50.26313362643123" lon="5.705202575773001">
        <ele>591.4</ele>
        <time>2021-07-27T19:09:47.629Z</time>
      </trkpt>
      <trkpt lat="50.26295341551304" lon="5.705586718395352">
        <ele>593.31</ele>
        <time>2021-07-27T19:10:01.212Z</time>
      </trkpt>
      <trkpt lat="50.26277320459485" lon="5.705970861017704">
        <ele>595.11</ele>
        <time>2021-07-27T19:10:14.800Z</time>
      </trkpt>
      <trkpt lat="50.26259290985763" lon="5.706355003640056">
        <ele>596.77</ele>
        <time>2021-07-27T19:10:28.393Z</time>
      </trkpt>
      <trkpt lat="50.26241269893944" lon="5.706739230081439">
        <ele>598.32</ele>
        <time>2021-07-27T19:10:41.991Z</time>
      </trkpt>
      <trkpt lat="50.262232488021255" lon="5.707123372703791">
        <ele>599.86</ele>
        <time>2021-07-27T19:10:55.594Z</time>
      </trkpt>
      <trkpt lat="50.26205529458821" lon="5.7075010612607">
        <ele>601.22</ele>
        <time>2021-07-27T19:11:09.201Z</time>
      </trkpt>
      <trkpt lat="50.262043476104736" lon="5.707526206970215">
        <ele>602.41</ele>
        <time>2021-07-27T19:11:22.809Z</time>
      </trkpt>
      <trkpt lat="50.26189603842795" lon="5.707919402047992">
        <ele>603.49</ele>
        <time>2021-07-27T19:11:36.421Z</time>
      </trkpt>
      <trkpt lat="50.26174860075116" lon="5.708312597125769">
        <ele>604.47</ele>
        <time>2021-07-27T19:11:50.038Z</time>
      </trkpt>
      <trkpt lat="50.261601163074374" lon="5.708705792203546">
        <ele>605.36</ele>
        <time>2021-07-27T19:12:03.660Z</time>
      </trkpt>
      <trkpt lat="50.26145372539759" lon="5.7090989872813225">
        <ele>606.16</ele>
        <time>2021-07-27T19:12:17.286Z</time>
      </trkpt>
      <trkpt lat="50.2613062877208" lon="5.709492182359099">
        <ele>606.84</ele>
        <time>2021-07-27T19:12:30.917Z</time>
      </trkpt>
      <trkpt lat="50.26115885004401" lon="5.709885377436876">
        <ele>607.47</ele>
        <time>2021-07-27T19:12:44.553Z</time>
      </trkpt>
      <trkpt lat="50.26101359166205" lon="5.710272789001465">
        <ele>607.93</ele>
        <time>2021-07-27T19:12:58.193Z</time>
      </trkpt>
      <trkpt lat="50.260906303301454" lon="5.710551738739014">
        <ele>608.46</ele>
        <time>2021-07-27T19:13:11.837Z</time>
      </trkpt>
      <trkpt lat="50.26075408793986" lon="5.710953650996089">
        <ele>608.96</ele>
        <time>2021-07-27T19:13:25.485Z</time>
      </trkpt>
      <trkpt lat="50.260601956397295" lon="5.711355647072196">
        <ele>609.38</ele>
        <time>2021-07-27T19:13:39.138Z</time>
      </trkpt>
      <trkpt lat="50.2604497410357" lon="5.711757559329271">
        <ele>609.63</ele>
        <time>2021-07-27T19:13:52.796Z</time>
      </trkpt>
      <trkpt lat="50.260297609493136" lon="5.712159555405378">
        <ele>609.86</ele>
        <time>2021-07-27T19:14:06.459Z</time>
      </trkpt>
      <trkpt lat="50.26014539413154" lon="5.712561467662454">
        <ele>610.15</ele>
        <time>2021-07-27T19:14:20.127Z</time>
      </trkpt>
      <trkpt lat="50.25999326258898" lon="5.712963463738561">
        <ele>610.53</ele>
        <time>2021-07-27T19:14:33.799Z</time>
      </trkpt>
      <trkpt lat="50.25984104722738" lon="5.713365375995636">
        <ele>610.93</ele>
        <time>2021-07-27T19:14:47.476Z</time>
      </trkpt>
      <trkpt lat="50.25968891568482" lon="5.713767372071743">
        <ele>611.3</ele>
        <time>2021-07-27T19:15:01.158Z</time>
      </trkpt>
      <trkpt lat="50.259536784142256" lon="5.714169284328818">
        <ele>611.62</ele>
        <time>2021-07-27T19:15:14.845Z</time>
      </trkpt>
      <trkpt lat="50.25938456878066" lon="5.714571280404925">
        <ele>611.98</ele>
        <time>2021-07-27T19:15:28.537Z</time>
      </trkpt>
      <trkpt lat="50.2592324372381" lon="5.714973192662001">
        <ele>612.31</ele>
        <time>2021-07-27T19:15:42.233Z</time>
      </trkpt>
      <trkpt lat="50.2590802218765" lon="5.715375104919076">
        <ele>612.66</ele>
        <time>2021-07-27T19:15:55.934Z</time>
      </trkpt>
      <trkpt lat="50.25893219746649" lon="5.715765953063965">
        <ele>613.1</ele>
        <time>2021-07-27T19:16:09.640Z</time>
      </trkpt>
      <trkpt lat="50.25888919830322" lon="5.715916156768799">
        <ele>613.52</ele>
        <time>2021-07-27T19:16:23.348Z</time>
      </trkpt>
      <trkpt lat="50.258889282122254" lon="5.715916156768799">
        <ele>613.9</ele>
        <time>2021-07-27T19:16:37.056Z</time>
      </trkpt>
      <trkpt lat="50.258755926042795" lon="5.7162687834352255">
        <ele>614.39</ele>
        <time>2021-07-27T19:16:50.768Z</time>
      </trkpt>
      <trkpt lat="50.258622569963336" lon="5.716621410101652">
        <ele>614.85</ele>
        <time>2021-07-27T19:17:04.484Z</time>
      </trkpt>
      <trkpt lat="50.25848929770291" lon="5.716974036768079">
        <ele>615.29</ele>
        <time>2021-07-27T19:17:18.204Z</time>
      </trkpt>
      <trkpt lat="50.25835594162345" lon="5.717326747253537">
        <ele>615.83</ele>
        <time>2021-07-27T19:17:31.928Z</time>
      </trkpt>
      <trkpt lat="50.25822409428656" lon="5.717675685882568">
        <ele>616.37</ele>
        <time>2021-07-27T19:17:45.657Z</time>
      </trkpt>
      <trkpt lat="50.25820255279541" lon="5.717718601226807">
        <ele>616.94</ele>
        <time>2021-07-27T19:17:59.386Z</time>
      </trkpt>
      <trkpt lat="50.25820263661444" lon="5.717718601226807">
        <ele>617.52</ele>
        <time>2021-07-27T19:18:13.115Z</time>
      </trkpt>
      <trkpt lat="50.2580735553056" lon="5.718078771606088">
        <ele>618.12</ele>
        <time>2021-07-27T19:18:26.848Z</time>
      </trkpt>
      <trkpt lat="50.25794447399676" lon="5.718438941985369">
        <ele>618.75</ele>
        <time>2021-07-27T19:18:40.586Z</time>
      </trkpt>
      <trkpt lat="50.25781547650695" lon="5.71879911236465">
        <ele>619.46</ele>
        <time>2021-07-27T19:18:54.328Z</time>
      </trkpt>
      <trkpt lat="50.25768756866455" lon="5.719156265258789">
        <ele>620.22</ele>
        <time>2021-07-27T19:19:08.074Z</time>
      </trkpt>
      <trkpt lat="50.25756385177374" lon="5.719537977129221">
        <ele>621.03</ele>
        <time>2021-07-27T19:19:21.824Z</time>
      </trkpt>
      <trkpt lat="50.25744021870196" lon="5.719919688999653">
        <ele>621.8</ele>
        <time>2021-07-27T19:19:35.579Z</time>
      </trkpt>
      <trkpt lat="50.25731658563018" lon="5.720301400870085">
        <ele>622.68</ele>
        <time>2021-07-27T19:19:49.338Z</time>
      </trkpt>
      <trkpt lat="50.25719404220581" lon="5.720679759979248">
        <ele>623.56</ele>
        <time>2021-07-27T19:20:03.102Z</time>
      </trkpt>
      <trkpt lat="50.257071079686284" lon="5.721125258132815">
        <ele>624.5</ele>
        <time>2021-07-27T19:20:16.871Z</time>
      </trkpt>
      <trkpt lat="50.25694820098579" lon="5.721570840105414">
        <ele>625.5</ele>
        <time>2021-07-27T19:20:30.644Z</time>
      </trkpt>
      <trkpt lat="50.256825322285295" lon="5.722016338258982">
        <ele>626.44</ele>
        <time>2021-07-27T19:20:44.422Z</time>
      </trkpt>
      <trkpt lat="50.25670235976577" lon="5.722461920231581">
        <ele>627.39</ele>
        <time>2021-07-27T19:20:58.205Z</time>
      </trkpt>
      <trkpt lat="50.25657948106527" lon="5.72290750220418">
        <ele>628.3</ele>
        <time>2021-07-27T19:21:11.993Z</time>
      </trkpt>
      <trkpt lat="50.25645660236478" lon="5.723353000357747">
        <ele>629.27</ele>
        <time>2021-07-27T19:21:25.786Z</time>
      </trkpt>
      <trkpt lat="50.256335735321045" lon="5.723791122436523">
        <ele>630.19</ele>
        <time>2021-07-27T19:21:39.584Z</time>
      </trkpt>
      <trkpt lat="50.2562066540122" lon="5.724188927561045">
        <ele>631.17</ele>
        <time>2021-07-27T19:21:53.387Z</time>
      </trkpt>
      <trkpt lat="50.256078243255615" lon="5.724585056304932">
        <ele>632.05</ele>
        <time>2021-07-27T19:22:07.194Z</time>
      </trkpt>
      <trkpt lat="50.25603541173041" lon="5.724735260009766">
        <ele>632.96</ele>
        <time>2021-07-27T19:22:21.003Z</time>
      </trkpt>
      <trkpt lat="50.25590633042157" lon="5.725108003243804">
        <ele>633.92</ele>
        <time>2021-07-27T19:22:34.816Z</time>
      </trkpt>
      <trkpt lat="50.255777249112725" lon="5.725480746477842">
        <ele>634.85</ele>
        <time>2021-07-27T19:22:48.634Z</time>
      </trkpt>
      <trkpt lat="50.25564908981323" lon="5.725851058959961">
        <ele>635.85</ele>
        <time>2021-07-27T19:23:02.456Z</time>
      </trkpt>
      <trkpt lat="50.25562763214111" lon="5.725958347320557">
        <ele>636.74</ele>
        <time>2021-07-27T19:23:16.279Z</time>
      </trkpt>
      <trkpt lat="50.255505759269" lon="5.726295216009021">
        <ele>637.64</ele>
        <time>2021-07-27T19:23:30.106Z</time>
      </trkpt>
      <trkpt lat="50.255383886396885" lon="5.726632084697485">
        <ele>638.51</ele>
        <time>2021-07-27T19:23:43.937Z</time>
      </trkpt>
      <trkpt lat="50.25526285171509" lon="5.726966857910156">
        <ele>639.33</ele>
        <time>2021-07-27T19:23:57.772Z</time>
      </trkpt>
      <trkpt lat="50.25526293553412" lon="5.726966857910156">
        <ele>640.09</ele>
        <time>2021-07-27T19:24:11.607Z</time>
      </trkpt>
      <trkpt lat="50.25510518811643" lon="5.727335913106799">
        <ele>640.84</ele>
        <time>2021-07-27T19:24:25.447Z</time>
      </trkpt>
      <trkpt lat="50.254947524517775" lon="5.727704968303442">
        <ele>641.52</ele>
        <time>2021-07-27T19:24:39.291Z</time>
      </trkpt>
      <trkpt lat="50.25478986091912" lon="5.728074107319117">
        <ele>642.16</ele>
        <time>2021-07-27T19:24:53.140Z</time>
      </trkpt>
      <trkpt lat="50.25463219732046" lon="5.7284431625157595">
        <ele>642.82</ele>
        <time>2021-07-27T19:25:06.993Z</time>
      </trkpt>
      <trkpt lat="50.254474533721805" lon="5.728812301531434">
        <ele>643.48</ele>
        <time>2021-07-27T19:25:20.851Z</time>
      </trkpt>
      <trkpt lat="50.254318714141846" lon="5.729176998138428">
        <ele>644.1</ele>
        <time>2021-07-27T19:25:34.713Z</time>
      </trkpt>
      <trkpt lat="50.254135904833674" lon="5.729574635624886">
        <ele>644.64</ele>
        <time>2021-07-27T19:25:48.580Z</time>
      </trkpt>
      <trkpt lat="50.25395393371582" lon="5.729970932006836">
        <ele>645.12</ele>
        <time>2021-07-27T19:26:02.453Z</time>
      </trkpt>
      <trkpt lat="50.25377766229212" lon="5.730310482904315">
        <ele>645.56</ele>
        <time>2021-07-27T19:26:16.330Z</time>
      </trkpt>
      <trkpt lat="50.253601390868425" lon="5.730650117620826">
        <ele>646.03</ele>
        <time>2021-07-27T19:26:30.211Z</time>
      </trkpt>
      <trkpt lat="50.25342511944473" lon="5.7309897523373365">
        <ele>646.43</ele>
        <time>2021-07-27T19:26:44.097Z</time>
      </trkpt>
      <trkpt lat="50.25324884802103" lon="5.731329387053847">
        <ele>646.81</ele>
        <time>2021-07-27T19:26:57.987Z</time>
      </trkpt>
      <trkpt lat="50.253074169158936" lon="5.731666088104248">
        <ele>647.18</ele>
        <time>2021-07-27T19:27:11.882Z</time>
      </trkpt>
      <trkpt lat="50.25307425297797" lon="5.731666088104248">
        <ele>647.41</ele>
        <time>2021-07-27T19:27:25.777Z</time>
      </trkpt>
      <trkpt lat="50.252966713160276" lon="5.731881000101566">
        <ele>647.6</ele>
        <time>2021-07-27T19:27:39.675Z</time>
      </trkpt>
      <trkpt lat="50.252859592437744" lon="5.732095241546631">
        <ele>647.75</ele>
        <time>2021-07-27T19:27:53.575Z</time>
      </trkpt>
      <trkpt lat="50.252741323783994" lon="5.732299340888858">
        <ele>647.83</ele>
        <time>2021-07-27T19:28:07.478Z</time>
      </trkpt>
      <trkpt lat="50.252623558044434" lon="5.7325029373168945">
        <ele>647.91</ele>
        <time>2021-07-27T19:28:21.384Z</time>
      </trkpt>
      <trkpt lat="50.25250528939068" lon="5.732685578987002">
        <ele>647.89</ele>
        <time>2021-07-27T19:28:35.293Z</time>
      </trkpt>
      <trkpt lat="50.25238752365112" lon="5.73286771774292">
        <ele>647.82</ele>
        <time>2021-07-27T19:28:49.204Z</time>
      </trkpt>
      <trkpt lat="50.25218602269888" lon="5.733203496783972">
        <ele>647.71</ele>
        <time>2021-07-27T19:29:03.120Z</time>
      </trkpt>
      <trkpt lat="50.251984521746635" lon="5.733539275825024">
        <ele>647.61</ele>
        <time>2021-07-27T19:29:17.041Z</time>
      </trkpt>
      <trkpt lat="50.25178310461342" lon="5.7338750548660755">
        <ele>647.47</ele>
        <time>2021-07-27T19:29:30.967Z</time>
      </trkpt>
      <trkpt lat="50.25158160366118" lon="5.734210917726159">
        <ele>647.2</ele>
        <time>2021-07-27T19:29:44.897Z</time>
      </trkpt>
      <trkpt lat="50.25138018652797" lon="5.734546696767211">
        <ele>646.95</ele>
        <time>2021-07-27T19:29:58.832Z</time>
      </trkpt>
      <trkpt lat="50.251178685575724" lon="5.734882475808263">
        <ele>646.65</ele>
        <time>2021-07-27T19:30:12.772Z</time>
      </trkpt>
      <trkpt lat="50.25097726844251" lon="5.735218254849315">
        <ele>646.23</ele>
        <time>2021-07-27T19:30:26.717Z</time>
      </trkpt>
      <trkpt lat="50.25077828206122" lon="5.7355499267578125">
        <ele>645.81</ele>
        <time>2021-07-27T19:30:40.666Z</time>
      </trkpt>
      <trkpt lat="50.250585079193115" lon="5.7358503341674805">
        <ele>645.4</ele>
        <time>2021-07-27T19:30:54.620Z</time>
      </trkpt>
      <trkpt lat="50.25058516301215" lon="5.7358503341674805">
        <ele>645.05</ele>
        <time>2021-07-27T19:31:08.574Z</time>
      </trkpt>
      <trkpt lat="50.25049933232367" lon="5.7360005378723145">
        <ele>644.66</ele>
        <time>2021-07-27T19:31:22.530Z</time>
      </trkpt>
      <trkpt lat="50.25043495930731" lon="5.73610782623291">
        <ele>644.26</ele>
        <time>2021-07-27T19:31:36.487Z</time>
      </trkpt>
      <trkpt lat="50.25026321411133" lon="5.736386775970459">
        <ele>643.87</ele>
        <time>2021-07-27T19:31:50.448Z</time>
      </trkpt>
      <trkpt lat="50.25026329793036" lon="5.736386775970459">
        <ele>643.57</ele>
        <time>2021-07-27T19:32:04.409Z</time>
      </trkpt>
      <trkpt lat="50.250113094225526" lon="5.736644268035889">
        <ele>643.23</ele>
        <time>2021-07-27T19:32:18.374Z</time>
      </trkpt>
      <trkpt lat="50.25000580586493" lon="5.736837387084961">
        <ele>642.93</ele>
        <time>2021-07-27T19:32:32.341Z</time>
      </trkpt>
      <trkpt lat="50.24983380921185" lon="5.737116755917668">
        <ele>642.68</ele>
        <time>2021-07-27T19:32:46.312Z</time>
      </trkpt>
      <trkpt lat="50.24966239929199" lon="5.737395286560059">
        <ele>642.52</ele>
        <time>2021-07-27T19:33:00.287Z</time>
      </trkpt>
      <trkpt lat="50.249662483111024" lon="5.737395286560059">
        <ele>642.39</ele>
        <time>2021-07-27T19:33:14.262Z</time>
      </trkpt>
      <trkpt lat="50.24953365325928" lon="5.737631320953369">
        <ele>642.31</ele>
        <time>2021-07-27T19:33:28.240Z</time>
      </trkpt>
      <trkpt lat="50.249319076538086" lon="5.737738609313965">
        <ele>642.29</ele>
        <time>2021-07-27T19:33:42.222Z</time>
      </trkpt>
      <trkpt lat="50.24927616119385" lon="5.737695693969727">
        <ele>642.31</ele>
        <time>2021-07-27T19:33:56.205Z</time>
      </trkpt>
      <trkpt lat="50.24921178817749" lon="5.737566947937012">
        <ele>642.38</ele>
        <time>2021-07-27T19:34:10.190Z</time>
      </trkpt>
      <trkpt lat="50.2491904143244" lon="5.737416744232178">
        <ele>642.52</ele>
        <time>2021-07-27T19:34:24.176Z</time>
      </trkpt>
      <trkpt lat="50.24919033050537" lon="5.737416744232178">
        <ele>642.67</ele>
        <time>2021-07-27T19:34:38.162Z</time>
      </trkpt>
      <trkpt lat="50.2491904143244" lon="5.73711633682251">
        <ele>642.88</ele>
        <time>2021-07-27T19:34:52.151Z</time>
      </trkpt>
      <trkpt lat="50.2491904143244" lon="5.736750466749072">
        <ele>643.13</ele>
        <time>2021-07-27T19:35:06.144Z</time>
      </trkpt>
      <trkpt lat="50.2491904143244" lon="5.736386775970459">
        <ele>643.45</ele>
        <time>2021-07-27T19:35:20.141Z</time>
      </trkpt>
      <trkpt lat="50.24919033050537" lon="5.736386775970459">
        <ele>643.75</ele>
        <time>2021-07-27T19:35:34.138Z</time>
      </trkpt>
      <trkpt lat="50.2491904143244" lon="5.736064910888672">
        <ele>644.13</ele>
        <time>2021-07-27T19:35:48.138Z</time>
      </trkpt>
      <trkpt lat="50.2491544559598" lon="5.735634500160813">
        <ele>644.6</ele>
        <time>2021-07-27T19:36:02.142Z</time>
      </trkpt>
      <trkpt lat="50.24911858141422" lon="5.7352041732519865">
        <ele>645.07</ele>
        <time>2021-07-27T19:36:16.151Z</time>
      </trkpt>
      <trkpt lat="50.249083042144775" lon="5.734777450561523">
        <ele>645.53</ele>
        <time>2021-07-27T19:36:30.164Z</time>
      </trkpt>
      <trkpt lat="50.249039959162474" lon="5.734447538852692">
        <ele>645.94</ele>
        <time>2021-07-27T19:36:44.181Z</time>
      </trkpt>
      <trkpt lat="50.248996959999204" lon="5.73411762714386">
        <ele>646.35</ele>
        <time>2021-07-27T19:36:58.201Z</time>
      </trkpt>
      <trkpt lat="50.24895437993109" lon="5.733790397644043">
        <ele>646.73</ele>
        <time>2021-07-27T19:37:12.225Z</time>
      </trkpt>
      <trkpt lat="50.24895429611206" lon="5.733790397644043">
        <ele>647.09</ele>
        <time>2021-07-27T19:37:26.249Z</time>
      </trkpt>
      <trkpt lat="50.2489004842937" lon="5.733542963862419">
        <ele>647.43</ele>
        <time>2021-07-27T19:37:40.275Z</time>
      </trkpt>
      <trkpt lat="50.2488470915705" lon="5.733296871185303">
        <ele>647.75</ele>
        <time>2021-07-27T19:37:54.304Z</time>
      </trkpt>
      <trkpt lat="50.24877534247935" lon="5.7329741679131985">
        <ele>648.04</ele>
        <time>2021-07-27T19:38:08.337Z</time>
      </trkpt>
      <trkpt lat="50.2487035933882" lon="5.732651464641094">
        <ele>648.32</ele>
        <time>2021-07-27T19:38:22.373Z</time>
      </trkpt>
      <trkpt lat="50.24863243103027" lon="5.732331275939941">
        <ele>648.56</ele>
        <time>2021-07-27T19:38:36.413Z</time>
      </trkpt>
      <trkpt lat="50.2485466003418" lon="5.731966495513916">
        <ele>648.78</ele>
        <time>2021-07-27T19:38:50.457Z</time>
      </trkpt>
      <trkpt lat="50.24846060201526" lon="5.731676062569022">
        <ele>648.93</ele>
        <time>2021-07-27T19:39:04.504Z</time>
      </trkpt>
      <trkpt lat="50.248375022783875" lon="5.731387138366699">
        <ele>649.08</ele>
        <time>2021-07-27T19:39:18.554Z</time>
      </trkpt>
      <trkpt lat="50.248374938964844" lon="5.731387138366699">
        <ele>649.23</ele>
        <time>2021-07-27T19:39:32.604Z</time>
      </trkpt>
      <trkpt lat="50.24826765060425" lon="5.731065273284912">
        <ele>649.34</ele>
        <time>2021-07-27T19:39:46.658Z</time>
      </trkpt>
      <trkpt lat="50.24820336140692" lon="5.730850696563721">
        <ele>649.44</ele>
        <time>2021-07-27T19:40:00.714Z</time>
      </trkpt>
      <trkpt lat="50.248088613152504" lon="5.730563951656222">
        <ele>649.48</ele>
        <time>2021-07-27T19:40:14.774Z</time>
      </trkpt>
      <trkpt lat="50.24797394871712" lon="5.730277290567756">
        <ele>649.49</ele>
        <time>2021-07-27T19:40:28.837Z</time>
      </trkpt>
      <trkpt lat="50.247859954833984" lon="5.729992389678955">
        <ele>649.44</ele>
        <time>2021-07-27T19:40:42.904Z</time>
      </trkpt>
      <trkpt lat="50.247698687016964" lon="5.729626854881644">
        <ele>649.34</ele>
        <time>2021-07-27T19:40:56.975Z</time>
      </trkpt>
      <trkpt lat="50.24753817357123" lon="5.729262828826904">
        <ele>649.22</ele>
        <time>2021-07-27T19:41:11.051Z</time>
      </trkpt>
      <trkpt lat="50.2475380897522" lon="5.729262828826904">
        <ele>649.08</ele>
        <time>2021-07-27T19:41:25.127Z</time>
      </trkpt>
      <trkpt lat="50.24735536426306" lon="5.728929648175836">
        <ele>648.84</ele>
        <time>2021-07-27T19:41:39.207Z</time>
      </trkpt>
      <trkpt lat="50.247173393145204" lon="5.728597640991211">
        <ele>648.63</ele>
        <time>2021-07-27T19:41:53.292Z</time>
      </trkpt>
      <trkpt lat="50.24695873260498" lon="5.728275775909424">
        <ele>648.47</ele>
        <time>2021-07-27T19:42:07.381Z</time>
      </trkpt>
      <trkpt lat="50.24676527827978" lon="5.727960532531142">
        <ele>648.23</ele>
        <time>2021-07-27T19:42:21.475Z</time>
      </trkpt>
      <trkpt lat="50.246571907773614" lon="5.727645372971892">
        <ele>647.91</ele>
        <time>2021-07-27T19:42:35.573Z</time>
      </trkpt>
      <trkpt lat="50.246379375457764" lon="5.727331638336182">
        <ele>648.84</ele>
        <time>2021-07-27T19:42:49.676Z</time>
      </trkpt>
      <trkpt lat="50.246379459276795" lon="5.727331638336182">
        <ele>648.51</ele>
        <time>2021-07-27T19:43:03.779Z</time>
      </trkpt>
      <trkpt lat="50.24617309682071" lon="5.726987728849053">
        <ele>646.6</ele>
        <time>2021-07-27T19:43:17.887Z</time>
      </trkpt>
      <trkpt lat="50.24596673436463" lon="5.726643903180957">
        <ele>646.11</ele>
        <time>2021-07-27T19:43:32.000Z</time>
      </trkpt>
      <trkpt lat="50.24576045572758" lon="5.726299993693829">
        <ele>645.6</ele>
        <time>2021-07-27T19:43:46.117Z</time>
      </trkpt>
      <trkpt lat="50.245554093271494" lon="5.725956168025732">
        <ele>645.02</ele>
        <time>2021-07-27T19:44:00.239Z</time>
      </trkpt>
      <trkpt lat="50.245349407196045" lon="5.72561502456665">
        <ele>644.44</ele>
        <time>2021-07-27T19:44:14.366Z</time>
      </trkpt>
      <trkpt lat="50.24534949101508" lon="5.72561502456665">
        <ele>643.84</ele>
        <time>2021-07-27T19:44:28.493Z</time>
      </trkpt>
      <trkpt lat="50.24515335448086" lon="5.725292656570673">
        <ele>643.09</ele>
        <time>2021-07-27T19:44:42.625Z</time>
      </trkpt>
      <trkpt lat="50.24495721794665" lon="5.724970288574696">
        <ele>642.37</ele>
        <time>2021-07-27T19:44:56.761Z</time>
      </trkpt>
      <trkpt lat="50.244761165231466" lon="5.724647920578718">
        <ele>641.74</ele>
        <time>2021-07-27T19:45:10.902Z</time>
      </trkpt>
      <trkpt lat="50.24456502869725" lon="5.724325552582741">
        <ele>641.09</ele>
        <time>2021-07-27T19:45:25.047Z</time>
      </trkpt>
      <trkpt lat="50.24436897598207" lon="5.724003184586763">
        <ele>640.39</ele>
        <time>2021-07-27T19:45:39.197Z</time>
      </trkpt>
      <trkpt lat="50.244172839447856" lon="5.723680816590786">
        <ele>639.67</ele>
        <time>2021-07-27T19:45:53.351Z</time>
      </trkpt>
      <trkpt lat="50.243976786732674" lon="5.723358448594809">
        <ele>638.89</ele>
        <time>2021-07-27T19:46:07.510Z</time>
      </trkpt>
      <trkpt lat="50.24378308095038" lon="5.7230401039123535">
        <ele>638.16</ele>
        <time>2021-07-27T19:46:21.674Z</time>
      </trkpt>
      <trkpt lat="50.24364335462451" lon="5.722803650423884">
        <ele>637.49</ele>
        <time>2021-07-27T19:46:35.841Z</time>
      </trkpt>
      <trkpt lat="50.24350413121283" lon="5.722568035125732">
        <ele>636.85</ele>
        <time>2021-07-27T19:46:50.011Z</time>
      </trkpt>
      <trkpt lat="50.24329190142453" lon="5.722218761220574">
        <ele>636.21</ele>
        <time>2021-07-27T19:47:04.186Z</time>
      </trkpt>
      <trkpt lat="50.243079671636224" lon="5.721869571134448">
        <ele>635.49</ele>
        <time>2021-07-27T19:47:18.366Z</time>
      </trkpt>
      <trkpt lat="50.24286744184792" lon="5.72152029722929">
        <ele>634.76</ele>
        <time>2021-07-27T19:47:32.551Z</time>
      </trkpt>
      <trkpt lat="50.24265521205962" lon="5.721171107143164">
        <ele>634.07</ele>
        <time>2021-07-27T19:47:46.741Z</time>
      </trkpt>
      <trkpt lat="50.242442982271314" lon="5.720821833238006">
        <ele>633.45</ele>
        <time>2021-07-27T19:48:00.936Z</time>
      </trkpt>
      <trkpt lat="50.24223075248301" lon="5.720472643151879">
        <ele>632.85</ele>
        <time>2021-07-27T19:48:15.136Z</time>
      </trkpt>
      <trkpt lat="50.24201852269471" lon="5.720123453065753">
        <ele>632.21</ele>
        <time>2021-07-27T19:48:29.341Z</time>
      </trkpt>
      <trkpt lat="50.24180889129639" lon="5.719778537750244">
        <ele>631.56</ele>
        <time>2021-07-27T19:48:43.551Z</time>
      </trkpt>
      <trkpt lat="50.24180897511542" lon="5.719778537750244">
        <ele>631.12</ele>
        <time>2021-07-27T19:48:57.761Z</time>
      </trkpt>
      <trkpt lat="50.241673523560166" lon="5.719552896916866">
        <ele>630.65</ele>
        <time>2021-07-27T19:49:11.974Z</time>
      </trkpt>
      <trkpt lat="50.241481410339475" lon="5.7192327082157135">
        <ele>630.25</ele>
        <time>2021-07-27T19:49:26.191Z</time>
      </trkpt>
      <trkpt lat="50.24128929711878" lon="5.718912519514561">
        <ele>629.97</ele>
        <time>2021-07-27T19:49:40.413Z</time>
      </trkpt>
      <trkpt lat="50.24109726771712" lon="5.71859241463244">
        <ele>629.77</ele>
        <time>2021-07-27T19:49:54.639Z</time>
      </trkpt>
      <trkpt lat="50.24090515449643" lon="5.718272225931287">
        <ele>629.71</ele>
        <time>2021-07-27T19:50:08.870Z</time>
      </trkpt>
      <trkpt lat="50.24071463383734" lon="5.717954635620117">
        <ele>629.68</ele>
        <time>2021-07-27T19:50:23.105Z</time>
      </trkpt>
      <trkpt lat="50.240628803148866" lon="5.717825889587402">
        <ele>629.62</ele>
        <time>2021-07-27T19:50:37.342Z</time>
      </trkpt>
      <trkpt lat="50.24047859944403" lon="5.717568397521973">
        <ele>629.66</ele>
        <time>2021-07-27T19:50:51.583Z</time>
      </trkpt>
      <trkpt lat="50.24027533829212" lon="5.717234294861555">
        <ele>629.61</ele>
        <time>2021-07-27T19:51:05.828Z</time>
      </trkpt>
      <trkpt lat="50.240072160959244" lon="5.7169001922011375">
        <ele>629.73</ele>
        <time>2021-07-27T19:51:20.078Z</time>
      </trkpt>
      <trkpt lat="50.239868983626366" lon="5.71656608954072">
        <ele>629.94</ele>
        <time>2021-07-27T19:51:34.333Z</time>
      </trkpt>
      <trkpt lat="50.23966580629349" lon="5.716231986880302">
        <ele>630.13</ele>
        <time>2021-07-27T19:51:48.593Z</time>
      </trkpt>
      <trkpt lat="50.23946262896061" lon="5.715897884219885">
        <ele>630.44</ele>
        <time>2021-07-27T19:52:02.857Z</time>
      </trkpt>
      <trkpt lat="50.23925945162773" lon="5.715563781559467">
        <ele>630.78</ele>
        <time>2021-07-27T19:52:17.126Z</time>
      </trkpt>
      <trkpt lat="50.23905627429485" lon="5.7152297627180815">
        <ele>631.14</ele>
        <time>2021-07-27T19:52:31.400Z</time>
      </trkpt>
      <trkpt lat="50.238853096961975" lon="5.714895660057664">
        <ele>631.52</ele>
        <time>2021-07-27T19:52:45.679Z</time>
      </trkpt>
      <trkpt lat="50.2386499196291" lon="5.714561557397246">
        <ele>632.01</ele>
        <time>2021-07-27T19:52:59.962Z</time>
      </trkpt>
      <trkpt lat="50.23844674229622" lon="5.714227454736829">
        <ele>632.48</ele>
        <time>2021-07-27T19:53:14.250Z</time>
      </trkpt>
      <trkpt lat="50.23824700154364" lon="5.7138991355896">
        <ele>632.92</ele>
        <time>2021-07-27T19:53:28.543Z</time>
      </trkpt>
      <trkpt lat="50.23805354721844" lon="5.713576767593622">
        <ele>633.49</ele>
        <time>2021-07-27T19:53:42.840Z</time>
      </trkpt>
      <trkpt lat="50.23786009289324" lon="5.713254399597645">
        <ele>634.14</ele>
        <time>2021-07-27T19:53:57.142Z</time>
      </trkpt>
      <trkpt lat="50.237666722387075" lon="5.712932031601667">
        <ele>634.77</ele>
        <time>2021-07-27T19:54:11.448Z</time>
      </trkpt>
      <trkpt lat="50.237473268061876" lon="5.71260966360569">
        <ele>635.38</ele>
        <time>2021-07-27T19:54:25.759Z</time>
      </trkpt>
      <trkpt lat="50.23727989755571" lon="5.712287295609713">
        <ele>636.05</ele>
        <time>2021-07-27T19:54:40.074Z</time>
      </trkpt>
      <trkpt lat="50.23708828724921" lon="5.711967945098877">
        <ele>636.7</ele>
        <time>2021-07-27T19:54:54.394Z</time>
      </trkpt>
      <trkpt lat="50.23687337525189" lon="5.711613306775689">
        <ele>637.37</ele>
        <time>2021-07-27T19:55:08.719Z</time>
      </trkpt>
      <trkpt lat="50.23665846325457" lon="5.711258668452501">
        <ele>637.93</ele>
        <time>2021-07-27T19:55:23.049Z</time>
      </trkpt>
      <trkpt lat="50.23644355125725" lon="5.7109040301293135">
        <ele>638.38</ele>
        <time>2021-07-27T19:55:37.384Z</time>
      </trkpt>
      <trkpt lat="50.236228639259934" lon="5.710549475625157">
        <ele>638.76</ele>
        <time>2021-07-27T19:55:51.724Z</time>
      </trkpt>
      <trkpt lat="50.236013727262616" lon="5.7101948373019695">
        <ele>638.97</ele>
        <time>2021-07-27T19:56:06.069Z</time>
      </trkpt>
      <trkpt lat="50.2357988152653" lon="5.709840198978782">
        <ele>639.09</ele>
        <time>2021-07-27T19:56:20.419Z</time>
      </trkpt>
      <trkpt lat="50.23558390326798" lon="5.709485644474626">
        <ele>639.24</ele>
        <time>2021-07-27T19:56:34.774Z</time>
      </trkpt>
      <trkpt lat="50.23536899127066" lon="5.709131006151438">
        <ele>639.4</ele>
        <time>2021-07-27T19:56:49.134Z</time>
      </trkpt>
      <trkpt lat="50.23515407927334" lon="5.708776451647282">
        <ele>639.39</ele>
        <time>2021-07-27T19:57:03.499Z</time>
      </trkpt>
      <trkpt lat="50.234939167276025" lon="5.708421813324094">
        <ele>639.28</ele>
        <time>2021-07-27T19:57:17.869Z</time>
      </trkpt>
      <trkpt lat="50.23472425527871" lon="5.708067175000906">
        <ele>639.19</ele>
        <time>2021-07-27T19:57:32.244Z</time>
      </trkpt>
      <trkpt lat="50.23450934328139" lon="5.70771262049675">
        <ele>639.05</ele>
        <time>2021-07-27T19:57:46.624Z</time>
      </trkpt>
      <trkpt lat="50.2342945151031" lon="5.707357982173562">
        <ele>638.85</ele>
        <time>2021-07-27T19:58:01.009Z</time>
      </trkpt>
      <trkpt lat="50.234084129333496" lon="5.7070112228393555">
        <ele>638.6</ele>
        <time>2021-07-27T19:58:15.399Z</time>
      </trkpt>
      <trkpt lat="50.23386921733618" lon="5.706667313352227">
        <ele>638.39</ele>
        <time>2021-07-27T19:58:29.794Z</time>
      </trkpt>
      <trkpt lat="50.23365497589111" lon="5.706324577331543">
        <ele>638.13</ele>
        <time>2021-07-27T19:58:44.194Z</time>
      </trkpt>
      <trkpt lat="50.23346420377493" lon="5.706012938171625">
        <ele>637.75</ele>
        <time>2021-07-27T19:58:58.598Z</time>
      </trkpt>
      <trkpt lat="50.23327351547778" lon="5.705701299011707">
        <ele>637.28</ele>
        <time>2021-07-27T19:59:13.007Z</time>
      </trkpt>
      <trkpt lat="50.23308274336159" lon="5.7053896598517895">
        <ele>636.74</ele>
        <time>2021-07-27T19:59:27.420Z</time>
      </trkpt>
      <trkpt lat="50.23289205506444" lon="5.705078104510903">
        <ele>636.18</ele>
        <time>2021-07-27T19:59:41.837Z</time>
      </trkpt>
      <trkpt lat="50.232701282948256" lon="5.7047664653509855">
        <ele>635.72</ele>
        <time>2021-07-27T19:59:56.259Z</time>
      </trkpt>
      <trkpt lat="50.2325105946511" lon="5.704454826191068">
        <ele>635.42</ele>
        <time>2021-07-27T20:00:10.685Z</time>
      </trkpt>
      <trkpt lat="50.23231990635395" lon="5.704143270850182">
        <ele>635.12</ele>
        <time>2021-07-27T20:00:25.116Z</time>
      </trkpt>
      <trkpt lat="50.232131481170654" lon="5.703835487365723">
        <ele>634.8</ele>
        <time>2021-07-27T20:00:39.551Z</time>
      </trkpt>
      <trkpt lat="50.232131564989686" lon="5.703835487365723">
        <ele>638.43</ele>
        <time>2021-07-27T20:00:53.986Z</time>
      </trkpt>
      <trkpt lat="50.2320671081543" lon="5.703728199005127">
        <ele>634.01</ele>
        <time>2021-07-27T20:01:08.423Z</time>
      </trkpt>
      <trkpt lat="50.23206719197333" lon="5.703728199005127">
        <ele>633.63</ele>
        <time>2021-07-27T20:01:22.860Z</time>
      </trkpt>
      <trkpt lat="50.23187801241875" lon="5.7034143805503845">
        <ele>633.24</ele>
        <time>2021-07-27T20:01:37.301Z</time>
      </trkpt>
      <trkpt lat="50.2316889166832" lon="5.703100645914674">
        <ele>632.79</ele>
        <time>2021-07-27T20:01:51.746Z</time>
      </trkpt>
      <trkpt lat="50.231499737128615" lon="5.702786827459931">
        <ele>632.44</ele>
        <time>2021-07-27T20:02:06.196Z</time>
      </trkpt>
      <trkpt lat="50.231310641393065" lon="5.702473092824221">
        <ele>632.15</ele>
        <time>2021-07-27T20:02:20.650Z</time>
      </trkpt>
      <trkpt lat="50.231122970581055" lon="5.70216178894043">
        <ele>631.76</ele>
        <time>2021-07-27T20:02:35.109Z</time>
      </trkpt>
      <trkpt lat="50.231123054400086" lon="5.70216178894043">
        <ele>631.44</ele>
        <time>2021-07-27T20:02:49.568Z</time>
      </trkpt>
      <trkpt lat="50.23091266863048" lon="5.701816705986857">
        <ele>631.04</ele>
        <time>2021-07-27T20:03:04.032Z</time>
      </trkpt>
      <trkpt lat="50.230702282860875" lon="5.701471706852317">
        <ele>630.69</ele>
        <time>2021-07-27T20:03:18.500Z</time>
      </trkpt>
      <trkpt lat="50.23049189709127" lon="5.701126707717776">
        <ele>630.34</ele>
        <time>2021-07-27T20:03:32.973Z</time>
      </trkpt>
      <trkpt lat="50.230281511321664" lon="5.700781708583236">
        <ele>630.05</ele>
        <time>2021-07-27T20:03:47.451Z</time>
      </trkpt>
      <trkpt lat="50.23007112555206" lon="5.700436709448695">
        <ele>629.83</ele>
        <time>2021-07-27T20:04:01.934Z</time>
      </trkpt>
      <trkpt lat="50.22986073978245" lon="5.700091710314155">
        <ele>629.67</ele>
        <time>2021-07-27T20:04:16.422Z</time>
      </trkpt>
      <trkpt lat="50.22965035401285" lon="5.699746711179614">
        <ele>629.54</ele>
        <time>2021-07-27T20:04:30.915Z</time>
      </trkpt>
      <trkpt lat="50.22943996824324" lon="5.6994017120450735">
        <ele>629.36</ele>
        <time>2021-07-27T20:04:45.413Z</time>
      </trkpt>
      <trkpt lat="50.22922966629267" lon="5.699056712910533">
        <ele>629.23</ele>
        <time>2021-07-27T20:04:59.916Z</time>
      </trkpt>
      <trkpt lat="50.22901928052306" lon="5.698711713775992">
        <ele>629.04</ele>
        <time>2021-07-27T20:05:14.424Z</time>
      </trkpt>
      <trkpt lat="50.228808894753456" lon="5.698366714641452">
        <ele>628.83</ele>
        <time>2021-07-27T20:05:28.936Z</time>
      </trkpt>
      <trkpt lat="50.22859850898385" lon="5.698021799325943">
        <ele>628.61</ele>
        <time>2021-07-27T20:05:43.453Z</time>
      </trkpt>
      <trkpt lat="50.228388123214245" lon="5.697676800191402">
        <ele>628.34</ele>
        <time>2021-07-27T20:05:57.975Z</time>
      </trkpt>
      <trkpt lat="50.22817773744464" lon="5.697331801056862">
        <ele>628.04</ele>
        <time>2021-07-27T20:06:12.502Z</time>
      </trkpt>
      <trkpt lat="50.227967351675034" lon="5.696986801922321">
        <ele>627.73</ele>
        <time>2021-07-27T20:06:27.034Z</time>
      </trkpt>
      <trkpt lat="50.22775696590543" lon="5.696641802787781">
        <ele>627.41</ele>
        <time>2021-07-27T20:06:41.571Z</time>
      </trkpt>
      <trkpt lat="50.22754658013582" lon="5.69629680365324">
        <ele>627.1</ele>
        <time>2021-07-27T20:06:56.113Z</time>
      </trkpt>
      <trkpt lat="50.22733627818525" lon="5.695951888337731">
        <ele>626.8</ele>
        <time>2021-07-27T20:07:10.660Z</time>
      </trkpt>
      <trkpt lat="50.227131843566895" lon="5.695617198944092">
        <ele>626.43</ele>
        <time>2021-07-27T20:07:25.211Z</time>
      </trkpt>
      <trkpt lat="50.227013658732176" lon="5.695391474291682">
        <ele>626.08</ele>
        <time>2021-07-27T20:07:39.765Z</time>
      </trkpt>
      <trkpt lat="50.226895892992616" lon="5.69516658782959">
        <ele>625.74</ele>
        <time>2021-07-27T20:07:54.322Z</time>
      </trkpt>
      <trkpt lat="50.226777540519834" lon="5.694822426885366">
        <ele>625.44</ele>
        <time>2021-07-27T20:08:08.883Z</time>
      </trkpt>
      <trkpt lat="50.22665977478027" lon="5.694479942321777">
        <ele>625.17</ele>
        <time>2021-07-27T20:08:23.448Z</time>
      </trkpt>
      <trkpt lat="50.22660596296191" lon="5.6942325085401535">
        <ele>624.91</ele>
        <time>2021-07-27T20:08:38.016Z</time>
      </trkpt>
      <trkpt lat="50.22655257023871" lon="5.693986415863037">
        <ele>624.63</ele>
        <time>2021-07-27T20:08:52.587Z</time>
      </trkpt>
      <trkpt lat="50.22650948725641" lon="5.693613421171904">
        <ele>624.34</ele>
        <time>2021-07-27T20:09:07.162Z</time>
      </trkpt>
      <trkpt lat="50.226466404274106" lon="5.693240510299802">
        <ele>624.03</ele>
        <time>2021-07-27T20:09:21.741Z</time>
      </trkpt>
      <trkpt lat="50.22642374038696" lon="5.692870616912842">
        <ele>623.66</ele>
        <time>2021-07-27T20:09:36.323Z</time>
      </trkpt>
      <trkpt lat="50.226393565535545" lon="5.692410115152597">
        <ele>623.25</ele>
        <time>2021-07-27T20:09:50.910Z</time>
      </trkpt>
      <trkpt lat="50.22636347450316" lon="5.691949613392353">
        <ele>622.92</ele>
        <time>2021-07-27T20:10:05.502Z</time>
      </trkpt>
      <trkpt lat="50.22633329965174" lon="5.691489111632109">
        <ele>622.57</ele>
        <time>2021-07-27T20:10:20.099Z</time>
      </trkpt>
      <trkpt lat="50.226303208619356" lon="5.691028693690896">
        <ele>622.11</ele>
        <time>2021-07-27T20:10:34.700Z</time>
      </trkpt>
      <trkpt lat="50.22627353668213" lon="5.690574645996094">
        <ele>621.59</ele>
        <time>2021-07-27T20:10:49.306Z</time>
      </trkpt>
      <trkpt lat="50.22627362050116" lon="5.690574645996094">
        <ele>621.19</ele>
        <time>2021-07-27T20:11:03.912Z</time>
      </trkpt>
      <trkpt lat="50.22623824886978" lon="5.690096206963062">
        <ele>620.73</ele>
        <time>2021-07-27T20:11:18.523Z</time>
      </trkpt>
      <trkpt lat="50.22620287723839" lon="5.6896178517490625">
        <ele>620.36</ele>
        <time>2021-07-27T20:11:33.139Z</time>
      </trkpt>
      <trkpt lat="50.22616758942604" lon="5.689139412716031">
        <ele>619.99</ele>
        <time>2021-07-27T20:11:47.760Z</time>
      </trkpt>
      <trkpt lat="50.22613221779466" lon="5.688661057502031">
        <ele>619.55</ele>
        <time>2021-07-27T20:12:02.386Z</time>
      </trkpt>
      <trkpt lat="50.226096929982305" lon="5.688182618469">
        <ele>619.08</ele>
        <time>2021-07-27T20:12:17.017Z</time>
      </trkpt>
      <trkpt lat="50.22606155835092" lon="5.687704263255">
        <ele>618.58</ele>
        <time>2021-07-27T20:12:31.653Z</time>
      </trkpt>
      <trkpt lat="50.22602627053857" lon="5.687225908041">
        <ele>618.02</ele>
        <time>2021-07-27T20:12:46.294Z</time>
      </trkpt>
      <trkpt lat="50.225990898907185" lon="5.686747469007969">
        <ele>617.43</ele>
        <time>2021-07-27T20:13:00.940Z</time>
      </trkpt>
      <trkpt lat="50.2259555272758" lon="5.686269113793969">
        <ele>616.8</ele>
        <time>2021-07-27T20:13:15.591Z</time>
      </trkpt>
      <trkpt lat="50.2259211614728" lon="5.685804085806012">
        <ele>616.12</ele>
        <time>2021-07-27T20:13:30.247Z</time>
      </trkpt>
      <trkpt lat="50.225886795669794" lon="5.685338973999023">
        <ele>615.41</ele>
        <time>2021-07-27T20:13:44.907Z</time>
      </trkpt>
      <trkpt lat="50.22585242986679" lon="5.684873946011066">
        <ele>614.73</ele>
        <time>2021-07-27T20:13:59.572Z</time>
      </trkpt>
      <trkpt lat="50.22581806406379" lon="5.684408918023109">
        <ele>614.07</ele>
        <time>2021-07-27T20:14:14.242Z</time>
      </trkpt>
      <trkpt lat="50.225783698260784" lon="5.683943806216121">
        <ele>613.42</ele>
        <time>2021-07-27T20:14:28.917Z</time>
      </trkpt>
      <trkpt lat="50.22574941627681" lon="5.683478778228164">
        <ele>612.81</ele>
        <time>2021-07-27T20:14:43.597Z</time>
      </trkpt>
      <trkpt lat="50.22571563720703" lon="5.683021545410156">
        <ele>612.16</ele>
        <time>2021-07-27T20:14:58.281Z</time>
      </trkpt>
      <trkpt lat="50.22568873129785" lon="5.682623405009508">
        <ele>611.47</ele>
        <time>2021-07-27T20:15:12.969Z</time>
      </trkpt>
      <trkpt lat="50.22566182538867" lon="5.682225348427892">
        <ele>610.76</ele>
        <time>2021-07-27T20:15:27.662Z</time>
      </trkpt>
      <trkpt lat="50.22563491947949" lon="5.681827291846275">
        <ele>610.07</ele>
        <time>2021-07-27T20:15:42.359Z</time>
      </trkpt>
      <trkpt lat="50.225608348846436" lon="5.68143367767334">
        <ele>609.34</ele>
        <time>2021-07-27T20:15:57.060Z</time>
      </trkpt>
      <trkpt lat="50.22556551732123" lon="5.680961608886719">
        <ele>608.55</ele>
        <time>2021-07-27T20:16:11.766Z</time>
      </trkpt>
      <trkpt lat="50.22554397583008" lon="5.680553913116455">
        <ele>607.74</ele>
        <time>2021-07-27T20:16:26.476Z</time>
      </trkpt>
      <trkpt lat="50.22550952620804" lon="5.680076144635677">
        <ele>606.92</ele>
        <time>2021-07-27T20:16:41.191Z</time>
      </trkpt>
      <trkpt lat="50.22547507658601" lon="5.679598459973931">
        <ele>606.09</ele>
        <time>2021-07-27T20:16:55.911Z</time>
      </trkpt>
      <trkpt lat="50.225440710783005" lon="5.679120775312185">
        <ele>605.28</ele>
        <time>2021-07-27T20:17:10.636Z</time>
      </trkpt>
      <trkpt lat="50.22540626116097" lon="5.678643090650439">
        <ele>604.39</ele>
        <time>2021-07-27T20:17:25.366Z</time>
      </trkpt>
      <trkpt lat="50.225371811538935" lon="5.678165405988693">
        <ele>603.52</ele>
        <time>2021-07-27T20:17:40.101Z</time>
      </trkpt>
      <trkpt lat="50.22533744573593" lon="5.677687721326947">
        <ele>602.72</ele>
        <time>2021-07-27T20:17:54.840Z</time>
      </trkpt>
      <trkpt lat="50.225302996113896" lon="5.677210036665201">
        <ele>601.87</ele>
        <time>2021-07-27T20:18:09.584Z</time>
      </trkpt>
      <trkpt lat="50.22526854649186" lon="5.676732352003455">
        <ele>600.99</ele>
        <time>2021-07-27T20:18:24.333Z</time>
      </trkpt>
      <trkpt lat="50.22523418068886" lon="5.676254667341709">
        <ele>600.2</ele>
        <time>2021-07-27T20:18:39.087Z</time>
      </trkpt>
      <trkpt lat="50.22520065307617" lon="5.675790309906006">
        <ele>599.34</ele>
        <time>2021-07-27T20:18:53.846Z</time>
      </trkpt>
      <trkpt lat="50.22513602860272" lon="5.675316900014877">
        <ele>598.47</ele>
        <time>2021-07-27T20:19:08.610Z</time>
      </trkpt>
      <trkpt lat="50.22507190704346" lon="5.674846172332764">
        <ele>597.66</ele>
        <time>2021-07-27T20:19:23.379Z</time>
      </trkpt>
      <trkpt lat="50.224975096061826" lon="5.6744589284062386">
        <ele>596.89</ele>
        <time>2021-07-27T20:19:38.152Z</time>
      </trkpt>
      <trkpt lat="50.224878787994385" lon="5.674073696136475">
        <ele>596.16</ele>
        <time>2021-07-27T20:19:52.930Z</time>
      </trkpt>
      <trkpt lat="50.224764039739966" lon="5.673794159665704">
        <ele>595.42</ele>
        <time>2021-07-27T20:20:07.711Z</time>
      </trkpt>
      <trkpt lat="50.22464937530458" lon="5.673514623194933">
        <ele>594.68</ele>
        <time>2021-07-27T20:20:22.495Z</time>
      </trkpt>
      <trkpt lat="50.22453546524048" lon="5.673236846923828">
        <ele>593.89</ele>
        <time>2021-07-27T20:20:37.283Z</time>
      </trkpt>
      <trkpt lat="50.224340753629804" lon="5.672851027920842">
        <ele>593.05</ele>
        <time>2021-07-27T20:20:52.076Z</time>
      </trkpt>
      <trkpt lat="50.22414612583816" lon="5.672465292736888">
        <ele>592.28</ele>
        <time>2021-07-27T20:21:06.874Z</time>
      </trkpt>
      <trkpt lat="50.22395149804652" lon="5.672079557552934">
        <ele>591.55</ele>
        <time>2021-07-27T20:21:21.677Z</time>
      </trkpt>
      <trkpt lat="50.223756870254874" lon="5.671693738549948">
        <ele>590.81</ele>
        <time>2021-07-27T20:21:36.485Z</time>
      </trkpt>
      <trkpt lat="50.2235621586442" lon="5.6713080033659935">
        <ele>590.07</ele>
        <time>2021-07-27T20:21:51.298Z</time>
      </trkpt>
      <trkpt lat="50.223367530852556" lon="5.670922268182039">
        <ele>589.33</ele>
        <time>2021-07-27T20:22:06.116Z</time>
      </trkpt>
      <trkpt lat="50.22317290306091" lon="5.670536532998085">
        <ele>588.57</ele>
        <time>2021-07-27T20:22:20.939Z</time>
      </trkpt>
      <trkpt lat="50.22297827526927" lon="5.670150797814131">
        <ele>587.88</ele>
        <time>2021-07-27T20:22:35.767Z</time>
      </trkpt>
      <trkpt lat="50.222783563658595" lon="5.669764978811145">
        <ele>587.21</ele>
        <time>2021-07-27T20:22:50.600Z</time>
      </trkpt>
      <trkpt lat="50.22258893586695" lon="5.669379243627191">
        <ele>586.51</ele>
        <time>2021-07-27T20:23:05.438Z</time>
      </trkpt>
      <trkpt lat="50.22239430807531" lon="5.668993508443236">
        <ele>585.84</ele>
        <time>2021-07-27T20:23:20.281Z</time>
      </trkpt>
      <trkpt lat="50.222199680283666" lon="5.668607773259282">
        <ele>585.17</ele>
        <time>2021-07-27T20:23:35.129Z</time>
      </trkpt>
      <trkpt lat="50.22200496867299" lon="5.668222038075328">
        <ele>584.56</ele>
        <time>2021-07-27T20:23:49.982Z</time>
      </trkpt>
      <trkpt lat="50.22181034088135" lon="5.667836302891374">
        <ele>583.9</ele>
        <time>2021-07-27T20:24:04.840Z</time>
      </trkpt>
      <trkpt lat="50.221615713089705" lon="5.667450567707419">
        <ele>583.23</ele>
        <time>2021-07-27T20:24:19.703Z</time>
      </trkpt>
      <trkpt lat="50.22142108529806" lon="5.667064832523465">
        <ele>582.61</ele>
        <time>2021-07-27T20:24:34.571Z</time>
      </trkpt>
      <trkpt lat="50.22122637368739" lon="5.666679097339511">
        <ele>582.06</ele>
        <time>2021-07-27T20:24:49.444Z</time>
      </trkpt>
      <trkpt lat="50.22103786468506" lon="5.666306018829346">
        <ele>581.52</ele>
        <time>2021-07-27T20:25:04.322Z</time>
      </trkpt>
      <trkpt lat="50.22103794850409" lon="5.666306018829346">
        <ele>581.03</ele>
        <time>2021-07-27T20:25:19.200Z</time>
      </trkpt>
      <trkpt lat="50.220873076468706" lon="5.665979962795973">
        <ele>580.51</ele>
        <time>2021-07-27T20:25:34.083Z</time>
      </trkpt>
      <trkpt lat="50.220708288252354" lon="5.6656539067626">
        <ele>580.0</ele>
        <time>2021-07-27T20:25:48.970Z</time>
      </trkpt>
      <trkpt lat="50.220543500036" lon="5.665327934548259">
        <ele>579.48</ele>
        <time>2021-07-27T20:26:03.861Z</time>
      </trkpt>
      <trkpt lat="50.22037862800062" lon="5.665001878514886">
        <ele>579.14</ele>
        <time>2021-07-27T20:26:18.756Z</time>
      </trkpt>
      <trkpt lat="50.220213839784265" lon="5.664675906300545">
        <ele>578.83</ele>
        <time>2021-07-27T20:26:33.656Z</time>
      </trkpt>
      <trkpt lat="50.22005081176758" lon="5.664353370666504">
        <ele>578.51</ele>
        <time>2021-07-27T20:26:48.560Z</time>
      </trkpt>
      <trkpt lat="50.22005089558661" lon="5.664353370666504">
        <ele>578.19</ele>
        <time>2021-07-27T20:27:03.464Z</time>
      </trkpt>
      <trkpt lat="50.21986213512719" lon="5.663980711251497">
        <ele>577.83</ele>
        <time>2021-07-27T20:27:18.373Z</time>
      </trkpt>
      <trkpt lat="50.219673458486795" lon="5.663608135655522">
        <ele>577.36</ele>
        <time>2021-07-27T20:27:33.287Z</time>
      </trkpt>
      <trkpt lat="50.219484781846404" lon="5.663235560059547">
        <ele>577.04</ele>
        <time>2021-07-27T20:27:48.206Z</time>
      </trkpt>
      <trkpt lat="50.21929610520601" lon="5.662862900644541">
        <ele>576.77</ele>
        <time>2021-07-27T20:28:03.129Z</time>
      </trkpt>
      <trkpt lat="50.21910742856562" lon="5.662490325048566">
        <ele>576.5</ele>
        <time>2021-07-27T20:28:18.057Z</time>
      </trkpt>
      <trkpt lat="50.21891875192523" lon="5.662117749452591">
        <ele>576.3</ele>
        <time>2021-07-27T20:28:32.990Z</time>
      </trkpt>
      <trkpt lat="50.21873007528484" lon="5.661745173856616">
        <ele>576.15</ele>
        <time>2021-07-27T20:28:47.928Z</time>
      </trkpt>
      <trkpt lat="50.21854139864445" lon="5.661372514441609">
        <ele>575.92</ele>
        <time>2021-07-27T20:29:02.871Z</time>
      </trkpt>
      <trkpt lat="50.2183557394892" lon="5.661005973815918">
        <ele>575.71</ele>
        <time>2021-07-27T20:29:17.819Z</time>
      </trkpt>
      <trkpt lat="50.21826990880072" lon="5.660855770111084">
        <ele>575.51</ele>
        <time>2021-07-27T20:29:32.769Z</time>
      </trkpt>
      <trkpt lat="50.21808718331158" lon="5.660493839532137">
        <ele>575.26</ele>
        <time>2021-07-27T20:29:47.724Z</time>
      </trkpt>
      <trkpt lat="50.21790445782244" lon="5.660131992772222">
        <ele>575.05</ele>
        <time>2021-07-27T20:30:02.683Z</time>
      </trkpt>
      <trkpt lat="50.2177217323333" lon="5.659770146012306">
        <ele>574.78</ele>
        <time>2021-07-27T20:30:17.647Z</time>
      </trkpt>
      <trkpt lat="50.21753900684416" lon="5.659408299252391">
        <ele>574.56</ele>
        <time>2021-07-27T20:30:32.616Z</time>
      </trkpt>
      <trkpt lat="50.21735628135502" lon="5.6590464524924755">
        <ele>574.36</ele>
        <time>2021-07-27T20:30:47.589Z</time>
      </trkpt>
      <trkpt lat="50.21717548370361" lon="5.658688545227051">
        <ele>574.16</ele>
        <time>2021-07-27T20:31:02.567Z</time>
      </trkpt>
      <trkpt lat="50.21706794388592" lon="5.65844127908349">
        <ele>573.83</ele>
        <time>2021-07-27T20:31:17.548Z</time>
      </trkpt>
      <trkpt lat="50.21696090698242" lon="5.6581950187683105">
        <ele>573.38</ele>
        <time>2021-07-27T20:31:32.532Z</time>
      </trkpt>
      <trkpt lat="50.21684255450964" lon="5.657872399315238">
        <ele>572.89</ele>
        <time>2021-07-27T20:31:47.520Z</time>
      </trkpt>
      <trkpt lat="50.21672487258911" lon="5.657551288604736">
        <ele>572.46</ele>
        <time>2021-07-27T20:32:02.512Z</time>
      </trkpt>
      <trkpt lat="50.216625379398465" lon="5.657145185396075">
        <ele>571.92</ele>
        <time>2021-07-27T20:32:17.508Z</time>
      </trkpt>
      <trkpt lat="50.21652588620782" lon="5.656739166006446">
        <ele>571.3</ele>
        <time>2021-07-27T20:32:32.509Z</time>
      </trkpt>
      <trkpt lat="50.21642639301717" lon="5.6563331466168165">
        <ele>570.65</ele>
        <time>2021-07-27T20:32:47.514Z</time>
      </trkpt>
      <trkpt lat="50.21632689982653" lon="5.655927127227187">
        <ele>569.95</ele>
        <time>2021-07-27T20:33:02.524Z</time>
      </trkpt>
      <trkpt lat="50.21622740663588" lon="5.655521107837558">
        <ele>569.17</ele>
        <time>2021-07-27T20:33:17.538Z</time>
      </trkpt>
      <trkpt lat="50.216127913445234" lon="5.655115088447928">
        <ele>568.35</ele>
        <time>2021-07-27T20:33:32.557Z</time>
      </trkpt>
      <trkpt lat="50.21602842025459" lon="5.654709069058299">
        <ele>567.51</ele>
        <time>2021-07-27T20:33:47.580Z</time>
      </trkpt>
      <trkpt lat="50.2159309387207" lon="5.654311180114746">
        <ele>566.61</ele>
        <time>2021-07-27T20:34:02.608Z</time>
      </trkpt>
      <trkpt lat="50.21584485657513" lon="5.653950842097402">
        <ele>565.72</ele>
        <time>2021-07-27T20:34:17.639Z</time>
      </trkpt>
      <trkpt lat="50.21575877442956" lon="5.653590504080057">
        <ele>564.79</ele>
        <time>2021-07-27T20:34:32.674Z</time>
      </trkpt>
      <trkpt lat="50.21567277610302" lon="5.653230166062713">
        <ele>563.84</ele>
        <time>2021-07-27T20:34:47.713Z</time>
      </trkpt>
      <trkpt lat="50.2155876159668" lon="5.652873516082764">
        <ele>562.87</ele>
        <time>2021-07-27T20:35:02.756Z</time>
      </trkpt>
      <trkpt lat="50.21558769978583" lon="5.652873516082764">
        <ele>562.02</ele>
        <time>2021-07-27T20:35:17.799Z</time>
      </trkpt>
      <trkpt lat="50.215478064492345" lon="5.652414942160249">
        <ele>561.07</ele>
        <time>2021-07-27T20:35:32.847Z</time>
      </trkpt>
      <trkpt lat="50.21536851301789" lon="5.651956368237734">
        <ele>560.21</ele>
        <time>2021-07-27T20:35:47.900Z</time>
      </trkpt>
      <trkpt lat="50.21525896154344" lon="5.651497878134251">
        <ele>559.38</ele>
        <time>2021-07-27T20:36:02.958Z</time>
      </trkpt>
      <trkpt lat="50.21514941006899" lon="5.651039304211736">
        <ele>558.51</ele>
        <time>2021-07-27T20:36:18.021Z</time>
      </trkpt>
      <trkpt lat="50.21503985859454" lon="5.6505808141082525">
        <ele>557.74</ele>
        <time>2021-07-27T20:36:33.089Z</time>
      </trkpt>
      <trkpt lat="50.214930307120085" lon="5.650122240185738">
        <ele>556.95</ele>
        <time>2021-07-27T20:36:48.162Z</time>
      </trkpt>
      <trkpt lat="50.2148206718266" lon="5.649663666263223">
        <ele>556.11</ele>
        <time>2021-07-27T20:37:03.240Z</time>
      </trkpt>
      <trkpt lat="50.21471112035215" lon="5.6492051761597395">
        <ele>555.37</ele>
        <time>2021-07-27T20:37:18.324Z</time>
      </trkpt>
      <trkpt lat="50.2146015688777" lon="5.648746602237225">
        <ele>554.63</ele>
        <time>2021-07-27T20:37:33.413Z</time>
      </trkpt>
      <trkpt lat="50.21449469961226" lon="5.648299595341086">
        <ele>553.93</ele>
        <time>2021-07-27T20:37:48.506Z</time>
      </trkpt>
      <trkpt lat="50.214386908337474" lon="5.647848397493362">
        <ele>553.36</ele>
        <time>2021-07-27T20:38:03.604Z</time>
      </trkpt>
      <trkpt lat="50.21427911706269" lon="5.6473971996456385">
        <ele>552.78</ele>
        <time>2021-07-27T20:38:18.707Z</time>
      </trkpt>
      <trkpt lat="50.2141713257879" lon="5.646946085616946">
        <ele>552.25</ele>
        <time>2021-07-27T20:38:33.815Z</time>
      </trkpt>
      <trkpt lat="50.214063534513116" lon="5.646494887769222">
        <ele>551.74</ele>
        <time>2021-07-27T20:38:48.928Z</time>
      </trkpt>
      <trkpt lat="50.21395574323833" lon="5.64604377374053">
        <ele>551.22</ele>
        <time>2021-07-27T20:39:04.046Z</time>
      </trkpt>
      <trkpt lat="50.21384954452515" lon="5.645599365234375">
        <ele>550.68</ele>
        <time>2021-07-27T20:39:19.169Z</time>
      </trkpt>
      <trkpt lat="50.21384962834418" lon="5.645599365234375">
        <ele>550.21</ele>
        <time>2021-07-27T20:39:34.292Z</time>
      </trkpt>
      <trkpt lat="50.21382817067206" lon="5.645556449890137">
        <ele>549.77</ele>
        <time>2021-07-27T20:39:49.416Z</time>
      </trkpt>
      <trkpt lat="50.2137291803956" lon="5.645130481570959">
        <ele>549.36</ele>
        <time>2021-07-27T20:40:04.544Z</time>
      </trkpt>
      <trkpt lat="50.21363019011915" lon="5.6447045132517815">
        <ele>548.93</ele>
        <time>2021-07-27T20:40:19.677Z</time>
      </trkpt>
      <trkpt lat="50.21353119984269" lon="5.6442786287516356">
        <ele>548.53</ele>
        <time>2021-07-27T20:40:34.815Z</time>
      </trkpt>
      <trkpt lat="50.21343229338527" lon="5.643852660432458">
        <ele>548.15</ele>
        <time>2021-07-27T20:40:49.957Z</time>
      </trkpt>
      <trkpt lat="50.21333456039429" lon="5.643432140350342">
        <ele>547.79</ele>
        <time>2021-07-27T20:41:05.104Z</time>
      </trkpt>
      <trkpt lat="50.21333464421332" lon="5.643432140350342">
        <ele>547.47</ele>
        <time>2021-07-27T20:41:20.251Z</time>
      </trkpt>
      <trkpt lat="50.213227020576596" lon="5.64298395998776">
        <ele>547.12</ele>
        <time>2021-07-27T20:41:35.403Z</time>
      </trkpt>
      <trkpt lat="50.213119480758905" lon="5.642535779625177">
        <ele>546.82</ele>
        <time>2021-07-27T20:41:50.560Z</time>
      </trkpt>
      <trkpt lat="50.213011940941215" lon="5.642087683081627">
        <ele>546.54</ele>
        <time>2021-07-27T20:42:05.722Z</time>
      </trkpt>
      <trkpt lat="50.212904401123524" lon="5.641639502719045">
        <ele>546.27</ele>
        <time>2021-07-27T20:42:20.889Z</time>
      </trkpt>
      <trkpt lat="50.21279686130583" lon="5.6411913223564625">
        <ele>546.07</ele>
        <time>2021-07-27T20:42:36.060Z</time>
      </trkpt>
      <trkpt lat="50.212690914049745" lon="5.640749931335449">
        <ele>555.78</ele>
        <time>2021-07-27T20:42:51.236Z</time>
      </trkpt>
      <trkpt lat="50.21260365843773" lon="5.640385150909424">
        <ele>545.58</ele>
        <time>2021-07-27T20:43:06.416Z</time>
      </trkpt>
      <trkpt lat="50.212498968467116" lon="5.639946777373552">
        <ele>545.43</ele>
        <time>2021-07-27T20:43:21.601Z</time>
      </trkpt>
      <trkpt lat="50.212394278496504" lon="5.6395084876567125">
        <ele>545.31</ele>
        <time>2021-07-27T20:43:36.791Z</time>
      </trkpt>
      <trkpt lat="50.21228958852589" lon="5.639070197939873">
        <ele>545.16</ele>
        <time>2021-07-27T20:43:51.986Z</time>
      </trkpt>
      <trkpt lat="50.21218489855528" lon="5.638631908223033">
        <ele>545.07</ele>
        <time>2021-07-27T20:44:07.186Z</time>
      </trkpt>
      <trkpt lat="50.212080208584666" lon="5.638193618506193">
        <ele>545.02</ele>
        <time>2021-07-27T20:44:22.390Z</time>
      </trkpt>
      <trkpt lat="50.211975518614054" lon="5.637755328789353">
        <ele>545.05</ele>
        <time>2021-07-27T20:44:37.599Z</time>
      </trkpt>
      <trkpt lat="50.21187082864344" lon="5.637317039072514">
        <ele>545.08</ele>
        <time>2021-07-27T20:44:52.813Z</time>
      </trkpt>
      <trkpt lat="50.21176823414862" lon="5.636887550354004">
        <ele>545.13</ele>
        <time>2021-07-27T20:45:08.032Z</time>
      </trkpt>
      <trkpt lat="50.21167133934796" lon="5.636475244536996">
        <ele>545.18</ele>
        <time>2021-07-27T20:45:23.255Z</time>
      </trkpt>
      <trkpt lat="50.21157452836633" lon="5.636062938719988">
        <ele>545.27</ele>
        <time>2021-07-27T20:45:38.483Z</time>
      </trkpt>
      <trkpt lat="50.211477717384696" lon="5.63565063290298">
        <ele>545.39</ele>
        <time>2021-07-27T20:45:53.715Z</time>
      </trkpt>
      <trkpt lat="50.211380906403065" lon="5.635238327085972">
        <ele>545.46</ele>
        <time>2021-07-27T20:46:08.952Z</time>
      </trkpt>
      <trkpt lat="50.21128409542143" lon="5.634826021268964">
        <ele>545.49</ele>
        <time>2021-07-27T20:46:24.193Z</time>
      </trkpt>
      <trkpt lat="50.21118879318237" lon="5.634419918060303">
        <ele>545.57</ele>
        <time>2021-07-27T20:46:39.439Z</time>
      </trkpt>
      <trkpt lat="50.211371183395386" lon="5.634323274716735">
        <ele>545.62</ele>
        <time>2021-07-27T20:46:54.688Z</time>
      </trkpt>
      <trkpt lat="50.2115535736084" lon="5.6342267990112305">
        <ele>545.7</ele>
        <time>2021-07-27T20:47:09.940Z</time>
      </trkpt>
      <trkpt lat="50.211852975189686" lon="5.634314892813563">
        <ele>545.77</ele>
        <time>2021-07-27T20:47:25.197Z</time>
      </trkpt>
      <trkpt lat="50.211918354034424" lon="5.634334087371826">
        <ele>545.85</ele>
        <time>2021-07-27T20:47:40.455Z</time>
      </trkpt>
      <trkpt lat="50.212159752845764" lon="5.634398460388184">
        <ele>545.93</ele>
        <time>2021-07-27T20:47:55.717Z</time>
      </trkpt>
      <trkpt lat="50.212401151657104" lon="5.634462833404541">
        <ele>546.05</ele>
        <time>2021-07-27T20:48:10.983Z</time>
      </trkpt>
      <trkpt lat="50.21264263428748" lon="5.634527206420898">
        <ele>546.16</ele>
        <time>2021-07-27T20:48:26.253Z</time>
      </trkpt>
      <trkpt lat="50.212883949279785" lon="5.634591579437256">
        <ele>546.25</ele>
        <time>2021-07-27T20:48:41.526Z</time>
      </trkpt>
      <trkpt lat="50.21318435668945" lon="5.634570121765137">
        <ele>546.29</ele>
        <time>2021-07-27T20:48:56.804Z</time>
      </trkpt>
      <trkpt lat="50.213463306427" lon="5.634419918060303">
        <ele>546.36</ele>
        <time>2021-07-27T20:49:12.087Z</time>
      </trkpt>
      <trkpt lat="50.213699424639344" lon="5.634226631373167">
        <ele>546.41</ele>
        <time>2021-07-27T20:49:27.374Z</time>
      </trkpt>
      <trkpt lat="50.21393537521362" lon="5.634033679962158">
        <ele>546.42</ele>
        <time>2021-07-27T20:49:42.666Z</time>
      </trkpt>
      <trkpt lat="50.21420292556286" lon="5.633784234523773">
        <ele>546.53</ele>
        <time>2021-07-27T20:49:57.963Z</time>
      </trkpt>
      <trkpt lat="50.214470559731126" lon="5.633534789085388">
        <ele>546.66</ele>
        <time>2021-07-27T20:50:13.265Z</time>
      </trkpt>
      <trkpt lat="50.21473819389939" lon="5.633285427466035">
        <ele>546.74</ele>
        <time>2021-07-27T20:50:28.572Z</time>
      </trkpt>
      <trkpt lat="50.21500574424863" lon="5.63303598202765">
        <ele>546.8</ele>
        <time>2021-07-27T20:50:43.884Z</time>
      </trkpt>
      <trkpt lat="50.215273378416896" lon="5.632786536589265">
        <ele>546.92</ele>
        <time>2021-07-27T20:50:59.201Z</time>
      </trkpt>
      <trkpt lat="50.21554101258516" lon="5.63253709115088">
        <ele>546.99</ele>
        <time>2021-07-27T20:51:14.523Z</time>
      </trkpt>
      <trkpt lat="50.21580864675343" lon="5.632287729531527">
        <ele>547.06</ele>
        <time>2021-07-27T20:51:29.850Z</time>
      </trkpt>
      <trkpt lat="50.216076197102666" lon="5.6320382840931416">
        <ele>547.15</ele>
        <time>2021-07-27T20:51:45.182Z</time>
      </trkpt>
      <trkpt lat="50.21634383127093" lon="5.6317888386547565">
        <ele>547.41</ele>
        <time>2021-07-27T20:52:00.519Z</time>
      </trkpt>
      <trkpt lat="50.2166114654392" lon="5.6315393932163715">
        <ele>547.6</ele>
        <time>2021-07-27T20:52:15.860Z</time>
      </trkpt>
      <trkpt lat="50.21687909960747" lon="5.6312899477779865">
        <ele>547.73</ele>
        <time>2021-07-27T20:52:31.206Z</time>
      </trkpt>
      <trkpt lat="50.2171466499567" lon="5.631040586158633">
        <ele>547.89</ele>
        <time>2021-07-27T20:52:46.557Z</time>
      </trkpt>
      <trkpt lat="50.217411601915956" lon="5.630793571472168">
        <ele>548.23</ele>
        <time>2021-07-27T20:53:01.913Z</time>
      </trkpt>
      <trkpt lat="50.217411518096924" lon="5.630793571472168">
        <ele>548.48</ele>
        <time>2021-07-27T20:53:17.269Z</time>
      </trkpt>
      <trkpt lat="50.21760488860309" lon="5.630503473803401">
        <ele>548.83</ele>
        <time>2021-07-27T20:53:32.630Z</time>
      </trkpt>
      <trkpt lat="50.2177978400141" lon="5.630214214324951">
        <ele>549.15</ele>
        <time>2021-07-27T20:53:47.995Z</time>
      </trkpt>
      <trkpt lat="50.21779775619507" lon="5.630214214324951">
        <ele>549.42</ele>
        <time>2021-07-27T20:54:03.360Z</time>
      </trkpt>
      <trkpt lat="50.21799087524414" lon="5.629978179931641">
        <ele>549.71</ele>
        <time>2021-07-27T20:54:18.729Z</time>
      </trkpt>
      <trkpt lat="50.218194890767336" lon="5.629774080589414">
        <ele>549.98</ele>
        <time>2021-07-27T20:54:34.102Z</time>
      </trkpt>
      <trkpt lat="50.218398571014404" lon="5.629570484161377">
        <ele>550.21</ele>
        <time>2021-07-27T20:54:49.479Z</time>
      </trkpt>
      <trkpt lat="50.218677604570985" lon="5.629384405910969">
        <ele>550.47</ele>
        <time>2021-07-27T20:55:04.861Z</time>
      </trkpt>
      <trkpt lat="50.2189567219466" lon="5.629198327660561">
        <ele>550.77</ele>
        <time>2021-07-27T20:55:20.247Z</time>
      </trkpt>
      <trkpt lat="50.21923542022705" lon="5.629012584686279">
        <ele>545.9</ele>
        <time>2021-07-27T20:55:35.638Z</time>
      </trkpt>
      <trkpt lat="50.21942158229649" lon="5.628733215853572">
        <ele>551.14</ele>
        <time>2021-07-27T20:55:51.033Z</time>
      </trkpt>
      <trkpt lat="50.21960782818496" lon="5.6284538470208645">
        <ele>551.29</ele>
        <time>2021-07-27T20:56:06.433Z</time>
      </trkpt>
      <trkpt lat="50.21979331970215" lon="5.628175735473633">
        <ele>551.44</ele>
        <time>2021-07-27T20:56:21.837Z</time>
      </trkpt>
      <trkpt lat="50.21987923420966" lon="5.628025531768799">
        <ele>551.52</ele>
        <time>2021-07-27T20:56:37.243Z</time>
      </trkpt>
      <trkpt lat="50.220077969133854" lon="5.627711210399866">
        <ele>551.53</ele>
        <time>2021-07-27T20:56:52.653Z</time>
      </trkpt>
      <trkpt lat="50.22027670405805" lon="5.627396972849965">
        <ele>551.48</ele>
        <time>2021-07-27T20:57:08.068Z</time>
      </trkpt>
      <trkpt lat="50.22047552280128" lon="5.627082651481032">
        <ele>551.32</ele>
        <time>2021-07-27T20:57:23.487Z</time>
      </trkpt>
      <trkpt lat="50.22067425772548" lon="5.626768413931131">
        <ele>551.12</ele>
        <time>2021-07-27T20:57:38.911Z</time>
      </trkpt>
      <trkpt lat="50.220872992649674" lon="5.62645417638123">
        <ele>550.86</ele>
        <time>2021-07-27T20:57:54.339Z</time>
      </trkpt>
      <trkpt lat="50.2210718113929" lon="5.626139855012298">
        <ele>550.6</ele>
        <time>2021-07-27T20:58:09.772Z</time>
      </trkpt>
      <trkpt lat="50.2212705463171" lon="5.625825617462397">
        <ele>550.25</ele>
        <time>2021-07-27T20:58:25.210Z</time>
      </trkpt>
      <trkpt lat="50.22146701812744" lon="5.625514984130859">
        <ele>549.71</ele>
        <time>2021-07-27T20:58:40.652Z</time>
      </trkpt>
      <trkpt lat="50.22157430648804" lon="5.62525749206543">
        <ele>549.17</ele>
        <time>2021-07-27T20:58:56.097Z</time>
      </trkpt>
      <trkpt lat="50.221674637869" lon="5.624963538721204">
        <ele>548.49</ele>
        <time>2021-07-27T20:59:11.546Z</time>
      </trkpt>
      <trkpt lat="50.221774969249964" lon="5.62466966919601">
        <ele>547.71</ele>
        <time>2021-07-27T20:59:26.998Z</time>
      </trkpt>
      <trkpt lat="50.221874713897705" lon="5.624377727508545">
        <ele>546.86</ele>
        <time>2021-07-27T20:59:42.453Z</time>
      </trkpt>
      <trkpt lat="50.22207512520254" lon="5.624141441658139">
        <ele>545.98</ele>
        <time>2021-07-27T20:59:57.912Z</time>
      </trkpt>
      <trkpt lat="50.2222756203264" lon="5.6239051558077335">
        <ele>545.05</ele>
        <time>2021-07-27T21:00:13.375Z</time>
      </trkpt>
      <trkpt lat="50.22247552871704" lon="5.623669624328613">
        <ele>543.93</ele>
        <time>2021-07-27T21:00:28.842Z</time>
      </trkpt>
      <trkpt lat="50.222700918093324" lon="5.623476337641478">
        <ele>542.56</ele>
        <time>2021-07-27T21:00:44.314Z</time>
      </trkpt>
      <trkpt lat="50.22292613983154" lon="5.623283386230469">
        <ele>541.13</ele>
        <time>2021-07-27T21:00:59.790Z</time>
      </trkpt>
      <trkpt lat="50.223097801208496" lon="5.62320820055902">
        <ele>539.77</ele>
        <time>2021-07-27T21:01:15.269Z</time>
      </trkpt>
      <trkpt lat="50.22326946258545" lon="5.623133182525635">
        <ele>538.39</ele>
        <time>2021-07-27T21:01:30.750Z</time>
      </trkpt>
      <trkpt lat="50.223548412323" lon="5.623068809509277">
        <ele>536.8</ele>
        <time>2021-07-27T21:01:46.236Z</time>
      </trkpt>
      <trkpt lat="50.22382736206055" lon="5.623133182525635">
        <ele>535.04</ele>
        <time>2021-07-27T21:02:01.726Z</time>
      </trkpt>
      <trkpt lat="50.224106311798096" lon="5.623197555541992">
        <ele>533.39</ele>
        <time>2021-07-27T21:02:17.221Z</time>
      </trkpt>
      <trkpt lat="50.224385261535645" lon="5.62326192855835">
        <ele>531.68</ele>
        <time>2021-07-27T21:02:32.720Z</time>
      </trkpt>
      <trkpt lat="50.22467494010925" lon="5.623186742886901">
        <ele>529.98</ele>
        <time>2021-07-27T21:02:48.224Z</time>
      </trkpt>
      <trkpt lat="50.22496461868286" lon="5.623111724853516">
        <ele>528.09</ele>
        <time>2021-07-27T21:03:03.733Z</time>
      </trkpt>
      <trkpt lat="50.225125551223755" lon="5.623100912198424">
        <ele>526.19</ele>
        <time>2021-07-27T21:03:19.244Z</time>
      </trkpt>
      <trkpt lat="50.22528648376465" lon="5.6230902671813965">
        <ele>524.29</ele>
        <time>2021-07-27T21:03:34.758Z</time>
      </trkpt>
      <trkpt lat="50.225586891174316" lon="5.623176097869873">
        <ele>522.21</ele>
        <time>2021-07-27T21:03:50.277Z</time>
      </trkpt>
      <trkpt lat="50.225830134004354" lon="5.623290510848165">
        <ele>520.1</ele>
        <time>2021-07-27T21:04:05.800Z</time>
      </trkpt>
      <trkpt lat="50.22607337683439" lon="5.623405007645488">
        <ele>518.05</ele>
        <time>2021-07-27T21:04:21.327Z</time>
      </trkpt>
      <trkpt lat="50.22631645202637" lon="5.623519420623779">
        <ele>516.08</ele>
        <time>2021-07-27T21:04:36.858Z</time>
      </trkpt>
      <trkpt lat="50.22655257023871" lon="5.623691165819764">
        <ele>514.11</ele>
        <time>2021-07-27T21:04:52.393Z</time>
      </trkpt>
      <trkpt lat="50.22678877227008" lon="5.623862911015749">
        <ele>512.12</ele>
        <time>2021-07-27T21:05:07.932Z</time>
      </trkpt>
      <trkpt lat="50.2270245552063" lon="5.624034404754639">
        <ele>510.14</ele>
        <time>2021-07-27T21:05:23.476Z</time>
      </trkpt>
      <trkpt lat="50.227335691452026" lon="5.624077320098877">
        <ele>508.26</ele>
        <time>2021-07-27T21:05:39.025Z</time>
      </trkpt>
      <trkpt lat="50.227646911516786" lon="5.624120235443115">
        <ele>506.39</ele>
        <time>2021-07-27T21:05:54.579Z</time>
      </trkpt>
      <trkpt lat="50.227931225672364" lon="5.624160468578339">
        <ele>504.48</ele>
        <time>2021-07-27T21:06:10.137Z</time>
      </trkpt>
      <trkpt lat="50.22821553982794" lon="5.624200701713562">
        <ele>502.67</ele>
        <time>2021-07-27T21:06:25.700Z</time>
      </trkpt>
      <trkpt lat="50.22849985398352" lon="5.624240934848785">
        <ele>500.93</ele>
        <time>2021-07-27T21:06:41.267Z</time>
      </trkpt>
      <trkpt lat="50.22878425195813" lon="5.624281167984009">
        <ele>499.28</ele>
        <time>2021-07-27T21:06:56.839Z</time>
      </trkpt>
      <trkpt lat="50.22906856611371" lon="5.624321401119232">
        <ele>497.71</ele>
        <time>2021-07-27T21:07:12.416Z</time>
      </trkpt>
      <trkpt lat="50.22935288026929" lon="5.624361634254456">
        <ele>496.29</ele>
        <time>2021-07-27T21:07:27.997Z</time>
      </trkpt>
      <trkpt lat="50.2296372782439" lon="5.624401867389679">
        <ele>494.93</ele>
        <time>2021-07-27T21:07:43.583Z</time>
      </trkpt>
      <trkpt lat="50.229921424761415" lon="5.624442100524902">
        <ele>493.67</ele>
        <time>2021-07-27T21:07:59.173Z</time>
      </trkpt>
      <trkpt lat="50.230203391984105" lon="5.624500270932913">
        <ele>492.49</ele>
        <time>2021-07-27T21:08:14.768Z</time>
      </trkpt>
      <trkpt lat="50.23048544302583" lon="5.624558525159955">
        <ele>491.4</ele>
        <time>2021-07-27T21:08:30.367Z</time>
      </trkpt>
      <trkpt lat="50.23076749406755" lon="5.624616779386997">
        <ele>490.36</ele>
        <time>2021-07-27T21:08:45.971Z</time>
      </trkpt>
      <trkpt lat="50.23104954510927" lon="5.624675033614039">
        <ele>489.38</ele>
        <time>2021-07-27T21:09:01.579Z</time>
      </trkpt>
      <trkpt lat="50.231331596150994" lon="5.624733287841082">
        <ele>488.44</ele>
        <time>2021-07-27T21:09:17.192Z</time>
      </trkpt>
      <trkpt lat="50.231613563373685" lon="5.624791542068124">
        <ele>487.63</ele>
        <time>2021-07-27T21:09:32.810Z</time>
      </trkpt>
      <trkpt lat="50.231895446777344" lon="5.624849796295166">
        <ele>486.94</ele>
        <time>2021-07-27T21:09:48.432Z</time>
      </trkpt>
      <trkpt lat="50.231999130919576" lon="5.62478500418365">
        <ele>486.31</ele>
        <time>2021-07-27T21:10:04.056Z</time>
      </trkpt>
      <trkpt lat="50.2320671081543" lon="5.62474250793457">
        <ele>485.77</ele>
        <time>2021-07-27T21:10:19.681Z</time>
      </trkpt>
      <trkpt lat="50.23219585418701" lon="5.6246137619018555">
        <ele>485.26</ele>
        <time>2021-07-27T21:10:35.309Z</time>
      </trkpt>
      <trkpt lat="50.23232468403876" lon="5.624463390558958">
        <ele>484.82</ele>
        <time>2021-07-27T21:10:50.939Z</time>
      </trkpt>
      <trkpt lat="50.23245334625244" lon="5.6243133544921875">
        <ele>484.42</ele>
        <time>2021-07-27T21:11:06.572Z</time>
      </trkpt>
      <trkpt lat="50.23253917694092" lon="5.6241631507873535">
        <ele>484.07</ele>
        <time>2021-07-27T21:11:22.207Z</time>
      </trkpt>
      <trkpt lat="50.23260363377631" lon="5.6239372584968805">
        <ele>483.75</ele>
        <time>2021-07-27T21:11:37.844Z</time>
      </trkpt>
      <trkpt lat="50.23266792297363" lon="5.623712539672852">
        <ele>483.46</ele>
        <time>2021-07-27T21:11:53.484Z</time>
      </trkpt>
      <trkpt lat="50.2327611297369" lon="5.62329662963748">
        <ele>483.23</ele>
        <time>2021-07-27T21:12:09.128Z</time>
      </trkpt>
      <trkpt lat="50.23285433650017" lon="5.622880719602108">
        <ele>483.07</ele>
        <time>2021-07-27T21:12:24.777Z</time>
      </trkpt>
      <trkpt lat="50.23294687271118" lon="5.622467994689941">
        <ele>482.94</ele>
        <time>2021-07-27T21:12:40.430Z</time>
      </trkpt>
      <trkpt lat="50.2330756187439" lon="5.62225341796875">
        <ele>482.82</ele>
        <time>2021-07-27T21:12:56.086Z</time>
      </trkpt>
      <trkpt lat="50.23320444859564" lon="5.622092233970761">
        <ele>482.74</ele>
        <time>2021-07-27T21:13:11.745Z</time>
      </trkpt>
      <trkpt lat="50.233333110809326" lon="5.621931552886963">
        <ele>482.64</ele>
        <time>2021-07-27T21:13:27.407Z</time>
      </trkpt>
      <trkpt lat="50.23354768753052" lon="5.621802806854248">
        <ele>482.54</ele>
        <time>2021-07-27T21:13:43.072Z</time>
      </trkpt>
      <trkpt lat="50.23378372192383" lon="5.621781349182129">
        <ele>482.38</ele>
        <time>2021-07-27T21:13:58.741Z</time>
      </trkpt>
      <trkpt lat="50.23404129780829" lon="5.621845722198486">
        <ele>482.22</ele>
        <time>2021-07-27T21:14:14.414Z</time>
      </trkpt>
      <trkpt lat="50.2341219317168" lon="5.621869442984462">
        <ele>482.07</ele>
        <time>2021-07-27T21:14:30.089Z</time>
      </trkpt>
      <trkpt lat="50.234406078234315" lon="5.621953010559082">
        <ele>481.87</ele>
        <time>2021-07-27T21:14:45.768Z</time>
      </trkpt>
      <trkpt lat="50.23451336659491" lon="5.6220173835754395">
        <ele>481.63</ele>
        <time>2021-07-27T21:15:01.449Z</time>
      </trkpt>
      <trkpt lat="50.23481369018555" lon="5.622146129608154">
        <ele>481.24</ele>
        <time>2021-07-27T21:15:17.135Z</time>
      </trkpt>
      <trkpt lat="50.23500689305365" lon="5.622124671936035">
        <ele>480.93</ele>
        <time>2021-07-27T21:15:32.824Z</time>
      </trkpt>
      <trkpt lat="50.23524292744696" lon="5.622045965865254">
        <ele>480.69</ele>
        <time>2021-07-27T21:15:48.517Z</time>
      </trkpt>
      <trkpt lat="50.23547896184027" lon="5.621967259794474">
        <ele>480.41</ele>
        <time>2021-07-27T21:16:04.214Z</time>
      </trkpt>
      <trkpt lat="50.23571491241455" lon="5.621888637542725">
        <ele>480.02</ele>
        <time>2021-07-27T21:16:19.915Z</time>
      </trkpt>
      <trkpt lat="50.235886573791504" lon="5.621781349182129">
        <ele>479.57</ele>
        <time>2021-07-27T21:16:35.619Z</time>
      </trkpt>
      <trkpt lat="50.2360369451344" lon="5.6216309778392315">
        <ele>479.13</ele>
        <time>2021-07-27T21:16:51.326Z</time>
      </trkpt>
      <trkpt lat="50.236187065020204" lon="5.621480941772461">
        <ele>478.62</ele>
        <time>2021-07-27T21:17:07.035Z</time>
      </trkpt>
      <trkpt lat="50.23641899228096" lon="5.621227473020554">
        <ele>478.14</ele>
        <time>2021-07-27T21:17:22.749Z</time>
      </trkpt>
      <trkpt lat="50.23665091954172" lon="5.620974004268646">
        <ele>477.67</ele>
        <time>2021-07-27T21:17:38.468Z</time>
      </trkpt>
      <trkpt lat="50.23688284680247" lon="5.620720535516739">
        <ele>476.96</ele>
        <time>2021-07-27T21:17:54.191Z</time>
      </trkpt>
      <trkpt lat="50.23711485788226" lon="5.620467150583863">
        <ele>476.16</ele>
        <time>2021-07-27T21:18:09.919Z</time>
      </trkpt>
      <trkpt lat="50.237345695495605" lon="5.620214939117432">
        <ele>475.36</ele>
        <time>2021-07-27T21:18:25.651Z</time>
      </trkpt>
      <trkpt lat="50.237531857565045" lon="5.61994269490242">
        <ele>474.6</ele>
        <time>2021-07-27T21:18:41.387Z</time>
      </trkpt>
      <trkpt lat="50.23771810345352" lon="5.61967053450644">
        <ele>473.8</ele>
        <time>2021-07-27T21:18:57.127Z</time>
      </trkpt>
      <trkpt lat="50.2379035949707" lon="5.619399547576904">
        <ele>472.88</ele>
        <time>2021-07-27T21:19:12.871Z</time>
      </trkpt>
      <trkpt lat="50.23811414837837" lon="5.619038455188274">
        <ele>472.06</ele>
        <time>2021-07-27T21:19:28.620Z</time>
      </trkpt>
      <trkpt lat="50.23832478560507" lon="5.618677446618676">
        <ele>471.2</ele>
        <time>2021-07-27T21:19:44.374Z</time>
      </trkpt>
      <trkpt lat="50.238535422831774" lon="5.618316354230046">
        <ele>470.29</ele>
        <time>2021-07-27T21:20:00.133Z</time>
      </trkpt>
      <trkpt lat="50.238746060058475" lon="5.617955345660448">
        <ele>469.23</ele>
        <time>2021-07-27T21:20:15.897Z</time>
      </trkpt>
      <trkpt lat="50.23895502090454" lon="5.6175971031188965">
        <ele>468.18</ele>
        <time>2021-07-27T21:20:31.666Z</time>
      </trkpt>
      <trkpt lat="50.23908938281238" lon="5.617236848920584">
        <ele>467.12</ele>
        <time>2021-07-27T21:20:47.440Z</time>
      </trkpt>
      <trkpt lat="50.23922374472022" lon="5.616876678541303">
        <ele>465.81</ele>
        <time>2021-07-27T21:21:03.218Z</time>
      </trkpt>
      <trkpt lat="50.23935819044709" lon="5.616516508162022">
        <ele>464.44</ele>
        <time>2021-07-27T21:21:19.000Z</time>
      </trkpt>
      <trkpt lat="50.23949146270752" lon="5.616159439086914">
        <ele>463.05</ele>
        <time>2021-07-27T21:21:34.787Z</time>
      </trkpt>
      <trkpt lat="50.23968458175659" lon="5.6157732009887695">
        <ele>461.58</ele>
        <time>2021-07-27T21:21:50.579Z</time>
      </trkpt>
      <trkpt lat="50.23988868109882" lon="5.615440104156733">
        <ele>460.22</ele>
        <time>2021-07-27T21:22:06.375Z</time>
      </trkpt>
      <trkpt lat="50.240092277526855" lon="5.615108013153076">
        <ele>458.74</ele>
        <time>2021-07-27T21:22:22.176Z</time>
      </trkpt>
      <trkpt lat="50.24009236134589" lon="5.615108013153076">
        <ele>457.3</ele>
        <time>2021-07-27T21:22:37.977Z</time>
      </trkpt>
      <trkpt lat="50.24025706574321" lon="5.614821435883641">
        <ele>455.81</ele>
        <time>2021-07-27T21:22:53.782Z</time>
      </trkpt>
      <trkpt lat="50.24042177014053" lon="5.614534858614206">
        <ele>454.12</ele>
        <time>2021-07-27T21:23:09.591Z</time>
      </trkpt>
      <trkpt lat="50.240585803985596" lon="5.6142497062683105">
        <ele>452.44</ele>
        <time>2021-07-27T21:23:25.404Z</time>
      </trkpt>
      <trkpt lat="50.240693259984255" lon="5.61404543928802">
        <ele>450.84</ele>
        <time>2021-07-27T21:23:41.220Z</time>
      </trkpt>
      <trkpt lat="50.24080038070679" lon="5.613842010498047">
        <ele>449.16</ele>
        <time>2021-07-27T21:23:57.038Z</time>
      </trkpt>
      <trkpt lat="50.240893587470055" lon="5.613440433517098">
        <ele>447.52</ele>
        <time>2021-07-27T21:24:12.861Z</time>
      </trkpt>
      <trkpt lat="50.24098679423332" lon="5.61303885653615">
        <ele>445.95</ele>
        <time>2021-07-27T21:24:28.688Z</time>
      </trkpt>
      <trkpt lat="50.241079330444336" lon="5.612640380859375">
        <ele>444.31</ele>
        <time>2021-07-27T21:24:44.519Z</time>
      </trkpt>
      <trkpt lat="50.241148648783565" lon="5.612164624035358">
        <ele>442.73</ele>
        <time>2021-07-27T21:25:00.355Z</time>
      </trkpt>
      <trkpt lat="50.24121796712279" lon="5.611688867211342">
        <ele>441.14</ele>
        <time>2021-07-27T21:25:16.196Z</time>
      </trkpt>
      <trkpt lat="50.24128728546202" lon="5.611213194206357">
        <ele>439.56</ele>
        <time>2021-07-27T21:25:32.042Z</time>
      </trkpt>
      <trkpt lat="50.24135660380125" lon="5.61073743738234">
        <ele>437.9</ele>
        <time>2021-07-27T21:25:47.893Z</time>
      </trkpt>
      <trkpt lat="50.24142592214048" lon="5.610261764377356">
        <ele>436.12</ele>
        <time>2021-07-27T21:26:03.749Z</time>
      </trkpt>
      <trkpt lat="50.24149532429874" lon="5.609786007553339">
        <ele>434.35</ele>
        <time>2021-07-27T21:26:19.610Z</time>
      </trkpt>
      <trkpt lat="50.24156464263797" lon="5.609310250729322">
        <ele>432.79</ele>
        <time>2021-07-27T21:26:35.476Z</time>
      </trkpt>
      <trkpt lat="50.2416339609772" lon="5.608834577724338">
        <ele>431.33</ele>
        <time>2021-07-27T21:26:51.347Z</time>
      </trkpt>
      <trkpt lat="50.24170160293579" lon="5.608370304107666">
        <ele>429.81</ele>
        <time>2021-07-27T21:27:07.223Z</time>
      </trkpt>
      <trkpt lat="50.24170160293579" lon="5.607919692993164">
        <ele>428.4</ele>
        <time>2021-07-27T21:27:23.104Z</time>
      </trkpt>
      <trkpt lat="50.24165868759155" lon="5.607447624206543">
        <ele>427.06</ele>
        <time>2021-07-27T21:27:38.990Z</time>
      </trkpt>
      <trkpt lat="50.241572856903076" lon="5.60701847076416">
        <ele>425.71</ele>
        <time>2021-07-27T21:27:54.881Z</time>
      </trkpt>
      <trkpt lat="50.24148711003363" lon="5.606675148010254">
        <ele>424.42</ele>
        <time>2021-07-27T21:28:10.775Z</time>
      </trkpt>
      <trkpt lat="50.24136884137988" lon="5.606449423357844">
        <ele>423.22</ele>
        <time>2021-07-27T21:28:26.672Z</time>
      </trkpt>
      <trkpt lat="50.24125099182129" lon="5.606224536895752">
        <ele>422.1</ele>
        <time>2021-07-27T21:28:42.572Z</time>
      </trkpt>
      <trkpt lat="50.2410364151001" lon="5.605924129486084">
        <ele>421.01</ele>
        <time>2021-07-27T21:28:58.477Z</time>
      </trkpt>
      <trkpt lat="50.240813037380576" lon="5.605683568865061">
        <ele>419.94</ele>
        <time>2021-07-27T21:29:14.386Z</time>
      </trkpt>
      <trkpt lat="50.240589659661055" lon="5.605443008244038">
        <ele>418.81</ele>
        <time>2021-07-27T21:29:30.300Z</time>
      </trkpt>
      <trkpt lat="50.24036628194153" lon="5.6052024476230145">
        <ele>417.72</ele>
        <time>2021-07-27T21:29:46.218Z</time>
      </trkpt>
      <trkpt lat="50.24014290422201" lon="5.604961887001991">
        <ele>416.71</ele>
        <time>2021-07-27T21:30:02.140Z</time>
      </trkpt>
      <trkpt lat="50.2399206161499" lon="5.604722499847412">
        <ele>415.75</ele>
        <time>2021-07-27T21:30:18.067Z</time>
      </trkpt>
      <trkpt lat="50.239856243133545" lon="5.604507923126221">
        <ele>414.84</ele>
        <time>2021-07-27T21:30:33.996Z</time>
      </trkpt>
      <trkpt lat="50.23985632695258" lon="5.604357719421387">
        <ele>413.96</ele>
        <time>2021-07-27T21:30:49.927Z</time>
      </trkpt>
      <trkpt lat="50.239899242296815" lon="5.604293346405029">
        <ele>413.04</ele>
        <time>2021-07-27T21:31:05.859Z</time>
      </trkpt>
      <trkpt lat="50.23994207382202" lon="5.604207515716553">
        <ele>412.14</ele>
        <time>2021-07-27T21:31:21.792Z</time>
      </trkpt>
      <trkpt lat="50.240092277526855" lon="5.604143142700195">
        <ele>411.23</ele>
        <time>2021-07-27T21:31:37.727Z</time>
      </trkpt>
      <trkpt lat="50.24032118730247" lon="5.6042146403342485">
        <ele>410.22</ele>
        <time>2021-07-27T21:31:53.666Z</time>
      </trkpt>
      <trkpt lat="50.240550097078085" lon="5.604286137968302">
        <ele>409.23</ele>
        <time>2021-07-27T21:32:09.609Z</time>
      </trkpt>
      <trkpt lat="50.24077892303467" lon="5.604357719421387">
        <ele>408.17</ele>
        <time>2021-07-27T21:32:25.555Z</time>
      </trkpt>
      <trkpt lat="50.241032894700766" lon="5.604493590071797">
        <ele>406.98</ele>
        <time>2021-07-27T21:32:41.506Z</time>
      </trkpt>
      <trkpt lat="50.24128686636686" lon="5.60462954454124">
        <ele>405.82</ele>
        <time>2021-07-27T21:32:57.461Z</time>
      </trkpt>
      <trkpt lat="50.24154092185199" lon="5.604765499010682">
        <ele>404.65</ele>
        <time>2021-07-27T21:33:13.420Z</time>
      </trkpt>
      <trkpt lat="50.24179489351809" lon="5.6049014534801245">
        <ele>403.56</ele>
        <time>2021-07-27T21:33:29.384Z</time>
      </trkpt>
      <trkpt lat="50.24204894900322" lon="5.605037407949567">
        <ele>402.43</ele>
        <time>2021-07-27T21:33:45.352Z</time>
      </trkpt>
      <trkpt lat="50.24230241775513" lon="5.605173110961914">
        <ele>401.26</ele>
        <time>2021-07-27T21:34:01.324Z</time>
      </trkpt>
      <trkpt lat="50.24251699447632" lon="5.605251733213663">
        <ele>400.08</ele>
        <time>2021-07-27T21:34:17.300Z</time>
      </trkpt>
      <trkpt lat="50.24273165501654" lon="5.605330439284444">
        <ele>398.83</ele>
        <time>2021-07-27T21:34:33.279Z</time>
      </trkpt>
      <trkpt lat="50.2429461479187" lon="5.605409145355225">
        <ele>397.47</ele>
        <time>2021-07-27T21:34:49.262Z</time>
      </trkpt>
      <trkpt lat="50.24313951842487" lon="5.605453988537192">
        <ele>396.07</ele>
        <time>2021-07-27T21:35:05.248Z</time>
      </trkpt>
      <trkpt lat="50.24333297275007" lon="5.605498915538192">
        <ele>394.66</ele>
        <time>2021-07-27T21:35:21.237Z</time>
      </trkpt>
      <trkpt lat="50.243604546412826" lon="5.605561947450042">
        <ele>393.27</ele>
        <time>2021-07-27T21:35:37.230Z</time>
      </trkpt>
      <trkpt lat="50.243876203894615" lon="5.605624979361892">
        <ele>391.95</ele>
        <time>2021-07-27T21:35:53.228Z</time>
      </trkpt>
      <trkpt lat="50.24414777755737" lon="5.605688095092773">
        <ele>390.63</ele>
        <time>2021-07-27T21:36:09.230Z</time>
      </trkpt>
      <trkpt lat="50.244383811950684" lon="5.605602264404297">
        <ele>389.31</ele>
        <time>2021-07-27T21:36:25.236Z</time>
      </trkpt>
      <trkpt lat="50.244576930999756" lon="5.605473518371582">
        <ele>387.92</ele>
        <time>2021-07-27T21:36:41.245Z</time>
      </trkpt>
      <trkpt lat="50.244812965393066" lon="5.605151653289795">
        <ele>386.54</ele>
        <time>2021-07-27T21:36:57.259Z</time>
      </trkpt>
      <trkpt lat="50.2449562959373" lon="5.604789638891816">
        <ele>385.24</ele>
        <time>2021-07-27T21:37:13.278Z</time>
      </trkpt>
      <trkpt lat="50.24509962648153" lon="5.604427708312869">
        <ele>383.94</ele>
        <time>2021-07-27T21:37:29.301Z</time>
      </trkpt>
      <trkpt lat="50.245242957025766" lon="5.604065777733922">
        <ele>382.63</ele>
        <time>2021-07-27T21:37:45.329Z</time>
      </trkpt>
      <trkpt lat="50.24538628757" lon="5.603703847154975">
        <ele>381.34</ele>
        <time>2021-07-27T21:38:01.361Z</time>
      </trkpt>
      <trkpt lat="50.245529701933265" lon="5.603341916576028">
        <ele>379.94</ele>
        <time>2021-07-27T21:38:17.397Z</time>
      </trkpt>
      <trkpt lat="50.24567127227783" lon="5.602984428405762">
        <ele>378.66</ele>
        <time>2021-07-27T21:38:33.438Z</time>
      </trkpt>
      <trkpt lat="50.24583245627582" lon="5.602672705426812">
        <ele>377.39</ele>
        <time>2021-07-27T21:38:49.483Z</time>
      </trkpt>
      <trkpt lat="50.24599313735962" lon="5.602362155914307">
        <ele>376.12</ele>
        <time>2021-07-27T21:39:05.532Z</time>
      </trkpt>
      <trkpt lat="50.24614350870252" lon="5.602136515080929">
        <ele>374.85</ele>
        <time>2021-07-27T21:39:21.584Z</time>
      </trkpt>
      <trkpt lat="50.24629354476929" lon="5.601911544799805">
        <ele>373.53</ele>
        <time>2021-07-27T21:39:37.640Z</time>
      </trkpt>
      <trkpt lat="50.246504014357924" lon="5.6016450840979815">
        <ele>372.21</ele>
        <time>2021-07-27T21:39:53.700Z</time>
      </trkpt>
      <trkpt lat="50.24671456776559" lon="5.60137870721519">
        <ele>371.0</ele>
        <time>2021-07-27T21:40:09.764Z</time>
      </trkpt>
      <trkpt lat="50.24692512117326" lon="5.601112330332398">
        <ele>369.83</ele>
        <time>2021-07-27T21:40:25.833Z</time>
      </trkpt>
      <trkpt lat="50.2471355907619" lon="5.600845953449607">
        <ele>368.58</ele>
        <time>2021-07-27T21:40:41.906Z</time>
      </trkpt>
      <trkpt lat="50.247344970703125" lon="5.600581169128418">
        <ele>367.43</ele>
        <time>2021-07-27T21:40:57.983Z</time>
      </trkpt>
      <trkpt lat="50.24749525822699" lon="5.600420068949461">
        <ele>366.3</ele>
        <time>2021-07-27T21:41:14.063Z</time>
      </trkpt>
      <trkpt lat="50.24764537811279" lon="5.600259304046631">
        <ele>365.15</ele>
        <time>2021-07-27T21:41:30.146Z</time>
      </trkpt>
      <trkpt lat="50.24789440445602" lon="5.600053109228611">
        <ele>364.01</ele>
        <time>2021-07-27T21:41:46.234Z</time>
      </trkpt>
      <trkpt lat="50.24814351461828" lon="5.599846998229623">
        <ele>362.9</ele>
        <time>2021-07-27T21:42:02.326Z</time>
      </trkpt>
      <trkpt lat="50.248392540961504" lon="5.599640887230635">
        <ele>361.73</ele>
        <time>2021-07-27T21:42:18.423Z</time>
      </trkpt>
      <trkpt lat="50.24864165112376" lon="5.5994347762316465">
        <ele>360.61</ele>
        <time>2021-07-27T21:42:34.524Z</time>
      </trkpt>
      <trkpt lat="50.2488899230957" lon="5.599229335784912">
        <ele>359.46</ele>
        <time>2021-07-27T21:42:50.630Z</time>
      </trkpt>
      <trkpt lat="50.24911321699619" lon="5.598988775163889">
        <ele>358.48</ele>
        <time>2021-07-27T21:43:06.740Z</time>
      </trkpt>
      <trkpt lat="50.249336594715714" lon="5.598748214542866">
        <ele>357.47</ele>
        <time>2021-07-27T21:43:22.854Z</time>
      </trkpt>
      <trkpt lat="50.249559972435236" lon="5.598507653921843">
        <ele>356.39</ele>
        <time>2021-07-27T21:43:38.973Z</time>
      </trkpt>
      <trkpt lat="50.24978335015476" lon="5.598267093300819">
        <ele>355.41</ele>
        <time>2021-07-27T21:43:55.096Z</time>
      </trkpt>
      <trkpt lat="50.2500057220459" lon="5.59802770614624">
        <ele>354.46</ele>
        <time>2021-07-27T21:44:11.223Z</time>
      </trkpt>
      <trkpt lat="50.25026639923453" lon="5.5978497583419085">
        <ele>353.4</ele>
        <time>2021-07-27T21:44:27.355Z</time>
      </trkpt>
      <trkpt lat="50.25052707642317" lon="5.597671894356608">
        <ele>352.26</ele>
        <time>2021-07-27T21:44:43.491Z</time>
      </trkpt>
      <trkpt lat="50.2507877536118" lon="5.597494030371308">
        <ele>351.21</ele>
        <time>2021-07-27T21:44:59.632Z</time>
      </trkpt>
      <trkpt lat="50.25104851461947" lon="5.597316166386008">
        <ele>350.42</ele>
        <time>2021-07-27T21:45:15.778Z</time>
      </trkpt>
      <trkpt lat="50.251309191808105" lon="5.597138302400708">
        <ele>349.8</ele>
        <time>2021-07-27T21:45:31.928Z</time>
      </trkpt>
      <trkpt lat="50.25156986899674" lon="5.596960354596376">
        <ele>349.15</ele>
        <time>2021-07-27T21:45:48.083Z</time>
      </trkpt>
      <trkpt lat="50.25182970799506" lon="5.59678316116333">
        <ele>348.49</ele>
        <time>2021-07-27T21:46:04.242Z</time>
      </trkpt>
      <trkpt lat="50.25203716009855" lon="5.596668664366007">
        <ele>347.77</ele>
        <time>2021-07-27T21:46:20.405Z</time>
      </trkpt>
      <trkpt lat="50.25224461220205" lon="5.596554167568684">
        <ele>347.08</ele>
        <time>2021-07-27T21:46:36.571Z</time>
      </trkpt>
      <trkpt lat="50.25245189666748" lon="5.596439838409424">
        <ele>346.4</ele>
        <time>2021-07-27T21:46:52.741Z</time>
      </trkpt>
      <trkpt lat="50.25274157524109" lon="5.596321737393737">
        <ele>345.81</ele>
        <time>2021-07-27T21:47:08.916Z</time>
      </trkpt>
      <trkpt lat="50.25303133763373" lon="5.596203720197082">
        <ele>345.26</ele>
        <time>2021-07-27T21:47:25.095Z</time>
      </trkpt>
      <trkpt lat="50.25332110002637" lon="5.596085703000426">
        <ele>344.75</ele>
        <time>2021-07-27T21:47:41.279Z</time>
      </trkpt>
      <trkpt lat="50.253610610961914" lon="5.595967769622803">
        <ele>344.19</ele>
        <time>2021-07-27T21:47:57.468Z</time>
      </trkpt>
      <trkpt lat="50.25388956069946" lon="5.595946311950684">
        <ele>343.47</ele>
        <time>2021-07-27T21:48:13.661Z</time>
      </trkpt>
      <trkpt lat="50.25419424287975" lon="5.595950586721301">
        <ele>342.86</ele>
        <time>2021-07-27T21:48:29.859Z</time>
      </trkpt>
      <trkpt lat="50.254498925060034" lon="5.595954861491919">
        <ele>342.38</ele>
        <time>2021-07-27T21:48:46.062Z</time>
      </trkpt>
      <trkpt lat="50.25480369105935" lon="5.595959136262536">
        <ele>341.9</ele>
        <time>2021-07-27T21:49:02.270Z</time>
      </trkpt>
      <trkpt lat="50.255108373239636" lon="5.5959634110331535">
        <ele>341.28</ele>
        <time>2021-07-27T21:49:18.483Z</time>
      </trkpt>
      <trkpt lat="50.25541305541992" lon="5.595967769622803">
        <ele>340.65</ele>
        <time>2021-07-27T21:49:34.701Z</time>
      </trkpt>
      <trkpt lat="50.25563475675881" lon="5.595982018858194">
        <ele>340.16</ele>
        <time>2021-07-27T21:49:50.922Z</time>
      </trkpt>
      <trkpt lat="50.25585654191673" lon="5.595996351912618">
        <ele>339.71</ele>
        <time>2021-07-27T21:50:07.147Z</time>
      </trkpt>
      <trkpt lat="50.256078243255615" lon="5.596010684967041">
        <ele>339.3</ele>
        <time>2021-07-27T21:50:23.376Z</time>
      </trkpt>
      <trkpt lat="50.25627136230469" lon="5.595903396606445">
        <ele>339.02</ele>
        <time>2021-07-27T21:50:39.608Z</time>
      </trkpt>
      <trkpt lat="50.25652885437012" lon="5.595645904541016">
        <ele>338.82</ele>
        <time>2021-07-27T21:50:55.845Z</time>
      </trkpt>
      <trkpt lat="50.25663614273071" lon="5.595431327819824">
        <ele>338.6</ele>
        <time>2021-07-27T21:51:12.085Z</time>
      </trkpt>
      <trkpt lat="50.25667905807495" lon="5.5951738357543945">
        <ele>338.4</ele>
        <time>2021-07-27T21:51:28.327Z</time>
      </trkpt>
      <trkpt lat="50.25669272057712" lon="5.594838140532374">
        <ele>338.2</ele>
        <time>2021-07-27T21:51:44.573Z</time>
      </trkpt>
      <trkpt lat="50.25670638307929" lon="5.594504373148084">
        <ele>338.05</ele>
        <time>2021-07-27T21:52:00.822Z</time>
      </trkpt>
      <trkpt lat="50.25670638307929" lon="5.594504456967115">
        <ele>337.81</ele>
        <time>2021-07-27T21:52:17.071Z</time>
      </trkpt>
      <trkpt lat="50.25672197341919" lon="5.594122409820557">
        <ele>337.59</ele>
        <time>2021-07-27T21:52:33.324Z</time>
      </trkpt>
      <trkpt lat="50.256704706698656" lon="5.593696273863316">
        <ele>337.37</ele>
        <time>2021-07-27T21:52:49.581Z</time>
      </trkpt>
      <trkpt lat="50.256687523797154" lon="5.593270221725106">
        <ele>337.19</ele>
        <time>2021-07-27T21:53:05.843Z</time>
      </trkpt>
      <trkpt lat="50.25667025707662" lon="5.592844169586897">
        <ele>336.91</ele>
        <time>2021-07-27T21:53:22.109Z</time>
      </trkpt>
      <trkpt lat="50.25665307417512" lon="5.5924181174486876">
        <ele>336.54</ele>
        <time>2021-07-27T21:53:38.380Z</time>
      </trkpt>
      <trkpt lat="50.25663614273071" lon="5.591998100280762">
        <ele>336.16</ele>
        <time>2021-07-27T21:53:54.655Z</time>
      </trkpt>
      <trkpt lat="50.2567005995661" lon="5.591568946838379">
        <ele>335.93</ele>
        <time>2021-07-27T21:54:10.934Z</time>
      </trkpt>
      <trkpt lat="50.256879637017846" lon="5.591210620477796">
        <ele>335.69</ele>
        <time>2021-07-27T21:54:27.218Z</time>
      </trkpt>
      <trkpt lat="50.25705875828862" lon="5.590852377936244">
        <ele>335.39</ele>
        <time>2021-07-27T21:54:43.507Z</time>
      </trkpt>
      <trkpt lat="50.25723695755005" lon="5.590496063232422">
        <ele>335.04</ele>
        <time>2021-07-27T21:54:59.800Z</time>
      </trkpt>
      <trkpt lat="50.25733368471265" lon="5.590173443779349">
        <ele>334.71</ele>
        <time>2021-07-27T21:55:16.097Z</time>
      </trkpt>
      <trkpt lat="50.25743007659912" lon="5.589852333068848">
        <ele>334.33</ele>
        <time>2021-07-27T21:55:32.398Z</time>
      </trkpt>
      <trkpt lat="50.2575053460896" lon="5.589497359469533">
        <ele>333.99</ele>
        <time>2021-07-27T21:55:48.703Z</time>
      </trkpt>
      <trkpt lat="50.257580280303955" lon="5.589144229888916">
        <ele>333.62</ele>
        <time>2021-07-27T21:56:05.011Z</time>
      </trkpt>
      <trkpt lat="50.25758036412299" lon="5.589144229888916">
        <ele>333.33</ele>
        <time>2021-07-27T21:56:21.319Z</time>
      </trkpt>
      <trkpt lat="50.257644820958376" lon="5.588756902143359">
        <ele>332.98</ele>
        <time>2021-07-27T21:56:37.632Z</time>
      </trkpt>
      <trkpt lat="50.2577093616128" lon="5.588369658216834">
        <ele>332.63</ele>
        <time>2021-07-27T21:56:53.949Z</time>
      </trkpt>
      <trkpt lat="50.25777390226722" lon="5.587982414290309">
        <ele>332.35</ele>
        <time>2021-07-27T21:57:10.270Z</time>
      </trkpt>
      <trkpt lat="50.257837772369385" lon="5.587599277496338">
        <ele>332.07</ele>
        <time>2021-07-27T21:57:26.595Z</time>
      </trkpt>
      <trkpt lat="50.25788504630327" lon="5.587151683866978">
        <ele>331.8</ele>
        <time>2021-07-27T21:57:42.924Z</time>
      </trkpt>
      <trkpt lat="50.25793240405619" lon="5.586704174056649">
        <ele>331.57</ele>
        <time>2021-07-27T21:57:59.258Z</time>
      </trkpt>
      <trkpt lat="50.25797976180911" lon="5.586256580427289">
        <ele>331.34</ele>
        <time>2021-07-27T21:58:15.597Z</time>
      </trkpt>
      <trkpt lat="50.25802711956203" lon="5.5858090706169605">
        <ele>331.15</ele>
        <time>2021-07-27T21:58:31.940Z</time>
      </trkpt>
      <trkpt lat="50.258073806762695" lon="5.585367679595947">
        <ele>331.07</ele>
        <time>2021-07-27T21:58:48.288Z</time>
      </trkpt>
      <trkpt lat="50.25818847119808" lon="5.584930311888456">
        <ele>330.78</ele>
        <time>2021-07-27T21:59:04.641Z</time>
      </trkpt>
      <trkpt lat="50.2583032194525" lon="5.584492944180965">
        <ele>330.52</ele>
        <time>2021-07-27T21:59:20.999Z</time>
      </trkpt>
      <trkpt lat="50.2584171295166" lon="5.58405876159668">
        <ele>330.38</ele>
        <time>2021-07-27T21:59:37.362Z</time>
      </trkpt>
      <trkpt lat="50.25852106511593" lon="5.583678726106882">
        <ele>330.09</ele>
        <time>2021-07-27T21:59:53.729Z</time>
      </trkpt>
      <trkpt lat="50.258625000715256" lon="5.583298774436116">
        <ele>329.98</ele>
        <time>2021-07-27T22:00:10.100Z</time>
      </trkpt>
      <trkpt lat="50.25872893631458" lon="5.582918738946319">
        <ele>329.89</ele>
        <time>2021-07-27T22:00:26.475Z</time>
      </trkpt>
      <trkpt lat="50.25883295573294" lon="5.582538787275553">
        <ele>329.85</ele>
        <time>2021-07-27T22:00:42.855Z</time>
      </trkpt>
      <trkpt lat="50.25893689133227" lon="5.582158751785755">
        <ele>329.89</ele>
        <time>2021-07-27T22:00:59.239Z</time>
      </trkpt>
      <trkpt lat="50.25903940200806" lon="5.581784248352051">
        <ele>329.83</ele>
        <time>2021-07-27T22:01:15.627Z</time>
      </trkpt>
      <trkpt lat="50.25918960571289" lon="5.581419467926025">
        <ele>329.69</ele>
        <time>2021-07-27T22:01:32.019Z</time>
      </trkpt>
      <trkpt lat="50.25932924821973" lon="5.581140015274286">
        <ele>329.5</ele>
        <time>2021-07-27T22:01:48.415Z</time>
      </trkpt>
      <trkpt lat="50.25946855545044" lon="5.580861568450928">
        <ele>329.24</ele>
        <time>2021-07-27T22:02:04.815Z</time>
      </trkpt>
      <trkpt lat="50.25965471751988" lon="5.580571470782161">
        <ele>328.88</ele>
        <time>2021-07-27T22:02:21.219Z</time>
      </trkpt>
      <trkpt lat="50.25984096340835" lon="5.580281373113394">
        <ele>328.45</ele>
        <time>2021-07-27T22:02:37.627Z</time>
      </trkpt>
      <trkpt lat="50.26002720929682" lon="5.579991275444627">
        <ele>328.08</ele>
        <time>2021-07-27T22:02:54.039Z</time>
      </trkpt>
      <trkpt lat="50.260213455185294" lon="5.57970117777586">
        <ele>327.83</ele>
        <time>2021-07-27T22:03:10.456Z</time>
      </trkpt>
      <trkpt lat="50.260399701073766" lon="5.579411080107093">
        <ele>327.52</ele>
        <time>2021-07-27T22:03:26.877Z</time>
      </trkpt>
      <trkpt lat="50.260584354400635" lon="5.579123497009277">
        <ele>327.08</ele>
        <time>2021-07-27T22:03:43.302Z</time>
      </trkpt>
      <trkpt lat="50.26071326807141" lon="5.578829627484083">
        <ele>326.68</ele>
        <time>2021-07-27T22:03:59.731Z</time>
      </trkpt>
      <trkpt lat="50.26084226556122" lon="5.578535841777921">
        <ele>326.26</ele>
        <time>2021-07-27T22:04:16.163Z</time>
      </trkpt>
      <trkpt lat="50.26097059249878" lon="5.578243732452393">
        <ele>325.84</ele>
        <time>2021-07-27T22:04:32.599Z</time>
      </trkpt>
      <trkpt lat="50.26118516921997" lon="5.577986240386963">
        <ele>320.41</ele>
        <time>2021-07-27T22:04:49.039Z</time>
      </trkpt>
      <trkpt lat="50.26143201626837" lon="5.577857410535216">
        <ele>325.15</ele>
        <time>2021-07-27T22:05:05.483Z</time>
      </trkpt>
      <trkpt lat="50.26167869567871" lon="5.577728748321533">
        <ele>324.78</ele>
        <time>2021-07-27T22:05:21.932Z</time>
      </trkpt>
      <trkpt lat="50.261850357055664" lon="5.577514171600342">
        <ele>324.38</ele>
        <time>2021-07-27T22:05:38.384Z</time>
      </trkpt>
      <trkpt lat="50.26200617663562" lon="5.57713245972991">
        <ele>324.02</ele>
        <time>2021-07-27T22:05:54.841Z</time>
      </trkpt>
      <trkpt lat="50.262162080034614" lon="5.57675083167851">
        <ele>323.74</ele>
        <time>2021-07-27T22:06:11.302Z</time>
      </trkpt>
      <trkpt lat="50.262317983433604" lon="5.5763692036271095">
        <ele>323.3</ele>
        <time>2021-07-27T22:06:27.768Z</time>
      </trkpt>
      <trkpt lat="50.26247262954712" lon="5.575990676879883">
        <ele>322.81</ele>
        <time>2021-07-27T22:06:44.239Z</time>
      </trkpt>
      <trkpt lat="50.262586791068316" lon="5.5755422450602055">
        <ele>322.25</ele>
        <time>2021-07-27T22:07:00.715Z</time>
      </trkpt>
      <trkpt lat="50.26270095258951" lon="5.57509389705956">
        <ele>321.71</ele>
        <time>2021-07-27T22:07:17.196Z</time>
      </trkpt>
      <trkpt lat="50.26281511411071" lon="5.5746454652398825">
        <ele>321.12</ele>
        <time>2021-07-27T22:07:33.681Z</time>
      </trkpt>
      <trkpt lat="50.262929359450936" lon="5.574197117239237">
        <ele>320.54</ele>
        <time>2021-07-27T22:07:50.171Z</time>
      </trkpt>
      <trkpt lat="50.26304352097213" lon="5.5737486854195595">
        <ele>319.91</ele>
        <time>2021-07-27T22:08:06.666Z</time>
      </trkpt>
      <trkpt lat="50.26315768249333" lon="5.573300337418914">
        <ele>319.26</ele>
        <time>2021-07-27T22:08:23.166Z</time>
      </trkpt>
      <trkpt lat="50.263271844014525" lon="5.5728519055992365">
        <ele>318.56</ele>
        <time>2021-07-27T22:08:39.671Z</time>
      </trkpt>
      <trkpt lat="50.26338608935475" lon="5.572403557598591">
        <ele>317.84</ele>
        <time>2021-07-27T22:08:56.181Z</time>
      </trkpt>
      <trkpt lat="50.26350025087595" lon="5.5719551257789135">
        <ele>317.07</ele>
        <time>2021-07-27T22:09:12.696Z</time>
      </trkpt>
      <trkpt lat="50.263614412397146" lon="5.571506693959236">
        <ele>316.3</ele>
        <time>2021-07-27T22:09:29.216Z</time>
      </trkpt>
      <trkpt lat="50.263728657737374" lon="5.5710583459585905">
        <ele>315.48</ele>
        <time>2021-07-27T22:09:45.741Z</time>
      </trkpt>
      <trkpt lat="50.26384281925857" lon="5.570609914138913">
        <ele>314.57</ele>
        <time>2021-07-27T22:10:02.271Z</time>
      </trkpt>
      <trkpt lat="50.26395329274237" lon="5.570175647735596">
        <ele>313.61</ele>
        <time>2021-07-27T22:10:18.806Z</time>
      </trkpt>
      <trkpt lat="50.264060497283936" lon="5.569767951965332">
        <ele>310.73</ele>
        <time>2021-07-27T22:10:35.345Z</time>
      </trkpt>
      <trkpt lat="50.26406058110297" lon="5.569767951965332">
        <ele>311.87</ele>
        <time>2021-07-27T22:10:51.884Z</time>
      </trkpt>
      <trkpt lat="50.2641537040472" lon="5.569402249529958">
        <ele>310.97</ele>
        <time>2021-07-27T22:11:08.427Z</time>
      </trkpt>
      <trkpt lat="50.26424691081047" lon="5.5690365470945835">
        <ele>310.05</ele>
        <time>2021-07-27T22:11:24.974Z</time>
      </trkpt>
      <trkpt lat="50.264339447021484" lon="5.568673610687256">
        <ele>309.07</ele>
        <time>2021-07-27T22:11:41.525Z</time>
      </trkpt>
      <trkpt lat="50.264436174184084" lon="5.568383261561394">
        <ele>308.11</ele>
        <time>2021-07-27T22:11:58.080Z</time>
      </trkpt>
      <trkpt lat="50.26453256607056" lon="5.568094253540039">
        <ele>307.12</ele>
        <time>2021-07-27T22:12:14.638Z</time>
      </trkpt>
      <trkpt lat="50.264661479741335" lon="5.56785780005157">
        <ele>306.13</ele>
        <time>2021-07-27T22:12:31.199Z</time>
      </trkpt>
      <trkpt lat="50.264790058135986" lon="5.567622184753418">
        <ele>305.16</ele>
        <time>2021-07-27T22:12:47.764Z</time>
      </trkpt>
      <trkpt lat="50.26495476253331" lon="5.56736427359283">
        <ele>304.22</ele>
        <time>2021-07-27T22:13:04.332Z</time>
      </trkpt>
      <trkpt lat="50.26511955074966" lon="5.567106446251273">
        <ele>303.28</ele>
        <time>2021-07-27T22:13:20.904Z</time>
      </trkpt>
      <trkpt lat="50.26528358459473" lon="5.566849708557129">
        <ele>302.29</ele>
        <time>2021-07-27T22:13:37.480Z</time>
      </trkpt>
      <trkpt lat="50.26535885408521" lon="5.566613087430596">
        <ele>301.39</ele>
        <time>2021-07-27T22:13:54.058Z</time>
      </trkpt>
      <trkpt lat="50.26543378829956" lon="5.566377639770508">
        <ele>300.55</ele>
        <time>2021-07-27T22:14:10.639Z</time>
      </trkpt>
      <trkpt lat="50.26545532979071" lon="5.566227436065674">
        <ele>299.77</ele>
        <time>2021-07-27T22:14:27.222Z</time>
      </trkpt>
      <trkpt lat="50.26554132811725" lon="5.565818650647998">
        <ele>298.96</ele>
        <time>2021-07-27T22:14:43.809Z</time>
      </trkpt>
      <trkpt lat="50.26562741026282" lon="5.565409949049354">
        <ele>298.23</ele>
        <time>2021-07-27T22:15:00.401Z</time>
      </trkpt>
      <trkpt lat="50.26571282185614" lon="5.565004348754883">
        <ele>297.54</ele>
        <time>2021-07-27T22:15:16.997Z</time>
      </trkpt>
      <trkpt lat="50.26577727869153" lon="5.5646528955549">
        <ele>296.91</ele>
        <time>2021-07-27T22:15:33.597Z</time>
      </trkpt>
      <trkpt lat="50.26584181934595" lon="5.564301526173949">
        <ele>296.32</ele>
        <time>2021-07-27T22:15:50.200Z</time>
      </trkpt>
      <trkpt lat="50.26590585708618" lon="5.563952922821045">
        <ele>295.84</ele>
        <time>2021-07-27T22:16:06.807Z</time>
      </trkpt>
      <trkpt lat="50.265940222889185" lon="5.563544053584337">
        <ele>295.45</ele>
        <time>2021-07-27T22:16:23.418Z</time>
      </trkpt>
      <trkpt lat="50.26597467251122" lon="5.563135268166661">
        <ele>295.05</ele>
        <time>2021-07-27T22:16:40.034Z</time>
      </trkpt>
      <trkpt lat="50.266009122133255" lon="5.562726398929954">
        <ele>294.7</ele>
        <time>2021-07-27T22:16:56.654Z</time>
      </trkpt>
      <trkpt lat="50.26604357175529" lon="5.562317613512278">
        <ele>294.49</ele>
        <time>2021-07-27T22:17:13.278Z</time>
      </trkpt>
      <trkpt lat="50.266077518463135" lon="5.561914443969727">
        <ele>294.38</ele>
        <time>2021-07-27T22:17:29.906Z</time>
      </trkpt>
      <trkpt lat="50.26614189147949" lon="5.561742782592773">
        <ele>294.2</ele>
        <time>2021-07-27T22:17:46.536Z</time>
      </trkpt>
      <trkpt lat="50.26622772216797" lon="5.561656951904297">
        <ele>294.05</ele>
        <time>2021-07-27T22:18:03.168Z</time>
      </trkpt>
      <trkpt lat="50.266292095184326" lon="5.561614036560059">
        <ele>293.97</ele>
        <time>2021-07-27T22:18:19.801Z</time>
      </trkpt>
      <trkpt lat="50.266571044921875" lon="5.56157112121582">
        <ele>293.9</ele>
        <time>2021-07-27T22:18:36.439Z</time>
      </trkpt>
      <trkpt lat="50.26672124862671" lon="5.561485290527344">
        <ele>293.91</ele>
        <time>2021-07-27T22:18:53.079Z</time>
      </trkpt>
      <trkpt lat="50.26689291000366" lon="5.561206340789795">
        <ele>293.95</ele>
        <time>2021-07-27T22:19:09.723Z</time>
      </trkpt>
      <trkpt lat="50.26701117865741" lon="5.56080836802721">
        <ele>294.1</ele>
        <time>2021-07-27T22:19:26.372Z</time>
      </trkpt>
      <trkpt lat="50.267129028216004" lon="5.560412406921387">
        <ele>294.25</ele>
        <time>2021-07-27T22:19:43.025Z</time>
      </trkpt>
      <trkpt lat="50.267247296869755" lon="5.560079058632255">
        <ele>294.43</ele>
        <time>2021-07-27T22:19:59.682Z</time>
      </trkpt>
      <trkpt lat="50.267365062609315" lon="5.559747219085693">
        <ele>294.67</ele>
        <time>2021-07-27T22:20:16.343Z</time>
      </trkpt>
      <trkpt lat="50.26754770427942" lon="5.559392496943474">
        <ele>294.88</ele>
        <time>2021-07-27T22:20:33.009Z</time>
      </trkpt>
      <trkpt lat="50.26772984303534" lon="5.559039115905762">
        <ele>295.18</ele>
        <time>2021-07-27T22:20:49.679Z</time>
      </trkpt>
      <trkpt lat="50.26777275837958" lon="5.558974742889404">
        <ele>295.43</ele>
        <time>2021-07-27T22:21:06.350Z</time>
      </trkpt>
      <trkpt lat="50.26790142059326" lon="5.558738708496094">
        <ele>295.79</ele>
        <time>2021-07-27T22:21:23.024Z</time>
      </trkpt>
      <trkpt lat="50.26810761541128" lon="5.558433523401618">
        <ele>296.08</ele>
        <time>2021-07-27T22:21:39.703Z</time>
      </trkpt>
      <trkpt lat="50.26831389404833" lon="5.558128422126174">
        <ele>296.35</ele>
        <time>2021-07-27T22:21:56.386Z</time>
      </trkpt>
      <trkpt lat="50.268520172685385" lon="5.55782332085073">
        <ele>296.52</ele>
        <time>2021-07-27T22:22:13.074Z</time>
      </trkpt>
      <trkpt lat="50.268726451322436" lon="5.557518219575286">
        <ele>296.67</ele>
        <time>2021-07-27T22:22:29.767Z</time>
      </trkpt>
      <trkpt lat="50.26893138885498" lon="5.557215213775635">
        <ele>296.78</ele>
        <time>2021-07-27T22:22:46.464Z</time>
      </trkpt>
      <trkpt lat="50.26908184401691" lon="5.556838866323233">
        <ele>296.96</ele>
        <time>2021-07-27T22:23:03.166Z</time>
      </trkpt>
      <trkpt lat="50.26923179626465" lon="5.556464195251465">
        <ele>297.17</ele>
        <time>2021-07-27T22:23:19.872Z</time>
      </trkpt>
      <trkpt lat="50.269414354115725" lon="5.556206284090877">
        <ele>297.26</ele>
        <time>2021-07-27T22:23:36.582Z</time>
      </trkpt>
      <trkpt lat="50.269596576690674" lon="5.5559492111206055">
        <ele>297.33</ele>
        <time>2021-07-27T22:23:53.296Z</time>
      </trkpt>
      <trkpt lat="50.269739823415875" lon="5.5557056330144405">
        <ele>297.45</ele>
        <time>2021-07-27T22:24:10.013Z</time>
      </trkpt>
      <trkpt lat="50.26988307014108" lon="5.555462054908276">
        <ele>297.49</ele>
        <time>2021-07-27T22:24:26.734Z</time>
      </trkpt>
      <trkpt lat="50.27002573013306" lon="5.555219650268555">
        <ele>297.55</ele>
        <time>2021-07-27T22:24:43.458Z</time>
      </trkpt>
      <trkpt lat="50.27025120332837" lon="5.554972635582089">
        <ele>297.62</ele>
        <time>2021-07-27T22:25:00.187Z</time>
      </trkpt>
      <trkpt lat="50.27047634124756" lon="5.5547261238098145">
        <ele>297.66</ele>
        <time>2021-07-27T22:25:16.920Z</time>
      </trkpt>
      <trkpt lat="50.27070407755673" lon="5.554412389174104">
        <ele>297.55</ele>
        <time>2021-07-27T22:25:33.658Z</time>
      </trkpt>
      <trkpt lat="50.2709318138659" lon="5.554098738357425">
        <ele>297.49</ele>
        <time>2021-07-27T22:25:50.401Z</time>
      </trkpt>
      <trkpt lat="50.27115955017507" lon="5.553785087540746">
        <ele>297.3</ele>
        <time>2021-07-27T22:26:07.149Z</time>
      </trkpt>
      <trkpt lat="50.27138728648424" lon="5.553471352905035">
        <ele>296.97</ele>
        <time>2021-07-27T22:26:23.901Z</time>
      </trkpt>
      <trkpt lat="50.27161359786987" lon="5.553159713745117">
        <ele>296.55</ele>
        <time>2021-07-27T22:26:40.658Z</time>
      </trkpt>
      <trkpt lat="50.27172105386853" lon="5.552976988255978">
        <ele>296.31</ele>
        <time>2021-07-27T22:26:57.418Z</time>
      </trkpt>
      <trkpt lat="50.271828174591064" lon="5.552794933319092">
        <ele>295.97</ele>
        <time>2021-07-27T22:27:14.180Z</time>
      </trkpt>
      <trkpt lat="50.27183781377971" lon="5.552776660770178">
        <ele>295.64</ele>
        <time>2021-07-27T22:27:30.943Z</time>
      </trkpt>
      <trkpt lat="50.27183781377971" lon="5.552776576951146">
        <ele>295.28</ele>
        <time>2021-07-27T22:27:47.706Z</time>
      </trkpt>
      <trkpt lat="50.27200193144381" lon="5.552464099600911">
        <ele>294.94</ele>
        <time>2021-07-27T22:28:04.473Z</time>
      </trkpt>
      <trkpt lat="50.27216613292694" lon="5.552151622250676">
        <ele>294.45</ele>
        <time>2021-07-27T22:28:21.244Z</time>
      </trkpt>
      <trkpt lat="50.27233033441007" lon="5.551839228719473">
        <ele>294.01</ele>
        <time>2021-07-27T22:28:38.019Z</time>
      </trkpt>
      <trkpt lat="50.27249344624579" lon="5.5515289306640625">
        <ele>293.45</ele>
        <time>2021-07-27T22:28:54.798Z</time>
      </trkpt>
      <trkpt lat="50.27262210845947" lon="5.55133581161499">
        <ele>292.9</ele>
        <time>2021-07-27T22:29:11.580Z</time>
      </trkpt>
      <trkpt lat="50.27278320863843" lon="5.551142441108823">
        <ele>292.42</ele>
        <time>2021-07-27T22:29:28.365Z</time>
      </trkpt>
      <trkpt lat="50.27294397354126" lon="5.550949573516846">
        <ele>291.94</ele>
        <time>2021-07-27T22:29:45.154Z</time>
      </trkpt>
      <trkpt lat="50.27314438484609" lon="5.55075628682971">
        <ele>291.42</ele>
        <time>2021-07-27T22:30:01.946Z</time>
      </trkpt>
      <trkpt lat="50.27334479615092" lon="5.550563000142574">
        <ele>290.9</ele>
        <time>2021-07-27T22:30:18.742Z</time>
      </trkpt>
      <trkpt lat="50.273544788360596" lon="5.550370216369629">
        <ele>290.48</ele>
        <time>2021-07-27T22:30:35.542Z</time>
      </trkpt>
      <trkpt lat="50.273781074211" lon="5.550047932192683">
        <ele>290.23</ele>
        <time>2021-07-27T22:30:52.347Z</time>
      </trkpt>
      <trkpt lat="50.27401685714722" lon="5.549726486206055">
        <ele>289.96</ele>
        <time>2021-07-27T22:31:09.157Z</time>
      </trkpt>
      <trkpt lat="50.27423160150647" lon="5.549522470682859">
        <ele>289.56</ele>
        <time>2021-07-27T22:31:25.971Z</time>
      </trkpt>
      <trkpt lat="50.2744460105896" lon="5.549318790435791">
        <ele>289.11</ele>
        <time>2021-07-27T22:31:42.789Z</time>
      </trkpt>
      <trkpt lat="50.274682296440005" lon="5.5490179639309645">
        <ele>288.64</ele>
        <time>2021-07-27T22:31:59.612Z</time>
      </trkpt>
      <trkpt lat="50.27491807937622" lon="5.548717975616455">
        <ele>288.18</ele>
        <time>2021-07-27T22:32:16.440Z</time>
      </trkpt>
      <trkpt lat="50.275132823735476" lon="5.54851932451129">
        <ele>287.66</ele>
        <time>2021-07-27T22:32:33.272Z</time>
      </trkpt>
      <trkpt lat="50.27534756809473" lon="5.548320673406124">
        <ele>287.18</ele>
        <time>2021-07-27T22:32:50.108Z</time>
      </trkpt>
      <trkpt lat="50.275562312453985" lon="5.548122022300959">
        <ele>286.72</ele>
        <time>2021-07-27T22:33:06.948Z</time>
      </trkpt>
      <trkpt lat="50.275776386260986" lon="5.547924041748047">
        <ele>286.19</ele>
        <time>2021-07-27T22:33:23.792Z</time>
      </trkpt>
      <trkpt lat="50.27577647008002" lon="5.547924041748047">
        <ele>285.75</ele>
        <time>2021-07-27T22:33:40.636Z</time>
      </trkpt>
      <trkpt lat="50.275962548330426" lon="5.547716338187456">
        <ele>285.29</ele>
        <time>2021-07-27T22:33:57.483Z</time>
      </trkpt>
      <trkpt lat="50.276148710399866" lon="5.547508718445897">
        <ele>284.85</ele>
        <time>2021-07-27T22:34:14.334Z</time>
      </trkpt>
      <trkpt lat="50.276334285736084" lon="5.547301769256592">
        <ele>284.48</ele>
        <time>2021-07-27T22:34:31.189Z</time>
      </trkpt>
      <trkpt lat="50.276570320129395" lon="5.5471086502075195">
        <ele>284.1</ele>
        <time>2021-07-27T22:34:48.048Z</time>
      </trkpt>
      <trkpt lat="50.276806354522705" lon="5.54704419337213">
        <ele>283.65</ele>
        <time>2021-07-27T22:35:04.911Z</time>
      </trkpt>
      <trkpt lat="50.277042388916016" lon="5.546979904174805">
        <ele>283.24</ele>
        <time>2021-07-27T22:35:21.778Z</time>
      </trkpt>
      <trkpt lat="50.277305245399475" lon="5.546856438741088">
        <ele>282.88</ele>
        <time>2021-07-27T22:35:38.649Z</time>
      </trkpt>
      <trkpt lat="50.277568185701966" lon="5.546733057126403">
        <ele>282.44</ele>
        <time>2021-07-27T22:35:55.524Z</time>
      </trkpt>
      <trkpt lat="50.27783112600446" lon="5.546609591692686">
        <ele>282.02</ele>
        <time>2021-07-27T22:36:12.404Z</time>
      </trkpt>
      <trkpt lat="50.27809381484985" lon="5.5464863777160645">
        <ele>281.6</ele>
        <time>2021-07-27T22:36:29.288Z</time>
      </trkpt>
      <trkpt lat="50.278365556150675" lon="5.546464836224914">
        <ele>281.17</ele>
        <time>2021-07-27T22:36:46.177Z</time>
      </trkpt>
      <trkpt lat="50.27863738127053" lon="5.5464433785527945">
        <ele>280.8</ele>
        <time>2021-07-27T22:37:03.070Z</time>
      </trkpt>
      <trkpt lat="50.27890920639038" lon="5.546422004699707">
        <ele>280.46</ele>
        <time>2021-07-27T22:37:19.967Z</time>
      </trkpt>
      <trkpt lat="50.27913451194763" lon="5.546454191207886">
        <ele>280.23</ele>
        <time>2021-07-27T22:37:36.868Z</time>
      </trkpt>
      <trkpt lat="50.27935981750488" lon="5.5464863777160645">
        <ele>280.04</ele>
        <time>2021-07-27T22:37:53.773Z</time>
      </trkpt>
      <trkpt lat="50.27959585189819" lon="5.546400547027588">
        <ele>279.87</ele>
        <time>2021-07-27T22:38:10.681Z</time>
      </trkpt>
      <trkpt lat="50.27989625930786" lon="5.546271800994873">
        <ele>279.77</ele>
        <time>2021-07-27T22:38:27.594Z</time>
      </trkpt>
      <trkpt lat="50.280145201832056" lon="5.546160154044628">
        <ele>279.76</ele>
        <time>2021-07-27T22:38:44.512Z</time>
      </trkpt>
      <trkpt lat="50.28039414435625" lon="5.546048507094383">
        <ele>279.75</ele>
        <time>2021-07-27T22:39:01.434Z</time>
      </trkpt>
      <trkpt lat="50.28064317069948" lon="5.54593694396317">
        <ele>279.73</ele>
        <time>2021-07-27T22:39:18.360Z</time>
      </trkpt>
      <trkpt lat="50.28089211322367" lon="5.545825297012925">
        <ele>279.66</ele>
        <time>2021-07-27T22:39:35.290Z</time>
      </trkpt>
      <trkpt lat="50.28114080429077" lon="5.545713901519775">
        <ele>279.57</ele>
        <time>2021-07-27T22:39:52.224Z</time>
      </trkpt>
      <trkpt lat="50.2811408881098" lon="5.545713901519775">
        <ele>279.48</ele>
        <time>2021-07-27T22:40:09.158Z</time>
      </trkpt>
      <trkpt lat="50.281333923339844" lon="5.545670986175537">
        <ele>279.36</ele>
        <time>2021-07-27T22:40:26.095Z</time>
      </trkpt>
      <trkpt lat="50.2815055847168" lon="5.545778274536133">
        <ele>279.22</ele>
        <time>2021-07-27T22:40:43.035Z</time>
      </trkpt>
      <trkpt lat="50.28167724609375" lon="5.5458855628967285">
        <ele>279.11</ele>
        <time>2021-07-27T22:40:59.978Z</time>
      </trkpt>
      <trkpt lat="50.28193473815918" lon="5.5459606647491455">
        <ele>279.01</ele>
        <time>2021-07-27T22:41:16.925Z</time>
      </trkpt>
      <trkpt lat="50.28219223022461" lon="5.5460357666015625">
        <ele>278.93</ele>
        <time>2021-07-27T22:41:33.877Z</time>
      </trkpt>
      <trkpt lat="50.28250546194613" lon="5.546035682782531">
        <ele>278.9</ele>
        <time>2021-07-27T22:41:50.834Z</time>
      </trkpt>
      <trkpt lat="50.28281877748668" lon="5.546035682782531">
        <ele>278.96</ele>
        <time>2021-07-27T22:42:07.796Z</time>
      </trkpt>
      <trkpt lat="50.283132093027234" lon="5.546035682782531">
        <ele>279.08</ele>
        <time>2021-07-27T22:42:24.763Z</time>
      </trkpt>
      <trkpt lat="50.283445408567786" lon="5.546035682782531">
        <ele>279.21</ele>
        <time>2021-07-27T22:42:41.735Z</time>
      </trkpt>
      <trkpt lat="50.28375864028931" lon="5.5460357666015625">
        <ele>279.28</ele>
        <time>2021-07-27T22:42:58.712Z</time>
      </trkpt>
      <trkpt lat="50.284016132354736" lon="5.5460443161427975">
        <ele>279.39</ele>
        <time>2021-07-27T22:43:15.693Z</time>
      </trkpt>
      <trkpt lat="50.284273624420166" lon="5.546052865684032">
        <ele>279.59</ele>
        <time>2021-07-27T22:43:32.678Z</time>
      </trkpt>
      <trkpt lat="50.284531116485596" lon="5.546061499044299">
        <ele>279.74</ele>
        <time>2021-07-27T22:43:49.667Z</time>
      </trkpt>
      <trkpt lat="50.284788608551025" lon="5.546070048585534">
        <ele>279.81</ele>
        <time>2021-07-27T22:44:06.660Z</time>
      </trkpt>
      <trkpt lat="50.285046100616455" lon="5.546078681945801">
        <ele>279.82</ele>
        <time>2021-07-27T22:44:23.657Z</time>
      </trkpt>
      <trkpt lat="50.285276770591736" lon="5.546191334724426">
        <ele>279.66</ele>
        <time>2021-07-27T22:44:40.658Z</time>
      </trkpt>
      <trkpt lat="50.28550752438605" lon="5.546303987503052">
        <ele>279.36</ele>
        <time>2021-07-27T22:44:57.663Z</time>
      </trkpt>
      <trkpt lat="50.28573827818036" lon="5.546416724100709">
        <ele>279.06</ele>
        <time>2021-07-27T22:45:14.672Z</time>
      </trkpt>
      <trkpt lat="50.28596878051758" lon="5.546529293060303">
        <ele>278.72</ele>
        <time>2021-07-27T22:45:31.685Z</time>
      </trkpt>
      <trkpt lat="50.28627773746848" lon="5.546606490388513">
        <ele>278.31</ele>
        <time>2021-07-27T22:45:48.703Z</time>
      </trkpt>
      <trkpt lat="50.286586778238416" lon="5.546683771535754">
        <ele>277.55</ele>
        <time>2021-07-27T22:46:05.726Z</time>
      </trkpt>
      <trkpt lat="50.28689581900835" lon="5.546761052682996">
        <ele>276.78</ele>
        <time>2021-07-27T22:46:22.754Z</time>
      </trkpt>
      <trkpt lat="50.287204859778285" lon="5.546838250011206">
        <ele>276.04</ele>
        <time>2021-07-27T22:46:39.787Z</time>
      </trkpt>
      <trkpt lat="50.287513732910156" lon="5.546915531158447">
        <ele>275.19</ele>
        <time>2021-07-27T22:46:56.825Z</time>
      </trkpt>
      <trkpt lat="50.28768145479262" lon="5.546951489523053">
        <ele>274.34</ele>
        <time>2021-07-27T22:47:13.866Z</time>
      </trkpt>
      <trkpt lat="50.28784917667508" lon="5.546987447887659">
        <ele>273.58</ele>
        <time>2021-07-27T22:47:30.909Z</time>
      </trkpt>
      <trkpt lat="50.28813793323934" lon="5.547049306333065">
        <ele>272.85</ele>
        <time>2021-07-27T22:47:47.957Z</time>
      </trkpt>
      <trkpt lat="50.2884266898036" lon="5.547111164778471">
        <ele>272.35</ele>
        <time>2021-07-27T22:48:05.010Z</time>
      </trkpt>
      <trkpt lat="50.28871536254883" lon="5.547173023223877">
        <ele>271.87</ele>
        <time>2021-07-27T22:48:22.067Z</time>
      </trkpt>
      <trkpt lat="50.28886556625366" lon="5.5472588539123535">
        <ele>271.39</ele>
        <time>2021-07-27T22:48:39.127Z</time>
      </trkpt>
      <trkpt lat="50.28897293843329" lon="5.547387599945068">
        <ele>270.96</ele>
        <time>2021-07-27T22:48:56.189Z</time>
      </trkpt>
      <trkpt lat="50.289015769958496" lon="5.547537803649902">
        <ele>270.26</ele>
        <time>2021-07-27T22:49:13.253Z</time>
      </trkpt>
      <trkpt lat="50.289037227630615" lon="5.547688007354736">
        <ele>270.47</ele>
        <time>2021-07-27T22:49:30.318Z</time>
      </trkpt>
      <trkpt lat="50.289058685302734" lon="5.547988414764404">
        <ele>270.44</ele>
        <time>2021-07-27T22:49:47.386Z</time>
      </trkpt>
      <trkpt lat="50.28901585377753" lon="5.548224449157715">
        <ele>270.56</ele>
        <time>2021-07-27T22:50:04.457Z</time>
      </trkpt>
      <trkpt lat="50.28895139694214" lon="5.548503398895264">
        <ele>270.84</ele>
        <time>2021-07-27T22:50:21.531Z</time>
      </trkpt>
      <trkpt lat="50.288893980905414" lon="5.548847559839487">
        <ele>271.2</ele>
        <time>2021-07-27T22:50:38.609Z</time>
      </trkpt>
      <trkpt lat="50.28883664868772" lon="5.549191804602742">
        <ele>271.69</ele>
        <time>2021-07-27T22:50:55.690Z</time>
      </trkpt>
      <trkpt lat="50.288779735565186" lon="5.549533367156982">
        <ele>272.36</ele>
        <time>2021-07-27T22:51:12.775Z</time>
      </trkpt>
      <trkpt lat="50.288758277893066" lon="5.549683570861816">
        <ele>273.1</ele>
        <time>2021-07-27T22:51:29.861Z</time>
      </trkpt>
      <trkpt lat="50.288822650909424" lon="5.549983978271484">
        <ele>274.02</ele>
        <time>2021-07-27T22:51:46.951Z</time>
      </trkpt>
      <trkpt lat="50.28888702392578" lon="5.550112724304199">
        <ele>274.9</ele>
        <time>2021-07-27T22:52:04.042Z</time>
      </trkpt>
      <trkpt lat="50.289037227630615" lon="5.550241470336914">
        <ele>275.86</ele>
        <time>2021-07-27T22:52:21.136Z</time>
      </trkpt>
      <trkpt lat="50.289305448532104" lon="5.5503058433532715">
        <ele>276.81</ele>
        <time>2021-07-27T22:52:38.234Z</time>
      </trkpt>
      <trkpt lat="50.289573669433594" lon="5.550370216369629">
        <ele>277.83</ele>
        <time>2021-07-27T22:52:55.337Z</time>
      </trkpt>
      <trkpt lat="50.289866952225566" lon="5.550513295456767">
        <ele>278.97</ele>
        <time>2021-07-27T22:53:12.445Z</time>
      </trkpt>
      <trkpt lat="50.29016031883657" lon="5.550656374543905">
        <ele>280.05</ele>
        <time>2021-07-27T22:53:29.558Z</time>
      </trkpt>
      <trkpt lat="50.29045343399048" lon="5.550799369812012">
        <ele>281.19</ele>
        <time>2021-07-27T22:53:46.676Z</time>
      </trkpt>
      <trkpt lat="50.29061436653137" lon="5.55085301399231">
        <ele>282.35</ele>
        <time>2021-07-27T22:54:03.796Z</time>
      </trkpt>
      <trkpt lat="50.290775299072266" lon="5.550906658172607">
        <ele>283.55</ele>
        <time>2021-07-27T22:54:20.919Z</time>
      </trkpt>
      <trkpt lat="50.29100412502885" lon="5.550935240462422">
        <ele>284.86</ele>
        <time>2021-07-27T22:54:38.046Z</time>
      </trkpt>
      <trkpt lat="50.29123303480446" lon="5.550963822752237">
        <ele>286.13</ele>
        <time>2021-07-27T22:54:55.176Z</time>
      </trkpt>
      <trkpt lat="50.29146194458008" lon="5.550992488861084">
        <ele>287.31</ele>
        <time>2021-07-27T22:55:12.310Z</time>
      </trkpt>
      <trkpt lat="50.29163360595703" lon="5.55109977722168">
        <ele>288.45</ele>
        <time>2021-07-27T22:55:29.447Z</time>
      </trkpt>
      <trkpt lat="50.291762351989746" lon="5.551292896270752">
        <ele>289.65</ele>
        <time>2021-07-27T22:55:46.587Z</time>
      </trkpt>
      <trkpt lat="50.29186964035034" lon="5.5515289306640625">
        <ele>290.89</ele>
        <time>2021-07-27T22:56:03.730Z</time>
      </trkpt>
      <trkpt lat="50.29191255569458" lon="5.5518293380737305">
        <ele>292.16</ele>
        <time>2021-07-27T22:56:20.876Z</time>
      </trkpt>
      <trkpt lat="50.29191255569458" lon="5.552129745483398">
        <ele>293.47</ele>
        <time>2021-07-27T22:56:38.025Z</time>
      </trkpt>
      <trkpt lat="50.29186955653131" lon="5.552430907264352">
        <ele>294.82</ele>
        <time>2021-07-27T22:56:55.177Z</time>
      </trkpt>
      <trkpt lat="50.291826808825135" lon="5.552730560302734">
        <ele>296.25</ele>
        <time>2021-07-27T22:57:12.332Z</time>
      </trkpt>
      <trkpt lat="50.291805351153016" lon="5.5529022216796875">
        <ele>297.62</ele>
        <time>2021-07-27T22:57:29.489Z</time>
      </trkpt>
      <trkpt lat="50.29174072667956" lon="5.553375547751784">
        <ele>299.08</ele>
        <time>2021-07-27T22:57:46.651Z</time>
      </trkpt>
      <trkpt lat="50.29167652130127" lon="5.55384635925293">
        <ele>300.55</ele>
        <time>2021-07-27T22:58:03.818Z</time>
      </trkpt>
      <trkpt lat="50.29165506362915" lon="5.554296970367432">
        <ele>301.96</ele>
        <time>2021-07-27T22:58:20.990Z</time>
      </trkpt>
      <trkpt lat="50.29169797897339" lon="5.554533004760742">
        <ele>303.38</ele>
        <time>2021-07-27T22:58:38.164Z</time>
      </trkpt>
      <trkpt lat="50.291805267333984" lon="5.554854869842529">
        <ele>304.86</ele>
        <time>2021-07-27T22:58:55.342Z</time>
      </trkpt>
      <trkpt lat="50.29195547103882" lon="5.555112361907959">
        <ele>306.41</ele>
        <time>2021-07-27T22:59:12.523Z</time>
      </trkpt>
      <trkpt lat="50.2921272162348" lon="5.555262649431825">
        <ele>307.92</ele>
        <time>2021-07-27T22:59:29.708Z</time>
      </trkpt>
      <trkpt lat="50.292298877611756" lon="5.555412769317627">
        <ele>309.46</ele>
        <time>2021-07-27T22:59:46.896Z</time>
      </trkpt>
      <trkpt lat="50.29256718233228" lon="5.555605972185731">
        <ele>311.04</ele>
        <time>2021-07-27T23:00:04.088Z</time>
      </trkpt>
      <trkpt lat="50.29283557087183" lon="5.555799175053835">
        <ele>312.63</ele>
        <time>2021-07-27T23:00:21.285Z</time>
      </trkpt>
      <trkpt lat="50.29310387559235" lon="5.555992377921939">
        <ele>314.26</ele>
        <time>2021-07-27T23:00:38.487Z</time>
      </trkpt>
      <trkpt lat="50.29337167739868" lon="5.556185245513916">
        <ele>315.87</ele>
        <time>2021-07-27T23:00:55.694Z</time>
      </trkpt>
      <trkpt lat="50.293575609102845" lon="5.55636771954596">
        <ele>317.36</ele>
        <time>2021-07-27T23:01:12.904Z</time>
      </trkpt>
      <trkpt lat="50.293779373168945" lon="5.556550025939941">
        <ele>318.82</ele>
        <time>2021-07-27T23:01:30.118Z</time>
      </trkpt>
      <trkpt lat="50.29395120218396" lon="5.556743312627077">
        <ele>320.33</ele>
        <time>2021-07-27T23:01:47.336Z</time>
      </trkpt>
      <trkpt lat="50.29412277974188" lon="5.556936264038086">
        <ele>321.74</ele>
        <time>2021-07-27T23:02:04.557Z</time>
      </trkpt>
      <trkpt lat="50.2943395357579" lon="5.5572032276540995">
        <ele>323.05</ele>
        <time>2021-07-27T23:02:21.782Z</time>
      </trkpt>
      <trkpt lat="50.2943395357579" lon="5.557203143835068">
        <ele>324.26</ele>
        <time>2021-07-27T23:02:39.007Z</time>
      </trkpt>
      <trkpt lat="50.2944016456604" lon="5.557279586791992">
        <ele>325.5</ele>
        <time>2021-07-27T23:02:56.234Z</time>
      </trkpt>
      <trkpt lat="50.29448747634888" lon="5.557451248168945">
        <ele>326.75</ele>
        <time>2021-07-27T23:03:13.463Z</time>
      </trkpt>
      <trkpt lat="50.294508934020996" lon="5.557708740234375">
        <ele>327.96</ele>
        <time>2021-07-27T23:03:30.695Z</time>
      </trkpt>
      <trkpt lat="50.29442310333252" lon="5.557966232299805">
        <ele>329.15</ele>
        <time>2021-07-27T23:03:47.930Z</time>
      </trkpt>
      <trkpt lat="50.29433727264404" lon="5.558052062988281">
        <ele>330.18</ele>
        <time>2021-07-27T23:04:05.166Z</time>
      </trkpt>
      <trkpt lat="50.29412277974188" lon="5.558116436004639">
        <ele>331.11</ele>
        <time>2021-07-27T23:04:22.406Z</time>
      </trkpt>
      <trkpt lat="50.29391884803772" lon="5.558105623349547">
        <ele>332.01</ele>
        <time>2021-07-27T23:04:39.649Z</time>
      </trkpt>
      <trkpt lat="50.29371508397162" lon="5.5580949783325195">
        <ele>332.83</ele>
        <time>2021-07-27T23:04:56.895Z</time>
      </trkpt>
      <trkpt lat="50.29341459274292" lon="5.558073436841369">
        <ele>333.57</ele>
        <time>2021-07-27T23:05:14.146Z</time>
      </trkpt>
      <trkpt lat="50.29311410151422" lon="5.5580519791692495">
        <ele>334.05</ele>
        <time>2021-07-27T23:05:31.402Z</time>
      </trkpt>
      <trkpt lat="50.292813777923584" lon="5.558030605316162">
        <ele>334.33</ele>
        <time>2021-07-27T23:05:48.663Z</time>
      </trkpt>
      <trkpt lat="50.29257774353027" lon="5.558116436004639">
        <ele>334.51</ele>
        <time>2021-07-27T23:06:05.928Z</time>
      </trkpt>
      <trkpt lat="50.29241664335132" lon="5.558266723528504">
        <ele>334.57</ele>
        <time>2021-07-27T23:06:23.196Z</time>
      </trkpt>
      <trkpt lat="50.292255878448486" lon="5.558416843414307">
        <ele>334.59</ele>
        <time>2021-07-27T23:06:40.467Z</time>
      </trkpt>
      <trkpt lat="50.29210567474365" lon="5.558567047119141">
        <ele>334.65</ele>
        <time>2021-07-27T23:06:57.740Z</time>
      </trkpt>
      <trkpt lat="50.292014395818114" lon="5.55862320587039">
        <ele>334.74</ele>
        <time>2021-07-27T23:07:15.015Z</time>
      </trkpt>
    </trkseg>
  </trk>
</gpx>
